<?xml version='1.0' encoding='UTF-8'?><gpx version="1.1" creator="JPX - https://github.com/jenetics/jpx" xmlns="http://www.topografix.com/GPX/1/1"><trk><trkseg><trkpt lat="43.7843667" lon="12.7185667"><ele>103.0</ele><time>2026-04-18T12:39:20.886Z</time></trkpt><trkpt lat="43.784435" lon="12.7184433"><ele>103.0</ele><time>2026-04-18T12:39:21.888Z</time></trkpt><trkpt lat="43.7844983" lon="12.71832"><ele>103.0</ele><time>2026-04-18T12:39:22.886Z</time></trkpt><trkpt lat="43.78456" lon="12.718205"><ele>103.0</ele><time>2026-04-18T12:39:23.89Z</time></trkpt><trkpt lat="43.7846283" lon="12.7181"><ele>103.0</ele><time>2026-04-18T12:39:24.886Z</time></trkpt><trkpt lat="43.7846933" lon="12.7180017"><ele>103.0</ele><time>2026-04-18T12:39:25.887Z</time></trkpt><trkpt lat="43.784755" lon="12.7179033"><ele>103.0</ele><time>2026-04-18T12:39:26.886Z</time></trkpt><trkpt lat="43.7848217" lon="12.7177983"><ele>103.0</ele><time>2026-04-18T12:39:27.887Z</time></trkpt><trkpt lat="43.7848883" lon="12.717685"><ele>103.0</ele><time>2026-04-18T12:39:28.886Z</time></trkpt><trkpt lat="43.7849583" lon="12.71757"><ele>103.0</ele><time>2026-04-18T12:39:29.886Z</time></trkpt><trkpt lat="43.7850333" lon="12.71746"><ele>103.33333333333334</ele><time>2026-04-18T12:39:30.886Z</time></trkpt><trkpt lat="43.7851083" lon="12.7173667"><ele>103.66666666666667</ele><time>2026-04-18T12:39:31.887Z</time></trkpt><trkpt lat="43.7851817" lon="12.717295"><ele>104.0</ele><time>2026-04-18T12:39:32.886Z</time></trkpt><trkpt lat="43.7852533" lon="12.7172383"><ele>104.33333333333334</ele><time>2026-04-18T12:39:33.886Z</time></trkpt><trkpt lat="43.78532" lon="12.71718"><ele>104.66666666666667</ele><time>2026-04-18T12:39:34.886Z</time></trkpt><trkpt lat="43.7853783" lon="12.717105"><ele>105.0</ele><time>2026-04-18T12:39:35.886Z</time></trkpt><trkpt lat="43.7854333" lon="12.7170117"><ele>105.0</ele><time>2026-04-18T12:39:36.886Z</time></trkpt><trkpt lat="43.785485" lon="12.7169167"><ele>105.0</ele><time>2026-04-18T12:39:37.886Z</time></trkpt><trkpt lat="43.785535" lon="12.71682"><ele>105.0</ele><time>2026-04-18T12:39:38.885Z</time></trkpt><trkpt lat="43.785585" lon="12.716725"><ele>105.0</ele><time>2026-04-18T12:39:39.886Z</time></trkpt><trkpt lat="43.7856317" lon="12.7166283"><ele>105.0</ele><time>2026-04-18T12:39:40.887Z</time></trkpt><trkpt lat="43.785675" lon="12.7165267"><ele>105.0</ele><time>2026-04-18T12:39:41.887Z</time></trkpt><trkpt lat="43.7857167" lon="12.7164283"><ele>105.66666666666667</ele><time>2026-04-18T12:39:42.886Z</time></trkpt><trkpt lat="43.7857567" lon="12.7163317"><ele>106.33333333333334</ele><time>2026-04-18T12:39:43.886Z</time></trkpt><trkpt lat="43.7857967" lon="12.7162383"><ele>107.0</ele><time>2026-04-18T12:39:44.887Z</time></trkpt><trkpt lat="43.7858367" lon="12.7161433"><ele>107.66666666666667</ele><time>2026-04-18T12:39:45.888Z</time></trkpt><trkpt lat="43.78588" lon="12.7160517"><ele>108.33333333333334</ele><time>2026-04-18T12:39:46.887Z</time></trkpt><trkpt lat="43.785915" lon="12.7159633"><ele>109.0</ele><time>2026-04-18T12:39:47.887Z</time></trkpt><trkpt lat="43.78595" lon="12.7158883"><ele>109.0</ele><time>2026-04-18T12:39:48.888Z</time></trkpt><trkpt lat="43.786015" lon="12.7157817"><ele>109.0</ele><time>2026-04-18T12:39:50.886Z</time></trkpt><trkpt lat="43.7859417" lon="12.7158583"><ele>109.0</ele><time>2026-04-18T12:39:57.885Z</time></trkpt><trkpt lat="43.7859" lon="12.715945"><ele>109.0</ele><time>2026-04-18T12:39:58.887Z</time></trkpt><trkpt lat="43.78585" lon="12.716075"><ele>109.0</ele><time>2026-04-18T12:39:59.886Z</time></trkpt><trkpt lat="43.785775" lon="12.7162833"><ele>109.0</ele><time>2026-04-18T12:40:00.887Z</time></trkpt><trkpt lat="43.7857017" lon="12.7164317"><ele>109.0</ele><time>2026-04-18T12:40:01.886Z</time></trkpt><trkpt lat="43.78563" lon="12.7165533"><ele>109.0</ele><time>2026-04-18T12:40:02.887Z</time></trkpt><trkpt lat="43.7855583" lon="12.716675"><ele>109.0</ele><time>2026-04-18T12:40:03.887Z</time></trkpt><trkpt lat="43.78549" lon="12.7167867"><ele>109.0</ele><time>2026-04-18T12:40:04.886Z</time></trkpt><trkpt lat="43.7854233" lon="12.7168767"><ele>109.0</ele><time>2026-04-18T12:40:05.887Z</time></trkpt><trkpt lat="43.785365" lon="12.7169483"><ele>109.0</ele><time>2026-04-18T12:40:06.886Z</time></trkpt><trkpt lat="43.7852983" lon="12.7170583"><ele>109.0</ele><time>2026-04-18T12:40:08.885Z</time></trkpt><trkpt lat="43.785315" lon="12.7171433"><ele>109.0</ele><time>2026-04-18T12:40:10.886Z</time></trkpt><trkpt lat="43.7854383" lon="12.717175"><ele>108.0</ele><time>2026-04-18T12:40:12.892Z</time></trkpt><trkpt lat="43.7855333" lon="12.7171667"><ele>107.0</ele><time>2026-04-18T12:40:13.889Z</time></trkpt><trkpt lat="43.78565" lon="12.7171567"><ele>106.0</ele><time>2026-04-18T12:40:14.89Z</time></trkpt><trkpt lat="43.7857783" lon="12.7171583"><ele>105.0</ele><time>2026-04-18T12:40:15.89Z</time></trkpt><trkpt lat="43.7859217" lon="12.7171583"><ele>105.0</ele><time>2026-04-18T12:40:16.892Z</time></trkpt><trkpt lat="43.7860667" lon="12.7171583"><ele>105.0</ele><time>2026-04-18T12:40:17.886Z</time></trkpt><trkpt lat="43.786215" lon="12.7171583"><ele>105.0</ele><time>2026-04-18T12:40:18.887Z</time></trkpt><trkpt lat="43.786365" lon="12.7171567"><ele>105.0</ele><time>2026-04-18T12:40:19.888Z</time></trkpt><trkpt lat="43.78651" lon="12.7171533"><ele>105.0</ele><time>2026-04-18T12:40:20.888Z</time></trkpt><trkpt lat="43.78665" lon="12.7171467"><ele>105.0</ele><time>2026-04-18T12:40:21.888Z</time></trkpt><trkpt lat="43.7867867" lon="12.7171217"><ele>105.0</ele><time>2026-04-18T12:40:22.888Z</time></trkpt><trkpt lat="43.78692" lon="12.7170683"><ele>105.0</ele><time>2026-04-18T12:40:23.891Z</time></trkpt><trkpt lat="43.7870467" lon="12.7169833"><ele>106.25</ele><time>2026-04-18T12:40:24.89Z</time></trkpt><trkpt lat="43.7871567" lon="12.7168767"><ele>107.5</ele><time>2026-04-18T12:40:25.887Z</time></trkpt><trkpt lat="43.7872483" lon="12.71677"><ele>108.75</ele><time>2026-04-18T12:40:26.887Z</time></trkpt><trkpt lat="43.7873317" lon="12.7166767"><ele>110.0</ele><time>2026-04-18T12:40:27.887Z</time></trkpt><trkpt lat="43.7874133" lon="12.7166067"><ele>109.99999999999999</ele><time>2026-04-18T12:40:28.889Z</time></trkpt><trkpt lat="43.7874917" lon="12.71656"><ele>110.0</ele><time>2026-04-18T12:40:29.892Z</time></trkpt><trkpt lat="43.78756" lon="12.716515"><ele>110.0</ele><time>2026-04-18T12:40:30.888Z</time></trkpt><trkpt lat="43.7876133" lon="12.71646"><ele>110.0</ele><time>2026-04-18T12:40:31.888Z</time></trkpt><trkpt lat="43.7876667" lon="12.7163883"><ele>109.99999999999999</ele><time>2026-04-18T12:40:33.887Z</time></trkpt><trkpt lat="43.78766" lon="12.71626"><ele>110.0</ele><time>2026-04-18T12:40:53.887Z</time></trkpt><trkpt lat="43.787625" lon="12.7161667"><ele>110.6</ele><time>2026-04-18T12:40:54.886Z</time></trkpt><trkpt lat="43.7875667" lon="12.7160667"><ele>111.2</ele><time>2026-04-18T12:40:55.885Z</time></trkpt><trkpt lat="43.7874967" lon="12.715955"><ele>111.80000000000001</ele><time>2026-04-18T12:40:56.887Z</time></trkpt><trkpt lat="43.7874183" lon="12.7158367"><ele>112.4</ele><time>2026-04-18T12:40:57.885Z</time></trkpt><trkpt lat="43.7873367" lon="12.7157083"><ele>113.0</ele><time>2026-04-18T12:40:58.886Z</time></trkpt><trkpt lat="43.78725" lon="12.7155733"><ele>113.0</ele><time>2026-04-18T12:40:59.886Z</time></trkpt><trkpt lat="43.7871633" lon="12.7154367"><ele>113.0</ele><time>2026-04-18T12:41:00.886Z</time></trkpt><trkpt lat="43.7870817" lon="12.7153017"><ele>113.0</ele><time>2026-04-18T12:41:01.885Z</time></trkpt><trkpt lat="43.7870083" lon="12.7151683"><ele>113.0</ele><time>2026-04-18T12:41:02.885Z</time></trkpt><trkpt lat="43.7869367" lon="12.7150333"><ele>112.60000000000001</ele><time>2026-04-18T12:41:03.885Z</time></trkpt><trkpt lat="43.7868617" lon="12.7148967"><ele>112.20000000000002</ele><time>2026-04-18T12:41:04.885Z</time></trkpt><trkpt lat="43.7867967" lon="12.7147683"><ele>111.8</ele><time>2026-04-18T12:41:05.886Z</time></trkpt><trkpt lat="43.78673" lon="12.7146517"><ele>111.4</ele><time>2026-04-18T12:41:06.886Z</time></trkpt><trkpt lat="43.7866717" lon="12.7145483"><ele>111.0</ele><time>2026-04-18T12:41:07.887Z</time></trkpt><trkpt lat="43.7866183" lon="12.7144517"><ele>111.66666666666667</ele><time>2026-04-18T12:41:08.887Z</time></trkpt><trkpt lat="43.7865683" lon="12.71436"><ele>112.33333333333334</ele><time>2026-04-18T12:41:09.886Z</time></trkpt><trkpt lat="43.78652" lon="12.7142767"><ele>113.0</ele><time>2026-04-18T12:41:10.887Z</time></trkpt><trkpt lat="43.7864733" lon="12.714195"><ele>113.66666666666667</ele><time>2026-04-18T12:41:11.889Z</time></trkpt><trkpt lat="43.7864283" lon="12.7141183"><ele>114.33333333333334</ele><time>2026-04-18T12:41:12.887Z</time></trkpt><trkpt lat="43.78636" lon="12.713975"><ele>115.0</ele><time>2026-04-18T12:41:14.888Z</time></trkpt><trkpt lat="43.7863217" lon="12.7138983"><ele>115.00000000000001</ele><time>2026-04-18T12:41:15.888Z</time></trkpt><trkpt lat="43.7862817" lon="12.7138167"><ele>115.0</ele><time>2026-04-18T12:41:16.886Z</time></trkpt><trkpt lat="43.7862317" lon="12.7137283"><ele>115.0</ele><time>2026-04-18T12:41:17.885Z</time></trkpt><trkpt lat="43.7861767" lon="12.7136367"><ele>115.0</ele><time>2026-04-18T12:41:18.888Z</time></trkpt><trkpt lat="43.7861217" lon="12.7135433"><ele>115.00000000000001</ele><time>2026-04-18T12:41:19.887Z</time></trkpt><trkpt lat="43.7860717" lon="12.7134517"><ele>115.0</ele><time>2026-04-18T12:41:20.885Z</time></trkpt><trkpt lat="43.7860233" lon="12.7133617"><ele>115.00000000000001</ele><time>2026-04-18T12:41:21.889Z</time></trkpt><trkpt lat="43.785975" lon="12.7132717"><ele>115.0</ele><time>2026-04-18T12:41:22.885Z</time></trkpt><trkpt lat="43.78593" lon="12.71319"><ele>115.0</ele><time>2026-04-18T12:41:23.887Z</time></trkpt><trkpt lat="43.7858883" lon="12.71311"><ele>115.0</ele><time>2026-04-18T12:41:24.885Z</time></trkpt><trkpt lat="43.7858467" lon="12.71302"><ele>115.00000000000001</ele><time>2026-04-18T12:41:25.886Z</time></trkpt><trkpt lat="43.7858017" lon="12.7129183"><ele>115.0</ele><time>2026-04-18T12:41:26.885Z</time></trkpt><trkpt lat="43.7857483" lon="12.7128017"><ele>115.6</ele><time>2026-04-18T12:41:27.886Z</time></trkpt><trkpt lat="43.7856917" lon="12.7126817"><ele>116.2</ele><time>2026-04-18T12:41:28.886Z</time></trkpt><trkpt lat="43.7856317" lon="12.7125667"><ele>116.80000000000001</ele><time>2026-04-18T12:41:29.885Z</time></trkpt><trkpt lat="43.7855783" lon="12.7124617"><ele>117.4</ele><time>2026-04-18T12:41:30.886Z</time></trkpt><trkpt lat="43.7855333" lon="12.7123633"><ele>118.0</ele><time>2026-04-18T12:41:31.886Z</time></trkpt><trkpt lat="43.7854917" lon="12.7122683"><ele>118.0</ele><time>2026-04-18T12:41:32.886Z</time></trkpt><trkpt lat="43.785445" lon="12.7121617"><ele>118.00000000000001</ele><time>2026-04-18T12:41:33.887Z</time></trkpt><trkpt lat="43.7853867" lon="12.71204"><ele>118.00000000000001</ele><time>2026-04-18T12:41:34.885Z</time></trkpt><trkpt lat="43.785325" lon="12.7119133"><ele>118.0</ele><time>2026-04-18T12:41:35.886Z</time></trkpt><trkpt lat="43.7852567" lon="12.7117817"><ele>118.0</ele><time>2026-04-18T12:41:36.886Z</time></trkpt><trkpt lat="43.785185" lon="12.711645"><ele>117.75</ele><time>2026-04-18T12:41:37.887Z</time></trkpt><trkpt lat="43.7851117" lon="12.7115067"><ele>117.5</ele><time>2026-04-18T12:41:38.886Z</time></trkpt><trkpt lat="43.7850333" lon="12.7113583"><ele>117.25</ele><time>2026-04-18T12:41:39.885Z</time></trkpt><trkpt lat="43.7849533" lon="12.7112067"><ele>117.0</ele><time>2026-04-18T12:41:40.888Z</time></trkpt><trkpt lat="43.78487" lon="12.7110483"><ele>117.0</ele><time>2026-04-18T12:41:41.889Z</time></trkpt><trkpt lat="43.7847833" lon="12.7108867"><ele>117.0</ele><time>2026-04-18T12:41:42.888Z</time></trkpt><trkpt lat="43.7846983" lon="12.7107267"><ele>117.0</ele><time>2026-04-18T12:41:43.89Z</time></trkpt><trkpt lat="43.7846117" lon="12.710565"><ele>117.0</ele><time>2026-04-18T12:41:44.888Z</time></trkpt><trkpt lat="43.7845317" lon="12.7104067"><ele>117.0</ele><time>2026-04-18T12:41:45.885Z</time></trkpt><trkpt lat="43.784455" lon="12.7102617"><ele>117.0</ele><time>2026-04-18T12:41:46.887Z</time></trkpt><trkpt lat="43.7843817" lon="12.7101233"><ele>117.0</ele><time>2026-04-18T12:41:47.887Z</time></trkpt><trkpt lat="43.7843067" lon="12.7099867"><ele>117.0</ele><time>2026-04-18T12:41:48.885Z</time></trkpt><trkpt lat="43.7842283" lon="12.7098567"><ele>116.75</ele><time>2026-04-18T12:41:49.887Z</time></trkpt><trkpt lat="43.7841517" lon="12.709725"><ele>116.5</ele><time>2026-04-18T12:41:50.886Z</time></trkpt><trkpt lat="43.7840767" lon="12.7095933"><ele>116.25</ele><time>2026-04-18T12:41:51.886Z</time></trkpt><trkpt lat="43.7840067" lon="12.7094633"><ele>116.0</ele><time>2026-04-18T12:41:52.887Z</time></trkpt><trkpt lat="43.78394" lon="12.7093283"><ele>116.0</ele><time>2026-04-18T12:41:53.885Z</time></trkpt><trkpt lat="43.7838767" lon="12.7092"><ele>116.0</ele><time>2026-04-18T12:41:54.885Z</time></trkpt><trkpt lat="43.7838183" lon="12.7090717"><ele>116.0</ele><time>2026-04-18T12:41:55.886Z</time></trkpt><trkpt lat="43.7837733" lon="12.70894"><ele>116.0</ele><time>2026-04-18T12:41:56.89Z</time></trkpt><trkpt lat="43.783755" lon="12.7088133"><ele>116.0</ele><time>2026-04-18T12:41:57.887Z</time></trkpt><trkpt lat="43.783745" lon="12.7086717"><ele>115.75</ele><time>2026-04-18T12:41:58.887Z</time></trkpt><trkpt lat="43.7837433" lon="12.70852"><ele>115.5</ele><time>2026-04-18T12:41:59.888Z</time></trkpt><trkpt lat="43.7837517" lon="12.7083533"><ele>115.25</ele><time>2026-04-18T12:42:00.889Z</time></trkpt><trkpt lat="43.7837667" lon="12.708175"><ele>115.0</ele><time>2026-04-18T12:42:01.888Z</time></trkpt><trkpt lat="43.7837733" lon="12.7079867"><ele>115.0</ele><time>2026-04-18T12:42:02.888Z</time></trkpt><trkpt lat="43.7837783" lon="12.7077883"><ele>115.0</ele><time>2026-04-18T12:42:03.889Z</time></trkpt><trkpt lat="43.7837817" lon="12.7075917"><ele>115.0</ele><time>2026-04-18T12:42:04.889Z</time></trkpt><trkpt lat="43.7837783" lon="12.70741"><ele>115.0</ele><time>2026-04-18T12:42:05.888Z</time></trkpt><trkpt lat="43.7837633" lon="12.707255"><ele>116.8</ele><time>2026-04-18T12:42:06.888Z</time></trkpt><trkpt lat="43.78373" lon="12.70713"><ele>118.6</ele><time>2026-04-18T12:42:07.886Z</time></trkpt><trkpt lat="43.7837083" lon="12.7070267"><ele>120.4</ele><time>2026-04-18T12:42:08.889Z</time></trkpt><trkpt lat="43.7836967" lon="12.706935"><ele>122.2</ele><time>2026-04-18T12:42:09.888Z</time></trkpt><trkpt lat="43.7837533" lon="12.706795"><ele>124.0</ele><time>2026-04-18T12:42:11.891Z</time></trkpt><trkpt lat="43.7839367" lon="12.7068367"><ele>128.0</ele><time>2026-04-18T12:42:13.887Z</time></trkpt><trkpt lat="43.7840967" lon="12.7068717"><ele>132.0</ele><time>2026-04-18T12:42:14.886Z</time></trkpt><trkpt lat="43.78418" lon="12.70685"><ele>136.0</ele><time>2026-04-18T12:42:15.887Z</time></trkpt><trkpt lat="43.78425" lon="12.7067967"><ele>140.0</ele><time>2026-04-18T12:42:16.885Z</time></trkpt><trkpt lat="43.7843017" lon="12.7067283"><ele>144.0</ele><time>2026-04-18T12:42:17.89Z</time></trkpt><trkpt lat="43.78434" lon="12.70664"><ele>144.0</ele><time>2026-04-18T12:42:18.886Z</time></trkpt><trkpt lat="43.7843417" lon="12.7065417"><ele>144.0</ele><time>2026-04-18T12:42:19.886Z</time></trkpt><trkpt lat="43.7843167" lon="12.7064233"><ele>144.0</ele><time>2026-04-18T12:42:20.888Z</time></trkpt><trkpt lat="43.7842817" lon="12.7062717"><ele>144.0</ele><time>2026-04-18T12:42:21.886Z</time></trkpt><trkpt lat="43.7842567" lon="12.706085"><ele>144.0</ele><time>2026-04-18T12:42:22.888Z</time></trkpt><trkpt lat="43.7842367" lon="12.70589"><ele>147.0</ele><time>2026-04-18T12:42:23.89Z</time></trkpt><trkpt lat="43.7842167" lon="12.7056867"><ele>150.0</ele><time>2026-04-18T12:42:24.889Z</time></trkpt><trkpt lat="43.784205" lon="12.7054967"><ele>153.0</ele><time>2026-04-18T12:42:25.889Z</time></trkpt><trkpt lat="43.7842" lon="12.7053033"><ele>156.0</ele><time>2026-04-18T12:42:26.888Z</time></trkpt><trkpt lat="43.78421" lon="12.7051017"><ele>159.0</ele><time>2026-04-18T12:42:27.889Z</time></trkpt><trkpt lat="43.7842267" lon="12.7048933"><ele>162.0</ele><time>2026-04-18T12:42:28.889Z</time></trkpt><trkpt lat="43.78425" lon="12.704685"><ele>165.0</ele><time>2026-04-18T12:42:29.889Z</time></trkpt><trkpt lat="43.7842817" lon="12.7044833"><ele>166.0</ele><time>2026-04-18T12:42:30.889Z</time></trkpt><trkpt lat="43.7843267" lon="12.7042883"><ele>167.0</ele><time>2026-04-18T12:42:31.889Z</time></trkpt><trkpt lat="43.78439" lon="12.7040933"><ele>168.0</ele><time>2026-04-18T12:42:32.885Z</time></trkpt><trkpt lat="43.7844667" lon="12.70389"><ele>168.0</ele><time>2026-04-18T12:42:33.886Z</time></trkpt><trkpt lat="43.78455" lon="12.70368"><ele>168.0</ele><time>2026-04-18T12:42:34.89Z</time></trkpt><trkpt lat="43.7846367" lon="12.70346"><ele>168.0</ele><time>2026-04-18T12:42:35.886Z</time></trkpt><trkpt lat="43.7847233" lon="12.70323"><ele>171.0</ele><time>2026-04-18T12:42:36.887Z</time></trkpt><trkpt lat="43.784805" lon="12.703"><ele>174.0</ele><time>2026-04-18T12:42:37.888Z</time></trkpt><trkpt lat="43.7848767" lon="12.7027783"><ele>177.0</ele><time>2026-04-18T12:42:38.888Z</time></trkpt><trkpt lat="43.7849317" lon="12.702565"><ele>179.0</ele><time>2026-04-18T12:42:39.888Z</time></trkpt><trkpt lat="43.7849767" lon="12.70234"><ele>181.0</ele><time>2026-04-18T12:42:40.888Z</time></trkpt><trkpt lat="43.7850183" lon="12.7021033"><ele>183.0</ele><time>2026-04-18T12:42:41.888Z</time></trkpt><trkpt lat="43.785055" lon="12.7018767"><ele>184.25</ele><time>2026-04-18T12:42:42.889Z</time></trkpt><trkpt lat="43.7850967" lon="12.7016717"><ele>185.5</ele><time>2026-04-18T12:42:43.893Z</time></trkpt><trkpt lat="43.7851383" lon="12.701505"><ele>186.75</ele><time>2026-04-18T12:42:44.889Z</time></trkpt><trkpt lat="43.7851883" lon="12.7013717"><ele>188.0</ele><time>2026-04-18T12:42:45.888Z</time></trkpt><trkpt lat="43.78526" lon="12.7012533"><ele>188.0</ele><time>2026-04-18T12:42:46.889Z</time></trkpt><trkpt lat="43.7853533" lon="12.7011517"><ele>188.0</ele><time>2026-04-18T12:42:47.885Z</time></trkpt><trkpt lat="43.78546" lon="12.7010783"><ele>188.0</ele><time>2026-04-18T12:42:48.887Z</time></trkpt><trkpt lat="43.7855617" lon="12.7010267"><ele>188.0</ele><time>2026-04-18T12:42:49.89Z</time></trkpt><trkpt lat="43.7856567" lon="12.7009567"><ele>190.75</ele><time>2026-04-18T12:42:50.887Z</time></trkpt><trkpt lat="43.7857533" lon="12.7008583"><ele>193.5</ele><time>2026-04-18T12:42:51.886Z</time></trkpt><trkpt lat="43.7858583" lon="12.7007467"><ele>196.25</ele><time>2026-04-18T12:42:52.89Z</time></trkpt><trkpt lat="43.78597" lon="12.700635"><ele>199.0</ele><time>2026-04-18T12:42:53.891Z</time></trkpt><trkpt lat="43.78609" lon="12.7005367"><ele>200.0</ele><time>2026-04-18T12:42:54.889Z</time></trkpt><trkpt lat="43.7862167" lon="12.7004583"><ele>201.0</ele><time>2026-04-18T12:42:55.89Z</time></trkpt><trkpt lat="43.7863567" lon="12.7004033"><ele>202.0</ele><time>2026-04-18T12:42:56.889Z</time></trkpt><trkpt lat="43.7865117" lon="12.700365"><ele>203.0</ele><time>2026-04-18T12:42:57.886Z</time></trkpt><trkpt lat="43.786685" lon="12.7003383"><ele>202.33333333333334</ele><time>2026-04-18T12:42:58.886Z</time></trkpt><trkpt lat="43.7868633" lon="12.7003083"><ele>201.66666666666669</ele><time>2026-04-18T12:42:59.886Z</time></trkpt><trkpt lat="43.78705" lon="12.700265"><ele>201.0</ele><time>2026-04-18T12:43:00.889Z</time></trkpt><trkpt lat="43.787245" lon="12.7001917"><ele>202.33333333333331</ele><time>2026-04-18T12:43:01.889Z</time></trkpt><trkpt lat="43.7874483" lon="12.7000817"><ele>203.66666666666666</ele><time>2026-04-18T12:43:02.89Z</time></trkpt><trkpt lat="43.787655" lon="12.6999467"><ele>205.0</ele><time>2026-04-18T12:43:03.888Z</time></trkpt><trkpt lat="43.7878633" lon="12.6997967"><ele>208.5</ele><time>2026-04-18T12:43:04.889Z</time></trkpt><trkpt lat="43.7880717" lon="12.6996367"><ele>212.0</ele><time>2026-04-18T12:43:05.888Z</time></trkpt><trkpt lat="43.7882817" lon="12.6994617"><ele>212.5</ele><time>2026-04-18T12:43:06.888Z</time></trkpt><trkpt lat="43.7884917" lon="12.6992783"><ele>213.0</ele><time>2026-04-18T12:43:07.889Z</time></trkpt><trkpt lat="43.7886983" lon="12.6991017"><ele>215.0</ele><time>2026-04-18T12:43:08.889Z</time></trkpt><trkpt lat="43.7889033" lon="12.6989267"><ele>217.0</ele><time>2026-04-18T12:43:09.889Z</time></trkpt><trkpt lat="43.7891" lon="12.6987433"><ele>219.0</ele><time>2026-04-18T12:43:10.889Z</time></trkpt><trkpt lat="43.789295" lon="12.6985567"><ele>221.0</ele><time>2026-04-18T12:43:11.889Z</time></trkpt><trkpt lat="43.7894883" lon="12.6983583"><ele>221.0</ele><time>2026-04-18T12:43:12.888Z</time></trkpt><trkpt lat="43.78968" lon="12.6981483"><ele>221.0</ele><time>2026-04-18T12:43:13.889Z</time></trkpt><trkpt lat="43.78987" lon="12.6979383"><ele>224.5</ele><time>2026-04-18T12:43:14.889Z</time></trkpt><trkpt lat="43.790055" lon="12.6977317"><ele>228.0</ele><time>2026-04-18T12:43:15.885Z</time></trkpt><trkpt lat="43.7902267" lon="12.6975417"><ele>228.0</ele><time>2026-04-18T12:43:16.887Z</time></trkpt><trkpt lat="43.790385" lon="12.69737"><ele>228.0</ele><time>2026-04-18T12:43:17.886Z</time></trkpt><trkpt lat="43.790535" lon="12.69722"><ele>228.0</ele><time>2026-04-18T12:43:18.888Z</time></trkpt><trkpt lat="43.7906733" lon="12.6970883"><ele>228.0</ele><time>2026-04-18T12:43:19.886Z</time></trkpt><trkpt lat="43.7907983" lon="12.69696"><ele>228.0</ele><time>2026-04-18T12:43:20.887Z</time></trkpt><trkpt lat="43.7909217" lon="12.6968417"><ele>228.0</ele><time>2026-04-18T12:43:21.887Z</time></trkpt><trkpt lat="43.7910483" lon="12.6967383"><ele>231.25</ele><time>2026-04-18T12:43:22.889Z</time></trkpt><trkpt lat="43.791185" lon="12.6966567"><ele>234.5</ele><time>2026-04-18T12:43:23.889Z</time></trkpt><trkpt lat="43.7913333" lon="12.696595"><ele>237.75</ele><time>2026-04-18T12:43:24.888Z</time></trkpt><trkpt lat="43.7914717" lon="12.6965417"><ele>241.0</ele><time>2026-04-18T12:43:25.889Z</time></trkpt><trkpt lat="43.7916033" lon="12.6965017"><ele>241.0</ele><time>2026-04-18T12:43:26.89Z</time></trkpt><trkpt lat="43.7917383" lon="12.6964883"><ele>241.0</ele><time>2026-04-18T12:43:27.889Z</time></trkpt><trkpt lat="43.7918817" lon="12.6965133"><ele>241.0</ele><time>2026-04-18T12:43:28.89Z</time></trkpt><trkpt lat="43.792035" lon="12.6965817"><ele>241.0</ele><time>2026-04-18T12:43:29.887Z</time></trkpt><trkpt lat="43.7921983" lon="12.6966767"><ele>242.0</ele><time>2026-04-18T12:43:30.887Z</time></trkpt><trkpt lat="43.7923617" lon="12.6967917"><ele>243.0</ele><time>2026-04-18T12:43:31.887Z</time></trkpt><trkpt lat="43.7925183" lon="12.6969133"><ele>244.0</ele><time>2026-04-18T12:43:32.888Z</time></trkpt><trkpt lat="43.79267" lon="12.69705"><ele>247.66666666666666</ele><time>2026-04-18T12:43:33.886Z</time></trkpt><trkpt lat="43.792825" lon="12.697195"><ele>251.33333333333331</ele><time>2026-04-18T12:43:34.887Z</time></trkpt><trkpt lat="43.7929767" lon="12.697335"><ele>255.0</ele><time>2026-04-18T12:43:35.887Z</time></trkpt><trkpt lat="43.7931167" lon="12.6974633"><ele>255.0</ele><time>2026-04-18T12:43:36.887Z</time></trkpt><trkpt lat="43.7932483" lon="12.6975833"><ele>255.0</ele><time>2026-04-18T12:43:37.889Z</time></trkpt><trkpt lat="43.7933683" lon="12.6977033"><ele>255.0</ele><time>2026-04-18T12:43:38.887Z</time></trkpt><trkpt lat="43.7934817" lon="12.6978167"><ele>255.0</ele><time>2026-04-18T12:43:39.886Z</time></trkpt><trkpt lat="43.7935883" lon="12.6979267"><ele>254.75</ele><time>2026-04-18T12:43:40.886Z</time></trkpt><trkpt lat="43.7936933" lon="12.6980383"><ele>254.5</ele><time>2026-04-18T12:43:41.888Z</time></trkpt><trkpt lat="43.7937967" lon="12.6981633"><ele>254.25</ele><time>2026-04-18T12:43:42.886Z</time></trkpt><trkpt lat="43.7938933" lon="12.698315"><ele>254.0</ele><time>2026-04-18T12:43:43.888Z</time></trkpt><trkpt lat="43.79398" lon="12.6984917"><ele>253.25</ele><time>2026-04-18T12:43:44.89Z</time></trkpt><trkpt lat="43.7940483" lon="12.6986733"><ele>252.5</ele><time>2026-04-18T12:43:45.888Z</time></trkpt><trkpt lat="43.7941033" lon="12.698845"><ele>251.75</ele><time>2026-04-18T12:43:46.891Z</time></trkpt><trkpt lat="43.7941517" lon="12.699005"><ele>251.0</ele><time>2026-04-18T12:43:47.889Z</time></trkpt><trkpt lat="43.7942067" lon="12.6991683"><ele>251.0</ele><time>2026-04-18T12:43:48.888Z</time></trkpt><trkpt lat="43.7942717" lon="12.6993417"><ele>251.0</ele><time>2026-04-18T12:43:49.89Z</time></trkpt><trkpt lat="43.794335" lon="12.6995167"><ele>251.0</ele><time>2026-04-18T12:43:50.889Z</time></trkpt><trkpt lat="43.7943933" lon="12.6996867"><ele>251.0</ele><time>2026-04-18T12:43:51.889Z</time></trkpt><trkpt lat="43.7944583" lon="12.69986"><ele>250.66666666666669</ele><time>2026-04-18T12:43:52.888Z</time></trkpt><trkpt lat="43.7945317" lon="12.7000417"><ele>250.33333333333331</ele><time>2026-04-18T12:43:53.89Z</time></trkpt><trkpt lat="43.7946133" lon="12.70022"><ele>250.0</ele><time>2026-04-18T12:43:54.89Z</time></trkpt><trkpt lat="43.7947067" lon="12.7003883"><ele>250.0</ele><time>2026-04-18T12:43:55.889Z</time></trkpt><trkpt lat="43.794805" lon="12.70055"><ele>250.0</ele><time>2026-04-18T12:43:56.89Z</time></trkpt><trkpt lat="43.7949033" lon="12.7007183"><ele>250.0</ele><time>2026-04-18T12:43:57.887Z</time></trkpt><trkpt lat="43.795" lon="12.7008917"><ele>250.0</ele><time>2026-04-18T12:43:58.889Z</time></trkpt><trkpt lat="43.79509" lon="12.7010783"><ele>250.0</ele><time>2026-04-18T12:43:59.887Z</time></trkpt><trkpt lat="43.7951583" lon="12.7012683"><ele>250.0</ele><time>2026-04-18T12:44:00.888Z</time></trkpt><trkpt lat="43.7952183" lon="12.7014633"><ele>252.75</ele><time>2026-04-18T12:44:01.887Z</time></trkpt><trkpt lat="43.79527" lon="12.70165"><ele>255.5</ele><time>2026-04-18T12:44:02.889Z</time></trkpt><trkpt lat="43.795315" lon="12.7018233"><ele>258.25</ele><time>2026-04-18T12:44:03.886Z</time></trkpt><trkpt lat="43.7953417" lon="12.7019833"><ele>261.0</ele><time>2026-04-18T12:44:04.886Z</time></trkpt><trkpt lat="43.7953467" lon="12.7021383"><ele>262.2</ele><time>2026-04-18T12:44:05.887Z</time></trkpt><trkpt lat="43.795345" lon="12.7022883"><ele>263.40000000000003</ele><time>2026-04-18T12:44:06.887Z</time></trkpt><trkpt lat="43.7953533" lon="12.702445"><ele>264.6</ele><time>2026-04-18T12:44:07.887Z</time></trkpt><trkpt lat="43.7953717" lon="12.7026017"><ele>265.8</ele><time>2026-04-18T12:44:08.886Z</time></trkpt><trkpt lat="43.7954083" lon="12.7027467"><ele>267.0</ele><time>2026-04-18T12:44:09.886Z</time></trkpt><trkpt lat="43.7954533" lon="12.7028733"><ele>267.0</ele><time>2026-04-18T12:44:10.889Z</time></trkpt><trkpt lat="43.795495" lon="12.7029783"><ele>267.0</ele><time>2026-04-18T12:44:11.889Z</time></trkpt><trkpt lat="43.7955283" lon="12.7030717"><ele>267.0</ele><time>2026-04-18T12:44:12.888Z</time></trkpt><trkpt lat="43.7955583" lon="12.7031567"><ele>267.0</ele><time>2026-04-18T12:44:13.89Z</time></trkpt><trkpt lat="43.795585" lon="12.703245"><ele>267.0</ele><time>2026-04-18T12:44:14.889Z</time></trkpt><trkpt lat="43.7956083" lon="12.703345"><ele>267.0</ele><time>2026-04-18T12:44:15.888Z</time></trkpt><trkpt lat="43.795635" lon="12.7034583"><ele>267.0</ele><time>2026-04-18T12:44:16.887Z</time></trkpt><trkpt lat="43.795675" lon="12.70358"><ele>267.0</ele><time>2026-04-18T12:44:17.886Z</time></trkpt><trkpt lat="43.795725" lon="12.7037083"><ele>267.0</ele><time>2026-04-18T12:44:18.886Z</time></trkpt><trkpt lat="43.795775" lon="12.7038367"><ele>267.0</ele><time>2026-04-18T12:44:19.887Z</time></trkpt><trkpt lat="43.7958317" lon="12.7039567"><ele>267.0</ele><time>2026-04-18T12:44:20.887Z</time></trkpt><trkpt lat="43.79589" lon="12.7040733"><ele>265.8333333333333</ele><time>2026-04-18T12:44:21.888Z</time></trkpt><trkpt lat="43.79594" lon="12.7041933"><ele>264.6666666666667</ele><time>2026-04-18T12:44:22.888Z</time></trkpt><trkpt lat="43.7959667" lon="12.7043133"><ele>263.5</ele><time>2026-04-18T12:44:23.887Z</time></trkpt><trkpt lat="43.795975" lon="12.7044283"><ele>262.33333333333337</ele><time>2026-04-18T12:44:24.886Z</time></trkpt><trkpt lat="43.7959683" lon="12.704535"><ele>261.1666666666667</ele><time>2026-04-18T12:44:25.886Z</time></trkpt><trkpt lat="43.7959433" lon="12.7046367"><ele>260.0</ele><time>2026-04-18T12:44:26.889Z</time></trkpt><trkpt lat="43.7959033" lon="12.7047367"><ele>260.0</ele><time>2026-04-18T12:44:27.887Z</time></trkpt><trkpt lat="43.79584" lon="12.7048283"><ele>260.0</ele><time>2026-04-18T12:44:28.889Z</time></trkpt><trkpt lat="43.79575" lon="12.704915"><ele>260.0</ele><time>2026-04-18T12:44:29.889Z</time></trkpt><trkpt lat="43.7956333" lon="12.7049917"><ele>260.0</ele><time>2026-04-18T12:44:30.887Z</time></trkpt><trkpt lat="43.7955167" lon="12.705075"><ele>260.0</ele><time>2026-04-18T12:44:31.887Z</time></trkpt><trkpt lat="43.7953983" lon="12.7051667"><ele>260.0</ele><time>2026-04-18T12:44:32.889Z</time></trkpt><trkpt lat="43.7952917" lon="12.7052633"><ele>260.0</ele><time>2026-04-18T12:44:33.888Z</time></trkpt><trkpt lat="43.7951917" lon="12.7053683"><ele>260.0</ele><time>2026-04-18T12:44:34.888Z</time></trkpt><trkpt lat="43.79511" lon="12.70548"><ele>260.6</ele><time>2026-04-18T12:44:35.889Z</time></trkpt><trkpt lat="43.7950417" lon="12.70559"><ele>261.2</ele><time>2026-04-18T12:44:36.886Z</time></trkpt><trkpt lat="43.79497" lon="12.7057017"><ele>261.8</ele><time>2026-04-18T12:44:37.887Z</time></trkpt><trkpt lat="43.7949" lon="12.7058083"><ele>262.4</ele><time>2026-04-18T12:44:38.886Z</time></trkpt><trkpt lat="43.7948167" lon="12.705905"><ele>263.0</ele><time>2026-04-18T12:44:39.889Z</time></trkpt><trkpt lat="43.7947233" lon="12.70598"><ele>263.0</ele><time>2026-04-18T12:44:40.889Z</time></trkpt><trkpt lat="43.7946333" lon="12.7060567"><ele>263.0</ele><time>2026-04-18T12:44:41.889Z</time></trkpt><trkpt lat="43.79456" lon="12.7061533"><ele>263.0</ele><time>2026-04-18T12:44:42.89Z</time></trkpt><trkpt lat="43.794505" lon="12.7062583"><ele>263.0</ele><time>2026-04-18T12:44:43.89Z</time></trkpt><trkpt lat="43.7944717" lon="12.7063617"><ele>263.0</ele><time>2026-04-18T12:44:44.889Z</time></trkpt><trkpt lat="43.79445" lon="12.7064533"><ele>264.2</ele><time>2026-04-18T12:44:45.886Z</time></trkpt><trkpt lat="43.794425" lon="12.7065883"><ele>265.4</ele><time>2026-04-18T12:44:47.889Z</time></trkpt><trkpt lat="43.794385" lon="12.7067017"><ele>266.59999999999997</ele><time>2026-04-18T12:44:50.889Z</time></trkpt><trkpt lat="43.7943433" lon="12.7067767"><ele>267.8</ele><time>2026-04-18T12:44:53.888Z</time></trkpt><trkpt lat="43.7944" lon="12.70673"><ele>269.0</ele><time>2026-04-18T12:44:57.89Z</time></trkpt><trkpt lat="43.7944583" lon="12.7065633"><ele>269.0</ele><time>2026-04-18T12:44:59.887Z</time></trkpt><trkpt lat="43.79449" lon="12.7064617"><ele>269.0</ele><time>2026-04-18T12:45:00.889Z</time></trkpt><trkpt lat="43.794535" lon="12.7063683"><ele>269.0</ele><time>2026-04-18T12:45:01.885Z</time></trkpt><trkpt lat="43.7945967" lon="12.7062783"><ele>269.0</ele><time>2026-04-18T12:45:02.888Z</time></trkpt><trkpt lat="43.7946683" lon="12.7062033"><ele>269.0</ele><time>2026-04-18T12:45:03.888Z</time></trkpt><trkpt lat="43.7947483" lon="12.70614"><ele>269.0</ele><time>2026-04-18T12:45:04.888Z</time></trkpt><trkpt lat="43.7948367" lon="12.7060783"><ele>269.0</ele><time>2026-04-18T12:45:05.888Z</time></trkpt><trkpt lat="43.7949183" lon="12.706015"><ele>269.0</ele><time>2026-04-18T12:45:06.888Z</time></trkpt><trkpt lat="43.7949817" lon="12.7059617"><ele>269.0</ele><time>2026-04-18T12:45:07.885Z</time></trkpt><trkpt lat="43.795045" lon="12.7059283"><ele>269.0</ele><time>2026-04-18T12:45:08.884Z</time></trkpt><trkpt lat="43.795145" lon="12.7059567"><ele>269.0</ele><time>2026-04-18T12:45:10.888Z</time></trkpt><trkpt lat="43.79519" lon="12.7060183"><ele>269.0</ele><time>2026-04-18T12:45:11.887Z</time></trkpt><trkpt lat="43.7952267" lon="12.7061083"><ele>270.0</ele><time>2026-04-18T12:45:12.888Z</time></trkpt><trkpt lat="43.7952667" lon="12.7062"><ele>271.0</ele><time>2026-04-18T12:45:13.889Z</time></trkpt><trkpt lat="43.7953017" lon="12.7063017"><ele>272.0</ele><time>2026-04-18T12:45:14.889Z</time></trkpt><trkpt lat="43.795325" lon="12.7064067"><ele>273.0</ele><time>2026-04-18T12:45:15.888Z</time></trkpt><trkpt lat="43.795335" lon="12.70653"><ele>274.0</ele><time>2026-04-18T12:45:16.888Z</time></trkpt><trkpt lat="43.7953267" lon="12.7066517"><ele>275.0</ele><time>2026-04-18T12:45:17.889Z</time></trkpt><trkpt lat="43.7953117" lon="12.7067767"><ele>275.0</ele><time>2026-04-18T12:45:18.888Z</time></trkpt><trkpt lat="43.795285" lon="12.70689"><ele>275.0</ele><time>2026-04-18T12:45:19.889Z</time></trkpt><trkpt lat="43.7952633" lon="12.7069833"><ele>275.0</ele><time>2026-04-18T12:45:20.889Z</time></trkpt><trkpt lat="43.7952367" lon="12.7071367"><ele>275.0</ele><time>2026-04-18T12:45:22.886Z</time></trkpt><trkpt lat="43.79526" lon="12.7073033"><ele>275.0</ele><time>2026-04-18T12:45:24.887Z</time></trkpt><trkpt lat="43.79528" lon="12.7073933"><ele>275.1666666666667</ele><time>2026-04-18T12:45:25.885Z</time></trkpt><trkpt lat="43.7953117" lon="12.7074833"><ele>275.33333333333337</ele><time>2026-04-18T12:45:26.886Z</time></trkpt><trkpt lat="43.7953517" lon="12.707575"><ele>275.5</ele><time>2026-04-18T12:45:27.886Z</time></trkpt><trkpt lat="43.795395" lon="12.7076683"><ele>275.6666666666667</ele><time>2026-04-18T12:45:28.887Z</time></trkpt><trkpt lat="43.7954383" lon="12.707755"><ele>275.8333333333333</ele><time>2026-04-18T12:45:29.886Z</time></trkpt><trkpt lat="43.7954767" lon="12.7078267"><ele>276.0</ele><time>2026-04-18T12:45:30.886Z</time></trkpt><trkpt lat="43.7955317" lon="12.7079617"><ele>275.1666666666667</ele><time>2026-04-18T12:45:32.886Z</time></trkpt><trkpt lat="43.7955833" lon="12.7080483"><ele>274.3333333333333</ele><time>2026-04-18T12:45:34.887Z</time></trkpt><trkpt lat="43.7956583" lon="12.70817"><ele>273.5</ele><time>2026-04-18T12:45:36.886Z</time></trkpt><trkpt lat="43.7957" lon="12.7082517"><ele>272.66666666666663</ele><time>2026-04-18T12:45:37.888Z</time></trkpt><trkpt lat="43.7957383" lon="12.70835"><ele>271.8333333333333</ele><time>2026-04-18T12:45:38.885Z</time></trkpt><trkpt lat="43.795775" lon="12.708455"><ele>271.0</ele><time>2026-04-18T12:45:39.89Z</time></trkpt><trkpt lat="43.79581" lon="12.708565"><ele>270.8</ele><time>2026-04-18T12:45:40.889Z</time></trkpt><trkpt lat="43.7958467" lon="12.70868"><ele>270.6</ele><time>2026-04-18T12:45:41.888Z</time></trkpt><trkpt lat="43.7958833" lon="12.70881"><ele>270.4</ele><time>2026-04-18T12:45:42.888Z</time></trkpt><trkpt lat="43.7959167" lon="12.708945"><ele>270.2</ele><time>2026-04-18T12:45:43.886Z</time></trkpt><trkpt lat="43.7959517" lon="12.7090833"><ele>270.0</ele><time>2026-04-18T12:45:44.886Z</time></trkpt><trkpt lat="43.795985" lon="12.709225"><ele>273.2</ele><time>2026-04-18T12:45:45.886Z</time></trkpt><trkpt lat="43.7960133" lon="12.7093683"><ele>276.4</ele><time>2026-04-18T12:45:46.887Z</time></trkpt><trkpt lat="43.7960383" lon="12.7095083"><ele>279.6</ele><time>2026-04-18T12:45:47.886Z</time></trkpt><trkpt lat="43.7960667" lon="12.7096517"><ele>282.8</ele><time>2026-04-18T12:45:48.886Z</time></trkpt><trkpt lat="43.7960967" lon="12.7097983"><ele>286.0</ele><time>2026-04-18T12:45:49.887Z</time></trkpt><trkpt lat="43.79612" lon="12.7099383"><ele>286.0</ele><time>2026-04-18T12:45:50.887Z</time></trkpt><trkpt lat="43.7961483" lon="12.7100783"><ele>286.0</ele><time>2026-04-18T12:45:51.885Z</time></trkpt><trkpt lat="43.7961767" lon="12.710205"><ele>286.0</ele><time>2026-04-18T12:45:52.888Z</time></trkpt><trkpt lat="43.7962083" lon="12.7103283"><ele>286.0</ele><time>2026-04-18T12:45:53.885Z</time></trkpt><trkpt lat="43.796235" lon="12.710445"><ele>286.0</ele><time>2026-04-18T12:45:54.887Z</time></trkpt><trkpt lat="43.7962667" lon="12.710555"><ele>284.66666666666663</ele><time>2026-04-18T12:45:55.887Z</time></trkpt><trkpt lat="43.796295" lon="12.71066"><ele>283.3333333333333</ele><time>2026-04-18T12:45:56.886Z</time></trkpt><trkpt lat="43.79631" lon="12.7107683"><ele>282.0</ele><time>2026-04-18T12:45:57.886Z</time></trkpt><trkpt lat="43.7963167" lon="12.71089"><ele>280.6666666666667</ele><time>2026-04-18T12:45:58.886Z</time></trkpt><trkpt lat="43.7963167" lon="12.7110117"><ele>279.33333333333337</ele><time>2026-04-18T12:45:59.887Z</time></trkpt><trkpt lat="43.7963067" lon="12.71114"><ele>278.0</ele><time>2026-04-18T12:46:00.887Z</time></trkpt><trkpt lat="43.7963017" lon="12.7112683"><ele>275.2</ele><time>2026-04-18T12:46:01.886Z</time></trkpt><trkpt lat="43.7962983" lon="12.7113983"><ele>272.4</ele><time>2026-04-18T12:46:02.886Z</time></trkpt><trkpt lat="43.7962967" lon="12.71152"><ele>269.59999999999997</ele><time>2026-04-18T12:46:03.885Z</time></trkpt><trkpt lat="43.79629" lon="12.7116167"><ele>266.8</ele><time>2026-04-18T12:46:04.888Z</time></trkpt><trkpt lat="43.7963233" lon="12.711745"><ele>264.0</ele><time>2026-04-18T12:46:06.888Z</time></trkpt><trkpt lat="43.7964083" lon="12.7118183"><ele>264.0</ele><time>2026-04-18T12:46:08.885Z</time></trkpt><trkpt lat="43.7965117" lon="12.71186"><ele>264.0</ele><time>2026-04-18T12:46:10.887Z</time></trkpt><trkpt lat="43.7966417" lon="12.7118917"><ele>264.0</ele><time>2026-04-18T12:46:12.886Z</time></trkpt><trkpt lat="43.79672" lon="12.7119133"><ele>264.0</ele><time>2026-04-18T12:46:13.887Z</time></trkpt><trkpt lat="43.7968033" lon="12.7119367"><ele>264.0</ele><time>2026-04-18T12:46:14.885Z</time></trkpt><trkpt lat="43.796895" lon="12.711975"><ele>261.0</ele><time>2026-04-18T12:46:15.887Z</time></trkpt><trkpt lat="43.797" lon="12.7120117"><ele>258.0</ele><time>2026-04-18T12:46:16.886Z</time></trkpt><trkpt lat="43.7971083" lon="12.7120433"><ele>254.99999999999997</ele><time>2026-04-18T12:46:17.887Z</time></trkpt><trkpt lat="43.7972183" lon="12.7120717"><ele>252.0</ele><time>2026-04-18T12:46:18.887Z</time></trkpt><trkpt lat="43.7973183" lon="12.7121017"><ele>249.0</ele><time>2026-04-18T12:46:19.887Z</time></trkpt><trkpt lat="43.7973983" lon="12.7121317"><ele>249.0</ele><time>2026-04-18T12:46:20.886Z</time></trkpt><trkpt lat="43.7974717" lon="12.7121683"><ele>249.0</ele><time>2026-04-18T12:46:21.887Z</time></trkpt><trkpt lat="43.7975367" lon="12.7122283"><ele>249.0</ele><time>2026-04-18T12:46:22.885Z</time></trkpt><trkpt lat="43.797595" lon="12.7123067"><ele>249.0</ele><time>2026-04-18T12:46:23.885Z</time></trkpt><trkpt lat="43.7976467" lon="12.7124233"><ele>249.0</ele><time>2026-04-18T12:46:24.89Z</time></trkpt><trkpt lat="43.7976967" lon="12.7125533"><ele>249.0</ele><time>2026-04-18T12:46:25.888Z</time></trkpt><trkpt lat="43.7977467" lon="12.7126867"><ele>244.39999999999998</ele><time>2026-04-18T12:46:26.886Z</time></trkpt><trkpt lat="43.7977967" lon="12.712815"><ele>239.79999999999998</ele><time>2026-04-18T12:46:27.885Z</time></trkpt><trkpt lat="43.79784" lon="12.7129317"><ele>235.20000000000002</ele><time>2026-04-18T12:46:28.885Z</time></trkpt><trkpt lat="43.7978733" lon="12.713045"><ele>230.60000000000002</ele><time>2026-04-18T12:46:29.886Z</time></trkpt><trkpt lat="43.7978933" lon="12.713155"><ele>226.0</ele><time>2026-04-18T12:46:30.889Z</time></trkpt><trkpt lat="43.7978967" lon="12.713265"><ele>226.0</ele><time>2026-04-18T12:46:31.885Z</time></trkpt><trkpt lat="43.7978867" lon="12.7133717"><ele>226.0</ele><time>2026-04-18T12:46:32.885Z</time></trkpt><trkpt lat="43.7978783" lon="12.7134583"><ele>226.0</ele><time>2026-04-18T12:46:33.886Z</time></trkpt><trkpt lat="43.79788" lon="12.7135533"><ele>226.0</ele><time>2026-04-18T12:46:34.887Z</time></trkpt><trkpt lat="43.7978867" lon="12.7136517"><ele>226.0</ele><time>2026-04-18T12:46:35.886Z</time></trkpt><trkpt lat="43.7978917" lon="12.71375"><ele>226.0</ele><time>2026-04-18T12:46:36.886Z</time></trkpt><trkpt lat="43.7978917" lon="12.7138417"><ele>226.0</ele><time>2026-04-18T12:46:37.885Z</time></trkpt><trkpt lat="43.7978483" lon="12.714005"><ele>225.99999999999997</ele><time>2026-04-18T12:46:39.885Z</time></trkpt><trkpt lat="43.797805" lon="12.7140767"><ele>226.0</ele><time>2026-04-18T12:46:40.886Z</time></trkpt><trkpt lat="43.7977017" lon="12.714155"><ele>226.0</ele><time>2026-04-18T12:46:42.886Z</time></trkpt><trkpt lat="43.7975967" lon="12.71415"><ele>226.0</ele><time>2026-04-18T12:46:44.891Z</time></trkpt><trkpt lat="43.7975283" lon="12.7141067"><ele>225.99999999999997</ele><time>2026-04-18T12:46:45.886Z</time></trkpt><trkpt lat="43.7974667" lon="12.7140683"><ele>226.0</ele><time>2026-04-18T12:46:46.886Z</time></trkpt><trkpt lat="43.7973667" lon="12.71404"><ele>227.33333333333331</ele><time>2026-04-18T12:46:48.886Z</time></trkpt><trkpt lat="43.797285" lon="12.714115"><ele>228.66666666666666</ele><time>2026-04-18T12:46:50.885Z</time></trkpt><trkpt lat="43.7972417" lon="12.7141833"><ele>230.0</ele><time>2026-04-18T12:46:51.886Z</time></trkpt><trkpt lat="43.7971983" lon="12.7142667"><ele>231.33333333333331</ele><time>2026-04-18T12:46:52.887Z</time></trkpt><trkpt lat="43.7971433" lon="12.7143633"><ele>232.66666666666666</ele><time>2026-04-18T12:46:53.885Z</time></trkpt><trkpt lat="43.7970733" lon="12.7144867"><ele>234.0</ele><time>2026-04-18T12:46:54.887Z</time></trkpt><trkpt lat="43.7969817" lon="12.7146083"><ele>234.0</ele><time>2026-04-18T12:46:55.886Z</time></trkpt><trkpt lat="43.7969033" lon="12.7147183"><ele>233.99999999999997</ele><time>2026-04-18T12:46:56.887Z</time></trkpt><trkpt lat="43.796825" lon="12.7148183"><ele>233.99999999999997</ele><time>2026-04-18T12:46:57.886Z</time></trkpt><trkpt lat="43.7967617" lon="12.7149117"><ele>234.0</ele><time>2026-04-18T12:46:58.886Z</time></trkpt><trkpt lat="43.7967017" lon="12.71499"><ele>234.0</ele><time>2026-04-18T12:46:59.885Z</time></trkpt><trkpt lat="43.7966517" lon="12.715055"><ele>233.66666666666666</ele><time>2026-04-18T12:47:00.886Z</time></trkpt><trkpt lat="43.79656" lon="12.7151533"><ele>233.33333333333331</ele><time>2026-04-18T12:47:02.886Z</time></trkpt><trkpt lat="43.796485" lon="12.71524"><ele>233.0</ele><time>2026-04-18T12:47:04.886Z</time></trkpt><trkpt lat="43.796415" lon="12.7153233"><ele>232.66666666666666</ele><time>2026-04-18T12:47:06.885Z</time></trkpt><trkpt lat="43.796385" lon="12.7154117"><ele>232.33333333333331</ele><time>2026-04-18T12:47:08.885Z</time></trkpt><trkpt lat="43.7964" lon="12.7155083"><ele>232.0</ele><time>2026-04-18T12:47:10.887Z</time></trkpt><trkpt lat="43.79642" lon="12.7156467"><ele>231.49999999999997</ele><time>2026-04-18T12:47:12.887Z</time></trkpt><trkpt lat="43.79641" lon="12.7158183"><ele>231.0</ele><time>2026-04-18T12:47:14.887Z</time></trkpt><trkpt lat="43.7963617" lon="12.7159283"><ele>230.5</ele><time>2026-04-18T12:47:16.886Z</time></trkpt><trkpt lat="43.7963133" lon="12.7159933"><ele>230.0</ele><time>2026-04-18T12:47:19.887Z</time></trkpt><trkpt lat="43.7963617" lon="12.7159167"><ele>229.49999999999997</ele><time>2026-04-18T12:50:41.886Z</time></trkpt><trkpt lat="43.796375" lon="12.7158133"><ele>229.0</ele><time>2026-04-18T12:50:43.886Z</time></trkpt><trkpt lat="43.79639" lon="12.7157133"><ele>228.99999999999997</ele><time>2026-04-18T12:50:45.885Z</time></trkpt><trkpt lat="43.7963917" lon="12.715605"><ele>229.0</ele><time>2026-04-18T12:50:47.885Z</time></trkpt><trkpt lat="43.7963867" lon="12.71551"><ele>229.0</ele><time>2026-04-18T12:50:49.886Z</time></trkpt><trkpt lat="43.7964" lon="12.715405"><ele>229.0</ele><time>2026-04-18T12:50:51.886Z</time></trkpt><trkpt lat="43.796445" lon="12.7153283"><ele>228.99999999999997</ele><time>2026-04-18T12:50:53.887Z</time></trkpt><trkpt lat="43.796495" lon="12.7152567"><ele>229.0</ele><time>2026-04-18T12:50:55.887Z</time></trkpt><trkpt lat="43.7965717" lon="12.7151483"><ele>229.6</ele><time>2026-04-18T12:50:57.886Z</time></trkpt><trkpt lat="43.7966767" lon="12.7150333"><ele>230.2</ele><time>2026-04-18T12:50:59.89Z</time></trkpt><trkpt lat="43.7967367" lon="12.7149567"><ele>230.79999999999998</ele><time>2026-04-18T12:51:00.885Z</time></trkpt><trkpt lat="43.7968017" lon="12.7148767"><ele>231.39999999999998</ele><time>2026-04-18T12:51:01.887Z</time></trkpt><trkpt lat="43.7968783" lon="12.7147933"><ele>232.0</ele><time>2026-04-18T12:51:02.886Z</time></trkpt><trkpt lat="43.7969467" lon="12.71471"><ele>232.33333333333331</ele><time>2026-04-18T12:51:03.886Z</time></trkpt><trkpt lat="43.7970133" lon="12.71463"><ele>232.66666666666666</ele><time>2026-04-18T12:51:04.886Z</time></trkpt><trkpt lat="43.7970767" lon="12.7145533"><ele>233.0</ele><time>2026-04-18T12:51:05.887Z</time></trkpt><trkpt lat="43.79713" lon="12.71447"><ele>233.33333333333331</ele><time>2026-04-18T12:51:06.886Z</time></trkpt><trkpt lat="43.79718" lon="12.71438"><ele>233.66666666666666</ele><time>2026-04-18T12:51:07.888Z</time></trkpt><trkpt lat="43.79723" lon="12.714295"><ele>234.0</ele><time>2026-04-18T12:51:08.886Z</time></trkpt><trkpt lat="43.7972733" lon="12.7142117"><ele>234.5</ele><time>2026-04-18T12:51:09.886Z</time></trkpt><trkpt lat="43.797315" lon="12.7141367"><ele>235.0</ele><time>2026-04-18T12:51:10.886Z</time></trkpt><trkpt lat="43.7973817" lon="12.71404"><ele>235.5</ele><time>2026-04-18T12:51:12.891Z</time></trkpt><trkpt lat="43.7974467" lon="12.7139967"><ele>236.0</ele><time>2026-04-18T12:51:50.885Z</time></trkpt><trkpt lat="43.7975067" lon="12.7140367"><ele>236.5</ele><time>2026-04-18T12:51:52.886Z</time></trkpt><trkpt lat="43.7975983" lon="12.7140817"><ele>237.0</ele><time>2026-04-18T12:51:54.886Z</time></trkpt><trkpt lat="43.7976833" lon="12.714115"><ele>234.8</ele><time>2026-04-18T12:51:56.885Z</time></trkpt><trkpt lat="43.7977583" lon="12.7141117"><ele>232.6</ele><time>2026-04-18T12:51:58.886Z</time></trkpt><trkpt lat="43.7978117" lon="12.714045"><ele>230.40000000000003</ele><time>2026-04-18T12:52:00.887Z</time></trkpt><trkpt lat="43.7978733" lon="12.7139433"><ele>228.20000000000002</ele><time>2026-04-18T12:52:02.887Z</time></trkpt><trkpt lat="43.7979017" lon="12.7138117"><ele>226.0</ele><time>2026-04-18T12:52:04.887Z</time></trkpt><trkpt lat="43.7978967" lon="12.71366"><ele>226.0</ele><time>2026-04-18T12:52:06.886Z</time></trkpt><trkpt lat="43.7978683" lon="12.71355"><ele>226.00000000000003</ele><time>2026-04-18T12:52:08.886Z</time></trkpt><trkpt lat="43.7978933" lon="12.71368"><ele>226.00000000000003</ele><time>2026-04-18T12:52:21.888Z</time></trkpt><trkpt lat="43.7978917" lon="12.71381"><ele>226.0</ele><time>2026-04-18T12:52:23.887Z</time></trkpt><trkpt lat="43.7978683" lon="12.71393"><ele>226.0</ele><time>2026-04-18T12:52:25.887Z</time></trkpt><trkpt lat="43.7978117" lon="12.71403"><ele>225.99999999999997</ele><time>2026-04-18T12:52:27.887Z</time></trkpt><trkpt lat="43.7977417" lon="12.7141117"><ele>226.0</ele><time>2026-04-18T12:52:29.89Z</time></trkpt><trkpt lat="43.79767" lon="12.7141317"><ele>226.0</ele><time>2026-04-18T12:52:31.89Z</time></trkpt><trkpt lat="43.7976017" lon="12.7141083"><ele>226.0</ele><time>2026-04-18T12:52:33.888Z</time></trkpt><trkpt lat="43.797515" lon="12.7140617"><ele>225.99999999999997</ele><time>2026-04-18T12:52:36.89Z</time></trkpt><trkpt lat="43.7974567" lon="12.7140267"><ele>226.0</ele><time>2026-04-18T12:52:38.892Z</time></trkpt><trkpt lat="43.7973917" lon="12.714"><ele>227.83333333333331</ele><time>2026-04-18T12:52:41.889Z</time></trkpt><trkpt lat="43.7973233" lon="12.7139883"><ele>229.66666666666666</ele><time>2026-04-18T12:52:45.887Z</time></trkpt><trkpt lat="43.7973917" lon="12.7140167"><ele>231.5</ele><time>2026-04-18T12:52:51.887Z</time></trkpt><trkpt lat="43.7974733" lon="12.714045"><ele>233.33333333333331</ele><time>2026-04-18T12:52:54.886Z</time></trkpt><trkpt lat="43.7975033" lon="12.7141617"><ele>235.16666666666666</ele><time>2026-04-18T12:52:57.888Z</time></trkpt><trkpt lat="43.79755" lon="12.7142617"><ele>237.0</ele><time>2026-04-18T12:53:00.889Z</time></trkpt><trkpt lat="43.797625" lon="12.7143383"><ele>235.16666666666666</ele><time>2026-04-18T12:53:03.89Z</time></trkpt><trkpt lat="43.7976867" lon="12.7143733"><ele>233.33333333333331</ele><time>2026-04-18T12:53:05.886Z</time></trkpt><trkpt lat="43.7977617" lon="12.7144083"><ele>231.5</ele><time>2026-04-18T12:53:07.89Z</time></trkpt><trkpt lat="43.7978533" lon="12.714435"><ele>229.66666666666666</ele><time>2026-04-18T12:53:09.89Z</time></trkpt><trkpt lat="43.79796" lon="12.7144717"><ele>227.83333333333331</ele><time>2026-04-18T12:53:11.89Z</time></trkpt><trkpt lat="43.7980583" lon="12.7144767"><ele>226.0</ele><time>2026-04-18T12:53:13.89Z</time></trkpt><trkpt lat="43.7981467" lon="12.7144683"><ele>223.8</ele><time>2026-04-18T12:53:15.89Z</time></trkpt><trkpt lat="43.798245" lon="12.7144617"><ele>221.60000000000002</ele><time>2026-04-18T12:53:17.888Z</time></trkpt><trkpt lat="43.798345" lon="12.7144417"><ele>219.4</ele><time>2026-04-18T12:53:19.888Z</time></trkpt><trkpt lat="43.7984433" lon="12.7144367"><ele>217.2</ele><time>2026-04-18T12:53:21.887Z</time></trkpt><trkpt lat="43.7985267" lon="12.7144333"><ele>215.0</ele><time>2026-04-18T12:53:23.887Z</time></trkpt><trkpt lat="43.798615" lon="12.7144083"><ele>212.66666666666669</ele><time>2026-04-18T12:53:25.887Z</time></trkpt><trkpt lat="43.7987067" lon="12.7143733"><ele>210.33333333333334</ele><time>2026-04-18T12:53:27.887Z</time></trkpt><trkpt lat="43.7988017" lon="12.7143533"><ele>208.0</ele><time>2026-04-18T12:53:29.888Z</time></trkpt><trkpt lat="43.7989067" lon="12.71428"><ele>205.66666666666669</ele><time>2026-04-18T12:53:31.888Z</time></trkpt><trkpt lat="43.7989633" lon="12.714235"><ele>203.33333333333334</ele><time>2026-04-18T12:53:32.887Z</time></trkpt><trkpt lat="43.79902" lon="12.7141833"><ele>201.0</ele><time>2026-04-18T12:53:33.887Z</time></trkpt><trkpt lat="43.799075" lon="12.714135"><ele>201.0</ele><time>2026-04-18T12:53:34.887Z</time></trkpt><trkpt lat="43.799135" lon="12.7140883"><ele>201.0</ele><time>2026-04-18T12:53:35.888Z</time></trkpt><trkpt lat="43.7991967" lon="12.7140567"><ele>201.0</ele><time>2026-04-18T12:53:36.886Z</time></trkpt><trkpt lat="43.7993" lon="12.7140183"><ele>201.0</ele><time>2026-04-18T12:53:38.887Z</time></trkpt><trkpt lat="43.7994" lon="12.7139783"><ele>201.0</ele><time>2026-04-18T12:53:40.885Z</time></trkpt><trkpt lat="43.7994867" lon="12.7139183"><ele>201.0</ele><time>2026-04-18T12:53:42.886Z</time></trkpt><trkpt lat="43.799565" lon="12.7138467"><ele>196.4</ele><time>2026-04-18T12:53:44.888Z</time></trkpt><trkpt lat="43.7996483" lon="12.71376"><ele>191.8</ele><time>2026-04-18T12:53:46.886Z</time></trkpt><trkpt lat="43.7997167" lon="12.7136467"><ele>187.20000000000002</ele><time>2026-04-18T12:53:48.887Z</time></trkpt><trkpt lat="43.7997833" lon="12.7135117"><ele>182.60000000000002</ele><time>2026-04-18T12:53:50.885Z</time></trkpt><trkpt lat="43.79982" lon="12.713375"><ele>178.0</ele><time>2026-04-18T12:53:52.887Z</time></trkpt><trkpt lat="43.7998417" lon="12.7132317"><ele>178.0</ele><time>2026-04-18T12:53:54.886Z</time></trkpt><trkpt lat="43.7998833" lon="12.713075"><ele>178.0</ele><time>2026-04-18T12:53:56.89Z</time></trkpt><trkpt lat="43.7999267" lon="12.713"><ele>178.0</ele><time>2026-04-18T12:53:57.89Z</time></trkpt><trkpt lat="43.79999" lon="12.7129183"><ele>178.0</ele><time>2026-04-18T12:53:58.888Z</time></trkpt><trkpt lat="43.80005" lon="12.71284"><ele>178.0</ele><time>2026-04-18T12:53:59.885Z</time></trkpt><trkpt lat="43.8001083" lon="12.71277"><ele>178.0</ele><time>2026-04-18T12:54:00.889Z</time></trkpt><trkpt lat="43.8001633" lon="12.7127217"><ele>175.33333333333334</ele><time>2026-04-18T12:54:01.887Z</time></trkpt><trkpt lat="43.8002583" lon="12.7126467"><ele>172.66666666666669</ele><time>2026-04-18T12:54:03.885Z</time></trkpt><trkpt lat="43.8003367" lon="12.7125883"><ele>170.0</ele><time>2026-04-18T12:54:05.887Z</time></trkpt><trkpt lat="43.8004083" lon="12.7125517"><ele>167.33333333333334</ele><time>2026-04-18T12:54:07.887Z</time></trkpt><trkpt lat="43.8004783" lon="12.7125267"><ele>164.66666666666666</ele><time>2026-04-18T12:54:09.885Z</time></trkpt><trkpt lat="43.80055" lon="12.712505"><ele>162.0</ele><time>2026-04-18T12:54:11.889Z</time></trkpt><trkpt lat="43.800625" lon="12.7124767"><ele>162.0</ele><time>2026-04-18T12:54:13.889Z</time></trkpt><trkpt lat="43.8007033" lon="12.71246"><ele>162.0</ele><time>2026-04-18T12:54:15.89Z</time></trkpt><trkpt lat="43.8008" lon="12.7124583"><ele>162.0</ele><time>2026-04-18T12:54:31.888Z</time></trkpt><trkpt lat="43.800715" lon="12.7124633"><ele>162.0</ele><time>2026-04-18T12:54:34.888Z</time></trkpt><trkpt lat="43.8006233" lon="12.7124867"><ele>162.0</ele><time>2026-04-18T12:54:36.885Z</time></trkpt><trkpt lat="43.8005483" lon="12.712505"><ele>162.0</ele><time>2026-04-18T12:54:38.889Z</time></trkpt><trkpt lat="43.800465" lon="12.712525"><ele>162.0</ele><time>2026-04-18T12:54:41.889Z</time></trkpt><trkpt lat="43.8003833" lon="12.7125267"><ele>162.0</ele><time>2026-04-18T12:54:44.889Z</time></trkpt><trkpt lat="43.8003583" lon="12.7124283"><ele>162.0</ele><time>2026-04-18T12:54:47.887Z</time></trkpt><trkpt lat="43.8003483" lon="12.7123083"><ele>162.0</ele><time>2026-04-18T12:54:49.887Z</time></trkpt><trkpt lat="43.8003183" lon="12.71214"><ele>162.0</ele><time>2026-04-18T12:54:51.886Z</time></trkpt><trkpt lat="43.8003033" lon="12.7120467"><ele>162.0</ele><time>2026-04-18T12:54:52.887Z</time></trkpt><trkpt lat="43.8002883" lon="12.7119117"><ele>161.8</ele><time>2026-04-18T12:54:54.887Z</time></trkpt><trkpt lat="43.8002783" lon="12.7117417"><ele>161.6</ele><time>2026-04-18T12:55:12.889Z</time></trkpt><trkpt lat="43.8002767" lon="12.711645"><ele>161.4</ele><time>2026-04-18T12:55:13.89Z</time></trkpt><trkpt lat="43.8002767" lon="12.71155"><ele>161.20000000000002</ele><time>2026-04-18T12:55:14.886Z</time></trkpt><trkpt lat="43.8002783" lon="12.7114567"><ele>161.0</ele><time>2026-04-18T12:55:15.889Z</time></trkpt><trkpt lat="43.8003017" lon="12.71129"><ele>161.0</ele><time>2026-04-18T12:55:17.887Z</time></trkpt><trkpt lat="43.8003283" lon="12.7112083"><ele>161.0</ele><time>2026-04-18T12:55:18.887Z</time></trkpt><trkpt lat="43.8003617" lon="12.7111317"><ele>161.0</ele><time>2026-04-18T12:55:19.887Z</time></trkpt><trkpt lat="43.80041" lon="12.7109867"><ele>161.0</ele><time>2026-04-18T12:55:21.887Z</time></trkpt><trkpt lat="43.8004333" lon="12.71089"><ele>161.0</ele><time>2026-04-18T12:55:23.89Z</time></trkpt><trkpt lat="43.800395" lon="12.7109933"><ele>161.0</ele><time>2026-04-18T12:55:28.888Z</time></trkpt><trkpt lat="43.8003533" lon="12.71117"><ele>161.0</ele><time>2026-04-18T12:55:30.887Z</time></trkpt><trkpt lat="43.8003217" lon="12.7112767"><ele>161.0</ele><time>2026-04-18T12:55:31.889Z</time></trkpt><trkpt lat="43.8002967" lon="12.7113967"><ele>161.0</ele><time>2026-04-18T12:55:32.89Z</time></trkpt><trkpt lat="43.800285" lon="12.711525"><ele>161.0</ele><time>2026-04-18T12:55:33.901Z</time></trkpt><trkpt lat="43.8002917" lon="12.7116617"><ele>161.0</ele><time>2026-04-18T12:55:34.886Z</time></trkpt><trkpt lat="43.8003017" lon="12.711805"><ele>161.16666666666666</ele><time>2026-04-18T12:55:35.886Z</time></trkpt><trkpt lat="43.800315" lon="12.71194"><ele>161.33333333333331</ele><time>2026-04-18T12:55:36.888Z</time></trkpt><trkpt lat="43.800325" lon="12.712055"><ele>161.5</ele><time>2026-04-18T12:55:37.889Z</time></trkpt><trkpt lat="43.80034" lon="12.7121517"><ele>161.66666666666666</ele><time>2026-04-18T12:55:38.885Z</time></trkpt><trkpt lat="43.8003583" lon="12.7122417"><ele>161.83333333333334</ele><time>2026-04-18T12:55:39.89Z</time></trkpt><trkpt lat="43.8003733" lon="12.71239"><ele>162.0</ele><time>2026-04-18T12:55:41.888Z</time></trkpt><trkpt lat="43.8003833" lon="12.7124983"><ele>162.0</ele><time>2026-04-18T12:55:43.888Z</time></trkpt><trkpt lat="43.8004417" lon="12.71256"><ele>162.0</ele><time>2026-04-18T12:55:46.889Z</time></trkpt><trkpt lat="43.8005033" lon="12.7124917"><ele>162.0</ele><time>2026-04-18T12:55:50.889Z</time></trkpt><trkpt lat="43.80053" lon="12.712405"><ele>162.0</ele><time>2026-04-18T12:55:52.889Z</time></trkpt><trkpt lat="43.8005167" lon="12.7123067"><ele>162.0</ele><time>2026-04-18T12:55:54.89Z</time></trkpt><trkpt lat="43.8004683" lon="12.7122117"><ele>162.0</ele><time>2026-04-18T12:55:56.888Z</time></trkpt><trkpt lat="43.8004267" lon="12.7121117"><ele>162.0</ele><time>2026-04-18T12:55:58.887Z</time></trkpt><trkpt lat="43.8004017" lon="12.712025"><ele>162.0</ele><time>2026-04-18T12:56:00.89Z</time></trkpt><trkpt lat="43.8003933" lon="12.711925"><ele>162.0</ele><time>2026-04-18T12:56:02.885Z</time></trkpt><trkpt lat="43.8003883" lon="12.711815"><ele>162.0</ele><time>2026-04-18T12:56:04.887Z</time></trkpt><trkpt lat="43.800455" lon="12.7117067"><ele>162.0</ele><time>2026-04-18T12:56:07.887Z</time></trkpt><trkpt lat="43.800525" lon="12.7116267"><ele>162.0</ele><time>2026-04-18T12:56:09.886Z</time></trkpt><trkpt lat="43.800595" lon="12.7115417"><ele>161.8</ele><time>2026-04-18T12:56:11.886Z</time></trkpt><trkpt lat="43.8006467" lon="12.7114517"><ele>161.6</ele><time>2026-04-18T12:56:13.887Z</time></trkpt><trkpt lat="43.800695" lon="12.7113417"><ele>161.4</ele><time>2026-04-18T12:56:15.886Z</time></trkpt><trkpt lat="43.800745" lon="12.7112083"><ele>161.20000000000002</ele><time>2026-04-18T12:56:17.887Z</time></trkpt><trkpt lat="43.8007967" lon="12.7110717"><ele>161.0</ele><time>2026-04-18T12:56:19.89Z</time></trkpt><trkpt lat="43.80085" lon="12.7109467"><ele>159.60000000000002</ele><time>2026-04-18T12:56:21.887Z</time></trkpt><trkpt lat="43.80092" lon="12.7108183"><ele>158.20000000000002</ele><time>2026-04-18T12:56:23.886Z</time></trkpt><trkpt lat="43.8009867" lon="12.7106983"><ele>156.8</ele><time>2026-04-18T12:56:25.89Z</time></trkpt><trkpt lat="43.8010517" lon="12.7105883"><ele>155.4</ele><time>2026-04-18T12:56:27.886Z</time></trkpt><trkpt lat="43.801125" lon="12.7104833"><ele>154.0</ele><time>2026-04-18T12:56:29.89Z</time></trkpt><trkpt lat="43.8012033" lon="12.7103633"><ele>148.75</ele><time>2026-04-18T12:56:31.887Z</time></trkpt><trkpt lat="43.8012817" lon="12.71024"><ele>143.5</ele><time>2026-04-18T12:56:33.887Z</time></trkpt><trkpt lat="43.801355" lon="12.7101283"><ele>138.25</ele><time>2026-04-18T12:56:35.887Z</time></trkpt><trkpt lat="43.801425" lon="12.7100133"><ele>133.0</ele><time>2026-04-18T12:56:37.888Z</time></trkpt><trkpt lat="43.8015" lon="12.7098867"><ele>133.0</ele><time>2026-04-18T12:56:39.886Z</time></trkpt><trkpt lat="43.8015767" lon="12.709765"><ele>133.0</ele><time>2026-04-18T12:56:41.887Z</time></trkpt><trkpt lat="43.8016483" lon="12.7096417"><ele>133.0</ele><time>2026-04-18T12:56:43.887Z</time></trkpt><trkpt lat="43.801715" lon="12.709535"><ele>133.0</ele><time>2026-04-18T12:56:45.887Z</time></trkpt><trkpt lat="43.801805" lon="12.7094133"><ele>131.66666666666669</ele><time>2026-04-18T12:56:47.887Z</time></trkpt><trkpt lat="43.8018533" lon="12.709345"><ele>130.33333333333334</ele><time>2026-04-18T12:56:48.887Z</time></trkpt><trkpt lat="43.8019" lon="12.7092717"><ele>129.0</ele><time>2026-04-18T12:56:49.888Z</time></trkpt><trkpt lat="43.801945" lon="12.7092"><ele>127.66666666666666</ele><time>2026-04-18T12:56:50.886Z</time></trkpt><trkpt lat="43.8019917" lon="12.7091283"><ele>126.33333333333333</ele><time>2026-04-18T12:56:51.887Z</time></trkpt><trkpt lat="43.8020367" lon="12.7090617"><ele>125.0</ele><time>2026-04-18T12:56:52.887Z</time></trkpt><trkpt lat="43.8021117" lon="12.7089433"><ele>124.99999999999999</ele><time>2026-04-18T12:56:54.891Z</time></trkpt><trkpt lat="43.8021733" lon="12.7088733"><ele>125.0</ele><time>2026-04-18T12:56:56.89Z</time></trkpt><trkpt lat="43.8022333" lon="12.70884"><ele>125.0</ele><time>2026-04-18T12:56:58.89Z</time></trkpt><trkpt lat="43.802305" lon="12.7088383"><ele>125.0</ele><time>2026-04-18T12:57:00.887Z</time></trkpt><trkpt lat="43.80238" lon="12.708865"><ele>124.99999999999999</ele><time>2026-04-18T12:57:03.887Z</time></trkpt><trkpt lat="43.8024617" lon="12.7088233"><ele>125.0</ele><time>2026-04-18T13:00:35.886Z</time></trkpt><trkpt lat="43.8024983" lon="12.7087117"><ele>125.0</ele><time>2026-04-18T13:00:38.887Z</time></trkpt><trkpt lat="43.802505" lon="12.7086117"><ele>125.0</ele><time>2026-04-18T13:00:40.889Z</time></trkpt><trkpt lat="43.8024983" lon="12.7085167"><ele>125.0</ele><time>2026-04-18T13:00:42.887Z</time></trkpt><trkpt lat="43.80249" lon="12.7084133"><ele>125.0</ele><time>2026-04-18T13:00:44.886Z</time></trkpt><trkpt lat="43.802475" lon="12.708315"><ele>125.0</ele><time>2026-04-18T13:00:46.886Z</time></trkpt><trkpt lat="43.802465" lon="12.708195"><ele>125.0</ele><time>2026-04-18T13:00:49.888Z</time></trkpt><trkpt lat="43.80247" lon="12.7081033"><ele>125.0</ele><time>2026-04-18T13:00:52.888Z</time></trkpt><trkpt lat="43.8024267" lon="12.7082133"><ele>124.99999999999999</ele><time>2026-04-18T13:10:56.886Z</time></trkpt><trkpt lat="43.8024467" lon="12.7083567"><ele>125.0</ele><time>2026-04-18T13:10:58.887Z</time></trkpt><trkpt lat="43.802465" lon="12.7085083"><ele>125.0</ele><time>2026-04-18T13:11:00.887Z</time></trkpt><trkpt lat="43.80248" lon="12.708625"><ele>125.0</ele><time>2026-04-18T13:11:02.887Z</time></trkpt><trkpt lat="43.8024767" lon="12.7087233"><ele>124.99999999999999</ele><time>2026-04-18T13:11:04.886Z</time></trkpt><trkpt lat="43.8024433" lon="12.7088083"><ele>125.0</ele><time>2026-04-18T13:11:06.887Z</time></trkpt><trkpt lat="43.8023733" lon="12.7088317"><ele>124.99999999999999</ele><time>2026-04-18T13:11:09.89Z</time></trkpt><trkpt lat="43.8022867" lon="12.70881"><ele>125.0</ele><time>2026-04-18T13:11:12.887Z</time></trkpt><trkpt lat="43.8022233" lon="12.7088117"><ele>125.0</ele><time>2026-04-18T13:11:14.887Z</time></trkpt><trkpt lat="43.80216" lon="12.7088733"><ele>125.0</ele><time>2026-04-18T13:11:17.887Z</time></trkpt><trkpt lat="43.8020883" lon="12.708975"><ele>124.99999999999999</ele><time>2026-04-18T13:11:19.887Z</time></trkpt><trkpt lat="43.8020467" lon="12.709045"><ele>125.0</ele><time>2026-04-18T13:11:20.887Z</time></trkpt><trkpt lat="43.8020067" lon="12.7091183"><ele>125.0</ele><time>2026-04-18T13:11:21.885Z</time></trkpt><trkpt lat="43.8019617" lon="12.7091883"><ele>125.0</ele><time>2026-04-18T13:11:22.886Z</time></trkpt><trkpt lat="43.8019167" lon="12.7092567"><ele>125.0</ele><time>2026-04-18T13:11:23.886Z</time></trkpt><trkpt lat="43.8018717" lon="12.709325"><ele>125.0</ele><time>2026-04-18T13:11:24.888Z</time></trkpt><trkpt lat="43.80182" lon="12.709395"><ele>125.0</ele><time>2026-04-18T13:11:25.888Z</time></trkpt><trkpt lat="43.80177" lon="12.7094633"><ele>125.0</ele><time>2026-04-18T13:11:26.886Z</time></trkpt><trkpt lat="43.801725" lon="12.7095317"><ele>125.0</ele><time>2026-04-18T13:11:27.886Z</time></trkpt><trkpt lat="43.80165" lon="12.7096583"><ele>126.33333333333333</ele><time>2026-04-18T13:11:29.887Z</time></trkpt><trkpt lat="43.801605" lon="12.7097267"><ele>127.66666666666666</ele><time>2026-04-18T13:11:30.886Z</time></trkpt><trkpt lat="43.801555" lon="12.709805"><ele>129.0</ele><time>2026-04-18T13:11:31.887Z</time></trkpt><trkpt lat="43.801495" lon="12.70989"><ele>130.33333333333334</ele><time>2026-04-18T13:11:32.885Z</time></trkpt><trkpt lat="43.801445" lon="12.7099667"><ele>131.66666666666669</ele><time>2026-04-18T13:11:33.888Z</time></trkpt><trkpt lat="43.801385" lon="12.7100467"><ele>133.0</ele><time>2026-04-18T13:11:34.889Z</time></trkpt><trkpt lat="43.8013217" lon="12.710135"><ele>133.0</ele><time>2026-04-18T13:11:35.887Z</time></trkpt><trkpt lat="43.8012617" lon="12.7102217"><ele>133.0</ele><time>2026-04-18T13:11:36.886Z</time></trkpt><trkpt lat="43.8012067" lon="12.7103083"><ele>133.0</ele><time>2026-04-18T13:11:37.887Z</time></trkpt><trkpt lat="43.80115" lon="12.710395"><ele>133.0</ele><time>2026-04-18T13:11:38.887Z</time></trkpt><trkpt lat="43.8010917" lon="12.71049"><ele>133.0</ele><time>2026-04-18T13:11:39.887Z</time></trkpt><trkpt lat="43.8010317" lon="12.7105933"><ele>133.0</ele><time>2026-04-18T13:11:40.887Z</time></trkpt><trkpt lat="43.8009717" lon="12.7106967"><ele>137.20000000000002</ele><time>2026-04-18T13:11:41.886Z</time></trkpt><trkpt lat="43.8009083" lon="12.7108"><ele>141.4</ele><time>2026-04-18T13:11:42.887Z</time></trkpt><trkpt lat="43.8008483" lon="12.7109067"><ele>145.60000000000002</ele><time>2026-04-18T13:11:43.887Z</time></trkpt><trkpt lat="43.8007917" lon="12.7110083"><ele>149.8</ele><time>2026-04-18T13:11:44.888Z</time></trkpt><trkpt lat="43.8007467" lon="12.7111083"><ele>154.0</ele><time>2026-04-18T13:11:45.887Z</time></trkpt><trkpt lat="43.8007033" lon="12.7112017"><ele>155.16666666666669</ele><time>2026-04-18T13:11:46.888Z</time></trkpt><trkpt lat="43.8006683" lon="12.7112883"><ele>156.33333333333334</ele><time>2026-04-18T13:11:47.885Z</time></trkpt><trkpt lat="43.80063" lon="12.7113633"><ele>157.5</ele><time>2026-04-18T13:11:48.885Z</time></trkpt><trkpt lat="43.80055" lon="12.7114867"><ele>158.66666666666666</ele><time>2026-04-18T13:11:50.884Z</time></trkpt><trkpt lat="43.8005017" lon="12.711545"><ele>159.83333333333331</ele><time>2026-04-18T13:11:51.885Z</time></trkpt><trkpt lat="43.800445" lon="12.7116083"><ele>161.0</ele><time>2026-04-18T13:11:52.886Z</time></trkpt><trkpt lat="43.80039" lon="12.71167"><ele>161.0</ele><time>2026-04-18T13:11:53.885Z</time></trkpt><trkpt lat="43.8003333" lon="12.711775"><ele>161.0</ele><time>2026-04-18T13:11:55.889Z</time></trkpt><trkpt lat="43.8003483" lon="12.7119033"><ele>161.0</ele><time>2026-04-18T13:11:57.886Z</time></trkpt><trkpt lat="43.80039" lon="12.712065"><ele>161.0</ele><time>2026-04-18T13:11:59.885Z</time></trkpt><trkpt lat="43.800435" lon="12.71219"><ele>161.0</ele><time>2026-04-18T13:12:01.885Z</time></trkpt><trkpt lat="43.800475" lon="12.7122917"><ele>161.20000000000002</ele><time>2026-04-18T13:12:03.886Z</time></trkpt><trkpt lat="43.80047" lon="12.71242"><ele>161.4</ele><time>2026-04-18T13:12:06.887Z</time></trkpt><trkpt lat="43.80043" lon="12.7125017"><ele>161.6</ele><time>2026-04-18T13:12:14.886Z</time></trkpt><trkpt lat="43.80036" lon="12.7125633"><ele>161.8</ele><time>2026-04-18T13:12:17.885Z</time></trkpt><trkpt lat="43.800275" lon="12.7126383"><ele>162.0</ele><time>2026-04-18T13:12:19.885Z</time></trkpt><trkpt lat="43.800175" lon="12.71273"><ele>164.28571428571428</ele><time>2026-04-18T13:12:21.888Z</time></trkpt><trkpt lat="43.8001233" lon="12.7127867"><ele>166.57142857142856</ele><time>2026-04-18T13:12:22.885Z</time></trkpt><trkpt lat="43.8000683" lon="12.712855"><ele>168.85714285714283</ele><time>2026-04-18T13:12:23.885Z</time></trkpt><trkpt lat="43.8000167" lon="12.712935"><ele>171.14285714285714</ele><time>2026-04-18T13:12:24.885Z</time></trkpt><trkpt lat="43.7999667" lon="12.713015"><ele>173.42857142857142</ele><time>2026-04-18T13:12:25.885Z</time></trkpt><trkpt lat="43.799925" lon="12.7130967"><ele>175.7142857142857</ele><time>2026-04-18T13:12:26.889Z</time></trkpt><trkpt lat="43.7998983" lon="12.713185"><ele>178.0</ele><time>2026-04-18T13:12:27.886Z</time></trkpt><trkpt lat="43.79989" lon="12.7132767"><ele>177.99999999999997</ele><time>2026-04-18T13:12:28.885Z</time></trkpt><trkpt lat="43.7998817" lon="12.7133717"><ele>178.0</ele><time>2026-04-18T13:12:29.886Z</time></trkpt><trkpt lat="43.799865" lon="12.7134667"><ele>178.0</ele><time>2026-04-18T13:12:30.885Z</time></trkpt><trkpt lat="43.79983" lon="12.7135567"><ele>178.0</ele><time>2026-04-18T13:12:31.887Z</time></trkpt><trkpt lat="43.7997833" lon="12.7136383"><ele>178.0</ele><time>2026-04-18T13:12:32.884Z</time></trkpt><trkpt lat="43.79973" lon="12.71371"><ele>177.99999999999997</ele><time>2026-04-18T13:12:33.886Z</time></trkpt><trkpt lat="43.7996783" lon="12.7137833"><ele>178.0</ele><time>2026-04-18T13:12:34.885Z</time></trkpt><trkpt lat="43.7996167" lon="12.7138417"><ele>175.66666666666669</ele><time>2026-04-18T13:12:35.886Z</time></trkpt><trkpt lat="43.7995583" lon="12.7138867"><ele>173.33333333333334</ele><time>2026-04-18T13:12:36.885Z</time></trkpt><trkpt lat="43.7995" lon="12.7139383"><ele>171.0</ele><time>2026-04-18T13:12:37.886Z</time></trkpt><trkpt lat="43.799395" lon="12.714015"><ele>168.66666666666666</ele><time>2026-04-18T13:12:39.885Z</time></trkpt><trkpt lat="43.7993283" lon="12.71404"><ele>166.33333333333331</ele><time>2026-04-18T13:12:40.885Z</time></trkpt><trkpt lat="43.79925" lon="12.7140783"><ele>164.0</ele><time>2026-04-18T13:12:41.885Z</time></trkpt><trkpt lat="43.7991667" lon="12.71413"><ele>167.16666666666666</ele><time>2026-04-18T13:12:42.885Z</time></trkpt><trkpt lat="43.7990917" lon="12.714185"><ele>170.33333333333331</ele><time>2026-04-18T13:12:43.887Z</time></trkpt><trkpt lat="43.7990183" lon="12.7142433"><ele>173.5</ele><time>2026-04-18T13:12:44.887Z</time></trkpt><trkpt lat="43.7989517" lon="12.7142933"><ele>176.66666666666666</ele><time>2026-04-18T13:12:45.885Z</time></trkpt><trkpt lat="43.7988967" lon="12.7143417"><ele>179.83333333333334</ele><time>2026-04-18T13:12:46.886Z</time></trkpt><trkpt lat="43.7988267" lon="12.7143933"><ele>183.0</ele><time>2026-04-18T13:12:48.887Z</time></trkpt><trkpt lat="43.7987533" lon="12.71441"><ele>183.0</ele><time>2026-04-18T13:12:53.886Z</time></trkpt><trkpt lat="43.79867" lon="12.7144317"><ele>183.0</ele><time>2026-04-18T13:12:55.887Z</time></trkpt><trkpt lat="43.7985983" lon="12.7144583"><ele>183.0</ele><time>2026-04-18T13:12:56.886Z</time></trkpt><trkpt lat="43.7985233" lon="12.7144717"><ele>183.0</ele><time>2026-04-18T13:12:57.885Z</time></trkpt><trkpt lat="43.7984033" lon="12.7144717"><ele>183.0</ele><time>2026-04-18T13:12:59.885Z</time></trkpt><trkpt lat="43.7983" lon="12.7144767"><ele>188.33333333333334</ele><time>2026-04-18T13:13:01.887Z</time></trkpt><trkpt lat="43.798235" lon="12.7144733"><ele>193.66666666666669</ele><time>2026-04-18T13:13:02.885Z</time></trkpt><trkpt lat="43.798145" lon="12.714465"><ele>199.0</ele><time>2026-04-18T13:13:03.885Z</time></trkpt><trkpt lat="43.798055" lon="12.7144633"><ele>204.33333333333334</ele><time>2026-04-18T13:13:04.886Z</time></trkpt><trkpt lat="43.797955" lon="12.7144533"><ele>209.66666666666669</ele><time>2026-04-18T13:13:05.889Z</time></trkpt><trkpt lat="43.79786" lon="12.714435"><ele>215.0</ele><time>2026-04-18T13:13:06.886Z</time></trkpt><trkpt lat="43.797775" lon="12.7144083"><ele>216.83333333333334</ele><time>2026-04-18T13:13:07.887Z</time></trkpt><trkpt lat="43.7977033" lon="12.71437"><ele>218.66666666666669</ele><time>2026-04-18T13:13:08.889Z</time></trkpt><trkpt lat="43.7976367" lon="12.7143367"><ele>220.5</ele><time>2026-04-18T13:13:09.887Z</time></trkpt><trkpt lat="43.79758" lon="12.71429"><ele>222.33333333333331</ele><time>2026-04-18T13:13:10.889Z</time></trkpt><trkpt lat="43.7975083" lon="12.71419"><ele>224.16666666666666</ele><time>2026-04-18T13:13:12.888Z</time></trkpt><trkpt lat="43.79748" lon="12.7141033"><ele>226.0</ele><time>2026-04-18T13:13:15.886Z</time></trkpt><trkpt lat="43.7975517" lon="12.7140667"><ele>226.0</ele><time>2026-04-18T13:13:19.886Z</time></trkpt><trkpt lat="43.7976633" lon="12.7141167"><ele>226.00000000000003</ele><time>2026-04-18T13:13:21.886Z</time></trkpt><trkpt lat="43.7977583" lon="12.71411"><ele>226.00000000000003</ele><time>2026-04-18T13:13:23.885Z</time></trkpt><trkpt lat="43.79784" lon="12.7140083"><ele>226.0</ele><time>2026-04-18T13:13:25.886Z</time></trkpt><trkpt lat="43.7978967" lon="12.71386"><ele>226.0</ele><time>2026-04-18T13:13:27.888Z</time></trkpt><trkpt lat="43.7978883" lon="12.7136883"><ele>225.99999999999997</ele><time>2026-04-18T13:13:29.885Z</time></trkpt><trkpt lat="43.7978717" lon="12.7135867"><ele>226.0</ele><time>2026-04-18T13:13:30.885Z</time></trkpt><trkpt lat="43.797865" lon="12.71348"><ele>226.0</ele><time>2026-04-18T13:13:31.886Z</time></trkpt><trkpt lat="43.7978683" lon="12.7133717"><ele>226.0</ele><time>2026-04-18T13:13:32.885Z</time></trkpt><trkpt lat="43.7978733" lon="12.7132633"><ele>225.99999999999997</ele><time>2026-04-18T13:13:33.886Z</time></trkpt><trkpt lat="43.7978783" lon="12.7131567"><ele>226.0</ele><time>2026-04-18T13:13:34.885Z</time></trkpt><trkpt lat="43.7978717" lon="12.7130533"><ele>226.0</ele><time>2026-04-18T13:13:35.885Z</time></trkpt><trkpt lat="43.7978467" lon="12.712945"><ele>226.00000000000003</ele><time>2026-04-18T13:13:36.889Z</time></trkpt><trkpt lat="43.7978017" lon="12.7128383"><ele>226.00000000000003</ele><time>2026-04-18T13:13:37.887Z</time></trkpt><trkpt lat="43.7977433" lon="12.71271"><ele>226.0</ele><time>2026-04-18T13:13:38.886Z</time></trkpt><trkpt lat="43.7976867" lon="12.7125683"><ele>226.0</ele><time>2026-04-18T13:13:39.885Z</time></trkpt><trkpt lat="43.79764" lon="12.7124383"><ele>230.60000000000002</ele><time>2026-04-18T13:13:40.888Z</time></trkpt><trkpt lat="43.79759" lon="12.7123267"><ele>235.20000000000002</ele><time>2026-04-18T13:13:41.888Z</time></trkpt><trkpt lat="43.7975383" lon="12.7122333"><ele>239.79999999999998</ele><time>2026-04-18T13:13:42.886Z</time></trkpt><trkpt lat="43.7974783" lon="12.71216"><ele>244.39999999999998</ele><time>2026-04-18T13:13:43.886Z</time></trkpt><trkpt lat="43.7973983" lon="12.7121117"><ele>249.0</ele><time>2026-04-18T13:13:44.886Z</time></trkpt><trkpt lat="43.797295" lon="12.7120733"><ele>249.0</ele><time>2026-04-18T13:13:45.888Z</time></trkpt><trkpt lat="43.7971767" lon="12.71203"><ele>248.99999999999997</ele><time>2026-04-18T13:13:46.889Z</time></trkpt><trkpt lat="43.797065" lon="12.7119967"><ele>248.99999999999997</ele><time>2026-04-18T13:13:47.886Z</time></trkpt><trkpt lat="43.7969617" lon="12.7119667"><ele>249.0</ele><time>2026-04-18T13:13:48.887Z</time></trkpt><trkpt lat="43.7968633" lon="12.7119317"><ele>249.0</ele><time>2026-04-18T13:13:49.886Z</time></trkpt><trkpt lat="43.7967683" lon="12.7118933"><ele>251.5</ele><time>2026-04-18T13:13:50.887Z</time></trkpt><trkpt lat="43.79668" lon="12.7118667"><ele>254.0</ele><time>2026-04-18T13:13:51.887Z</time></trkpt><trkpt lat="43.7965867" lon="12.7118317"><ele>256.5</ele><time>2026-04-18T13:13:52.887Z</time></trkpt><trkpt lat="43.7965017" lon="12.7118"><ele>259.0</ele><time>2026-04-18T13:13:53.886Z</time></trkpt><trkpt lat="43.7964317" lon="12.7117683"><ele>261.5</ele><time>2026-04-18T13:13:54.886Z</time></trkpt><trkpt lat="43.79637" lon="12.711735"><ele>264.0</ele><time>2026-04-18T13:13:55.886Z</time></trkpt><trkpt lat="43.7962983" lon="12.7116467"><ele>264.0</ele><time>2026-04-18T13:13:57.886Z</time></trkpt><trkpt lat="43.796285" lon="12.711535"><ele>264.0</ele><time>2026-04-18T13:13:59.887Z</time></trkpt><trkpt lat="43.7962883" lon="12.71137"><ele>264.0</ele><time>2026-04-18T13:14:01.887Z</time></trkpt><trkpt lat="43.7962917" lon="12.711255"><ele>264.0</ele><time>2026-04-18T13:14:02.886Z</time></trkpt><trkpt lat="43.7962983" lon="12.7111067"><ele>264.0</ele><time>2026-04-18T13:14:03.886Z</time></trkpt><trkpt lat="43.7963017" lon="12.7109467"><ele>266.8</ele><time>2026-04-18T13:14:04.886Z</time></trkpt><trkpt lat="43.7963017" lon="12.7107933"><ele>269.59999999999997</ele><time>2026-04-18T13:14:05.886Z</time></trkpt><trkpt lat="43.7962933" lon="12.7106783"><ele>272.4</ele><time>2026-04-18T13:14:06.887Z</time></trkpt><trkpt lat="43.796285" lon="12.71056"><ele>275.2</ele><time>2026-04-18T13:14:07.889Z</time></trkpt><trkpt lat="43.7962567" lon="12.7104367"><ele>278.0</ele><time>2026-04-18T13:14:08.887Z</time></trkpt><trkpt lat="43.7962283" lon="12.7103"><ele>279.6</ele><time>2026-04-18T13:14:09.886Z</time></trkpt><trkpt lat="43.7961967" lon="12.7101633"><ele>281.20000000000005</ele><time>2026-04-18T13:14:10.887Z</time></trkpt><trkpt lat="43.7961567" lon="12.710015"><ele>282.8</ele><time>2026-04-18T13:14:11.888Z</time></trkpt><trkpt lat="43.7961283" lon="12.7098667"><ele>284.40000000000003</ele><time>2026-04-18T13:14:12.886Z</time></trkpt><trkpt lat="43.796095" lon="12.7097217"><ele>286.0</ele><time>2026-04-18T13:14:13.888Z</time></trkpt><trkpt lat="43.7960683" lon="12.7095833"><ele>286.0</ele><time>2026-04-18T13:14:14.887Z</time></trkpt><trkpt lat="43.796045" lon="12.70944"><ele>286.0</ele><time>2026-04-18T13:14:15.887Z</time></trkpt><trkpt lat="43.7960217" lon="12.7092983"><ele>286.0</ele><time>2026-04-18T13:14:16.886Z</time></trkpt><trkpt lat="43.79599" lon="12.709165"><ele>286.0</ele><time>2026-04-18T13:14:17.886Z</time></trkpt><trkpt lat="43.79596" lon="12.709025"><ele>286.0</ele><time>2026-04-18T13:14:18.886Z</time></trkpt><trkpt lat="43.7959217" lon="12.7088767"><ele>283.0</ele><time>2026-04-18T13:14:19.887Z</time></trkpt><trkpt lat="43.7958817" lon="12.70873"><ele>280.0</ele><time>2026-04-18T13:14:20.887Z</time></trkpt><trkpt lat="43.795845" lon="12.708585"><ele>277.0</ele><time>2026-04-18T13:14:21.886Z</time></trkpt><trkpt lat="43.7958" lon="12.708445"><ele>274.0</ele><time>2026-04-18T13:14:22.886Z</time></trkpt><trkpt lat="43.7957533" lon="12.708315"><ele>271.0</ele><time>2026-04-18T13:14:23.887Z</time></trkpt><trkpt lat="43.7957033" lon="12.7082017"><ele>271.0</ele><time>2026-04-18T13:14:24.89Z</time></trkpt><trkpt lat="43.7956517" lon="12.7080967"><ele>271.0</ele><time>2026-04-18T13:14:25.891Z</time></trkpt><trkpt lat="43.7956017" lon="12.7079983"><ele>271.0</ele><time>2026-04-18T13:14:26.888Z</time></trkpt><trkpt lat="43.7955567" lon="12.7078983"><ele>271.0</ele><time>2026-04-18T13:14:27.886Z</time></trkpt><trkpt lat="43.7955067" lon="12.70779"><ele>271.0</ele><time>2026-04-18T13:14:28.886Z</time></trkpt><trkpt lat="43.7954533" lon="12.70768"><ele>272.0</ele><time>2026-04-18T13:14:29.886Z</time></trkpt><trkpt lat="43.7953983" lon="12.707575"><ele>273.0</ele><time>2026-04-18T13:14:30.888Z</time></trkpt><trkpt lat="43.79535" lon="12.7074717"><ele>274.0</ele><time>2026-04-18T13:14:31.887Z</time></trkpt><trkpt lat="43.795305" lon="12.7073733"><ele>275.0</ele><time>2026-04-18T13:14:32.886Z</time></trkpt><trkpt lat="43.7952683" lon="12.7072933"><ele>276.0</ele><time>2026-04-18T13:14:33.887Z</time></trkpt><trkpt lat="43.795245" lon="12.70713"><ele>276.0</ele><time>2026-04-18T13:14:35.89Z</time></trkpt><trkpt lat="43.79526" lon="12.7070367"><ele>276.0</ele><time>2026-04-18T13:14:36.887Z</time></trkpt><trkpt lat="43.7952817" lon="12.7069333"><ele>276.0</ele><time>2026-04-18T13:14:37.89Z</time></trkpt><trkpt lat="43.795305" lon="12.7068333"><ele>276.0</ele><time>2026-04-18T13:14:38.89Z</time></trkpt><trkpt lat="43.79533" lon="12.7067317"><ele>276.0</ele><time>2026-04-18T13:14:39.886Z</time></trkpt><trkpt lat="43.795335" lon="12.70662"><ele>276.0</ele><time>2026-04-18T13:14:40.889Z</time></trkpt><trkpt lat="43.7953267" lon="12.7065067"><ele>275.8333333333333</ele><time>2026-04-18T13:14:41.889Z</time></trkpt><trkpt lat="43.7953133" lon="12.7064033"><ele>275.6666666666667</ele><time>2026-04-18T13:14:42.888Z</time></trkpt><trkpt lat="43.795295" lon="12.7063133"><ele>275.5</ele><time>2026-04-18T13:14:43.887Z</time></trkpt><trkpt lat="43.795265" lon="12.7062333"><ele>275.33333333333337</ele><time>2026-04-18T13:14:44.89Z</time></trkpt><trkpt lat="43.795225" lon="12.7061633"><ele>275.1666666666667</ele><time>2026-04-18T13:14:45.889Z</time></trkpt><trkpt lat="43.7951483" lon="12.7060417"><ele>275.0</ele><time>2026-04-18T13:14:47.889Z</time></trkpt><trkpt lat="43.79508" lon="12.70595"><ele>274.0</ele><time>2026-04-18T13:14:49.887Z</time></trkpt><trkpt lat="43.7950067" lon="12.705955"><ele>273.0</ele><time>2026-04-18T13:14:51.889Z</time></trkpt><trkpt lat="43.7948933" lon="12.7060333"><ele>272.0</ele><time>2026-04-18T13:14:53.887Z</time></trkpt><trkpt lat="43.7948233" lon="12.70609"><ele>271.0</ele><time>2026-04-18T13:14:54.885Z</time></trkpt><trkpt lat="43.7947583" lon="12.7061433"><ele>270.0</ele><time>2026-04-18T13:14:55.89Z</time></trkpt><trkpt lat="43.794695" lon="12.706195"><ele>269.0</ele><time>2026-04-18T13:14:56.886Z</time></trkpt><trkpt lat="43.7946367" lon="12.70625"><ele>269.0</ele><time>2026-04-18T13:14:57.889Z</time></trkpt><trkpt lat="43.79456" lon="12.7063467"><ele>269.0</ele><time>2026-04-18T13:14:59.889Z</time></trkpt><trkpt lat="43.7945183" lon="12.70626"><ele>269.0</ele><time>2026-04-18T13:15:04.888Z</time></trkpt><trkpt lat="43.7945917" lon="12.706085"><ele>269.0</ele><time>2026-04-18T13:15:06.889Z</time></trkpt><trkpt lat="43.7947017" lon="12.705975"><ele>267.5</ele><time>2026-04-18T13:15:07.889Z</time></trkpt><trkpt lat="43.7948233" lon="12.7058717"><ele>266.0</ele><time>2026-04-18T13:15:08.89Z</time></trkpt><trkpt lat="43.794925" lon="12.7057583"><ele>264.5</ele><time>2026-04-18T13:15:09.887Z</time></trkpt><trkpt lat="43.79501" lon="12.705625"><ele>263.0</ele><time>2026-04-18T13:15:10.89Z</time></trkpt><trkpt lat="43.7950983" lon="12.705495"><ele>262.25</ele><time>2026-04-18T13:15:11.889Z</time></trkpt><trkpt lat="43.7951883" lon="12.7053783"><ele>261.5</ele><time>2026-04-18T13:15:12.886Z</time></trkpt><trkpt lat="43.795285" lon="12.7052733"><ele>260.75</ele><time>2026-04-18T13:15:13.887Z</time></trkpt><trkpt lat="43.795395" lon="12.70518"><ele>260.0</ele><time>2026-04-18T13:15:14.886Z</time></trkpt><trkpt lat="43.7955067" lon="12.7050933"><ele>260.0</ele><time>2026-04-18T13:15:15.886Z</time></trkpt><trkpt lat="43.7956167" lon="12.7050133"><ele>260.0</ele><time>2026-04-18T13:15:16.886Z</time></trkpt><trkpt lat="43.7957167" lon="12.7049367"><ele>260.0</ele><time>2026-04-18T13:15:17.888Z</time></trkpt><trkpt lat="43.7958017" lon="12.704865"><ele>260.0</ele><time>2026-04-18T13:15:18.886Z</time></trkpt><trkpt lat="43.795875" lon="12.7047867"><ele>260.0</ele><time>2026-04-18T13:15:19.886Z</time></trkpt><trkpt lat="43.7959367" lon="12.7046967"><ele>260.0</ele><time>2026-04-18T13:15:20.888Z</time></trkpt><trkpt lat="43.795975" lon="12.7045933"><ele>260.0</ele><time>2026-04-18T13:15:21.886Z</time></trkpt><trkpt lat="43.7959983" lon="12.704475"><ele>260.0</ele><time>2026-04-18T13:15:22.886Z</time></trkpt><trkpt lat="43.7959983" lon="12.7043467"><ele>260.0</ele><time>2026-04-18T13:15:23.888Z</time></trkpt><trkpt lat="43.7959783" lon="12.70422"><ele>260.0</ele><time>2026-04-18T13:15:24.89Z</time></trkpt><trkpt lat="43.795935" lon="12.70409"><ele>259.75</ele><time>2026-04-18T13:15:25.888Z</time></trkpt><trkpt lat="43.7958633" lon="12.70395"><ele>259.5</ele><time>2026-04-18T13:15:26.888Z</time></trkpt><trkpt lat="43.7957867" lon="12.7038083"><ele>259.25</ele><time>2026-04-18T13:15:27.887Z</time></trkpt><trkpt lat="43.7957217" lon="12.70367"><ele>259.0</ele><time>2026-04-18T13:15:28.889Z</time></trkpt><trkpt lat="43.7956717" lon="12.70353"><ele>260.59999999999997</ele><time>2026-04-18T13:15:29.889Z</time></trkpt><trkpt lat="43.7956283" lon="12.7033833"><ele>262.2</ele><time>2026-04-18T13:15:30.887Z</time></trkpt><trkpt lat="43.7955917" lon="12.703235"><ele>263.79999999999995</ele><time>2026-04-18T13:15:31.887Z</time></trkpt><trkpt lat="43.79555" lon="12.7030983"><ele>265.4</ele><time>2026-04-18T13:15:32.887Z</time></trkpt><trkpt lat="43.7955067" lon="12.7029733"><ele>267.0</ele><time>2026-04-18T13:15:33.889Z</time></trkpt><trkpt lat="43.7954583" lon="12.7028567"><ele>267.2</ele><time>2026-04-18T13:15:34.89Z</time></trkpt><trkpt lat="43.7954117" lon="12.7027367"><ele>267.4</ele><time>2026-04-18T13:15:35.889Z</time></trkpt><trkpt lat="43.7953733" lon="12.7026083"><ele>267.6</ele><time>2026-04-18T13:15:36.889Z</time></trkpt><trkpt lat="43.79535" lon="12.7024783"><ele>267.8</ele><time>2026-04-18T13:15:37.89Z</time></trkpt><trkpt lat="43.79534" lon="12.7023483"><ele>268.0</ele><time>2026-04-18T13:15:38.889Z</time></trkpt><trkpt lat="43.7953433" lon="12.702215"><ele>268.0</ele><time>2026-04-18T13:15:39.892Z</time></trkpt><trkpt lat="43.7953433" lon="12.7020883"><ele>268.0</ele><time>2026-04-18T13:15:40.89Z</time></trkpt><trkpt lat="43.795335" lon="12.70196"><ele>268.0</ele><time>2026-04-18T13:15:41.889Z</time></trkpt><trkpt lat="43.7953133" lon="12.7018183"><ele>268.0</ele><time>2026-04-18T13:15:42.889Z</time></trkpt><trkpt lat="43.7952867" lon="12.7016767"><ele>268.0</ele><time>2026-04-18T13:15:43.89Z</time></trkpt><trkpt lat="43.79525" lon="12.7015317"><ele>266.25</ele><time>2026-04-18T13:15:44.89Z</time></trkpt><trkpt lat="43.79521" lon="12.7013883"><ele>264.5</ele><time>2026-04-18T13:15:45.891Z</time></trkpt><trkpt lat="43.79516" lon="12.7012417"><ele>262.75</ele><time>2026-04-18T13:15:46.889Z</time></trkpt><trkpt lat="43.7951067" lon="12.7010933"><ele>261.0</ele><time>2026-04-18T13:15:47.886Z</time></trkpt><trkpt lat="43.7950383" lon="12.7009417"><ele>258.25</ele><time>2026-04-18T13:15:48.887Z</time></trkpt><trkpt lat="43.7949567" lon="12.7007883"><ele>255.5</ele><time>2026-04-18T13:15:49.887Z</time></trkpt><trkpt lat="43.7948667" lon="12.70063"><ele>252.75</ele><time>2026-04-18T13:15:50.888Z</time></trkpt><trkpt lat="43.7947667" lon="12.7004667"><ele>250.0</ele><time>2026-04-18T13:15:51.885Z</time></trkpt><trkpt lat="43.7946683" lon="12.7002983"><ele>249.0</ele><time>2026-04-18T13:15:52.886Z</time></trkpt><trkpt lat="43.7945783" lon="12.7001233"><ele>248.0</ele><time>2026-04-18T13:15:53.886Z</time></trkpt><trkpt lat="43.7944983" lon="12.69993"><ele>247.0</ele><time>2026-04-18T13:15:54.891Z</time></trkpt><trkpt lat="43.7944217" lon="12.69972"><ele>247.0</ele><time>2026-04-18T13:15:55.889Z</time></trkpt><trkpt lat="43.79434" lon="12.6995017"><ele>247.0</ele><time>2026-04-18T13:15:56.886Z</time></trkpt><trkpt lat="43.794255" lon="12.6992783"><ele>247.0</ele><time>2026-04-18T13:15:57.886Z</time></trkpt><trkpt lat="43.794175" lon="12.699055"><ele>248.33333333333331</ele><time>2026-04-18T13:15:58.89Z</time></trkpt><trkpt lat="43.7941" lon="12.698835"><ele>249.66666666666669</ele><time>2026-04-18T13:15:59.89Z</time></trkpt><trkpt lat="43.7940317" lon="12.6986317"><ele>251.0</ele><time>2026-04-18T13:16:00.889Z</time></trkpt><trkpt lat="43.7939617" lon="12.69845"><ele>251.75</ele><time>2026-04-18T13:16:01.891Z</time></trkpt><trkpt lat="43.793885" lon="12.6982883"><ele>252.5</ele><time>2026-04-18T13:16:02.89Z</time></trkpt><trkpt lat="43.793815" lon="12.69814"><ele>253.25</ele><time>2026-04-18T13:16:03.891Z</time></trkpt><trkpt lat="43.7937567" lon="12.697995"><ele>254.0</ele><time>2026-04-18T13:16:04.89Z</time></trkpt><trkpt lat="43.793715" lon="12.6978517"><ele>254.6</ele><time>2026-04-18T13:16:05.888Z</time></trkpt><trkpt lat="43.7936983" lon="12.69772"><ele>255.2</ele><time>2026-04-18T13:16:06.889Z</time></trkpt><trkpt lat="43.793705" lon="12.697585"><ele>255.79999999999998</ele><time>2026-04-18T13:16:07.89Z</time></trkpt><trkpt lat="43.7937383" lon="12.69744"><ele>256.4</ele><time>2026-04-18T13:16:08.889Z</time></trkpt><trkpt lat="43.7938" lon="12.6972783"><ele>257.0</ele><time>2026-04-18T13:16:09.889Z</time></trkpt><trkpt lat="43.7938683" lon="12.6971183"><ele>257.0</ele><time>2026-04-18T13:16:10.889Z</time></trkpt><trkpt lat="43.7939317" lon="12.696955"><ele>257.0</ele><time>2026-04-18T13:16:11.889Z</time></trkpt><trkpt lat="43.7939767" lon="12.696795"><ele>257.0</ele><time>2026-04-18T13:16:12.889Z</time></trkpt><trkpt lat="43.7940083" lon="12.696635"><ele>257.0</ele><time>2026-04-18T13:16:13.887Z</time></trkpt><trkpt lat="43.7940233" lon="12.6964767"><ele>255.25</ele><time>2026-04-18T13:16:14.89Z</time></trkpt><trkpt lat="43.79402" lon="12.69632"><ele>253.5</ele><time>2026-04-18T13:16:15.888Z</time></trkpt><trkpt lat="43.79398" lon="12.696155"><ele>251.75</ele><time>2026-04-18T13:16:16.889Z</time></trkpt><trkpt lat="43.7939117" lon="12.695985"><ele>250.0</ele><time>2026-04-18T13:16:17.885Z</time></trkpt><trkpt lat="43.7938333" lon="12.695815"><ele>247.5</ele><time>2026-04-18T13:16:18.885Z</time></trkpt><trkpt lat="43.793765" lon="12.695655"><ele>245.0</ele><time>2026-04-18T13:16:19.887Z</time></trkpt><trkpt lat="43.7937033" lon="12.695495"><ele>242.5</ele><time>2026-04-18T13:16:20.886Z</time></trkpt><trkpt lat="43.79365" lon="12.6953217"><ele>240.0</ele><time>2026-04-18T13:16:21.886Z</time></trkpt><trkpt lat="43.79361" lon="12.6951317"><ele>239.33333333333331</ele><time>2026-04-18T13:16:22.887Z</time></trkpt><trkpt lat="43.7935883" lon="12.6949267"><ele>238.66666666666666</ele><time>2026-04-18T13:16:23.886Z</time></trkpt><trkpt lat="43.793595" lon="12.6947067"><ele>238.0</ele><time>2026-04-18T13:16:24.885Z</time></trkpt><trkpt lat="43.7936217" lon="12.6944683"><ele>237.66666666666666</ele><time>2026-04-18T13:16:25.885Z</time></trkpt><trkpt lat="43.7936633" lon="12.6942217"><ele>237.33333333333331</ele><time>2026-04-18T13:16:26.885Z</time></trkpt><trkpt lat="43.7937133" lon="12.6939717"><ele>237.0</ele><time>2026-04-18T13:16:27.885Z</time></trkpt><trkpt lat="43.7937617" lon="12.6937333"><ele>237.0</ele><time>2026-04-18T13:16:28.888Z</time></trkpt><trkpt lat="43.7937917" lon="12.6935017"><ele>237.0</ele><time>2026-04-18T13:16:29.888Z</time></trkpt><trkpt lat="43.7937933" lon="12.693265"><ele>237.0</ele><time>2026-04-18T13:16:30.889Z</time></trkpt><trkpt lat="43.793765" lon="12.69301"><ele>239.0</ele><time>2026-04-18T13:16:31.889Z</time></trkpt><trkpt lat="43.793725" lon="12.6927417"><ele>241.0</ele><time>2026-04-18T13:16:32.888Z</time></trkpt><trkpt lat="43.7936883" lon="12.6924633"><ele>243.0</ele><time>2026-04-18T13:16:33.889Z</time></trkpt><trkpt lat="43.7936567" lon="12.6922017"><ele>243.0</ele><time>2026-04-18T13:16:34.889Z</time></trkpt><trkpt lat="43.793635" lon="12.6919767"><ele>243.0</ele><time>2026-04-18T13:16:35.888Z</time></trkpt><trkpt lat="43.7936367" lon="12.6917817"><ele>243.0</ele><time>2026-04-18T13:16:36.889Z</time></trkpt><trkpt lat="43.7936717" lon="12.691605"><ele>243.0</ele><time>2026-04-18T13:16:37.888Z</time></trkpt><trkpt lat="43.793735" lon="12.69144"><ele>245.0</ele><time>2026-04-18T13:16:38.888Z</time></trkpt><trkpt lat="43.7938083" lon="12.6912617"><ele>247.0</ele><time>2026-04-18T13:16:39.889Z</time></trkpt><trkpt lat="43.793875" lon="12.6910517"><ele>249.0</ele><time>2026-04-18T13:16:40.888Z</time></trkpt><trkpt lat="43.793935" lon="12.6908133"><ele>250.0</ele><time>2026-04-18T13:16:41.889Z</time></trkpt><trkpt lat="43.7939833" lon="12.6905467"><ele>251.0</ele><time>2026-04-18T13:16:42.888Z</time></trkpt><trkpt lat="43.79401" lon="12.6902483"><ele>252.0</ele><time>2026-04-18T13:16:43.889Z</time></trkpt><trkpt lat="43.7940267" lon="12.68994"><ele>253.66666666666669</ele><time>2026-04-18T13:16:44.889Z</time></trkpt><trkpt lat="43.7940417" lon="12.689655"><ele>255.33333333333334</ele><time>2026-04-18T13:16:45.889Z</time></trkpt><trkpt lat="43.7940617" lon="12.689405"><ele>257.0</ele><time>2026-04-18T13:16:46.886Z</time></trkpt><trkpt lat="43.7940967" lon="12.6891833"><ele>260.0</ele><time>2026-04-18T13:16:47.886Z</time></trkpt><trkpt lat="43.7941583" lon="12.6889833"><ele>263.0</ele><time>2026-04-18T13:16:48.887Z</time></trkpt><trkpt lat="43.794245" lon="12.68879"><ele>266.0</ele><time>2026-04-18T13:16:49.886Z</time></trkpt><trkpt lat="43.7943417" lon="12.6885817"><ele>266.0</ele><time>2026-04-18T13:16:50.886Z</time></trkpt><trkpt lat="43.7944383" lon="12.68835"><ele>266.0</ele><time>2026-04-18T13:16:51.886Z</time></trkpt><trkpt lat="43.7945233" lon="12.6881133"><ele>266.0</ele><time>2026-04-18T13:16:52.886Z</time></trkpt><trkpt lat="43.7945917" lon="12.687895"><ele>269.0</ele><time>2026-04-18T13:16:53.885Z</time></trkpt><trkpt lat="43.7946467" lon="12.6877067"><ele>272.0</ele><time>2026-04-18T13:16:54.886Z</time></trkpt><trkpt lat="43.7946933" lon="12.6875383"><ele>275.0</ele><time>2026-04-18T13:16:55.885Z</time></trkpt><trkpt lat="43.7947483" lon="12.6873967"><ele>278.0</ele><time>2026-04-18T13:16:56.887Z</time></trkpt><trkpt lat="43.7948167" lon="12.68727"><ele>278.0</ele><time>2026-04-18T13:16:57.887Z</time></trkpt><trkpt lat="43.7949033" lon="12.68716"><ele>278.0</ele><time>2026-04-18T13:16:58.886Z</time></trkpt><trkpt lat="43.7949967" lon="12.6870617"><ele>278.0</ele><time>2026-04-18T13:16:59.886Z</time></trkpt><trkpt lat="43.7950983" lon="12.6869867"><ele>278.0</ele><time>2026-04-18T13:17:00.886Z</time></trkpt><trkpt lat="43.7952017" lon="12.6869383"><ele>279.75</ele><time>2026-04-18T13:17:01.887Z</time></trkpt><trkpt lat="43.79531" lon="12.6869033"><ele>281.5</ele><time>2026-04-18T13:17:02.887Z</time></trkpt><trkpt lat="43.79542" lon="12.6868733"><ele>283.25</ele><time>2026-04-18T13:17:03.885Z</time></trkpt><trkpt lat="43.7955417" lon="12.6868483"><ele>285.0</ele><time>2026-04-18T13:17:04.887Z</time></trkpt><trkpt lat="43.7956633" lon="12.686825"><ele>285.0</ele><time>2026-04-18T13:17:05.886Z</time></trkpt><trkpt lat="43.795785" lon="12.686805"><ele>285.0</ele><time>2026-04-18T13:17:06.886Z</time></trkpt><trkpt lat="43.7959083" lon="12.6867883"><ele>285.0</ele><time>2026-04-18T13:17:07.886Z</time></trkpt><trkpt lat="43.7960367" lon="12.6867717"><ele>285.0</ele><time>2026-04-18T13:17:08.886Z</time></trkpt><trkpt lat="43.7961717" lon="12.686755"><ele>284.25</ele><time>2026-04-18T13:17:09.886Z</time></trkpt><trkpt lat="43.7963067" lon="12.686735"><ele>283.5</ele><time>2026-04-18T13:17:10.886Z</time></trkpt><trkpt lat="43.796435" lon="12.686715"><ele>282.75</ele><time>2026-04-18T13:17:11.886Z</time></trkpt><trkpt lat="43.79656" lon="12.6866967"><ele>282.0</ele><time>2026-04-18T13:17:12.886Z</time></trkpt><trkpt lat="43.7966867" lon="12.68668"><ele>282.0</ele><time>2026-04-18T13:17:13.886Z</time></trkpt><trkpt lat="43.7968167" lon="12.68667"><ele>282.0</ele><time>2026-04-18T13:17:14.885Z</time></trkpt><trkpt lat="43.7969417" lon="12.6866567"><ele>282.0</ele><time>2026-04-18T13:17:15.888Z</time></trkpt><trkpt lat="43.79706" lon="12.6866433"><ele>282.0</ele><time>2026-04-18T13:17:16.887Z</time></trkpt><trkpt lat="43.797175" lon="12.6866333"><ele>281.6</ele><time>2026-04-18T13:17:17.887Z</time></trkpt><trkpt lat="43.7972867" lon="12.6866333"><ele>281.2</ele><time>2026-04-18T13:17:18.889Z</time></trkpt><trkpt lat="43.79739" lon="12.6866517"><ele>280.8</ele><time>2026-04-18T13:17:19.886Z</time></trkpt><trkpt lat="43.7974883" lon="12.6866867"><ele>280.4</ele><time>2026-04-18T13:17:20.889Z</time></trkpt><trkpt lat="43.7975783" lon="12.6867333"><ele>280.0</ele><time>2026-04-18T13:17:21.886Z</time></trkpt><trkpt lat="43.7976633" lon="12.6867933"><ele>281.0</ele><time>2026-04-18T13:17:22.886Z</time></trkpt><trkpt lat="43.7977517" lon="12.6868717"><ele>282.0</ele><time>2026-04-18T13:17:23.887Z</time></trkpt><trkpt lat="43.7978417" lon="12.686955"><ele>283.0</ele><time>2026-04-18T13:17:24.886Z</time></trkpt><trkpt lat="43.7979317" lon="12.687035"><ele>284.0</ele><time>2026-04-18T13:17:25.888Z</time></trkpt><trkpt lat="43.7980167" lon="12.6871117"><ele>285.0</ele><time>2026-04-18T13:17:26.886Z</time></trkpt><trkpt lat="43.798105" lon="12.6871883"><ele>282.6</ele><time>2026-04-18T13:17:27.888Z</time></trkpt><trkpt lat="43.7981917" lon="12.6872683"><ele>280.2</ele><time>2026-04-18T13:17:28.886Z</time></trkpt><trkpt lat="43.7982867" lon="12.6873567"><ele>277.8</ele><time>2026-04-18T13:17:29.888Z</time></trkpt><trkpt lat="43.798385" lon="12.687445"><ele>275.4</ele><time>2026-04-18T13:17:30.886Z</time></trkpt><trkpt lat="43.79848" lon="12.687525"><ele>273.0</ele><time>2026-04-18T13:17:31.887Z</time></trkpt><trkpt lat="43.7985717" lon="12.6876017"><ele>273.0</ele><time>2026-04-18T13:17:32.887Z</time></trkpt><trkpt lat="43.79866" lon="12.687675"><ele>273.0</ele><time>2026-04-18T13:17:33.889Z</time></trkpt><trkpt lat="43.7987483" lon="12.6877533"><ele>273.0</ele><time>2026-04-18T13:17:34.888Z</time></trkpt><trkpt lat="43.7988417" lon="12.6878317"><ele>273.0</ele><time>2026-04-18T13:17:35.889Z</time></trkpt><trkpt lat="43.7989383" lon="12.6879133"><ele>273.0</ele><time>2026-04-18T13:17:36.888Z</time></trkpt><trkpt lat="43.7990317" lon="12.6879917"><ele>271.0</ele><time>2026-04-18T13:17:37.888Z</time></trkpt><trkpt lat="43.7991217" lon="12.6880667"><ele>269.0</ele><time>2026-04-18T13:17:38.888Z</time></trkpt><trkpt lat="43.7992083" lon="12.6881433"><ele>267.0</ele><time>2026-04-18T13:17:39.888Z</time></trkpt><trkpt lat="43.7992983" lon="12.6882217"><ele>265.0</ele><time>2026-04-18T13:17:40.888Z</time></trkpt><trkpt lat="43.799385" lon="12.6882983"><ele>263.0</ele><time>2026-04-18T13:17:41.888Z</time></trkpt><trkpt lat="43.7994633" lon="12.6883667"><ele>262.83333333333337</ele><time>2026-04-18T13:17:42.888Z</time></trkpt><trkpt lat="43.799535" lon="12.68842"><ele>262.6666666666667</ele><time>2026-04-18T13:17:43.888Z</time></trkpt><trkpt lat="43.7996033" lon="12.68846"><ele>262.5</ele><time>2026-04-18T13:17:44.889Z</time></trkpt><trkpt lat="43.7996667" lon="12.6884767"><ele>262.3333333333333</ele><time>2026-04-18T13:17:45.889Z</time></trkpt><trkpt lat="43.7997633" lon="12.6884467"><ele>262.16666666666663</ele><time>2026-04-18T13:17:47.888Z</time></trkpt><trkpt lat="43.79983" lon="12.6883167"><ele>262.0</ele><time>2026-04-18T13:17:49.886Z</time></trkpt><trkpt lat="43.7998483" lon="12.6882217"><ele>262.0</ele><time>2026-04-18T13:17:50.887Z</time></trkpt><trkpt lat="43.79985" lon="12.6880933"><ele>262.0</ele><time>2026-04-18T13:17:51.888Z</time></trkpt><trkpt lat="43.799855" lon="12.6879583"><ele>262.0</ele><time>2026-04-18T13:17:52.887Z</time></trkpt><trkpt lat="43.7998517" lon="12.687775"><ele>262.0</ele><time>2026-04-18T13:17:53.886Z</time></trkpt><trkpt lat="43.7998483" lon="12.6875967"><ele>262.25</ele><time>2026-04-18T13:17:54.887Z</time></trkpt><trkpt lat="43.799845" lon="12.6874067"><ele>262.5</ele><time>2026-04-18T13:17:55.887Z</time></trkpt><trkpt lat="43.7998367" lon="12.6872067"><ele>262.75</ele><time>2026-04-18T13:17:56.887Z</time></trkpt><trkpt lat="43.7998317" lon="12.6870117"><ele>263.0</ele><time>2026-04-18T13:17:57.887Z</time></trkpt><trkpt lat="43.79982" lon="12.6868133"><ele>263.0</ele><time>2026-04-18T13:17:58.886Z</time></trkpt><trkpt lat="43.7998133" lon="12.6866167"><ele>263.0</ele><time>2026-04-18T13:17:59.886Z</time></trkpt><trkpt lat="43.7998017" lon="12.68642"><ele>263.0</ele><time>2026-04-18T13:18:00.886Z</time></trkpt><trkpt lat="43.7997867" lon="12.68623"><ele>263.0</ele><time>2026-04-18T13:18:01.89Z</time></trkpt><trkpt lat="43.7997667" lon="12.6860417"><ele>263.0</ele><time>2026-04-18T13:18:02.887Z</time></trkpt><trkpt lat="43.7997483" lon="12.6858467"><ele>263.0</ele><time>2026-04-18T13:18:03.887Z</time></trkpt><trkpt lat="43.7997283" lon="12.685645"><ele>263.0</ele><time>2026-04-18T13:18:04.888Z</time></trkpt><trkpt lat="43.7997067" lon="12.68544"><ele>263.0</ele><time>2026-04-18T13:18:05.89Z</time></trkpt><trkpt lat="43.7996883" lon="12.6852317"><ele>261.6666666666667</ele><time>2026-04-18T13:18:06.89Z</time></trkpt><trkpt lat="43.7996683" lon="12.6850233"><ele>260.3333333333333</ele><time>2026-04-18T13:18:07.888Z</time></trkpt><trkpt lat="43.7996467" lon="12.6848133"><ele>259.0</ele><time>2026-04-18T13:18:08.885Z</time></trkpt><trkpt lat="43.7996267" lon="12.6846083"><ele>258.5</ele><time>2026-04-18T13:18:09.887Z</time></trkpt><trkpt lat="43.7996033" lon="12.6844067"><ele>258.0</ele><time>2026-04-18T13:18:10.889Z</time></trkpt><trkpt lat="43.7995817" lon="12.6842083"><ele>257.5</ele><time>2026-04-18T13:18:11.886Z</time></trkpt><trkpt lat="43.7995667" lon="12.684015"><ele>257.0</ele><time>2026-04-18T13:18:12.886Z</time></trkpt><trkpt lat="43.7995483" lon="12.6838317"><ele>257.0</ele><time>2026-04-18T13:18:13.888Z</time></trkpt><trkpt lat="43.799535" lon="12.68365"><ele>257.0</ele><time>2026-04-18T13:18:14.886Z</time></trkpt><trkpt lat="43.7995283" lon="12.683475"><ele>257.0</ele><time>2026-04-18T13:18:15.889Z</time></trkpt><trkpt lat="43.7995183" lon="12.6833133"><ele>257.0</ele><time>2026-04-18T13:18:16.889Z</time></trkpt><trkpt lat="43.7995067" lon="12.683155"><ele>257.2</ele><time>2026-04-18T13:18:17.889Z</time></trkpt><trkpt lat="43.7995083" lon="12.6830133"><ele>257.4</ele><time>2026-04-18T13:18:18.888Z</time></trkpt><trkpt lat="43.79952" lon="12.6828833"><ele>257.6</ele><time>2026-04-18T13:18:19.885Z</time></trkpt><trkpt lat="43.7995267" lon="12.6827517"><ele>257.8</ele><time>2026-04-18T13:18:20.886Z</time></trkpt><trkpt lat="43.799525" lon="12.6826067"><ele>258.0</ele><time>2026-04-18T13:18:21.886Z</time></trkpt><trkpt lat="43.7995183" lon="12.68245"><ele>256.5</ele><time>2026-04-18T13:18:22.888Z</time></trkpt><trkpt lat="43.799515" lon="12.6822967"><ele>255.0</ele><time>2026-04-18T13:18:23.886Z</time></trkpt><trkpt lat="43.7995167" lon="12.6821433"><ele>253.5</ele><time>2026-04-18T13:18:24.886Z</time></trkpt><trkpt lat="43.799515" lon="12.6819867"><ele>252.0</ele><time>2026-04-18T13:18:25.888Z</time></trkpt><trkpt lat="43.7995017" lon="12.6818283"><ele>251.0</ele><time>2026-04-18T13:18:26.887Z</time></trkpt><trkpt lat="43.7994933" lon="12.6816733"><ele>250.0</ele><time>2026-04-18T13:18:27.885Z</time></trkpt><trkpt lat="43.7994867" lon="12.6815267"><ele>249.0</ele><time>2026-04-18T13:18:28.888Z</time></trkpt><trkpt lat="43.79948" lon="12.6813917"><ele>248.0</ele><time>2026-04-18T13:18:29.889Z</time></trkpt><trkpt lat="43.7994733" lon="12.6812717"><ele>247.0</ele><time>2026-04-18T13:18:30.886Z</time></trkpt><trkpt lat="43.7994667" lon="12.6811633"><ele>246.83333333333331</ele><time>2026-04-18T13:18:31.887Z</time></trkpt><trkpt lat="43.7994517" lon="12.6810767"><ele>246.66666666666666</ele><time>2026-04-18T13:18:32.886Z</time></trkpt><trkpt lat="43.79944" lon="12.6809483"><ele>246.5</ele><time>2026-04-18T13:18:34.888Z</time></trkpt><trkpt lat="43.7995017" lon="12.680865"><ele>246.33333333333331</ele><time>2026-04-18T13:18:37.889Z</time></trkpt><trkpt lat="43.7995617" lon="12.68082"><ele>246.16666666666666</ele><time>2026-04-18T13:18:38.889Z</time></trkpt><trkpt lat="43.799655" lon="12.6807567"><ele>246.0</ele><time>2026-04-18T13:18:39.888Z</time></trkpt><trkpt lat="43.7997817" lon="12.6806733"><ele>246.0</ele><time>2026-04-18T13:18:40.889Z</time></trkpt><trkpt lat="43.7999317" lon="12.6805733"><ele>246.0</ele><time>2026-04-18T13:18:41.889Z</time></trkpt><trkpt lat="43.8000867" lon="12.68047"><ele>246.0</ele><time>2026-04-18T13:18:42.889Z</time></trkpt><trkpt lat="43.8002333" lon="12.6803817"><ele>241.66666666666669</ele><time>2026-04-18T13:18:43.891Z</time></trkpt><trkpt lat="43.8003883" lon="12.68032"><ele>237.33333333333334</ele><time>2026-04-18T13:18:44.889Z</time></trkpt><trkpt lat="43.8005533" lon="12.680295"><ele>233.0</ele><time>2026-04-18T13:18:45.889Z</time></trkpt><trkpt lat="43.8007233" lon="12.680305"><ele>233.0</ele><time>2026-04-18T13:18:46.888Z</time></trkpt><trkpt lat="43.8008917" lon="12.68033"><ele>233.0</ele><time>2026-04-18T13:18:47.889Z</time></trkpt><trkpt lat="43.8010483" lon="12.6803533"><ele>233.0</ele><time>2026-04-18T13:18:48.889Z</time></trkpt><trkpt lat="43.8012" lon="12.6803767"><ele>230.66666666666669</ele><time>2026-04-18T13:18:49.895Z</time></trkpt><trkpt lat="43.8013517" lon="12.6804083"><ele>228.33333333333331</ele><time>2026-04-18T13:18:50.888Z</time></trkpt><trkpt lat="43.8015017" lon="12.68046"><ele>226.0</ele><time>2026-04-18T13:18:51.889Z</time></trkpt><trkpt lat="43.8016533" lon="12.6805367"><ele>226.0</ele><time>2026-04-18T13:18:52.89Z</time></trkpt><trkpt lat="43.8018033" lon="12.6806333"><ele>226.0</ele><time>2026-04-18T13:18:53.889Z</time></trkpt><trkpt lat="43.80195" lon="12.6807383"><ele>226.0</ele><time>2026-04-18T13:18:54.888Z</time></trkpt><trkpt lat="43.8021" lon="12.6808483"><ele>223.0</ele><time>2026-04-18T13:18:55.89Z</time></trkpt><trkpt lat="43.8022533" lon="12.6809533"><ele>220.0</ele><time>2026-04-18T13:18:56.889Z</time></trkpt><trkpt lat="43.8024133" lon="12.6810483"><ele>217.0</ele><time>2026-04-18T13:18:57.89Z</time></trkpt><trkpt lat="43.8025783" lon="12.6811283"><ele>216.0</ele><time>2026-04-18T13:18:58.888Z</time></trkpt><trkpt lat="43.8027483" lon="12.6811983"><ele>215.0</ele><time>2026-04-18T13:18:59.889Z</time></trkpt><trkpt lat="43.802915" lon="12.68127"><ele>214.0</ele><time>2026-04-18T13:19:00.888Z</time></trkpt><trkpt lat="43.80308" lon="12.6813417"><ele>214.0</ele><time>2026-04-18T13:19:01.89Z</time></trkpt><trkpt lat="43.8032367" lon="12.6814117"><ele>214.0</ele><time>2026-04-18T13:19:02.886Z</time></trkpt><trkpt lat="43.8033783" lon="12.68148"><ele>214.0</ele><time>2026-04-18T13:19:03.891Z</time></trkpt><trkpt lat="43.80351" lon="12.6815583"><ele>214.25</ele><time>2026-04-18T13:19:04.89Z</time></trkpt><trkpt lat="43.8036333" lon="12.681645"><ele>214.5</ele><time>2026-04-18T13:19:05.889Z</time></trkpt><trkpt lat="43.803755" lon="12.6817483"><ele>214.75</ele><time>2026-04-18T13:19:06.889Z</time></trkpt><trkpt lat="43.803885" lon="12.6818633"><ele>215.0</ele><time>2026-04-18T13:19:07.89Z</time></trkpt><trkpt lat="43.8040233" lon="12.6819867"><ele>214.0</ele><time>2026-04-18T13:19:08.889Z</time></trkpt><trkpt lat="43.8041633" lon="12.6821117"><ele>213.0</ele><time>2026-04-18T13:19:09.888Z</time></trkpt><trkpt lat="43.8042983" lon="12.6822417"><ele>212.0</ele><time>2026-04-18T13:19:10.89Z</time></trkpt><trkpt lat="43.8044283" lon="12.6823733"><ele>212.0</ele><time>2026-04-18T13:19:11.889Z</time></trkpt><trkpt lat="43.8045667" lon="12.6825233"><ele>212.0</ele><time>2026-04-18T13:19:12.888Z</time></trkpt><trkpt lat="43.8047183" lon="12.6826833"><ele>212.0</ele><time>2026-04-18T13:19:13.889Z</time></trkpt><trkpt lat="43.804875" lon="12.6828767"><ele>211.0</ele><time>2026-04-18T13:19:14.888Z</time></trkpt><trkpt lat="43.8050367" lon="12.683095"><ele>210.0</ele><time>2026-04-18T13:19:15.889Z</time></trkpt><trkpt lat="43.8052033" lon="12.6833317"><ele>210.0</ele><time>2026-04-18T13:19:16.889Z</time></trkpt><trkpt lat="43.8053767" lon="12.683575"><ele>210.0</ele><time>2026-04-18T13:19:17.889Z</time></trkpt><trkpt lat="43.8055567" lon="12.6838217"><ele>210.0</ele><time>2026-04-18T13:19:18.888Z</time></trkpt><trkpt lat="43.805745" lon="12.6840667"><ele>210.0</ele><time>2026-04-18T13:19:19.889Z</time></trkpt><trkpt lat="43.805945" lon="12.6843067"><ele>215.0</ele><time>2026-04-18T13:19:20.889Z</time></trkpt><trkpt lat="43.8061483" lon="12.68453"><ele>220.0</ele><time>2026-04-18T13:19:21.89Z</time></trkpt><trkpt lat="43.8063417" lon="12.6847383"><ele>220.0</ele><time>2026-04-18T13:19:22.889Z</time></trkpt><trkpt lat="43.806525" lon="12.68494"><ele>220.0</ele><time>2026-04-18T13:19:23.888Z</time></trkpt><trkpt lat="43.8067033" lon="12.685135"><ele>224.0</ele><time>2026-04-18T13:19:24.889Z</time></trkpt><trkpt lat="43.8068633" lon="12.6853183"><ele>228.0</ele><time>2026-04-18T13:19:25.89Z</time></trkpt><trkpt lat="43.8070033" lon="12.6854817"><ele>232.0</ele><time>2026-04-18T13:19:26.889Z</time></trkpt><trkpt lat="43.80713" lon="12.6856217"><ele>232.0</ele><time>2026-04-18T13:19:27.889Z</time></trkpt><trkpt lat="43.8072533" lon="12.6857567"><ele>232.0</ele><time>2026-04-18T13:19:28.889Z</time></trkpt><trkpt lat="43.80738" lon="12.6859017"><ele>232.0</ele><time>2026-04-18T13:19:29.889Z</time></trkpt><trkpt lat="43.8075017" lon="12.6860717"><ele>230.33333333333331</ele><time>2026-04-18T13:19:30.885Z</time></trkpt><trkpt lat="43.8076117" lon="12.6862667"><ele>228.66666666666669</ele><time>2026-04-18T13:19:31.89Z</time></trkpt><trkpt lat="43.8077017" lon="12.6864817"><ele>227.0</ele><time>2026-04-18T13:19:32.89Z</time></trkpt><trkpt lat="43.80777" lon="12.6867217"><ele>227.33333333333334</ele><time>2026-04-18T13:19:33.889Z</time></trkpt><trkpt lat="43.807825" lon="12.6869767"><ele>227.66666666666669</ele><time>2026-04-18T13:19:34.889Z</time></trkpt><trkpt lat="43.8078783" lon="12.6872267"><ele>228.0</ele><time>2026-04-18T13:19:35.889Z</time></trkpt><trkpt lat="43.8079317" lon="12.6874617"><ele>228.0</ele><time>2026-04-18T13:19:36.89Z</time></trkpt><trkpt lat="43.8079883" lon="12.6876867"><ele>228.0</ele><time>2026-04-18T13:19:37.886Z</time></trkpt><trkpt lat="43.80805" lon="12.6878983"><ele>228.0</ele><time>2026-04-18T13:19:38.886Z</time></trkpt><trkpt lat="43.808115" lon="12.6881033"><ele>229.0</ele><time>2026-04-18T13:19:39.887Z</time></trkpt><trkpt lat="43.8081883" lon="12.6883067"><ele>230.0</ele><time>2026-04-18T13:19:40.888Z</time></trkpt><trkpt lat="43.8082633" lon="12.688515"><ele>231.0</ele><time>2026-04-18T13:19:41.887Z</time></trkpt><trkpt lat="43.8083367" lon="12.6887233"><ele>231.0</ele><time>2026-04-18T13:19:42.89Z</time></trkpt><trkpt lat="43.8084083" lon="12.6889267"><ele>231.0</ele><time>2026-04-18T13:19:43.889Z</time></trkpt><trkpt lat="43.808475" lon="12.6891333"><ele>231.0</ele><time>2026-04-18T13:19:44.889Z</time></trkpt><trkpt lat="43.808535" lon="12.6893467"><ele>229.66666666666669</ele><time>2026-04-18T13:19:45.89Z</time></trkpt><trkpt lat="43.80859" lon="12.6895683"><ele>228.33333333333334</ele><time>2026-04-18T13:19:46.89Z</time></trkpt><trkpt lat="43.8086367" lon="12.689785"><ele>227.0</ele><time>2026-04-18T13:19:47.89Z</time></trkpt><trkpt lat="43.8086783" lon="12.6900017"><ele>227.0</ele><time>2026-04-18T13:19:48.889Z</time></trkpt><trkpt lat="43.808715" lon="12.6902133"><ele>227.0</ele><time>2026-04-18T13:19:49.889Z</time></trkpt><trkpt lat="43.8087533" lon="12.690415"><ele>227.0</ele><time>2026-04-18T13:19:50.89Z</time></trkpt><trkpt lat="43.8087933" lon="12.6906083"><ele>227.75</ele><time>2026-04-18T13:19:51.885Z</time></trkpt><trkpt lat="43.8088367" lon="12.690795"><ele>228.5</ele><time>2026-04-18T13:19:52.886Z</time></trkpt><trkpt lat="43.8088867" lon="12.6909667"><ele>229.25</ele><time>2026-04-18T13:19:53.886Z</time></trkpt><trkpt lat="43.8089433" lon="12.6911317"><ele>230.0</ele><time>2026-04-18T13:19:54.887Z</time></trkpt><trkpt lat="43.8090083" lon="12.6912967"><ele>230.0</ele><time>2026-04-18T13:19:55.886Z</time></trkpt><trkpt lat="43.809085" lon="12.6914683"><ele>230.0</ele><time>2026-04-18T13:19:56.886Z</time></trkpt><trkpt lat="43.80917" lon="12.69164"><ele>230.0</ele><time>2026-04-18T13:19:57.89Z</time></trkpt><trkpt lat="43.8092583" lon="12.691805"><ele>230.0</ele><time>2026-04-18T13:19:58.89Z</time></trkpt><trkpt lat="43.80935" lon="12.6919483"><ele>230.0</ele><time>2026-04-18T13:19:59.89Z</time></trkpt><trkpt lat="43.8094467" lon="12.6920717"><ele>230.0</ele><time>2026-04-18T13:20:00.89Z</time></trkpt><trkpt lat="43.8095467" lon="12.6921917"><ele>230.0</ele><time>2026-04-18T13:20:01.89Z</time></trkpt><trkpt lat="43.80965" lon="12.692315"><ele>230.0</ele><time>2026-04-18T13:20:02.89Z</time></trkpt><trkpt lat="43.80975" lon="12.6924567"><ele>230.0</ele><time>2026-04-18T13:20:03.89Z</time></trkpt><trkpt lat="43.8098383" lon="12.692615"><ele>230.0</ele><time>2026-04-18T13:20:04.89Z</time></trkpt><trkpt lat="43.8099167" lon="12.6927883"><ele>230.0</ele><time>2026-04-18T13:20:05.889Z</time></trkpt><trkpt lat="43.8099867" lon="12.6929767"><ele>230.0</ele><time>2026-04-18T13:20:06.888Z</time></trkpt><trkpt lat="43.8100533" lon="12.6931767"><ele>232.0</ele><time>2026-04-18T13:20:07.89Z</time></trkpt><trkpt lat="43.8101167" lon="12.6933767"><ele>234.0</ele><time>2026-04-18T13:20:08.889Z</time></trkpt><trkpt lat="43.81018" lon="12.6935733"><ele>236.0</ele><time>2026-04-18T13:20:09.889Z</time></trkpt><trkpt lat="43.8102417" lon="12.6937633"><ele>239.25</ele><time>2026-04-18T13:20:10.889Z</time></trkpt><trkpt lat="43.8103" lon="12.6939533"><ele>242.5</ele><time>2026-04-18T13:20:11.889Z</time></trkpt><trkpt lat="43.8103533" lon="12.69414"><ele>245.75</ele><time>2026-04-18T13:20:12.89Z</time></trkpt><trkpt lat="43.81041" lon="12.6943217"><ele>249.0</ele><time>2026-04-18T13:20:13.89Z</time></trkpt><trkpt lat="43.81047" lon="12.694505"><ele>250.25</ele><time>2026-04-18T13:20:14.889Z</time></trkpt><trkpt lat="43.8105267" lon="12.6946867"><ele>251.5</ele><time>2026-04-18T13:20:15.89Z</time></trkpt><trkpt lat="43.8105817" lon="12.69486"><ele>252.75</ele><time>2026-04-18T13:20:16.889Z</time></trkpt><trkpt lat="43.810635" lon="12.6950117"><ele>254.0</ele><time>2026-04-18T13:20:17.889Z</time></trkpt><trkpt lat="43.8106867" lon="12.6951367"><ele>254.0</ele><time>2026-04-18T13:20:18.891Z</time></trkpt><trkpt lat="43.8107517" lon="12.6952383"><ele>253.99999999999997</ele><time>2026-04-18T13:20:19.889Z</time></trkpt><trkpt lat="43.81084" lon="12.6953017"><ele>253.99999999999997</ele><time>2026-04-18T13:20:20.889Z</time></trkpt><trkpt lat="43.8109433" lon="12.6953267"><ele>254.0</ele><time>2026-04-18T13:20:21.891Z</time></trkpt><trkpt lat="43.8110533" lon="12.6953083"><ele>254.0</ele><time>2026-04-18T13:20:22.889Z</time></trkpt><trkpt lat="43.8111683" lon="12.6952717"><ele>257.0</ele><time>2026-04-18T13:20:23.891Z</time></trkpt><trkpt lat="43.8112817" lon="12.6952283"><ele>260.0</ele><time>2026-04-18T13:20:24.889Z</time></trkpt><trkpt lat="43.8114" lon="12.6951833"><ele>263.0</ele><time>2026-04-18T13:20:25.887Z</time></trkpt><trkpt lat="43.811525" lon="12.6951417"><ele>266.0</ele><time>2026-04-18T13:20:26.887Z</time></trkpt><trkpt lat="43.8116517" lon="12.6951067"><ele>266.0</ele><time>2026-04-18T13:20:27.888Z</time></trkpt><trkpt lat="43.811765" lon="12.695095"><ele>266.0</ele><time>2026-04-18T13:20:28.888Z</time></trkpt><trkpt lat="43.8118667" lon="12.6951233"><ele>266.0</ele><time>2026-04-18T13:20:29.889Z</time></trkpt><trkpt lat="43.8119533" lon="12.69521"><ele>266.0</ele><time>2026-04-18T13:20:30.888Z</time></trkpt><trkpt lat="43.812015" lon="12.6953383"><ele>266.0</ele><time>2026-04-18T13:20:31.891Z</time></trkpt><trkpt lat="43.812065" lon="12.695495"><ele>267.2</ele><time>2026-04-18T13:20:32.89Z</time></trkpt><trkpt lat="43.8120983" lon="12.6956567"><ele>268.40000000000003</ele><time>2026-04-18T13:20:33.89Z</time></trkpt><trkpt lat="43.8121217" lon="12.6958067"><ele>269.6</ele><time>2026-04-18T13:20:34.89Z</time></trkpt><trkpt lat="43.81214" lon="12.6959217"><ele>270.8</ele><time>2026-04-18T13:20:35.887Z</time></trkpt><trkpt lat="43.81215" lon="12.6960133"><ele>272.0</ele><time>2026-04-18T13:20:36.888Z</time></trkpt><trkpt lat="43.812165" lon="12.696145"><ele>272.33333333333337</ele><time>2026-04-18T13:20:38.886Z</time></trkpt><trkpt lat="43.8121733" lon="12.69626"><ele>272.6666666666667</ele><time>2026-04-18T13:20:41.888Z</time></trkpt><trkpt lat="43.8121717" lon="12.6963517"><ele>273.0</ele><time>2026-04-18T13:20:44.889Z</time></trkpt><trkpt lat="43.812265" lon="12.6963333"><ele>273.3333333333333</ele><time>2026-04-18T13:21:11.888Z</time></trkpt><trkpt lat="43.8123717" lon="12.6963183"><ele>273.66666666666663</ele><time>2026-04-18T13:21:13.889Z</time></trkpt><trkpt lat="43.8124633" lon="12.696305"><ele>274.0</ele><time>2026-04-18T13:21:15.886Z</time></trkpt><trkpt lat="43.812565" lon="12.69624"><ele>274.0</ele><time>2026-04-18T13:21:17.887Z</time></trkpt><trkpt lat="43.8126267" lon="12.696105"><ele>274.0</ele><time>2026-04-18T13:21:19.886Z</time></trkpt><trkpt lat="43.8126517" lon="12.6960033"><ele>274.0</ele><time>2026-04-18T13:21:20.887Z</time></trkpt><trkpt lat="43.812675" lon="12.6958983"><ele>274.0</ele><time>2026-04-18T13:21:21.886Z</time></trkpt><trkpt lat="43.8127" lon="12.6957917"><ele>274.0</ele><time>2026-04-18T13:21:22.886Z</time></trkpt><trkpt lat="43.8127317" lon="12.695675"><ele>274.0</ele><time>2026-04-18T13:21:23.887Z</time></trkpt><trkpt lat="43.8127667" lon="12.6955567"><ele>271.4</ele><time>2026-04-18T13:21:24.886Z</time></trkpt><trkpt lat="43.812815" lon="12.6954483"><ele>268.79999999999995</ele><time>2026-04-18T13:21:25.886Z</time></trkpt><trkpt lat="43.8128683" lon="12.6953467"><ele>266.20000000000005</ele><time>2026-04-18T13:21:26.885Z</time></trkpt><trkpt lat="43.8129333" lon="12.6952567"><ele>263.6</ele><time>2026-04-18T13:21:27.888Z</time></trkpt><trkpt lat="43.8130133" lon="12.6951667"><ele>261.0</ele><time>2026-04-18T13:21:28.888Z</time></trkpt><trkpt lat="43.8131083" lon="12.69508"><ele>259.5</ele><time>2026-04-18T13:21:29.889Z</time></trkpt><trkpt lat="43.8132117" lon="12.6949917"><ele>258.0</ele><time>2026-04-18T13:21:30.888Z</time></trkpt><trkpt lat="43.8133167" lon="12.694905"><ele>256.5</ele><time>2026-04-18T13:21:31.888Z</time></trkpt><trkpt lat="43.8134267" lon="12.6948183"><ele>255.0</ele><time>2026-04-18T13:21:32.893Z</time></trkpt><trkpt lat="43.81354" lon="12.6947333"><ele>252.25</ele><time>2026-04-18T13:21:33.887Z</time></trkpt><trkpt lat="43.81365" lon="12.6946583"><ele>249.5</ele><time>2026-04-18T13:21:34.89Z</time></trkpt><trkpt lat="43.813755" lon="12.694585"><ele>246.75</ele><time>2026-04-18T13:21:35.89Z</time></trkpt><trkpt lat="43.8138667" lon="12.6945067"><ele>244.0</ele><time>2026-04-18T13:21:36.886Z</time></trkpt><trkpt lat="43.8139683" lon="12.69443"><ele>244.79999999999998</ele><time>2026-04-18T13:21:37.887Z</time></trkpt><trkpt lat="43.8140583" lon="12.6943617"><ele>245.59999999999997</ele><time>2026-04-18T13:21:38.888Z</time></trkpt><trkpt lat="43.8141467" lon="12.6943033"><ele>246.4</ele><time>2026-04-18T13:21:39.888Z</time></trkpt><trkpt lat="43.81424" lon="12.6942467"><ele>247.2</ele><time>2026-04-18T13:21:40.886Z</time></trkpt><trkpt lat="43.8143333" lon="12.694185"><ele>248.0</ele><time>2026-04-18T13:21:41.889Z</time></trkpt><trkpt lat="43.81442" lon="12.69412"><ele>246.4</ele><time>2026-04-18T13:21:42.888Z</time></trkpt><trkpt lat="43.8145017" lon="12.6940617"><ele>244.8</ele><time>2026-04-18T13:21:43.888Z</time></trkpt><trkpt lat="43.8145867" lon="12.6940117"><ele>243.2</ele><time>2026-04-18T13:21:44.891Z</time></trkpt><trkpt lat="43.814675" lon="12.6939633"><ele>241.6</ele><time>2026-04-18T13:21:45.888Z</time></trkpt><trkpt lat="43.8147667" lon="12.6939267"><ele>240.0</ele><time>2026-04-18T13:21:46.887Z</time></trkpt><trkpt lat="43.8148617" lon="12.6938917"><ele>240.0</ele><time>2026-04-18T13:21:47.888Z</time></trkpt><trkpt lat="43.8149567" lon="12.6938567"><ele>240.0</ele><time>2026-04-18T13:21:48.886Z</time></trkpt><trkpt lat="43.8150483" lon="12.6938167"><ele>240.0</ele><time>2026-04-18T13:21:49.885Z</time></trkpt><trkpt lat="43.8151333" lon="12.693765"><ele>240.0</ele><time>2026-04-18T13:21:50.886Z</time></trkpt><trkpt lat="43.8152067" lon="12.6937117"><ele>240.0</ele><time>2026-04-18T13:21:51.885Z</time></trkpt><trkpt lat="43.81526" lon="12.6936533"><ele>240.0</ele><time>2026-04-18T13:21:52.887Z</time></trkpt><trkpt lat="43.8152917" lon="12.6935733"><ele>242.6</ele><time>2026-04-18T13:21:54.889Z</time></trkpt><trkpt lat="43.815245" lon="12.6934267"><ele>245.2</ele><time>2026-04-18T13:22:03.885Z</time></trkpt><trkpt lat="43.8152183" lon="12.6933267"><ele>247.8</ele><time>2026-04-18T13:22:04.887Z</time></trkpt><trkpt lat="43.81519" lon="12.6932067"><ele>250.4</ele><time>2026-04-18T13:22:05.885Z</time></trkpt><trkpt lat="43.8151617" lon="12.6930933"><ele>253.0</ele><time>2026-04-18T13:22:06.887Z</time></trkpt><trkpt lat="43.8151267" lon="12.69297"><ele>253.0</ele><time>2026-04-18T13:22:07.886Z</time></trkpt><trkpt lat="43.8150883" lon="12.69284"><ele>253.0</ele><time>2026-04-18T13:22:08.886Z</time></trkpt><trkpt lat="43.8150483" lon="12.6927"><ele>253.0</ele><time>2026-04-18T13:22:09.885Z</time></trkpt><trkpt lat="43.815" lon="12.69255"><ele>253.0</ele><time>2026-04-18T13:22:10.886Z</time></trkpt><trkpt lat="43.814955" lon="12.6924083"><ele>253.0</ele><time>2026-04-18T13:22:11.889Z</time></trkpt><trkpt lat="43.814915" lon="12.6922733"><ele>253.2</ele><time>2026-04-18T13:22:12.886Z</time></trkpt><trkpt lat="43.8148717" lon="12.6921417"><ele>253.4</ele><time>2026-04-18T13:22:13.888Z</time></trkpt><trkpt lat="43.814825" lon="12.6920183"><ele>253.59999999999997</ele><time>2026-04-18T13:22:14.885Z</time></trkpt><trkpt lat="43.8147717" lon="12.6919033"><ele>253.79999999999998</ele><time>2026-04-18T13:22:15.888Z</time></trkpt><trkpt lat="43.8147133" lon="12.6917967"><ele>254.0</ele><time>2026-04-18T13:22:16.885Z</time></trkpt><trkpt lat="43.8146417" lon="12.6916967"><ele>254.0</ele><time>2026-04-18T13:22:17.886Z</time></trkpt><trkpt lat="43.814555" lon="12.691595"><ele>253.99999999999997</ele><time>2026-04-18T13:22:18.887Z</time></trkpt><trkpt lat="43.8144667" lon="12.6914967"><ele>253.99999999999997</ele><time>2026-04-18T13:22:19.887Z</time></trkpt><trkpt lat="43.8143883" lon="12.6913983"><ele>254.0</ele><time>2026-04-18T13:22:20.885Z</time></trkpt><trkpt lat="43.81433" lon="12.691285"><ele>254.0</ele><time>2026-04-18T13:22:21.886Z</time></trkpt><trkpt lat="43.814285" lon="12.6911717"><ele>252.00000000000003</ele><time>2026-04-18T13:22:22.886Z</time></trkpt><trkpt lat="43.8142683" lon="12.691055"><ele>250.0</ele><time>2026-04-18T13:22:23.889Z</time></trkpt><trkpt lat="43.814275" lon="12.6909483"><ele>248.0</ele><time>2026-04-18T13:22:24.888Z</time></trkpt><trkpt lat="43.8143" lon="12.69086"><ele>246.0</ele><time>2026-04-18T13:22:25.889Z</time></trkpt><trkpt lat="43.814345" lon="12.6907817"><ele>244.00000000000003</ele><time>2026-04-18T13:22:26.885Z</time></trkpt><trkpt lat="43.8144317" lon="12.6907283"><ele>242.0</ele><time>2026-04-18T13:22:27.89Z</time></trkpt><trkpt lat="43.8145583" lon="12.6907217"><ele>242.0</ele><time>2026-04-18T13:22:28.887Z</time></trkpt><trkpt lat="43.814675" lon="12.690705"><ele>242.0</ele><time>2026-04-18T13:22:29.885Z</time></trkpt><trkpt lat="43.81478" lon="12.690675"><ele>242.0</ele><time>2026-04-18T13:22:30.886Z</time></trkpt><trkpt lat="43.8148783" lon="12.690625"><ele>242.0</ele><time>2026-04-18T13:22:31.887Z</time></trkpt><trkpt lat="43.814975" lon="12.6905633"><ele>242.0</ele><time>2026-04-18T13:22:32.885Z</time></trkpt><trkpt lat="43.8150533" lon="12.6904833"><ele>242.0</ele><time>2026-04-18T13:22:33.885Z</time></trkpt><trkpt lat="43.8151133" lon="12.6903817"><ele>242.0</ele><time>2026-04-18T13:22:34.885Z</time></trkpt><trkpt lat="43.8151617" lon="12.690265"><ele>242.0</ele><time>2026-04-18T13:22:35.887Z</time></trkpt><trkpt lat="43.8151933" lon="12.690125"><ele>242.0</ele><time>2026-04-18T13:22:36.886Z</time></trkpt><trkpt lat="43.8152233" lon="12.68996"><ele>242.0</ele><time>2026-04-18T13:22:37.887Z</time></trkpt><trkpt lat="43.8152367" lon="12.689795"><ele>236.0</ele><time>2026-04-18T13:22:38.886Z</time></trkpt><trkpt lat="43.815245" lon="12.689645"><ele>230.0</ele><time>2026-04-18T13:22:39.885Z</time></trkpt><trkpt lat="43.8152483" lon="12.68952"><ele>224.0</ele><time>2026-04-18T13:22:40.885Z</time></trkpt><trkpt lat="43.8152333" lon="12.6893933"><ele>218.0</ele><time>2026-04-18T13:22:41.886Z</time></trkpt><trkpt lat="43.8151917" lon="12.689255"><ele>212.0</ele><time>2026-04-18T13:22:42.89Z</time></trkpt><trkpt lat="43.8151317" lon="12.68912"><ele>212.0</ele><time>2026-04-18T13:22:43.886Z</time></trkpt><trkpt lat="43.8150683" lon="12.688995"><ele>212.0</ele><time>2026-04-18T13:22:44.885Z</time></trkpt><trkpt lat="43.8150117" lon="12.68887"><ele>212.0</ele><time>2026-04-18T13:22:45.887Z</time></trkpt><trkpt lat="43.8149767" lon="12.6887517"><ele>212.0</ele><time>2026-04-18T13:22:46.887Z</time></trkpt><trkpt lat="43.814965" lon="12.6886283"><ele>212.0</ele><time>2026-04-18T13:22:47.888Z</time></trkpt><trkpt lat="43.8150017" lon="12.6885083"><ele>210.00000000000003</ele><time>2026-04-18T13:22:48.887Z</time></trkpt><trkpt lat="43.8150567" lon="12.6884017"><ele>208.0</ele><time>2026-04-18T13:22:49.886Z</time></trkpt><trkpt lat="43.81512" lon="12.688305"><ele>206.0</ele><time>2026-04-18T13:22:50.888Z</time></trkpt><trkpt lat="43.815185" lon="12.6882117"><ele>204.0</ele><time>2026-04-18T13:22:51.885Z</time></trkpt><trkpt lat="43.8152433" lon="12.6881283"><ele>202.00000000000003</ele><time>2026-04-18T13:22:52.885Z</time></trkpt><trkpt lat="43.8153017" lon="12.6880733"><ele>200.0</ele><time>2026-04-18T13:22:53.89Z</time></trkpt><trkpt lat="43.8154367" lon="12.6880683"><ele>199.5</ele><time>2026-04-18T13:22:55.887Z</time></trkpt><trkpt lat="43.8155283" lon="12.688115"><ele>199.0</ele><time>2026-04-18T13:22:56.886Z</time></trkpt><trkpt lat="43.8156733" lon="12.6882467"><ele>198.5</ele><time>2026-04-18T13:22:57.885Z</time></trkpt><trkpt lat="43.815775" lon="12.6883817"><ele>198.0</ele><time>2026-04-18T13:22:58.887Z</time></trkpt><trkpt lat="43.815885" lon="12.688515"><ele>196.5</ele><time>2026-04-18T13:22:59.886Z</time></trkpt><trkpt lat="43.8159917" lon="12.6886467"><ele>195.0</ele><time>2026-04-18T13:23:00.889Z</time></trkpt><trkpt lat="43.8161017" lon="12.688775"><ele>193.5</ele><time>2026-04-18T13:23:01.889Z</time></trkpt><trkpt lat="43.8162117" lon="12.6889083"><ele>192.0</ele><time>2026-04-18T13:23:02.888Z</time></trkpt><trkpt lat="43.8163233" lon="12.6890417"><ele>192.0</ele><time>2026-04-18T13:23:03.889Z</time></trkpt><trkpt lat="43.8164317" lon="12.6891733"><ele>192.0</ele><time>2026-04-18T13:23:04.886Z</time></trkpt><trkpt lat="43.816535" lon="12.689295"><ele>192.0</ele><time>2026-04-18T13:23:05.887Z</time></trkpt><trkpt lat="43.8166267" lon="12.6894017"><ele>192.0</ele><time>2026-04-18T13:23:06.886Z</time></trkpt><trkpt lat="43.816705" lon="12.6895167"><ele>190.5</ele><time>2026-04-18T13:23:07.886Z</time></trkpt><trkpt lat="43.8167683" lon="12.6896517"><ele>189.0</ele><time>2026-04-18T13:23:08.886Z</time></trkpt><trkpt lat="43.8168317" lon="12.6898017"><ele>187.5</ele><time>2026-04-18T13:23:09.886Z</time></trkpt><trkpt lat="43.8168917" lon="12.6899533"><ele>186.0</ele><time>2026-04-18T13:23:10.887Z</time></trkpt><trkpt lat="43.8169433" lon="12.6901017"><ele>186.0</ele><time>2026-04-18T13:23:11.886Z</time></trkpt><trkpt lat="43.8169917" lon="12.6902367"><ele>186.0</ele><time>2026-04-18T13:23:12.886Z</time></trkpt><trkpt lat="43.8170383" lon="12.6903483"><ele>186.0</ele><time>2026-04-18T13:23:13.887Z</time></trkpt><trkpt lat="43.8171017" lon="12.6904217"><ele>186.0</ele><time>2026-04-18T13:23:14.887Z</time></trkpt><trkpt lat="43.8171717" lon="12.690475"><ele>186.0</ele><time>2026-04-18T13:23:15.886Z</time></trkpt><trkpt lat="43.8172517" lon="12.690495"><ele>186.0</ele><time>2026-04-18T13:23:16.888Z</time></trkpt><trkpt lat="43.8173483" lon="12.6904883"><ele>190.0</ele><time>2026-04-18T13:23:17.885Z</time></trkpt><trkpt lat="43.81745" lon="12.6904833"><ele>194.0</ele><time>2026-04-18T13:23:18.888Z</time></trkpt><trkpt lat="43.81756" lon="12.6904717"><ele>198.0</ele><time>2026-04-18T13:23:19.886Z</time></trkpt><trkpt lat="43.817675" lon="12.690455"><ele>202.0</ele><time>2026-04-18T13:23:20.886Z</time></trkpt><trkpt lat="43.8177933" lon="12.6904217"><ele>206.0</ele><time>2026-04-18T13:23:21.885Z</time></trkpt><trkpt lat="43.8178933" lon="12.690355"><ele>206.0</ele><time>2026-04-18T13:23:22.886Z</time></trkpt><trkpt lat="43.8179967" lon="12.690285"><ele>206.0</ele><time>2026-04-18T13:23:23.886Z</time></trkpt><trkpt lat="43.8180867" lon="12.690205"><ele>206.0</ele><time>2026-04-18T13:23:24.889Z</time></trkpt><trkpt lat="43.8181717" lon="12.6901183"><ele>206.0</ele><time>2026-04-18T13:23:25.888Z</time></trkpt><trkpt lat="43.8182467" lon="12.6900167"><ele>206.0</ele><time>2026-04-18T13:23:26.888Z</time></trkpt><trkpt lat="43.8183183" lon="12.6899017"><ele>202.0</ele><time>2026-04-18T13:23:27.89Z</time></trkpt><trkpt lat="43.81839" lon="12.6897633"><ele>198.0</ele><time>2026-04-18T13:23:28.889Z</time></trkpt><trkpt lat="43.8184683" lon="12.6896217"><ele>194.0</ele><time>2026-04-18T13:23:29.89Z</time></trkpt><trkpt lat="43.8185467" lon="12.68948"><ele>190.0</ele><time>2026-04-18T13:23:30.886Z</time></trkpt><trkpt lat="43.8186267" lon="12.689335"><ele>185.5</ele><time>2026-04-18T13:23:31.886Z</time></trkpt><trkpt lat="43.8187067" lon="12.6891933"><ele>181.0</ele><time>2026-04-18T13:23:32.886Z</time></trkpt><trkpt lat="43.818785" lon="12.6890467"><ele>176.5</ele><time>2026-04-18T13:23:33.886Z</time></trkpt><trkpt lat="43.8188633" lon="12.688895"><ele>172.0</ele><time>2026-04-18T13:23:34.889Z</time></trkpt><trkpt lat="43.8189417" lon="12.6887383"><ele>169.75</ele><time>2026-04-18T13:23:35.89Z</time></trkpt><trkpt lat="43.819025" lon="12.6885917"><ele>167.5</ele><time>2026-04-18T13:23:36.89Z</time></trkpt><trkpt lat="43.819105" lon="12.688445"><ele>165.25</ele><time>2026-04-18T13:23:37.887Z</time></trkpt><trkpt lat="43.819185" lon="12.6883"><ele>163.0</ele><time>2026-04-18T13:23:38.889Z</time></trkpt><trkpt lat="43.81926" lon="12.68816"><ele>162.8</ele><time>2026-04-18T13:23:39.89Z</time></trkpt><trkpt lat="43.819335" lon="12.6880217"><ele>162.60000000000002</ele><time>2026-04-18T13:23:40.89Z</time></trkpt><trkpt lat="43.8194083" lon="12.687905"><ele>162.39999999999998</ele><time>2026-04-18T13:23:41.89Z</time></trkpt><trkpt lat="43.8194817" lon="12.68782"><ele>162.2</ele><time>2026-04-18T13:23:42.89Z</time></trkpt><trkpt lat="43.81955" lon="12.6877583"><ele>162.0</ele><time>2026-04-18T13:23:43.888Z</time></trkpt><trkpt lat="43.81961" lon="12.6877117"><ele>162.0</ele><time>2026-04-18T13:23:44.886Z</time></trkpt><trkpt lat="43.8197017" lon="12.687785"><ele>162.0</ele><time>2026-04-18T13:23:46.889Z</time></trkpt><trkpt lat="43.8197533" lon="12.6878833"><ele>162.0</ele><time>2026-04-18T13:23:47.885Z</time></trkpt><trkpt lat="43.8198317" lon="12.6880167"><ele>162.0</ele><time>2026-04-18T13:23:48.888Z</time></trkpt><trkpt lat="43.8199217" lon="12.6881717"><ele>162.0</ele><time>2026-04-18T13:23:49.886Z</time></trkpt><trkpt lat="43.8200183" lon="12.6883317"><ele>162.0</ele><time>2026-04-18T13:23:50.885Z</time></trkpt><trkpt lat="43.8201183" lon="12.6884933"><ele>162.0</ele><time>2026-04-18T13:23:51.885Z</time></trkpt><trkpt lat="43.8202233" lon="12.6886467"><ele>158.33333333333334</ele><time>2026-04-18T13:23:52.887Z</time></trkpt><trkpt lat="43.82033" lon="12.68881"><ele>154.66666666666669</ele><time>2026-04-18T13:23:53.886Z</time></trkpt><trkpt lat="43.8204317" lon="12.6889533"><ele>151.0</ele><time>2026-04-18T13:23:54.889Z</time></trkpt><trkpt lat="43.820535" lon="12.6890983"><ele>151.0</ele><time>2026-04-18T13:23:55.886Z</time></trkpt><trkpt lat="43.8206283" lon="12.689235"><ele>151.0</ele><time>2026-04-18T13:23:56.889Z</time></trkpt><trkpt lat="43.82071" lon="12.6893517"><ele>151.0</ele><time>2026-04-18T13:23:57.889Z</time></trkpt><trkpt lat="43.8207817" lon="12.6894517"><ele>151.0</ele><time>2026-04-18T13:23:58.89Z</time></trkpt><trkpt lat="43.82085" lon="12.689535"><ele>151.0</ele><time>2026-04-18T13:23:59.888Z</time></trkpt><trkpt lat="43.8209233" lon="12.6895883"><ele>150.0</ele><time>2026-04-18T13:24:00.888Z</time></trkpt><trkpt lat="43.8210017" lon="12.68962"><ele>149.0</ele><time>2026-04-18T13:24:01.889Z</time></trkpt><trkpt lat="43.82108" lon="12.6896267"><ele>148.0</ele><time>2026-04-18T13:24:02.887Z</time></trkpt><trkpt lat="43.821155" lon="12.6895783"><ele>147.0</ele><time>2026-04-18T13:24:03.889Z</time></trkpt><trkpt lat="43.8212033" lon="12.6894667"><ele>146.0</ele><time>2026-04-18T13:24:04.887Z</time></trkpt><trkpt lat="43.8212717" lon="12.6893333"><ele>146.0</ele><time>2026-04-18T13:24:05.889Z</time></trkpt><trkpt lat="43.8213333" lon="12.689145"><ele>146.0</ele><time>2026-04-18T13:24:06.889Z</time></trkpt><trkpt lat="43.82141" lon="12.6889733"><ele>146.0</ele><time>2026-04-18T13:24:07.887Z</time></trkpt><trkpt lat="43.821485" lon="12.6887883"><ele>146.0</ele><time>2026-04-18T13:24:08.886Z</time></trkpt><trkpt lat="43.8215583" lon="12.6885967"><ele>145.0</ele><time>2026-04-18T13:24:09.887Z</time></trkpt><trkpt lat="43.821625" lon="12.6884"><ele>144.0</ele><time>2026-04-18T13:24:10.89Z</time></trkpt><trkpt lat="43.8216867" lon="12.6882117"><ele>143.0</ele><time>2026-04-18T13:24:11.889Z</time></trkpt><trkpt lat="43.82174" lon="12.6880267"><ele>143.0</ele><time>2026-04-18T13:24:12.889Z</time></trkpt><trkpt lat="43.821785" lon="12.6878367"><ele>143.0</ele><time>2026-04-18T13:24:13.89Z</time></trkpt><trkpt lat="43.8218183" lon="12.6876517"><ele>143.0</ele><time>2026-04-18T13:24:14.89Z</time></trkpt><trkpt lat="43.8218517" lon="12.687465"><ele>143.0</ele><time>2026-04-18T13:24:15.889Z</time></trkpt><trkpt lat="43.8218783" lon="12.6872833"><ele>143.0</ele><time>2026-04-18T13:24:16.886Z</time></trkpt><trkpt lat="43.821905" lon="12.6871033"><ele>143.0</ele><time>2026-04-18T13:24:17.887Z</time></trkpt><trkpt lat="43.8219333" lon="12.68694"><ele>143.0</ele><time>2026-04-18T13:24:18.887Z</time></trkpt><trkpt lat="43.8219517" lon="12.686775"><ele>143.0</ele><time>2026-04-18T13:24:19.89Z</time></trkpt><trkpt lat="43.8219567" lon="12.6866033"><ele>138.5</ele><time>2026-04-18T13:24:20.885Z</time></trkpt><trkpt lat="43.8219483" lon="12.6864367"><ele>134.0</ele><time>2026-04-18T13:24:21.888Z</time></trkpt><trkpt lat="43.82193" lon="12.6862683"><ele>129.5</ele><time>2026-04-18T13:24:22.89Z</time></trkpt><trkpt lat="43.8219067" lon="12.686095"><ele>125.0</ele><time>2026-04-18T13:24:23.89Z</time></trkpt><trkpt lat="43.8218867" lon="12.685915"><ele>120.5</ele><time>2026-04-18T13:24:24.889Z</time></trkpt><trkpt lat="43.821885" lon="12.6857317"><ele>116.0</ele><time>2026-04-18T13:24:25.888Z</time></trkpt><trkpt lat="43.821885" lon="12.68555"><ele>111.5</ele><time>2026-04-18T13:24:26.889Z</time></trkpt><trkpt lat="43.8218967" lon="12.6853733"><ele>107.0</ele><time>2026-04-18T13:24:27.885Z</time></trkpt><trkpt lat="43.821915" lon="12.685195"><ele>105.25</ele><time>2026-04-18T13:24:28.889Z</time></trkpt><trkpt lat="43.821945" lon="12.685025"><ele>103.5</ele><time>2026-04-18T13:24:29.89Z</time></trkpt><trkpt lat="43.8219833" lon="12.684855"><ele>101.75</ele><time>2026-04-18T13:24:30.89Z</time></trkpt><trkpt lat="43.8220283" lon="12.6846783"><ele>100.0</ele><time>2026-04-18T13:24:31.887Z</time></trkpt><trkpt lat="43.8220733" lon="12.6844933"><ele>97.5</ele><time>2026-04-18T13:24:32.886Z</time></trkpt><trkpt lat="43.8221167" lon="12.6843033"><ele>95.0</ele><time>2026-04-18T13:24:33.885Z</time></trkpt><trkpt lat="43.8221583" lon="12.6841117"><ele>92.5</ele><time>2026-04-18T13:24:34.887Z</time></trkpt><trkpt lat="43.8222" lon="12.6839183"><ele>90.0</ele><time>2026-04-18T13:24:35.886Z</time></trkpt><trkpt lat="43.822245" lon="12.6837283"><ele>88.0</ele><time>2026-04-18T13:24:36.887Z</time></trkpt><trkpt lat="43.822295" lon="12.68355"><ele>86.0</ele><time>2026-04-18T13:24:37.89Z</time></trkpt><trkpt lat="43.8223433" lon="12.6833783"><ele>84.0</ele><time>2026-04-18T13:24:38.889Z</time></trkpt><trkpt lat="43.8223883" lon="12.6832167"><ele>82.0</ele><time>2026-04-18T13:24:39.89Z</time></trkpt><trkpt lat="43.8224283" lon="12.6830667"><ele>82.0</ele><time>2026-04-18T13:24:40.888Z</time></trkpt><trkpt lat="43.8224667" lon="12.6829317"><ele>82.0</ele><time>2026-04-18T13:24:41.889Z</time></trkpt><trkpt lat="43.8225033" lon="12.682815"><ele>82.0</ele><time>2026-04-18T13:24:42.889Z</time></trkpt><trkpt lat="43.8225367" lon="12.6827217"><ele>82.0</ele><time>2026-04-18T13:24:43.889Z</time></trkpt><trkpt lat="43.822585" lon="12.6825967"><ele>82.0</ele><time>2026-04-18T13:24:45.889Z</time></trkpt><trkpt lat="43.82267" lon="12.682575"><ele>80.0</ele><time>2026-04-18T13:24:48.886Z</time></trkpt><trkpt lat="43.8227733" lon="12.682655"><ele>78.0</ele><time>2026-04-18T13:24:50.887Z</time></trkpt><trkpt lat="43.8228283" lon="12.6827183"><ele>76.0</ele><time>2026-04-18T13:24:51.888Z</time></trkpt><trkpt lat="43.82289" lon="12.682815"><ele>74.0</ele><time>2026-04-18T13:24:52.888Z</time></trkpt><trkpt lat="43.8229583" lon="12.682955"><ele>72.0</ele><time>2026-04-18T13:24:53.89Z</time></trkpt><trkpt lat="43.8230183" lon="12.6830983"><ele>72.0</ele><time>2026-04-18T13:24:54.889Z</time></trkpt><trkpt lat="43.8230767" lon="12.6832383"><ele>72.0</ele><time>2026-04-18T13:24:55.889Z</time></trkpt><trkpt lat="43.823125" lon="12.6833833"><ele>72.0</ele><time>2026-04-18T13:24:56.89Z</time></trkpt><trkpt lat="43.8231733" lon="12.68351"><ele>72.0</ele><time>2026-04-18T13:24:57.888Z</time></trkpt><trkpt lat="43.82322" lon="12.68362"><ele>72.0</ele><time>2026-04-18T13:24:58.888Z</time></trkpt><trkpt lat="43.8232717" lon="12.6837167"><ele>71.83333333333333</ele><time>2026-04-18T13:24:59.886Z</time></trkpt><trkpt lat="43.8233233" lon="12.6838117"><ele>71.66666666666667</ele><time>2026-04-18T13:25:00.886Z</time></trkpt><trkpt lat="43.8233733" lon="12.6839067"><ele>71.5</ele><time>2026-04-18T13:25:01.889Z</time></trkpt><trkpt lat="43.8234217" lon="12.6839933"><ele>71.33333333333334</ele><time>2026-04-18T13:25:02.887Z</time></trkpt><trkpt lat="43.8234683" lon="12.684075"><ele>71.16666666666667</ele><time>2026-04-18T13:25:03.885Z</time></trkpt><trkpt lat="43.8235133" lon="12.6841367"><ele>71.0</ele><time>2026-04-18T13:25:04.886Z</time></trkpt><trkpt lat="43.82362" lon="12.6841933"><ele>71.0</ele><time>2026-04-18T13:25:06.888Z</time></trkpt><trkpt lat="43.823745" lon="12.6841317"><ele>71.0</ele><time>2026-04-18T13:25:08.886Z</time></trkpt><trkpt lat="43.823815" lon="12.6840717"><ele>71.0</ele><time>2026-04-18T13:25:09.889Z</time></trkpt><trkpt lat="43.8238933" lon="12.6839967"><ele>71.0</ele><time>2026-04-18T13:25:10.888Z</time></trkpt><trkpt lat="43.8239817" lon="12.6839117"><ele>71.0</ele><time>2026-04-18T13:25:11.887Z</time></trkpt><trkpt lat="43.82407" lon="12.683825"><ele>71.0</ele><time>2026-04-18T13:25:12.89Z</time></trkpt><trkpt lat="43.8241533" lon="12.68374"><ele>71.0</ele><time>2026-04-18T13:25:13.89Z</time></trkpt><trkpt lat="43.8242333" lon="12.6836617"><ele>71.0</ele><time>2026-04-18T13:25:14.888Z</time></trkpt><trkpt lat="43.8242967" lon="12.6835933"><ele>71.0</ele><time>2026-04-18T13:25:15.889Z</time></trkpt><trkpt lat="43.8243433" lon="12.6835133"><ele>71.0</ele><time>2026-04-18T13:25:16.889Z</time></trkpt><trkpt lat="43.824365" lon="12.68342"><ele>71.0</ele><time>2026-04-18T13:25:17.887Z</time></trkpt><trkpt lat="43.82436" lon="12.6833217"><ele>71.6</ele><time>2026-04-18T13:25:18.887Z</time></trkpt><trkpt lat="43.8243383" lon="12.68322"><ele>72.19999999999999</ele><time>2026-04-18T13:25:19.886Z</time></trkpt><trkpt lat="43.8243067" lon="12.683105"><ele>72.80000000000001</ele><time>2026-04-18T13:25:20.885Z</time></trkpt><trkpt lat="43.8242467" lon="12.6829633"><ele>73.4</ele><time>2026-04-18T13:25:21.887Z</time></trkpt><trkpt lat="43.8241767" lon="12.6828"><ele>74.0</ele><time>2026-04-18T13:25:22.885Z</time></trkpt><trkpt lat="43.82411" lon="12.682625"><ele>75.25</ele><time>2026-04-18T13:25:23.886Z</time></trkpt><trkpt lat="43.82405" lon="12.6824633"><ele>76.5</ele><time>2026-04-18T13:25:24.888Z</time></trkpt><trkpt lat="43.8239967" lon="12.6823083"><ele>77.75</ele><time>2026-04-18T13:25:25.89Z</time></trkpt><trkpt lat="43.8239467" lon="12.6821667"><ele>79.0</ele><time>2026-04-18T13:25:26.884Z</time></trkpt><trkpt lat="43.8239017" lon="12.6820383"><ele>80.0</ele><time>2026-04-18T13:25:27.884Z</time></trkpt><trkpt lat="43.8238667" lon="12.6819167"><ele>81.0</ele><time>2026-04-18T13:25:28.887Z</time></trkpt><trkpt lat="43.8238533" lon="12.6817883"><ele>82.0</ele><time>2026-04-18T13:25:29.885Z</time></trkpt><trkpt lat="43.8238683" lon="12.681665"><ele>83.0</ele><time>2026-04-18T13:25:30.885Z</time></trkpt><trkpt lat="43.8239167" lon="12.6815583"><ele>84.0</ele><time>2026-04-18T13:25:31.886Z</time></trkpt><trkpt lat="43.82399" lon="12.681475"><ele>84.0</ele><time>2026-04-18T13:25:32.889Z</time></trkpt><trkpt lat="43.8240883" lon="12.681405"><ele>84.0</ele><time>2026-04-18T13:25:33.889Z</time></trkpt><trkpt lat="43.8242083" lon="12.6813483"><ele>84.0</ele><time>2026-04-18T13:25:34.887Z</time></trkpt><trkpt lat="43.82434" lon="12.6812867"><ele>84.0</ele><time>2026-04-18T13:25:35.889Z</time></trkpt><trkpt lat="43.82448" lon="12.6812217"><ele>85.0</ele><time>2026-04-18T13:25:36.89Z</time></trkpt><trkpt lat="43.82463" lon="12.681145"><ele>86.0</ele><time>2026-04-18T13:25:37.889Z</time></trkpt><trkpt lat="43.824785" lon="12.6810717"><ele>87.0</ele><time>2026-04-18T13:25:38.885Z</time></trkpt><trkpt lat="43.8249417" lon="12.6810017"><ele>87.0</ele><time>2026-04-18T13:25:39.888Z</time></trkpt><trkpt lat="43.8251" lon="12.6809283"><ele>87.0</ele><time>2026-04-18T13:25:40.888Z</time></trkpt><trkpt lat="43.8252567" lon="12.6808517"><ele>87.0</ele><time>2026-04-18T13:25:41.888Z</time></trkpt><trkpt lat="43.8254183" lon="12.6807717"><ele>87.0</ele><time>2026-04-18T13:25:42.888Z</time></trkpt><trkpt lat="43.8255883" lon="12.6806883"><ele>87.0</ele><time>2026-04-18T13:25:43.888Z</time></trkpt><trkpt lat="43.8257583" lon="12.6806017"><ele>87.0</ele><time>2026-04-18T13:25:44.888Z</time></trkpt><trkpt lat="43.8259333" lon="12.6805167"><ele>87.0</ele><time>2026-04-18T13:25:45.889Z</time></trkpt><trkpt lat="43.8261083" lon="12.6804367"><ele>87.0</ele><time>2026-04-18T13:25:46.889Z</time></trkpt><trkpt lat="43.8262883" lon="12.6803717"><ele>87.0</ele><time>2026-04-18T13:25:47.886Z</time></trkpt><trkpt lat="43.82647" lon="12.6803233"><ele>87.0</ele><time>2026-04-18T13:25:48.888Z</time></trkpt><trkpt lat="43.8266517" lon="12.6802967"><ele>87.0</ele><time>2026-04-18T13:25:49.886Z</time></trkpt><trkpt lat="43.8268283" lon="12.6802967"><ele>87.0</ele><time>2026-04-18T13:25:50.888Z</time></trkpt><trkpt lat="43.8270017" lon="12.6803317"><ele>84.0</ele><time>2026-04-18T13:25:51.888Z</time></trkpt><trkpt lat="43.8271767" lon="12.6803967"><ele>81.0</ele><time>2026-04-18T13:25:52.885Z</time></trkpt><trkpt lat="43.82735" lon="12.6804833"><ele>78.0</ele><time>2026-04-18T13:25:53.89Z</time></trkpt><trkpt lat="43.8275167" lon="12.6805933"><ele>78.0</ele><time>2026-04-18T13:25:54.886Z</time></trkpt><trkpt lat="43.8276783" lon="12.6807267"><ele>78.0</ele><time>2026-04-18T13:25:55.888Z</time></trkpt><trkpt lat="43.8278317" lon="12.6808617"><ele>78.0</ele><time>2026-04-18T13:25:56.889Z</time></trkpt><trkpt lat="43.8279667" lon="12.6809867"><ele>78.0</ele><time>2026-04-18T13:25:57.89Z</time></trkpt><trkpt lat="43.8280917" lon="12.6811017"><ele>78.0</ele><time>2026-04-18T13:25:58.889Z</time></trkpt><trkpt lat="43.8281967" lon="12.6811967"><ele>78.0</ele><time>2026-04-18T13:25:59.889Z</time></trkpt><trkpt lat="43.8282783" lon="12.6812767"><ele>78.0</ele><time>2026-04-18T13:26:00.888Z</time></trkpt><trkpt lat="43.8283483" lon="12.68134"><ele>78.0</ele><time>2026-04-18T13:26:01.889Z</time></trkpt><trkpt lat="43.8284" lon="12.6813917"><ele>78.0</ele><time>2026-04-18T13:26:02.886Z</time></trkpt><trkpt lat="43.828475" lon="12.6814617"><ele>78.0</ele><time>2026-04-18T13:26:04.885Z</time></trkpt><trkpt lat="43.82854" lon="12.6814683"><ele>78.0</ele><time>2026-04-18T13:26:06.886Z</time></trkpt><trkpt lat="43.8286017" lon="12.681355"><ele>78.0</ele><time>2026-04-18T13:26:08.889Z</time></trkpt><trkpt lat="43.8286517" lon="12.6812783"><ele>78.0</ele><time>2026-04-18T13:26:09.887Z</time></trkpt><trkpt lat="43.8287133" lon="12.6812033"><ele>79.0</ele><time>2026-04-18T13:26:10.886Z</time></trkpt><trkpt lat="43.8287717" lon="12.68112"><ele>80.0</ele><time>2026-04-18T13:26:11.886Z</time></trkpt><trkpt lat="43.82882" lon="12.681025"><ele>81.0</ele><time>2026-04-18T13:26:12.885Z</time></trkpt><trkpt lat="43.8288467" lon="12.6809133"><ele>82.0</ele><time>2026-04-18T13:26:13.888Z</time></trkpt><trkpt lat="43.8288617" lon="12.6808017"><ele>83.0</ele><time>2026-04-18T13:26:14.886Z</time></trkpt><trkpt lat="43.8288533" lon="12.6807033"><ele>84.0</ele><time>2026-04-18T13:26:15.887Z</time></trkpt><trkpt lat="43.82883" lon="12.68062"><ele>84.4</ele><time>2026-04-18T13:26:16.888Z</time></trkpt><trkpt lat="43.8287867" lon="12.6805"><ele>84.80000000000001</ele><time>2026-04-18T13:26:18.888Z</time></trkpt><trkpt lat="43.8287983" lon="12.6803717"><ele>85.19999999999999</ele><time>2026-04-18T13:26:20.887Z</time></trkpt><trkpt lat="43.8288933" lon="12.6802617"><ele>85.6</ele><time>2026-04-18T13:26:22.886Z</time></trkpt><trkpt lat="43.8289767" lon="12.6802133"><ele>86.0</ele><time>2026-04-18T13:26:23.889Z</time></trkpt><trkpt lat="43.8290633" lon="12.680165"><ele>86.0</ele><time>2026-04-18T13:26:24.886Z</time></trkpt><trkpt lat="43.8291583" lon="12.6801183"><ele>86.0</ele><time>2026-04-18T13:26:25.886Z</time></trkpt><trkpt lat="43.8292567" lon="12.6800833"><ele>86.0</ele><time>2026-04-18T13:26:26.89Z</time></trkpt><trkpt lat="43.82935" lon="12.6800383"><ele>86.0</ele><time>2026-04-18T13:26:27.888Z</time></trkpt><trkpt lat="43.8294383" lon="12.6799867"><ele>86.0</ele><time>2026-04-18T13:26:28.889Z</time></trkpt><trkpt lat="43.8295167" lon="12.6799167"><ele>85.8</ele><time>2026-04-18T13:26:29.888Z</time></trkpt><trkpt lat="43.8295783" lon="12.6798333"><ele>85.6</ele><time>2026-04-18T13:26:30.889Z</time></trkpt><trkpt lat="43.829625" lon="12.67973"><ele>85.4</ele><time>2026-04-18T13:26:31.885Z</time></trkpt><trkpt lat="43.8296483" lon="12.679605"><ele>85.2</ele><time>2026-04-18T13:26:32.888Z</time></trkpt><trkpt lat="43.8296533" lon="12.679465"><ele>85.0</ele><time>2026-04-18T13:26:33.889Z</time></trkpt><trkpt lat="43.829665" lon="12.6793283"><ele>85.6</ele><time>2026-04-18T13:26:34.889Z</time></trkpt><trkpt lat="43.829685" lon="12.6791933"><ele>86.2</ele><time>2026-04-18T13:26:35.889Z</time></trkpt><trkpt lat="43.8297233" lon="12.6790683"><ele>86.80000000000001</ele><time>2026-04-18T13:26:36.888Z</time></trkpt><trkpt lat="43.829785" lon="12.6789483"><ele>87.4</ele><time>2026-04-18T13:26:37.89Z</time></trkpt><trkpt lat="43.829855" lon="12.67883"><ele>88.0</ele><time>2026-04-18T13:26:38.889Z</time></trkpt><trkpt lat="43.8299183" lon="12.6787317"><ele>88.0</ele><time>2026-04-18T13:26:39.889Z</time></trkpt><trkpt lat="43.8299733" lon="12.6786517"><ele>88.0</ele><time>2026-04-18T13:26:40.888Z</time></trkpt><trkpt lat="43.8300417" lon="12.6785467"><ele>88.0</ele><time>2026-04-18T13:26:42.889Z</time></trkpt><trkpt lat="43.8300917" lon="12.6784883"><ele>88.0</ele><time>2026-04-18T13:26:45.885Z</time></trkpt><trkpt lat="43.8301367" lon="12.678365"><ele>88.0</ele><time>2026-04-18T13:27:30.888Z</time></trkpt><trkpt lat="43.83021" lon="12.6782367"><ele>91.2</ele><time>2026-04-18T13:27:32.888Z</time></trkpt><trkpt lat="43.8302717" lon="12.6781283"><ele>94.4</ele><time>2026-04-18T13:27:34.888Z</time></trkpt><trkpt lat="43.8303267" lon="12.6780383"><ele>97.60000000000001</ele><time>2026-04-18T13:27:36.888Z</time></trkpt><trkpt lat="43.83039" lon="12.6779183"><ele>100.80000000000001</ele><time>2026-04-18T13:27:38.889Z</time></trkpt><trkpt lat="43.8304617" lon="12.6777683"><ele>104.0</ele><time>2026-04-18T13:27:40.888Z</time></trkpt><trkpt lat="43.8305" lon="12.677685"><ele>105.66666666666666</ele><time>2026-04-18T13:27:41.888Z</time></trkpt><trkpt lat="43.8305367" lon="12.677605"><ele>107.33333333333333</ele><time>2026-04-18T13:27:42.886Z</time></trkpt><trkpt lat="43.8305683" lon="12.6775267"><ele>109.0</ele><time>2026-04-18T13:27:43.887Z</time></trkpt><trkpt lat="43.8306" lon="12.67745"><ele>110.66666666666666</ele><time>2026-04-18T13:27:44.886Z</time></trkpt><trkpt lat="43.8306517" lon="12.6772983"><ele>112.33333333333333</ele><time>2026-04-18T13:27:46.887Z</time></trkpt><trkpt lat="43.8306767" lon="12.6772133"><ele>114.0</ele><time>2026-04-18T13:27:47.887Z</time></trkpt><trkpt lat="43.8307033" lon="12.677115"><ele>114.0</ele><time>2026-04-18T13:27:48.887Z</time></trkpt><trkpt lat="43.83073" lon="12.6770067"><ele>114.0</ele><time>2026-04-18T13:27:49.887Z</time></trkpt><trkpt lat="43.830755" lon="12.67689"><ele>114.0</ele><time>2026-04-18T13:27:50.887Z</time></trkpt><trkpt lat="43.8307767" lon="12.6767683"><ele>114.0</ele><time>2026-04-18T13:27:51.888Z</time></trkpt><trkpt lat="43.8307917" lon="12.67665"><ele>114.0</ele><time>2026-04-18T13:27:52.887Z</time></trkpt><trkpt lat="43.830795" lon="12.67653"><ele>114.0</ele><time>2026-04-18T13:27:53.886Z</time></trkpt><trkpt lat="43.8307883" lon="12.67641"><ele>115.66666666666667</ele><time>2026-04-18T13:27:54.886Z</time></trkpt><trkpt lat="43.8307633" lon="12.6763"><ele>117.33333333333334</ele><time>2026-04-18T13:27:55.888Z</time></trkpt><trkpt lat="43.8307283" lon="12.6761983"><ele>119.0</ele><time>2026-04-18T13:27:56.886Z</time></trkpt><trkpt lat="43.830695" lon="12.6760933"><ele>120.66666666666667</ele><time>2026-04-18T13:27:57.886Z</time></trkpt><trkpt lat="43.8306683" lon="12.6759817"><ele>122.33333333333334</ele><time>2026-04-18T13:27:58.889Z</time></trkpt><trkpt lat="43.83065" lon="12.6758633"><ele>124.0</ele><time>2026-04-18T13:27:59.889Z</time></trkpt><trkpt lat="43.8306517" lon="12.6757433"><ele>127.5</ele><time>2026-04-18T13:28:00.887Z</time></trkpt><trkpt lat="43.8306617" lon="12.6754883"><ele>131.0</ele><time>2026-04-18T13:28:02.888Z</time></trkpt><trkpt lat="43.8306783" lon="12.6753583"><ele>134.5</ele><time>2026-04-18T13:28:03.888Z</time></trkpt><trkpt lat="43.8307" lon="12.6752267"><ele>138.0</ele><time>2026-04-18T13:28:04.889Z</time></trkpt><trkpt lat="43.8307217" lon="12.6751017"><ele>140.0</ele><time>2026-04-18T13:28:05.888Z</time></trkpt><trkpt lat="43.8307417" lon="12.674975"><ele>142.0</ele><time>2026-04-18T13:28:06.889Z</time></trkpt><trkpt lat="43.8307567" lon="12.6748517"><ele>144.0</ele><time>2026-04-18T13:28:07.889Z</time></trkpt><trkpt lat="43.8307583" lon="12.6747333"><ele>146.0</ele><time>2026-04-18T13:28:08.889Z</time></trkpt><trkpt lat="43.830745" lon="12.6746317"><ele>148.0</ele><time>2026-04-18T13:28:09.888Z</time></trkpt><trkpt lat="43.83071" lon="12.6745467"><ele>150.0</ele><time>2026-04-18T13:28:10.889Z</time></trkpt><trkpt lat="43.8306633" lon="12.6744767"><ele>152.5</ele><time>2026-04-18T13:28:11.888Z</time></trkpt><trkpt lat="43.8306017" lon="12.67441"><ele>155.0</ele><time>2026-04-18T13:28:12.885Z</time></trkpt><trkpt lat="43.8305417" lon="12.6743383"><ele>157.5</ele><time>2026-04-18T13:28:13.89Z</time></trkpt><trkpt lat="43.8304717" lon="12.67427"><ele>160.0</ele><time>2026-04-18T13:28:14.886Z</time></trkpt><trkpt lat="43.8304" lon="12.6742083"><ele>162.5</ele><time>2026-04-18T13:28:15.887Z</time></trkpt><trkpt lat="43.83033" lon="12.6741483"><ele>165.0</ele><time>2026-04-18T13:28:16.89Z</time></trkpt><trkpt lat="43.83027" lon="12.674085"><ele>165.0</ele><time>2026-04-18T13:28:17.885Z</time></trkpt><trkpt lat="43.83022" lon="12.6740217"><ele>165.0</ele><time>2026-04-18T13:28:18.889Z</time></trkpt><trkpt lat="43.8301533" lon="12.673885"><ele>165.0</ele><time>2026-04-18T13:28:20.887Z</time></trkpt><trkpt lat="43.830175" lon="12.673735"><ele>165.0</ele><time>2026-04-18T13:28:22.89Z</time></trkpt><trkpt lat="43.8302133" lon="12.6736583"><ele>165.0</ele><time>2026-04-18T13:28:23.887Z</time></trkpt><trkpt lat="43.83027" lon="12.6735833"><ele>165.0</ele><time>2026-04-18T13:28:24.887Z</time></trkpt><trkpt lat="43.8303217" lon="12.673505"><ele>167.16666666666666</ele><time>2026-04-18T13:28:25.888Z</time></trkpt><trkpt lat="43.8303633" lon="12.6734233"><ele>169.33333333333334</ele><time>2026-04-18T13:28:26.886Z</time></trkpt><trkpt lat="43.8303867" lon="12.6733283"><ele>171.5</ele><time>2026-04-18T13:28:27.887Z</time></trkpt><trkpt lat="43.8303967" lon="12.67323"><ele>173.66666666666669</ele><time>2026-04-18T13:28:28.887Z</time></trkpt><trkpt lat="43.8303983" lon="12.6731383"><ele>175.83333333333334</ele><time>2026-04-18T13:28:29.89Z</time></trkpt><trkpt lat="43.8303933" lon="12.6730317"><ele>178.0</ele><time>2026-04-18T13:28:31.885Z</time></trkpt><trkpt lat="43.8303933" lon="12.6731567"><ele>178.0</ele><time>2026-04-18T13:28:43.89Z</time></trkpt><trkpt lat="43.8304017" lon="12.6733333"><ele>178.0</ele><time>2026-04-18T13:28:45.889Z</time></trkpt><trkpt lat="43.8303883" lon="12.6734317"><ele>178.0</ele><time>2026-04-18T13:28:46.886Z</time></trkpt><trkpt lat="43.8303517" lon="12.673525"><ele>178.0</ele><time>2026-04-18T13:28:47.887Z</time></trkpt><trkpt lat="43.8303083" lon="12.673605"><ele>178.0</ele><time>2026-04-18T13:28:48.887Z</time></trkpt><trkpt lat="43.83023" lon="12.67373"><ele>175.83333333333334</ele><time>2026-04-18T13:28:50.887Z</time></trkpt><trkpt lat="43.8301883" lon="12.6738467"><ele>173.66666666666669</ele><time>2026-04-18T13:28:52.888Z</time></trkpt><trkpt lat="43.8301867" lon="12.67397"><ele>171.5</ele><time>2026-04-18T13:28:54.888Z</time></trkpt><trkpt lat="43.8302283" lon="12.6740933"><ele>169.33333333333334</ele><time>2026-04-18T13:28:56.886Z</time></trkpt><trkpt lat="43.8302933" lon="12.6741733"><ele>167.16666666666666</ele><time>2026-04-18T13:28:58.89Z</time></trkpt><trkpt lat="43.83036" lon="12.6742333"><ele>165.0</ele><time>2026-04-18T13:29:00.889Z</time></trkpt><trkpt lat="43.8304367" lon="12.674305"><ele>165.0</ele><time>2026-04-18T13:29:02.888Z</time></trkpt><trkpt lat="43.830545" lon="12.6743933"><ele>165.0</ele><time>2026-04-18T13:29:04.888Z</time></trkpt><trkpt lat="43.830605" lon="12.6744467"><ele>165.0</ele><time>2026-04-18T13:29:05.889Z</time></trkpt><trkpt lat="43.8306567" lon="12.6745033"><ele>165.0</ele><time>2026-04-18T13:29:06.885Z</time></trkpt><trkpt lat="43.830715" lon="12.6746083"><ele>165.0</ele><time>2026-04-18T13:29:08.89Z</time></trkpt><trkpt lat="43.83068" lon="12.67452"><ele>165.0</ele><time>2026-04-18T13:29:21.889Z</time></trkpt><trkpt lat="43.8305817" lon="12.6743917"><ele>165.0</ele><time>2026-04-18T13:29:23.886Z</time></trkpt><trkpt lat="43.8305183" lon="12.6743283"><ele>165.0</ele><time>2026-04-18T13:29:24.888Z</time></trkpt><trkpt lat="43.8304483" lon="12.6742617"><ele>165.0</ele><time>2026-04-18T13:29:25.886Z</time></trkpt><trkpt lat="43.8303683" lon="12.6741883"><ele>165.0</ele><time>2026-04-18T13:29:26.89Z</time></trkpt><trkpt lat="43.8302983" lon="12.67412"><ele>165.0</ele><time>2026-04-18T13:29:27.886Z</time></trkpt><trkpt lat="43.830245" lon="12.6740583"><ele>165.0</ele><time>2026-04-18T13:29:28.888Z</time></trkpt><trkpt lat="43.8301683" lon="12.673945"><ele>165.5</ele><time>2026-04-18T13:29:30.888Z</time></trkpt><trkpt lat="43.8301083" lon="12.673875"><ele>166.0</ele><time>2026-04-18T13:29:33.888Z</time></trkpt><trkpt lat="43.8300467" lon="12.6739233"><ele>166.5</ele><time>2026-04-18T13:29:41.887Z</time></trkpt><trkpt lat="43.8299833" lon="12.6739183"><ele>167.0</ele><time>2026-04-18T13:29:47.885Z</time></trkpt><trkpt lat="43.8300033" lon="12.6737967"><ele>167.5</ele><time>2026-04-18T13:31:26.889Z</time></trkpt><trkpt lat="43.83002" lon="12.6736967"><ele>168.0</ele><time>2026-04-18T13:31:28.887Z</time></trkpt><trkpt lat="43.8300217" lon="12.6735917"><ele>168.0</ele><time>2026-04-18T13:31:30.886Z</time></trkpt><trkpt lat="43.83" lon="12.6734867"><ele>168.0</ele><time>2026-04-18T13:31:32.886Z</time></trkpt><trkpt lat="43.82998" lon="12.673385"><ele>168.0</ele><time>2026-04-18T13:31:34.887Z</time></trkpt><trkpt lat="43.82993" lon="12.6733017"><ele>168.0</ele><time>2026-04-18T13:31:36.886Z</time></trkpt><trkpt lat="43.8298583" lon="12.6732233"><ele>168.0</ele><time>2026-04-18T13:31:38.885Z</time></trkpt><trkpt lat="43.8297617" lon="12.6731567"><ele>168.0</ele><time>2026-04-18T13:31:40.886Z</time></trkpt><trkpt lat="43.829695" lon="12.6731317"><ele>168.0</ele><time>2026-04-18T13:31:41.885Z</time></trkpt><trkpt lat="43.829625" lon="12.6731167"><ele>168.0</ele><time>2026-04-18T13:31:42.887Z</time></trkpt><trkpt lat="43.8295583" lon="12.6731033"><ele>168.0</ele><time>2026-04-18T13:31:43.889Z</time></trkpt><trkpt lat="43.82949" lon="12.6730867"><ele>168.0</ele><time>2026-04-18T13:31:44.885Z</time></trkpt><trkpt lat="43.829425" lon="12.6730633"><ele>168.0</ele><time>2026-04-18T13:31:45.886Z</time></trkpt><trkpt lat="43.82932" lon="12.67304"><ele>168.0</ele><time>2026-04-18T13:31:47.887Z</time></trkpt><trkpt lat="43.8292383" lon="12.6730167"><ele>168.33333333333334</ele><time>2026-04-18T13:31:49.886Z</time></trkpt><trkpt lat="43.8291667" lon="12.6729717"><ele>168.66666666666666</ele><time>2026-04-18T13:31:51.887Z</time></trkpt><trkpt lat="43.8290983" lon="12.672865"><ele>169.0</ele><time>2026-04-18T13:31:53.887Z</time></trkpt><trkpt lat="43.8290517" lon="12.6728033"><ele>169.33333333333331</ele><time>2026-04-18T13:31:54.89Z</time></trkpt><trkpt lat="43.829005" lon="12.67274"><ele>169.66666666666666</ele><time>2026-04-18T13:31:55.887Z</time></trkpt><trkpt lat="43.8289533" lon="12.6726783"><ele>170.0</ele><time>2026-04-18T13:31:56.886Z</time></trkpt><trkpt lat="43.82886" lon="12.672595"><ele>170.0</ele><time>2026-04-18T13:31:58.887Z</time></trkpt><trkpt lat="43.8288033" lon="12.672555"><ele>170.0</ele><time>2026-04-18T13:31:59.887Z</time></trkpt><trkpt lat="43.8287083" lon="12.672465"><ele>170.0</ele><time>2026-04-18T13:32:01.888Z</time></trkpt><trkpt lat="43.828665" lon="12.6723983"><ele>170.0</ele><time>2026-04-18T13:32:02.887Z</time></trkpt><trkpt lat="43.828615" lon="12.67233"><ele>170.0</ele><time>2026-04-18T13:32:03.887Z</time></trkpt><trkpt lat="43.8285683" lon="12.6722667"><ele>170.0</ele><time>2026-04-18T13:32:04.888Z</time></trkpt><trkpt lat="43.8285233" lon="12.672205"><ele>170.0</ele><time>2026-04-18T13:32:05.887Z</time></trkpt><trkpt lat="43.82842" lon="12.6721167"><ele>164.4</ele><time>2026-04-18T13:32:07.888Z</time></trkpt><trkpt lat="43.8283183" lon="12.6720567"><ele>158.8</ele><time>2026-04-18T13:32:09.887Z</time></trkpt><trkpt lat="43.8282233" lon="12.67201"><ele>153.2</ele><time>2026-04-18T13:32:11.887Z</time></trkpt><trkpt lat="43.82816" lon="12.6720033"><ele>147.6</ele><time>2026-04-18T13:32:12.887Z</time></trkpt><trkpt lat="43.8280467" lon="12.67202"><ele>142.0</ele><time>2026-04-18T13:32:14.886Z</time></trkpt><trkpt lat="43.82798" lon="12.6720467"><ele>142.0</ele><time>2026-04-18T13:32:16.887Z</time></trkpt><trkpt lat="43.82791" lon="12.672085"><ele>142.0</ele><time>2026-04-18T13:32:18.888Z</time></trkpt><trkpt lat="43.827845" lon="12.67211"><ele>142.0</ele><time>2026-04-18T13:32:21.887Z</time></trkpt><trkpt lat="43.8277633" lon="12.6721233"><ele>142.0</ele><time>2026-04-18T13:32:25.888Z</time></trkpt><trkpt lat="43.8276683" lon="12.672135"><ele>142.0</ele><time>2026-04-18T13:32:28.885Z</time></trkpt><trkpt lat="43.8275817" lon="12.6721383"><ele>142.0</ele><time>2026-04-18T13:32:30.889Z</time></trkpt><trkpt lat="43.8274783" lon="12.6721333"><ele>142.33333333333334</ele><time>2026-04-18T13:32:32.888Z</time></trkpt><trkpt lat="43.82739" lon="12.6721333"><ele>142.66666666666669</ele><time>2026-04-18T13:32:34.891Z</time></trkpt><trkpt lat="43.8272983" lon="12.672135"><ele>143.0</ele><time>2026-04-18T13:32:36.888Z</time></trkpt><trkpt lat="43.8272033" lon="12.6721133"><ele>143.33333333333334</ele><time>2026-04-18T13:32:38.89Z</time></trkpt><trkpt lat="43.827125" lon="12.6720467"><ele>143.66666666666666</ele><time>2026-04-18T13:32:40.885Z</time></trkpt><trkpt lat="43.8270767" lon="12.67196"><ele>144.0</ele><time>2026-04-18T13:32:42.885Z</time></trkpt><trkpt lat="43.8270317" lon="12.6718833"><ele>144.0</ele><time>2026-04-18T13:32:44.885Z</time></trkpt><trkpt lat="43.8269567" lon="12.6718367"><ele>144.0</ele><time>2026-04-18T13:32:47.885Z</time></trkpt><trkpt lat="43.8268883" lon="12.6717917"><ele>144.0</ele><time>2026-04-18T13:32:49.889Z</time></trkpt><trkpt lat="43.8268133" lon="12.6717367"><ele>144.0</ele><time>2026-04-18T13:32:51.886Z</time></trkpt><trkpt lat="43.8267433" lon="12.6716867"><ele>144.0</ele><time>2026-04-18T13:32:53.887Z</time></trkpt><trkpt lat="43.8266617" lon="12.6716217"><ele>144.0</ele><time>2026-04-18T13:32:55.886Z</time></trkpt><trkpt lat="43.8265817" lon="12.6715483"><ele>139.0</ele><time>2026-04-18T13:32:57.886Z</time></trkpt><trkpt lat="43.8264983" lon="12.6714583"><ele>134.0</ele><time>2026-04-18T13:32:59.886Z</time></trkpt><trkpt lat="43.826405" lon="12.6713683"><ele>129.0</ele><time>2026-04-18T13:33:01.887Z</time></trkpt><trkpt lat="43.8263117" lon="12.67128"><ele>124.0</ele><time>2026-04-18T13:33:03.886Z</time></trkpt><trkpt lat="43.8262133" lon="12.6711917"><ele>124.0</ele><time>2026-04-18T13:33:05.889Z</time></trkpt><trkpt lat="43.826115" lon="12.671125"><ele>124.0</ele><time>2026-04-18T13:33:07.887Z</time></trkpt><trkpt lat="43.8260233" lon="12.6710433"><ele>124.0</ele><time>2026-04-18T13:33:09.887Z</time></trkpt><trkpt lat="43.8259183" lon="12.6709433"><ele>124.0</ele><time>2026-04-18T13:33:11.888Z</time></trkpt><trkpt lat="43.8258567" lon="12.6708867"><ele>124.0</ele><time>2026-04-18T13:33:12.888Z</time></trkpt><trkpt lat="43.825795" lon="12.6708317"><ele>123.16666666666667</ele><time>2026-04-18T13:33:13.888Z</time></trkpt><trkpt lat="43.8257283" lon="12.6707867"><ele>122.33333333333334</ele><time>2026-04-18T13:33:14.888Z</time></trkpt><trkpt lat="43.8256633" lon="12.6707433"><ele>121.5</ele><time>2026-04-18T13:33:15.888Z</time></trkpt><trkpt lat="43.8256033" lon="12.6707067"><ele>120.66666666666666</ele><time>2026-04-18T13:33:16.888Z</time></trkpt><trkpt lat="43.825505" lon="12.6706417"><ele>119.83333333333333</ele><time>2026-04-18T13:33:18.887Z</time></trkpt><trkpt lat="43.8254233" lon="12.6705733"><ele>119.0</ele><time>2026-04-18T13:33:20.886Z</time></trkpt><trkpt lat="43.8253517" lon="12.6704817"><ele>119.0</ele><time>2026-04-18T13:33:22.886Z</time></trkpt><trkpt lat="43.8252683" lon="12.6703617"><ele>119.0</ele><time>2026-04-18T13:33:24.887Z</time></trkpt><trkpt lat="43.8251817" lon="12.67025"><ele>119.0</ele><time>2026-04-18T13:33:26.886Z</time></trkpt><trkpt lat="43.8250833" lon="12.6701333"><ele>119.0</ele><time>2026-04-18T13:33:28.887Z</time></trkpt><trkpt lat="43.8250367" lon="12.67007"><ele>119.0</ele><time>2026-04-18T13:33:29.886Z</time></trkpt><trkpt lat="43.8249817" lon="12.6700083"><ele>116.83333333333333</ele><time>2026-04-18T13:33:30.888Z</time></trkpt><trkpt lat="43.8249267" lon="12.6699433"><ele>114.66666666666666</ele><time>2026-04-18T13:33:31.888Z</time></trkpt><trkpt lat="43.824875" lon="12.66988"><ele>112.5</ele><time>2026-04-18T13:33:32.888Z</time></trkpt><trkpt lat="43.8248283" lon="12.6698183"><ele>110.33333333333334</ele><time>2026-04-18T13:33:33.887Z</time></trkpt><trkpt lat="43.8247583" lon="12.6697183"><ele>108.16666666666667</ele><time>2026-04-18T13:33:35.889Z</time></trkpt><trkpt lat="43.8247083" lon="12.6696533"><ele>106.0</ele><time>2026-04-18T13:33:37.887Z</time></trkpt><trkpt lat="43.824615" lon="12.6697017"><ele>106.0</ele><time>2026-04-18T13:38:56.886Z</time></trkpt><trkpt lat="43.8247067" lon="12.6697767"><ele>106.0</ele><time>2026-04-18T13:39:03.886Z</time></trkpt><trkpt lat="43.8248017" lon="12.66989"><ele>106.0</ele><time>2026-04-18T13:39:05.886Z</time></trkpt><trkpt lat="43.8248533" lon="12.6699583"><ele>106.0</ele><time>2026-04-18T13:39:06.887Z</time></trkpt><trkpt lat="43.8249083" lon="12.6700317"><ele>106.0</ele><time>2026-04-18T13:39:07.885Z</time></trkpt><trkpt lat="43.8249667" lon="12.6700967"><ele>106.0</ele><time>2026-04-18T13:39:08.885Z</time></trkpt><trkpt lat="43.8250283" lon="12.6701617"><ele>106.0</ele><time>2026-04-18T13:39:09.886Z</time></trkpt><trkpt lat="43.82509" lon="12.6702183"><ele>106.0</ele><time>2026-04-18T13:39:10.885Z</time></trkpt><trkpt lat="43.8251517" lon="12.6702667"><ele>106.0</ele><time>2026-04-18T13:39:11.884Z</time></trkpt><trkpt lat="43.8252067" lon="12.67032"><ele>106.0</ele><time>2026-04-18T13:39:12.888Z</time></trkpt><trkpt lat="43.8252617" lon="12.670375"><ele>106.0</ele><time>2026-04-18T13:39:13.886Z</time></trkpt><trkpt lat="43.8253133" lon="12.6704333"><ele>106.0</ele><time>2026-04-18T13:39:14.884Z</time></trkpt><trkpt lat="43.8253617" lon="12.6704967"><ele>108.6</ele><time>2026-04-18T13:39:15.888Z</time></trkpt><trkpt lat="43.8254517" lon="12.6705933"><ele>111.19999999999999</ele><time>2026-04-18T13:39:17.884Z</time></trkpt><trkpt lat="43.8255633" lon="12.67066"><ele>113.80000000000001</ele><time>2026-04-18T13:39:19.885Z</time></trkpt><trkpt lat="43.8256183" lon="12.6707033"><ele>116.4</ele><time>2026-04-18T13:39:20.884Z</time></trkpt><trkpt lat="43.8256833" lon="12.6707483"><ele>119.0</ele><time>2026-04-18T13:39:21.884Z</time></trkpt><trkpt lat="43.8257533" lon="12.6707983"><ele>118.99999999999999</ele><time>2026-04-18T13:39:22.887Z</time></trkpt><trkpt lat="43.825825" lon="12.6708533"><ele>119.0</ele><time>2026-04-18T13:39:23.885Z</time></trkpt><trkpt lat="43.8258933" lon="12.6709133"><ele>119.0</ele><time>2026-04-18T13:39:24.886Z</time></trkpt><trkpt lat="43.8259667" lon="12.67097"><ele>119.0</ele><time>2026-04-18T13:39:25.885Z</time></trkpt><trkpt lat="43.82604" lon="12.6710283"><ele>118.99999999999999</ele><time>2026-04-18T13:39:26.885Z</time></trkpt><trkpt lat="43.8261133" lon="12.6710933"><ele>119.0</ele><time>2026-04-18T13:39:27.886Z</time></trkpt><trkpt lat="43.8261883" lon="12.6711567"><ele>119.83333333333333</ele><time>2026-04-18T13:39:28.886Z</time></trkpt><trkpt lat="43.8262667" lon="12.6712267"><ele>120.66666666666666</ele><time>2026-04-18T13:39:29.885Z</time></trkpt><trkpt lat="43.826345" lon="12.671295"><ele>121.5</ele><time>2026-04-18T13:39:30.885Z</time></trkpt><trkpt lat="43.8264183" lon="12.6713567"><ele>122.33333333333334</ele><time>2026-04-18T13:39:31.885Z</time></trkpt><trkpt lat="43.826485" lon="12.6714183"><ele>123.16666666666667</ele><time>2026-04-18T13:39:32.885Z</time></trkpt><trkpt lat="43.82655" lon="12.671475"><ele>124.0</ele><time>2026-04-18T13:39:33.885Z</time></trkpt><trkpt lat="43.8266033" lon="12.6715283"><ele>124.0</ele><time>2026-04-18T13:39:34.886Z</time></trkpt><trkpt lat="43.8266767" lon="12.6716117"><ele>124.0</ele><time>2026-04-18T13:39:36.888Z</time></trkpt><trkpt lat="43.82675" lon="12.6716733"><ele>124.0</ele><time>2026-04-18T13:39:38.889Z</time></trkpt><trkpt lat="43.826825" lon="12.6717317"><ele>124.0</ele><time>2026-04-18T13:39:40.886Z</time></trkpt><trkpt lat="43.8269117" lon="12.6717883"><ele>124.0</ele><time>2026-04-18T13:39:42.889Z</time></trkpt><trkpt lat="43.8269983" lon="12.67184"><ele>123.6</ele><time>2026-04-18T13:39:44.885Z</time></trkpt><trkpt lat="43.8270817" lon="12.671935"><ele>123.2</ele><time>2026-04-18T13:39:46.889Z</time></trkpt><trkpt lat="43.827155" lon="12.6720367"><ele>122.79999999999998</ele><time>2026-04-18T13:39:48.886Z</time></trkpt><trkpt lat="43.8272417" lon="12.672085"><ele>122.39999999999999</ele><time>2026-04-18T13:39:50.884Z</time></trkpt><trkpt lat="43.8273433" lon="12.67209"><ele>122.0</ele><time>2026-04-18T13:39:52.886Z</time></trkpt><trkpt lat="43.82746" lon="12.672085"><ele>122.0</ele><time>2026-04-18T13:39:54.885Z</time></trkpt><trkpt lat="43.82758" lon="12.6720917"><ele>121.99999999999999</ele><time>2026-04-18T13:39:56.886Z</time></trkpt><trkpt lat="43.827695" lon="12.6720783"><ele>121.99999999999999</ele><time>2026-04-18T13:39:58.886Z</time></trkpt><trkpt lat="43.8278083" lon="12.672045"><ele>122.0</ele><time>2026-04-18T13:40:00.887Z</time></trkpt><trkpt lat="43.82787" lon="12.6720183"><ele>122.0</ele><time>2026-04-18T13:40:01.887Z</time></trkpt><trkpt lat="43.82798" lon="12.6719617"><ele>126.0</ele><time>2026-04-18T13:40:03.885Z</time></trkpt><trkpt lat="43.8280817" lon="12.671925"><ele>130.0</ele><time>2026-04-18T13:40:05.886Z</time></trkpt><trkpt lat="43.8281983" lon="12.6719267"><ele>134.0</ele><time>2026-04-18T13:40:07.887Z</time></trkpt><trkpt lat="43.8283067" lon="12.6719767"><ele>138.0</ele><time>2026-04-18T13:40:09.885Z</time></trkpt><trkpt lat="43.8283633" lon="12.6720233"><ele>142.0</ele><time>2026-04-18T13:40:10.886Z</time></trkpt><trkpt lat="43.8284217" lon="12.6720833"><ele>146.66666666666669</ele><time>2026-04-18T13:40:11.888Z</time></trkpt><trkpt lat="43.8284833" lon="12.672155"><ele>151.33333333333334</ele><time>2026-04-18T13:40:12.885Z</time></trkpt><trkpt lat="43.8285433" lon="12.672225"><ele>156.0</ele><time>2026-04-18T13:40:13.887Z</time></trkpt><trkpt lat="43.8285967" lon="12.6723"><ele>160.66666666666666</ele><time>2026-04-18T13:40:14.885Z</time></trkpt><trkpt lat="43.8286533" lon="12.672375"><ele>165.33333333333331</ele><time>2026-04-18T13:40:15.887Z</time></trkpt><trkpt lat="43.8287117" lon="12.6724467"><ele>170.0</ele><time>2026-04-18T13:40:16.886Z</time></trkpt><trkpt lat="43.8287767" lon="12.6725067"><ele>170.0</ele><time>2026-04-18T13:40:17.886Z</time></trkpt><trkpt lat="43.8288433" lon="12.672555"><ele>170.0</ele><time>2026-04-18T13:40:18.885Z</time></trkpt><trkpt lat="43.8289117" lon="12.6726183"><ele>170.0</ele><time>2026-04-18T13:40:19.887Z</time></trkpt><trkpt lat="43.828975" lon="12.67269"><ele>170.0</ele><time>2026-04-18T13:40:20.888Z</time></trkpt><trkpt lat="43.8290333" lon="12.6727683"><ele>170.0</ele><time>2026-04-18T13:40:21.887Z</time></trkpt><trkpt lat="43.8290867" lon="12.6728417"><ele>170.0</ele><time>2026-04-18T13:40:22.885Z</time></trkpt><trkpt lat="43.8291367" lon="12.6729067"><ele>169.66666666666666</ele><time>2026-04-18T13:40:23.885Z</time></trkpt><trkpt lat="43.82919" lon="12.672955"><ele>169.33333333333331</ele><time>2026-04-18T13:40:24.887Z</time></trkpt><trkpt lat="43.8292533" lon="12.672995"><ele>169.0</ele><time>2026-04-18T13:40:25.885Z</time></trkpt><trkpt lat="43.8293317" lon="12.673035"><ele>168.66666666666666</ele><time>2026-04-18T13:40:26.886Z</time></trkpt><trkpt lat="43.8294183" lon="12.67307"><ele>168.33333333333334</ele><time>2026-04-18T13:40:27.886Z</time></trkpt><trkpt lat="43.8295067" lon="12.6730967"><ele>168.0</ele><time>2026-04-18T13:40:28.886Z</time></trkpt><trkpt lat="43.8295917" lon="12.67312"><ele>168.0</ele><time>2026-04-18T13:40:29.888Z</time></trkpt><trkpt lat="43.8296733" lon="12.6731417"><ele>168.0</ele><time>2026-04-18T13:40:30.887Z</time></trkpt><trkpt lat="43.82975" lon="12.6731683"><ele>168.0</ele><time>2026-04-18T13:40:31.885Z</time></trkpt><trkpt lat="43.8298267" lon="12.6732"><ele>168.0</ele><time>2026-04-18T13:40:32.885Z</time></trkpt><trkpt lat="43.829895" lon="12.67327"><ele>168.0</ele><time>2026-04-18T13:40:33.887Z</time></trkpt><trkpt lat="43.8299517" lon="12.673355"><ele>168.0</ele><time>2026-04-18T13:40:34.885Z</time></trkpt><trkpt lat="43.829995" lon="12.67344"><ele>168.0</ele><time>2026-04-18T13:40:35.885Z</time></trkpt><trkpt lat="43.8300283" lon="12.6735283"><ele>168.0</ele><time>2026-04-18T13:40:36.886Z</time></trkpt><trkpt lat="43.8300417" lon="12.6736217"><ele>168.0</ele><time>2026-04-18T13:40:37.885Z</time></trkpt><trkpt lat="43.8300417" lon="12.6737183"><ele>168.0</ele><time>2026-04-18T13:40:38.886Z</time></trkpt><trkpt lat="43.8300217" lon="12.6738633"><ele>168.0</ele><time>2026-04-18T13:40:40.886Z</time></trkpt><trkpt lat="43.830075" lon="12.67391"><ele>168.0</ele><time>2026-04-18T13:40:45.885Z</time></trkpt><trkpt lat="43.8301383" lon="12.6739217"><ele>168.0</ele><time>2026-04-18T13:40:48.886Z</time></trkpt><trkpt lat="43.8301717" lon="12.67401"><ele>165.0</ele><time>2026-04-18T13:40:50.886Z</time></trkpt><trkpt lat="43.8302333" lon="12.67412"><ele>165.0</ele><time>2026-04-18T13:40:52.887Z</time></trkpt><trkpt lat="43.8302867" lon="12.67417"><ele>165.0</ele><time>2026-04-18T13:40:53.886Z</time></trkpt><trkpt lat="43.830345" lon="12.6742167"><ele>165.0</ele><time>2026-04-18T13:40:54.885Z</time></trkpt></trkseg><trkseg><trkpt lat="43.8467467" lon="12.72045"><ele>53.00000000000001</ele><time>2026-04-18T13:52:27.889Z</time></trkpt><trkpt lat="43.846845" lon="12.720515"><ele>53.0</ele><time>2026-04-18T13:52:47.886Z</time></trkpt><trkpt lat="43.8469133" lon="12.7205133"><ele>53.0</ele><time>2026-04-18T13:52:48.887Z</time></trkpt><trkpt lat="43.8469817" lon="12.7205183"><ele>53.0</ele><time>2026-04-18T13:52:49.886Z</time></trkpt><trkpt lat="43.8470717" lon="12.720535"><ele>53.00000000000001</ele><time>2026-04-18T13:52:51.886Z</time></trkpt><trkpt lat="43.8471567" lon="12.720545"><ele>53.0</ele><time>2026-04-18T13:53:03.891Z</time></trkpt><trkpt lat="43.8472233" lon="12.7205333"><ele>53.0</ele><time>2026-04-18T13:53:04.889Z</time></trkpt><trkpt lat="43.8472983" lon="12.7204917"><ele>53.0</ele><time>2026-04-18T13:53:05.89Z</time></trkpt><trkpt lat="43.8473583" lon="12.7204283"><ele>53.0</ele><time>2026-04-18T13:53:06.888Z</time></trkpt><trkpt lat="43.8473967" lon="12.7203333"><ele>53.0</ele><time>2026-04-18T13:53:07.889Z</time></trkpt><trkpt lat="43.8474183" lon="12.720205"><ele>53.0</ele><time>2026-04-18T13:53:08.887Z</time></trkpt><trkpt lat="43.8474083" lon="12.7200333"><ele>53.333333333333336</ele><time>2026-04-18T13:53:09.889Z</time></trkpt><trkpt lat="43.8474033" lon="12.7198317"><ele>53.66666666666667</ele><time>2026-04-18T13:53:10.889Z</time></trkpt><trkpt lat="43.8473867" lon="12.7196183"><ele>54.0</ele><time>2026-04-18T13:53:11.888Z</time></trkpt><trkpt lat="43.8473567" lon="12.7193917"><ele>54.33333333333333</ele><time>2026-04-18T13:53:12.889Z</time></trkpt><trkpt lat="43.8473167" lon="12.7191533"><ele>54.666666666666664</ele><time>2026-04-18T13:53:13.888Z</time></trkpt><trkpt lat="43.8472683" lon="12.7189067"><ele>55.0</ele><time>2026-04-18T13:53:14.889Z</time></trkpt><trkpt lat="43.8472233" lon="12.7186617"><ele>54.666666666666664</ele><time>2026-04-18T13:53:15.889Z</time></trkpt><trkpt lat="43.8471783" lon="12.7184267"><ele>54.33333333333333</ele><time>2026-04-18T13:53:16.888Z</time></trkpt><trkpt lat="43.8471367" lon="12.7181967"><ele>54.0</ele><time>2026-04-18T13:53:17.885Z</time></trkpt><trkpt lat="43.8470967" lon="12.7179683"><ele>54.0</ele><time>2026-04-18T13:53:18.885Z</time></trkpt><trkpt lat="43.84706" lon="12.7177383"><ele>54.0</ele><time>2026-04-18T13:53:19.887Z</time></trkpt><trkpt lat="43.8470233" lon="12.7175133"><ele>54.0</ele><time>2026-04-18T13:53:20.887Z</time></trkpt><trkpt lat="43.8469883" lon="12.7172917"><ele>54.0</ele><time>2026-04-18T13:53:21.886Z</time></trkpt><trkpt lat="43.8469483" lon="12.7170667"><ele>54.0</ele><time>2026-04-18T13:53:22.889Z</time></trkpt><trkpt lat="43.84691" lon="12.7168333"><ele>54.0</ele><time>2026-04-18T13:53:23.888Z</time></trkpt><trkpt lat="43.8468667" lon="12.7165983"><ele>54.0</ele><time>2026-04-18T13:53:24.886Z</time></trkpt><trkpt lat="43.8468267" lon="12.7163633"><ele>54.0</ele><time>2026-04-18T13:53:25.889Z</time></trkpt><trkpt lat="43.8467817" lon="12.7161267"><ele>54.0</ele><time>2026-04-18T13:53:26.889Z</time></trkpt><trkpt lat="43.84673" lon="12.7158933"><ele>54.33333333333333</ele><time>2026-04-18T13:53:27.888Z</time></trkpt><trkpt lat="43.84666" lon="12.7156683"><ele>54.666666666666664</ele><time>2026-04-18T13:53:28.889Z</time></trkpt><trkpt lat="43.846565" lon="12.7154533"><ele>55.0</ele><time>2026-04-18T13:53:29.888Z</time></trkpt><trkpt lat="43.84646" lon="12.71525"><ele>54.33333333333333</ele><time>2026-04-18T13:53:30.888Z</time></trkpt><trkpt lat="43.846355" lon="12.7150533"><ele>53.66666666666667</ele><time>2026-04-18T13:53:31.886Z</time></trkpt><trkpt lat="43.8462483" lon="12.714865"><ele>53.0</ele><time>2026-04-18T13:53:32.886Z</time></trkpt><trkpt lat="43.8461483" lon="12.7146933"><ele>53.0</ele><time>2026-04-18T13:53:33.889Z</time></trkpt><trkpt lat="43.8460567" lon="12.7145317"><ele>53.0</ele><time>2026-04-18T13:53:34.885Z</time></trkpt><trkpt lat="43.845965" lon="12.714375"><ele>53.0</ele><time>2026-04-18T13:53:35.886Z</time></trkpt><trkpt lat="43.845875" lon="12.7142183"><ele>53.0</ele><time>2026-04-18T13:53:36.888Z</time></trkpt><trkpt lat="43.845785" lon="12.7140583"><ele>53.66666666666667</ele><time>2026-04-18T13:53:37.887Z</time></trkpt><trkpt lat="43.8456933" lon="12.7138917"><ele>54.33333333333333</ele><time>2026-04-18T13:53:38.887Z</time></trkpt><trkpt lat="43.8455967" lon="12.7137233"><ele>55.0</ele><time>2026-04-18T13:53:39.887Z</time></trkpt><trkpt lat="43.8455" lon="12.71355"><ele>55.0</ele><time>2026-04-18T13:53:40.886Z</time></trkpt><trkpt lat="43.8454" lon="12.713375"><ele>55.0</ele><time>2026-04-18T13:53:41.886Z</time></trkpt><trkpt lat="43.8453067" lon="12.7131983"><ele>55.0</ele><time>2026-04-18T13:53:42.886Z</time></trkpt><trkpt lat="43.8452117" lon="12.7130217"><ele>55.666666666666664</ele><time>2026-04-18T13:53:43.887Z</time></trkpt><trkpt lat="43.8451183" lon="12.7128533"><ele>56.33333333333333</ele><time>2026-04-18T13:53:44.887Z</time></trkpt><trkpt lat="43.8450267" lon="12.7126867"><ele>57.0</ele><time>2026-04-18T13:53:45.888Z</time></trkpt><trkpt lat="43.844935" lon="12.7125183"><ele>57.0</ele><time>2026-04-18T13:53:46.886Z</time></trkpt><trkpt lat="43.8448467" lon="12.7123467"><ele>57.0</ele><time>2026-04-18T13:53:47.889Z</time></trkpt><trkpt lat="43.8447533" lon="12.712175"><ele>57.0</ele><time>2026-04-18T13:53:48.885Z</time></trkpt><trkpt lat="43.8446617" lon="12.7120067"><ele>56.33333333333333</ele><time>2026-04-18T13:53:49.887Z</time></trkpt><trkpt lat="43.8445717" lon="12.7118383"><ele>55.666666666666664</ele><time>2026-04-18T13:53:50.886Z</time></trkpt><trkpt lat="43.8444783" lon="12.7116717"><ele>55.0</ele><time>2026-04-18T13:53:51.889Z</time></trkpt><trkpt lat="43.8443867" lon="12.7115083"><ele>55.0</ele><time>2026-04-18T13:53:52.887Z</time></trkpt><trkpt lat="43.8442967" lon="12.711345"><ele>55.0</ele><time>2026-04-18T13:53:53.891Z</time></trkpt><trkpt lat="43.8442033" lon="12.711175"><ele>55.0</ele><time>2026-04-18T13:53:54.889Z</time></trkpt><trkpt lat="43.8441117" lon="12.711005"><ele>55.75</ele><time>2026-04-18T13:53:55.889Z</time></trkpt><trkpt lat="43.8440217" lon="12.7108417"><ele>56.5</ele><time>2026-04-18T13:53:56.889Z</time></trkpt><trkpt lat="43.8439367" lon="12.7106833"><ele>57.25</ele><time>2026-04-18T13:53:57.888Z</time></trkpt><trkpt lat="43.8438483" lon="12.710525"><ele>58.0</ele><time>2026-04-18T13:53:58.889Z</time></trkpt><trkpt lat="43.8437567" lon="12.7103683"><ele>58.25</ele><time>2026-04-18T13:53:59.888Z</time></trkpt><trkpt lat="43.84366" lon="12.7102167"><ele>58.5</ele><time>2026-04-18T13:54:00.889Z</time></trkpt><trkpt lat="43.843555" lon="12.7100733"><ele>58.75</ele><time>2026-04-18T13:54:01.89Z</time></trkpt><trkpt lat="43.843445" lon="12.7099517"><ele>59.0</ele><time>2026-04-18T13:54:02.885Z</time></trkpt><trkpt lat="43.8433283" lon="12.709845"><ele>59.0</ele><time>2026-04-18T13:54:03.887Z</time></trkpt><trkpt lat="43.8432083" lon="12.7097533"><ele>59.0</ele><time>2026-04-18T13:54:04.887Z</time></trkpt><trkpt lat="43.8430883" lon="12.7096667"><ele>59.0</ele><time>2026-04-18T13:54:05.888Z</time></trkpt><trkpt lat="43.84297" lon="12.709585"><ele>59.0</ele><time>2026-04-18T13:54:06.888Z</time></trkpt><trkpt lat="43.84286" lon="12.7095017"><ele>59.0</ele><time>2026-04-18T13:54:07.886Z</time></trkpt><trkpt lat="43.8427533" lon="12.7094233"><ele>59.0</ele><time>2026-04-18T13:54:08.889Z</time></trkpt><trkpt lat="43.842645" lon="12.7093467"><ele>59.0</ele><time>2026-04-18T13:54:09.887Z</time></trkpt><trkpt lat="43.8425383" lon="12.7092733"><ele>59.0</ele><time>2026-04-18T13:54:10.887Z</time></trkpt><trkpt lat="43.84243" lon="12.7092017"><ele>60.25</ele><time>2026-04-18T13:54:11.886Z</time></trkpt><trkpt lat="43.8423233" lon="12.7091267"><ele>61.5</ele><time>2026-04-18T13:54:12.886Z</time></trkpt><trkpt lat="43.8422183" lon="12.7090517"><ele>62.75</ele><time>2026-04-18T13:54:13.886Z</time></trkpt><trkpt lat="43.8421133" lon="12.708975"><ele>64.0</ele><time>2026-04-18T13:54:14.888Z</time></trkpt><trkpt lat="43.8420133" lon="12.7088917"><ele>64.0</ele><time>2026-04-18T13:54:15.888Z</time></trkpt><trkpt lat="43.841915" lon="12.7087983"><ele>64.0</ele><time>2026-04-18T13:54:16.889Z</time></trkpt><trkpt lat="43.8418233" lon="12.70869"><ele>64.0</ele><time>2026-04-18T13:54:17.888Z</time></trkpt><trkpt lat="43.8417433" lon="12.70857"><ele>64.0</ele><time>2026-04-18T13:54:18.891Z</time></trkpt><trkpt lat="43.8416667" lon="12.70844"><ele>64.75</ele><time>2026-04-18T13:54:19.889Z</time></trkpt><trkpt lat="43.84159" lon="12.7083"><ele>65.5</ele><time>2026-04-18T13:54:20.885Z</time></trkpt><trkpt lat="43.841515" lon="12.7081567"><ele>66.25</ele><time>2026-04-18T13:54:21.89Z</time></trkpt><trkpt lat="43.8414433" lon="12.7080133"><ele>67.0</ele><time>2026-04-18T13:54:22.886Z</time></trkpt><trkpt lat="43.8413783" lon="12.7078717"><ele>68.25</ele><time>2026-04-18T13:54:23.888Z</time></trkpt><trkpt lat="43.84131" lon="12.7077283"><ele>69.5</ele><time>2026-04-18T13:54:24.888Z</time></trkpt><trkpt lat="43.84124" lon="12.7075867"><ele>70.75</ele><time>2026-04-18T13:54:25.89Z</time></trkpt><trkpt lat="43.841165" lon="12.7074467"><ele>72.0</ele><time>2026-04-18T13:54:26.889Z</time></trkpt><trkpt lat="43.8410917" lon="12.7073067"><ele>72.0</ele><time>2026-04-18T13:54:27.885Z</time></trkpt><trkpt lat="43.84102" lon="12.707165"><ele>72.0</ele><time>2026-04-18T13:54:28.886Z</time></trkpt><trkpt lat="43.8409467" lon="12.70702"><ele>72.0</ele><time>2026-04-18T13:54:29.886Z</time></trkpt><trkpt lat="43.8408733" lon="12.7068717"><ele>72.0</ele><time>2026-04-18T13:54:30.888Z</time></trkpt><trkpt lat="43.8408033" lon="12.7067267"><ele>71.25</ele><time>2026-04-18T13:54:31.888Z</time></trkpt><trkpt lat="43.8407333" lon="12.7065867"><ele>70.5</ele><time>2026-04-18T13:54:32.887Z</time></trkpt><trkpt lat="43.8406633" lon="12.706445"><ele>69.75</ele><time>2026-04-18T13:54:33.888Z</time></trkpt><trkpt lat="43.8405917" lon="12.7063017"><ele>69.0</ele><time>2026-04-18T13:54:34.887Z</time></trkpt><trkpt lat="43.8405183" lon="12.7061567"><ele>69.25</ele><time>2026-04-18T13:54:35.888Z</time></trkpt><trkpt lat="43.840445" lon="12.7060083"><ele>69.5</ele><time>2026-04-18T13:54:36.888Z</time></trkpt><trkpt lat="43.84037" lon="12.7058617"><ele>69.75</ele><time>2026-04-18T13:54:37.888Z</time></trkpt><trkpt lat="43.8402983" lon="12.7057183"><ele>70.0</ele><time>2026-04-18T13:54:38.887Z</time></trkpt><trkpt lat="43.8402283" lon="12.7055767"><ele>70.0</ele><time>2026-04-18T13:54:39.888Z</time></trkpt><trkpt lat="43.84016" lon="12.7054367"><ele>70.0</ele><time>2026-04-18T13:54:40.887Z</time></trkpt><trkpt lat="43.8400933" lon="12.7053"><ele>70.0</ele><time>2026-04-18T13:54:41.887Z</time></trkpt><trkpt lat="43.84003" lon="12.7051717"><ele>70.0</ele><time>2026-04-18T13:54:42.886Z</time></trkpt><trkpt lat="43.8399683" lon="12.705045"><ele>70.25</ele><time>2026-04-18T13:54:43.889Z</time></trkpt><trkpt lat="43.8399033" lon="12.70492"><ele>70.5</ele><time>2026-04-18T13:54:44.89Z</time></trkpt><trkpt lat="43.8398367" lon="12.70479"><ele>70.75</ele><time>2026-04-18T13:54:45.889Z</time></trkpt><trkpt lat="43.8397717" lon="12.7046617"><ele>71.0</ele><time>2026-04-18T13:54:46.888Z</time></trkpt><trkpt lat="43.8397067" lon="12.7045333"><ele>72.0</ele><time>2026-04-18T13:54:47.889Z</time></trkpt><trkpt lat="43.83964" lon="12.7043983"><ele>73.0</ele><time>2026-04-18T13:54:48.886Z</time></trkpt><trkpt lat="43.8395733" lon="12.70426"><ele>74.0</ele><time>2026-04-18T13:54:49.888Z</time></trkpt><trkpt lat="43.8395117" lon="12.7041217"><ele>75.0</ele><time>2026-04-18T13:54:50.885Z</time></trkpt><trkpt lat="43.839455" lon="12.7039783"><ele>75.0</ele><time>2026-04-18T13:54:51.889Z</time></trkpt><trkpt lat="43.839405" lon="12.70383"><ele>75.0</ele><time>2026-04-18T13:54:52.889Z</time></trkpt><trkpt lat="43.8393633" lon="12.7036767"><ele>75.0</ele><time>2026-04-18T13:54:53.886Z</time></trkpt><trkpt lat="43.8393333" lon="12.7035183"><ele>75.0</ele><time>2026-04-18T13:54:54.886Z</time></trkpt><trkpt lat="43.8393133" lon="12.7033583"><ele>75.0</ele><time>2026-04-18T13:54:55.886Z</time></trkpt><trkpt lat="43.8392983" lon="12.703195"><ele>75.0</ele><time>2026-04-18T13:54:56.887Z</time></trkpt><trkpt lat="43.8392933" lon="12.7030333"><ele>75.0</ele><time>2026-04-18T13:54:57.885Z</time></trkpt><trkpt lat="43.8392917" lon="12.702875"><ele>75.0</ele><time>2026-04-18T13:54:58.887Z</time></trkpt><trkpt lat="43.8392933" lon="12.7027183"><ele>75.0</ele><time>2026-04-18T13:54:59.886Z</time></trkpt><trkpt lat="43.8392967" lon="12.7025583"><ele>75.0</ele><time>2026-04-18T13:55:00.889Z</time></trkpt><trkpt lat="43.8393" lon="12.7024"><ele>75.0</ele><time>2026-04-18T13:55:01.889Z</time></trkpt><trkpt lat="43.8393017" lon="12.70224"><ele>75.0</ele><time>2026-04-18T13:55:02.888Z</time></trkpt><trkpt lat="43.8393033" lon="12.70208"><ele>76.5</ele><time>2026-04-18T13:55:03.888Z</time></trkpt><trkpt lat="43.8393083" lon="12.7019183"><ele>78.0</ele><time>2026-04-18T13:55:04.888Z</time></trkpt><trkpt lat="43.8393117" lon="12.70176"><ele>79.5</ele><time>2026-04-18T13:55:05.89Z</time></trkpt><trkpt lat="43.8393133" lon="12.7016017"><ele>81.0</ele><time>2026-04-18T13:55:06.891Z</time></trkpt><trkpt lat="43.839315" lon="12.70144"><ele>81.0</ele><time>2026-04-18T13:55:07.888Z</time></trkpt><trkpt lat="43.8393167" lon="12.701275"><ele>81.0</ele><time>2026-04-18T13:55:08.889Z</time></trkpt><trkpt lat="43.83932" lon="12.701105"><ele>81.0</ele><time>2026-04-18T13:55:09.888Z</time></trkpt><trkpt lat="43.83932" lon="12.70093"><ele>81.0</ele><time>2026-04-18T13:55:10.888Z</time></trkpt><trkpt lat="43.8393133" lon="12.7007483"><ele>81.0</ele><time>2026-04-18T13:55:11.889Z</time></trkpt><trkpt lat="43.839305" lon="12.700565"><ele>81.0</ele><time>2026-04-18T13:55:12.89Z</time></trkpt><trkpt lat="43.8392883" lon="12.7003833"><ele>81.0</ele><time>2026-04-18T13:55:13.888Z</time></trkpt><trkpt lat="43.8392633" lon="12.7002017"><ele>81.0</ele><time>2026-04-18T13:55:14.888Z</time></trkpt><trkpt lat="43.8392283" lon="12.7000233"><ele>80.75</ele><time>2026-04-18T13:55:15.889Z</time></trkpt><trkpt lat="43.8391833" lon="12.69985"><ele>80.5</ele><time>2026-04-18T13:55:16.888Z</time></trkpt><trkpt lat="43.83913" lon="12.6996817"><ele>80.25</ele><time>2026-04-18T13:55:17.889Z</time></trkpt><trkpt lat="43.8390683" lon="12.6995083"><ele>80.0</ele><time>2026-04-18T13:55:18.888Z</time></trkpt><trkpt lat="43.8390033" lon="12.6993333"><ele>80.66666666666667</ele><time>2026-04-18T13:55:19.889Z</time></trkpt><trkpt lat="43.8389317" lon="12.6991533"><ele>81.33333333333333</ele><time>2026-04-18T13:55:20.889Z</time></trkpt><trkpt lat="43.838855" lon="12.6989667"><ele>82.0</ele><time>2026-04-18T13:55:21.888Z</time></trkpt><trkpt lat="43.838775" lon="12.6987717"><ele>82.66666666666666</ele><time>2026-04-18T13:55:22.889Z</time></trkpt><trkpt lat="43.8386983" lon="12.6985733"><ele>83.33333333333333</ele><time>2026-04-18T13:55:23.89Z</time></trkpt><trkpt lat="43.8386183" lon="12.698385"><ele>84.0</ele><time>2026-04-18T13:55:24.888Z</time></trkpt><trkpt lat="43.8385467" lon="12.6982067"><ele>84.0</ele><time>2026-04-18T13:55:25.889Z</time></trkpt><trkpt lat="43.8384783" lon="12.698035"><ele>84.0</ele><time>2026-04-18T13:55:26.888Z</time></trkpt><trkpt lat="43.8384067" lon="12.6978567"><ele>84.0</ele><time>2026-04-18T13:55:27.888Z</time></trkpt><trkpt lat="43.8383333" lon="12.6976767"><ele>84.0</ele><time>2026-04-18T13:55:28.889Z</time></trkpt><trkpt lat="43.8382617" lon="12.6974967"><ele>83.75</ele><time>2026-04-18T13:55:29.888Z</time></trkpt><trkpt lat="43.8381883" lon="12.6973167"><ele>83.5</ele><time>2026-04-18T13:55:30.889Z</time></trkpt><trkpt lat="43.838115" lon="12.697145"><ele>83.25</ele><time>2026-04-18T13:55:31.886Z</time></trkpt><trkpt lat="43.8380467" lon="12.6969767"><ele>83.0</ele><time>2026-04-18T13:55:32.887Z</time></trkpt><trkpt lat="43.8379817" lon="12.6968083"><ele>83.0</ele><time>2026-04-18T13:55:33.889Z</time></trkpt><trkpt lat="43.8379117" lon="12.6966317"><ele>83.0</ele><time>2026-04-18T13:55:34.889Z</time></trkpt><trkpt lat="43.837845" lon="12.6964567"><ele>83.0</ele><time>2026-04-18T13:55:35.89Z</time></trkpt><trkpt lat="43.8377783" lon="12.6962883"><ele>83.0</ele><time>2026-04-18T13:55:36.889Z</time></trkpt><trkpt lat="43.8377167" lon="12.6961383"><ele>83.0</ele><time>2026-04-18T13:55:37.889Z</time></trkpt><trkpt lat="43.83766" lon="12.6959967"><ele>83.0</ele><time>2026-04-18T13:55:38.89Z</time></trkpt><trkpt lat="43.8376033" lon="12.6958583"><ele>83.0</ele><time>2026-04-18T13:55:39.888Z</time></trkpt><trkpt lat="43.837545" lon="12.6957183"><ele>83.0</ele><time>2026-04-18T13:55:40.889Z</time></trkpt><trkpt lat="43.8374883" lon="12.6955833"><ele>82.4</ele><time>2026-04-18T13:55:41.888Z</time></trkpt><trkpt lat="43.8374367" lon="12.6954533"><ele>81.80000000000001</ele><time>2026-04-18T13:55:42.889Z</time></trkpt><trkpt lat="43.8373867" lon="12.695325"><ele>81.2</ele><time>2026-04-18T13:55:43.889Z</time></trkpt><trkpt lat="43.8373367" lon="12.6951967"><ele>80.6</ele><time>2026-04-18T13:55:44.889Z</time></trkpt><trkpt lat="43.837285" lon="12.695065"><ele>80.0</ele><time>2026-04-18T13:55:45.888Z</time></trkpt><trkpt lat="43.8372317" lon="12.6949283"><ele>80.0</ele><time>2026-04-18T13:55:46.889Z</time></trkpt><trkpt lat="43.8371767" lon="12.694785"><ele>80.0</ele><time>2026-04-18T13:55:47.889Z</time></trkpt><trkpt lat="43.83712" lon="12.6946467"><ele>80.0</ele><time>2026-04-18T13:55:48.888Z</time></trkpt><trkpt lat="43.837065" lon="12.69451"><ele>80.0</ele><time>2026-04-18T13:55:49.889Z</time></trkpt><trkpt lat="43.8370083" lon="12.6943733"><ele>79.75</ele><time>2026-04-18T13:55:50.888Z</time></trkpt><trkpt lat="43.8369517" lon="12.694235"><ele>79.5</ele><time>2026-04-18T13:55:51.888Z</time></trkpt><trkpt lat="43.8368933" lon="12.6940933"><ele>79.25</ele><time>2026-04-18T13:55:52.889Z</time></trkpt><trkpt lat="43.8368317" lon="12.6939533"><ele>79.0</ele><time>2026-04-18T13:55:53.889Z</time></trkpt><trkpt lat="43.83677" lon="12.69381"><ele>79.0</ele><time>2026-04-18T13:55:54.888Z</time></trkpt><trkpt lat="43.8367083" lon="12.69367"><ele>79.0</ele><time>2026-04-18T13:55:55.889Z</time></trkpt><trkpt lat="43.8366517" lon="12.6935317"><ele>79.0</ele><time>2026-04-18T13:55:56.89Z</time></trkpt><trkpt lat="43.836595" lon="12.6933933"><ele>79.0</ele><time>2026-04-18T13:55:57.889Z</time></trkpt><trkpt lat="43.836535" lon="12.6932533"><ele>80.0</ele><time>2026-04-18T13:55:58.888Z</time></trkpt><trkpt lat="43.836475" lon="12.6931117"><ele>81.0</ele><time>2026-04-18T13:55:59.889Z</time></trkpt><trkpt lat="43.836415" lon="12.6929683"><ele>82.0</ele><time>2026-04-18T13:56:00.888Z</time></trkpt><trkpt lat="43.8363567" lon="12.6928217"><ele>83.0</ele><time>2026-04-18T13:56:01.889Z</time></trkpt><trkpt lat="43.8363" lon="12.692675"><ele>83.75</ele><time>2026-04-18T13:56:02.89Z</time></trkpt><trkpt lat="43.8362433" lon="12.6925317"><ele>84.5</ele><time>2026-04-18T13:56:03.888Z</time></trkpt><trkpt lat="43.8361833" lon="12.6923883"><ele>85.25</ele><time>2026-04-18T13:56:04.889Z</time></trkpt><trkpt lat="43.8361283" lon="12.69224"><ele>86.0</ele><time>2026-04-18T13:56:05.89Z</time></trkpt><trkpt lat="43.8360767" lon="12.6920933"><ele>86.0</ele><time>2026-04-18T13:56:06.888Z</time></trkpt><trkpt lat="43.83603" lon="12.69194"><ele>86.0</ele><time>2026-04-18T13:56:07.889Z</time></trkpt><trkpt lat="43.8359817" lon="12.69178"><ele>86.0</ele><time>2026-04-18T13:56:08.888Z</time></trkpt><trkpt lat="43.83594" lon="12.691615"><ele>86.0</ele><time>2026-04-18T13:56:09.888Z</time></trkpt><trkpt lat="43.835895" lon="12.6914433"><ele>86.0</ele><time>2026-04-18T13:56:10.889Z</time></trkpt><trkpt lat="43.8358483" lon="12.69127"><ele>86.0</ele><time>2026-04-18T13:56:11.89Z</time></trkpt><trkpt lat="43.8358117" lon="12.6911033"><ele>86.0</ele><time>2026-04-18T13:56:12.889Z</time></trkpt><trkpt lat="43.8357767" lon="12.690945"><ele>86.0</ele><time>2026-04-18T13:56:13.89Z</time></trkpt><trkpt lat="43.8357433" lon="12.6907917"><ele>85.75</ele><time>2026-04-18T13:56:14.888Z</time></trkpt><trkpt lat="43.8357083" lon="12.6906417"><ele>85.5</ele><time>2026-04-18T13:56:15.89Z</time></trkpt><trkpt lat="43.835675" lon="12.6904867"><ele>85.25</ele><time>2026-04-18T13:56:16.889Z</time></trkpt><trkpt lat="43.8356417" lon="12.6903333"><ele>85.0</ele><time>2026-04-18T13:56:17.89Z</time></trkpt><trkpt lat="43.8356067" lon="12.6901833"><ele>85.5</ele><time>2026-04-18T13:56:18.89Z</time></trkpt><trkpt lat="43.8355683" lon="12.69003"><ele>86.0</ele><time>2026-04-18T13:56:19.889Z</time></trkpt><trkpt lat="43.8355333" lon="12.6898767"><ele>86.5</ele><time>2026-04-18T13:56:20.89Z</time></trkpt><trkpt lat="43.835495" lon="12.68972"><ele>87.0</ele><time>2026-04-18T13:56:21.888Z</time></trkpt><trkpt lat="43.8354583" lon="12.6895667"><ele>87.19999999999999</ele><time>2026-04-18T13:56:22.889Z</time></trkpt><trkpt lat="43.835425" lon="12.6894183"><ele>87.4</ele><time>2026-04-18T13:56:23.889Z</time></trkpt><trkpt lat="43.8353883" lon="12.6892733"><ele>87.6</ele><time>2026-04-18T13:56:24.889Z</time></trkpt><trkpt lat="43.8353517" lon="12.6891317"><ele>87.80000000000001</ele><time>2026-04-18T13:56:25.889Z</time></trkpt><trkpt lat="43.8353167" lon="12.6889883"><ele>88.0</ele><time>2026-04-18T13:56:26.891Z</time></trkpt><trkpt lat="43.83528" lon="12.6888433"><ele>88.0</ele><time>2026-04-18T13:56:27.889Z</time></trkpt><trkpt lat="43.835245" lon="12.6887"><ele>88.0</ele><time>2026-04-18T13:56:28.889Z</time></trkpt><trkpt lat="43.8352117" lon="12.6885517"><ele>88.0</ele><time>2026-04-18T13:56:29.888Z</time></trkpt><trkpt lat="43.8351783" lon="12.6884017"><ele>88.0</ele><time>2026-04-18T13:56:30.889Z</time></trkpt><trkpt lat="43.8351467" lon="12.6882533"><ele>88.0</ele><time>2026-04-18T13:56:31.889Z</time></trkpt><trkpt lat="43.8351133" lon="12.68811"><ele>88.0</ele><time>2026-04-18T13:56:32.885Z</time></trkpt><trkpt lat="43.83508" lon="12.6879733"><ele>88.0</ele><time>2026-04-18T13:56:33.889Z</time></trkpt><trkpt lat="43.8350433" lon="12.6878383"><ele>88.0</ele><time>2026-04-18T13:56:34.889Z</time></trkpt><trkpt lat="43.8350017" lon="12.6877017"><ele>88.0</ele><time>2026-04-18T13:56:35.887Z</time></trkpt><trkpt lat="43.8349583" lon="12.6875617"><ele>88.0</ele><time>2026-04-18T13:56:36.89Z</time></trkpt><trkpt lat="43.83491" lon="12.6874283"><ele>88.0</ele><time>2026-04-18T13:56:37.889Z</time></trkpt><trkpt lat="43.8348517" lon="12.6872983"><ele>88.0</ele><time>2026-04-18T13:56:38.889Z</time></trkpt><trkpt lat="43.8347867" lon="12.6871767"><ele>88.0</ele><time>2026-04-18T13:56:39.887Z</time></trkpt><trkpt lat="43.834715" lon="12.68707"><ele>88.0</ele><time>2026-04-18T13:56:40.887Z</time></trkpt><trkpt lat="43.8346317" lon="12.6869717"><ele>88.0</ele><time>2026-04-18T13:56:41.886Z</time></trkpt><trkpt lat="43.8345433" lon="12.6868783"><ele>88.25</ele><time>2026-04-18T13:56:42.889Z</time></trkpt><trkpt lat="43.8344467" lon="12.6867867"><ele>88.5</ele><time>2026-04-18T13:56:43.892Z</time></trkpt><trkpt lat="43.8343483" lon="12.6867033"><ele>88.75</ele><time>2026-04-18T13:56:44.886Z</time></trkpt><trkpt lat="43.8342517" lon="12.6866217"><ele>89.0</ele><time>2026-04-18T13:56:45.889Z</time></trkpt><trkpt lat="43.8341567" lon="12.6865383"><ele>87.75</ele><time>2026-04-18T13:56:46.889Z</time></trkpt><trkpt lat="43.8340617" lon="12.6864533"><ele>86.5</ele><time>2026-04-18T13:56:47.89Z</time></trkpt><trkpt lat="43.8339683" lon="12.6863633"><ele>85.25</ele><time>2026-04-18T13:56:48.89Z</time></trkpt><trkpt lat="43.8338717" lon="12.6862767"><ele>84.0</ele><time>2026-04-18T13:56:49.889Z</time></trkpt><trkpt lat="43.8337733" lon="12.6861917"><ele>84.0</ele><time>2026-04-18T13:56:50.886Z</time></trkpt><trkpt lat="43.83368" lon="12.6861067"><ele>84.0</ele><time>2026-04-18T13:56:51.89Z</time></trkpt><trkpt lat="43.8335883" lon="12.6860217"><ele>84.0</ele><time>2026-04-18T13:56:52.89Z</time></trkpt><trkpt lat="43.833495" lon="12.685935"><ele>84.0</ele><time>2026-04-18T13:56:53.889Z</time></trkpt><trkpt lat="43.8334017" lon="12.6858483"><ele>84.0</ele><time>2026-04-18T13:56:54.887Z</time></trkpt><trkpt lat="43.83331" lon="12.6857617"><ele>84.0</ele><time>2026-04-18T13:56:55.889Z</time></trkpt><trkpt lat="43.8332167" lon="12.6856767"><ele>84.0</ele><time>2026-04-18T13:56:56.889Z</time></trkpt><trkpt lat="43.83312" lon="12.68559"><ele>84.0</ele><time>2026-04-18T13:56:57.888Z</time></trkpt><trkpt lat="43.8330217" lon="12.6855"><ele>84.0</ele><time>2026-04-18T13:56:58.891Z</time></trkpt><trkpt lat="43.83292" lon="12.6854117"><ele>84.0</ele><time>2026-04-18T13:56:59.89Z</time></trkpt><trkpt lat="43.8328217" lon="12.6853217"><ele>84.0</ele><time>2026-04-18T13:57:00.888Z</time></trkpt><trkpt lat="43.8327267" lon="12.6852317"><ele>84.0</ele><time>2026-04-18T13:57:01.889Z</time></trkpt><trkpt lat="43.8326367" lon="12.6851467"><ele>84.0</ele><time>2026-04-18T13:57:02.889Z</time></trkpt><trkpt lat="43.8325517" lon="12.6850617"><ele>84.0</ele><time>2026-04-18T13:57:03.889Z</time></trkpt><trkpt lat="43.832465" lon="12.6849783"><ele>83.2</ele><time>2026-04-18T13:57:04.89Z</time></trkpt><trkpt lat="43.8323767" lon="12.684895"><ele>82.4</ele><time>2026-04-18T13:57:05.889Z</time></trkpt><trkpt lat="43.832285" lon="12.6848133"><ele>81.6</ele><time>2026-04-18T13:57:06.89Z</time></trkpt><trkpt lat="43.832195" lon="12.6847317"><ele>80.8</ele><time>2026-04-18T13:57:07.89Z</time></trkpt><trkpt lat="43.832105" lon="12.684645"><ele>80.0</ele><time>2026-04-18T13:57:08.889Z</time></trkpt><trkpt lat="43.832015" lon="12.684555"><ele>80.0</ele><time>2026-04-18T13:57:09.886Z</time></trkpt><trkpt lat="43.8319233" lon="12.684475"><ele>80.0</ele><time>2026-04-18T13:57:10.886Z</time></trkpt><trkpt lat="43.831835" lon="12.6844"><ele>80.0</ele><time>2026-04-18T13:57:11.891Z</time></trkpt><trkpt lat="43.8317517" lon="12.6843267"><ele>80.0</ele><time>2026-04-18T13:57:12.889Z</time></trkpt><trkpt lat="43.8316717" lon="12.6842567"><ele>80.0</ele><time>2026-04-18T13:57:13.885Z</time></trkpt><trkpt lat="43.8315967" lon="12.6841917"><ele>80.33333333333334</ele><time>2026-04-18T13:57:14.888Z</time></trkpt><trkpt lat="43.831525" lon="12.6841317"><ele>80.66666666666667</ele><time>2026-04-18T13:57:15.886Z</time></trkpt><trkpt lat="43.8314567" lon="12.6840733"><ele>81.0</ele><time>2026-04-18T13:57:16.885Z</time></trkpt><trkpt lat="43.8313917" lon="12.6840167"><ele>81.33333333333333</ele><time>2026-04-18T13:57:17.886Z</time></trkpt><trkpt lat="43.8313317" lon="12.6839617"><ele>81.66666666666666</ele><time>2026-04-18T13:57:18.888Z</time></trkpt><trkpt lat="43.8312667" lon="12.683905"><ele>82.0</ele><time>2026-04-18T13:57:19.889Z</time></trkpt><trkpt lat="43.8311933" lon="12.6838433"><ele>82.0</ele><time>2026-04-18T13:57:20.889Z</time></trkpt><trkpt lat="43.8311117" lon="12.683775"><ele>82.0</ele><time>2026-04-18T13:57:21.889Z</time></trkpt><trkpt lat="43.8310217" lon="12.6836983"><ele>82.0</ele><time>2026-04-18T13:57:22.885Z</time></trkpt><trkpt lat="43.8309233" lon="12.68362"><ele>82.0</ele><time>2026-04-18T13:57:23.889Z</time></trkpt><trkpt lat="43.8308167" lon="12.6835317"><ele>82.0</ele><time>2026-04-18T13:57:24.887Z</time></trkpt><trkpt lat="43.83071" lon="12.683435"><ele>82.0</ele><time>2026-04-18T13:57:25.889Z</time></trkpt><trkpt lat="43.8306117" lon="12.6833417"><ele>82.0</ele><time>2026-04-18T13:57:26.888Z</time></trkpt><trkpt lat="43.8305267" lon="12.6832667"><ele>82.0</ele><time>2026-04-18T13:57:27.889Z</time></trkpt><trkpt lat="43.8304533" lon="12.68321"><ele>82.0</ele><time>2026-04-18T13:57:28.886Z</time></trkpt><trkpt lat="43.8303933" lon="12.6831517"><ele>82.0</ele><time>2026-04-18T13:57:29.888Z</time></trkpt><trkpt lat="43.8303383" lon="12.6830983"><ele>82.0</ele><time>2026-04-18T13:57:30.888Z</time></trkpt><trkpt lat="43.83028" lon="12.68305"><ele>82.0</ele><time>2026-04-18T13:57:31.888Z</time></trkpt><trkpt lat="43.8302233" lon="12.683"><ele>82.0</ele><time>2026-04-18T13:57:32.889Z</time></trkpt><trkpt lat="43.8301717" lon="12.68295"><ele>82.0</ele><time>2026-04-18T13:57:33.889Z</time></trkpt><trkpt lat="43.8300633" lon="12.682855"><ele>82.0</ele><time>2026-04-18T13:57:35.884Z</time></trkpt><trkpt lat="43.8300033" lon="12.6828"><ele>82.0</ele><time>2026-04-18T13:57:36.886Z</time></trkpt><trkpt lat="43.8299383" lon="12.6827417"><ele>82.0</ele><time>2026-04-18T13:57:37.888Z</time></trkpt><trkpt lat="43.82987" lon="12.68268"><ele>82.0</ele><time>2026-04-18T13:57:38.886Z</time></trkpt><trkpt lat="43.829795" lon="12.682615"><ele>82.0</ele><time>2026-04-18T13:57:39.888Z</time></trkpt><trkpt lat="43.82972" lon="12.6825467"><ele>82.0</ele><time>2026-04-18T13:57:40.889Z</time></trkpt><trkpt lat="43.8296467" lon="12.6824817"><ele>82.0</ele><time>2026-04-18T13:57:41.889Z</time></trkpt><trkpt lat="43.8295733" lon="12.6824183"><ele>82.0</ele><time>2026-04-18T13:57:42.885Z</time></trkpt><trkpt lat="43.8295017" lon="12.6823533"><ele>82.0</ele><time>2026-04-18T13:57:43.885Z</time></trkpt><trkpt lat="43.8294283" lon="12.6822883"><ele>82.0</ele><time>2026-04-18T13:57:44.886Z</time></trkpt><trkpt lat="43.8293617" lon="12.6822233"><ele>82.0</ele><time>2026-04-18T13:57:45.886Z</time></trkpt><trkpt lat="43.8292967" lon="12.6821667"><ele>82.0</ele><time>2026-04-18T13:57:46.886Z</time></trkpt><trkpt lat="43.8292333" lon="12.6821083"><ele>82.0</ele><time>2026-04-18T13:57:47.885Z</time></trkpt><trkpt lat="43.829165" lon="12.6820467"><ele>82.0</ele><time>2026-04-18T13:57:48.888Z</time></trkpt><trkpt lat="43.82909" lon="12.6819733"><ele>82.0</ele><time>2026-04-18T13:57:49.885Z</time></trkpt><trkpt lat="43.8290117" lon="12.6818967"><ele>82.33333333333333</ele><time>2026-04-18T13:57:50.886Z</time></trkpt><trkpt lat="43.82893" lon="12.6818217"><ele>82.66666666666666</ele><time>2026-04-18T13:57:51.886Z</time></trkpt><trkpt lat="43.82885" lon="12.68175"><ele>83.0</ele><time>2026-04-18T13:57:52.887Z</time></trkpt><trkpt lat="43.828775" lon="12.6816783"><ele>83.33333333333333</ele><time>2026-04-18T13:57:53.885Z</time></trkpt><trkpt lat="43.8287117" lon="12.68162"><ele>83.66666666666667</ele><time>2026-04-18T13:57:54.885Z</time></trkpt><trkpt lat="43.828655" lon="12.6815633"><ele>84.0</ele><time>2026-04-18T13:57:55.885Z</time></trkpt><trkpt lat="43.8285833" lon="12.6814383"><ele>84.0</ele><time>2026-04-18T13:57:57.889Z</time></trkpt><trkpt lat="43.8286117" lon="12.6812983"><ele>84.0</ele><time>2026-04-18T13:57:59.889Z</time></trkpt><trkpt lat="43.8286617" lon="12.6812367"><ele>84.0</ele><time>2026-04-18T13:58:00.889Z</time></trkpt><trkpt lat="43.8287317" lon="12.68116"><ele>84.0</ele><time>2026-04-18T13:58:01.889Z</time></trkpt><trkpt lat="43.8288033" lon="12.68106"><ele>84.0</ele><time>2026-04-18T13:58:02.888Z</time></trkpt><trkpt lat="43.828845" lon="12.6809233"><ele>84.33333333333333</ele><time>2026-04-18T13:58:03.888Z</time></trkpt><trkpt lat="43.8288617" lon="12.6807933"><ele>84.66666666666667</ele><time>2026-04-18T13:58:04.888Z</time></trkpt><trkpt lat="43.8288367" lon="12.6806667"><ele>85.0</ele><time>2026-04-18T13:58:05.889Z</time></trkpt><trkpt lat="43.828815" lon="12.6805617"><ele>85.33333333333334</ele><time>2026-04-18T13:58:06.888Z</time></trkpt><trkpt lat="43.8288033" lon="12.6804567"><ele>85.66666666666667</ele><time>2026-04-18T13:58:07.886Z</time></trkpt><trkpt lat="43.8288017" lon="12.6803567"><ele>86.0</ele><time>2026-04-18T13:58:08.885Z</time></trkpt><trkpt lat="43.8288217" lon="12.68026"><ele>86.0</ele><time>2026-04-18T13:58:09.886Z</time></trkpt><trkpt lat="43.8288717" lon="12.680165"><ele>86.0</ele><time>2026-04-18T13:58:10.887Z</time></trkpt><trkpt lat="43.829005" lon="12.680125"><ele>86.0</ele><time>2026-04-18T13:58:11.889Z</time></trkpt><trkpt lat="43.829185" lon="12.6800867"><ele>86.0</ele><time>2026-04-18T13:58:12.887Z</time></trkpt><trkpt lat="43.8293217" lon="12.6800283"><ele>85.75</ele><time>2026-04-18T13:58:13.888Z</time></trkpt><trkpt lat="43.82945" lon="12.679965"><ele>85.5</ele><time>2026-04-18T13:58:14.889Z</time></trkpt><trkpt lat="43.8295517" lon="12.67988"><ele>85.25</ele><time>2026-04-18T13:58:15.888Z</time></trkpt><trkpt lat="43.8296267" lon="12.6797683"><ele>85.0</ele><time>2026-04-18T13:58:16.886Z</time></trkpt><trkpt lat="43.829665" lon="12.679615"><ele>85.0</ele><time>2026-04-18T13:58:17.886Z</time></trkpt><trkpt lat="43.8296817" lon="12.6794383"><ele>85.0</ele><time>2026-04-18T13:58:18.885Z</time></trkpt><trkpt lat="43.8296983" lon="12.67927"><ele>85.0</ele><time>2026-04-18T13:58:19.885Z</time></trkpt><trkpt lat="43.82973" lon="12.6791233"><ele>85.0</ele><time>2026-04-18T13:58:20.888Z</time></trkpt><trkpt lat="43.8297767" lon="12.6790017"><ele>85.6</ele><time>2026-04-18T13:58:21.886Z</time></trkpt><trkpt lat="43.82983" lon="12.6788933"><ele>86.2</ele><time>2026-04-18T13:58:22.892Z</time></trkpt><trkpt lat="43.829895" lon="12.6787817"><ele>86.80000000000001</ele><time>2026-04-18T13:58:23.888Z</time></trkpt><trkpt lat="43.82996" lon="12.678675"><ele>87.4</ele><time>2026-04-18T13:58:24.888Z</time></trkpt><trkpt lat="43.8300183" lon="12.6785833"><ele>88.0</ele><time>2026-04-18T13:58:25.889Z</time></trkpt><trkpt lat="43.8300683" lon="12.6785133"><ele>91.2</ele><time>2026-04-18T13:58:26.888Z</time></trkpt><trkpt lat="43.8301633" lon="12.6784567"><ele>94.4</ele><time>2026-04-18T13:58:28.889Z</time></trkpt><trkpt lat="43.8302883" lon="12.67847"><ele>97.60000000000001</ele><time>2026-04-18T13:58:30.889Z</time></trkpt><trkpt lat="43.830355" lon="12.6784933"><ele>100.80000000000001</ele><time>2026-04-18T13:58:31.888Z</time></trkpt><trkpt lat="43.8304167" lon="12.67852"><ele>104.0</ele><time>2026-04-18T13:58:32.886Z</time></trkpt><trkpt lat="43.83052" lon="12.67856"><ele>104.0</ele><time>2026-04-18T13:58:34.888Z</time></trkpt><trkpt lat="43.8306233" lon="12.67856"><ele>104.0</ele><time>2026-04-18T13:58:36.885Z</time></trkpt><trkpt lat="43.8307367" lon="12.6785267"><ele>104.0</ele><time>2026-04-18T13:58:38.888Z</time></trkpt><trkpt lat="43.8308083" lon="12.6785067"><ele>104.0</ele><time>2026-04-18T13:58:39.888Z</time></trkpt><trkpt lat="43.8308867" lon="12.6784817"><ele>104.0</ele><time>2026-04-18T13:58:40.886Z</time></trkpt><trkpt lat="43.83097" lon="12.67846"><ele>106.66666666666666</ele><time>2026-04-18T13:58:41.885Z</time></trkpt><trkpt lat="43.8310583" lon="12.678445"><ele>109.33333333333333</ele><time>2026-04-18T13:58:42.885Z</time></trkpt><trkpt lat="43.8311367" lon="12.6784217"><ele>112.0</ele><time>2026-04-18T13:58:43.885Z</time></trkpt><trkpt lat="43.83121" lon="12.6784133"><ele>114.66666666666666</ele><time>2026-04-18T13:58:44.888Z</time></trkpt><trkpt lat="43.83129" lon="12.678415"><ele>117.33333333333333</ele><time>2026-04-18T13:58:45.889Z</time></trkpt><trkpt lat="43.8313733" lon="12.6784233"><ele>120.0</ele><time>2026-04-18T13:58:46.886Z</time></trkpt><trkpt lat="43.83145" lon="12.6784383"><ele>120.0</ele><time>2026-04-18T13:58:47.886Z</time></trkpt><trkpt lat="43.83152" lon="12.6784567"><ele>120.0</ele><time>2026-04-18T13:58:48.886Z</time></trkpt><trkpt lat="43.83159" lon="12.6784717"><ele>120.0</ele><time>2026-04-18T13:58:49.886Z</time></trkpt><trkpt lat="43.8316667" lon="12.6784933"><ele>120.0</ele><time>2026-04-18T13:58:50.886Z</time></trkpt><trkpt lat="43.8317517" lon="12.6785317"><ele>120.0</ele><time>2026-04-18T13:58:51.887Z</time></trkpt><trkpt lat="43.8318417" lon="12.6785833"><ele>120.0</ele><time>2026-04-18T13:58:52.887Z</time></trkpt><trkpt lat="43.8319317" lon="12.67865"><ele>120.2</ele><time>2026-04-18T13:58:53.888Z</time></trkpt><trkpt lat="43.8320267" lon="12.67872"><ele>120.4</ele><time>2026-04-18T13:58:54.887Z</time></trkpt><trkpt lat="43.8321233" lon="12.678795"><ele>120.6</ele><time>2026-04-18T13:58:55.887Z</time></trkpt><trkpt lat="43.8322083" lon="12.678875"><ele>120.8</ele><time>2026-04-18T13:58:56.887Z</time></trkpt><trkpt lat="43.832285" lon="12.6789433"><ele>121.0</ele><time>2026-04-18T13:58:57.892Z</time></trkpt><trkpt lat="43.8323583" lon="12.6790083"><ele>121.00000000000001</ele><time>2026-04-18T13:58:58.887Z</time></trkpt><trkpt lat="43.8324233" lon="12.6790567"><ele>121.0</ele><time>2026-04-18T13:58:59.886Z</time></trkpt><trkpt lat="43.83249" lon="12.6790833"><ele>121.0</ele><time>2026-04-18T13:59:00.887Z</time></trkpt><trkpt lat="43.8325617" lon="12.6790983"><ele>121.0</ele><time>2026-04-18T13:59:01.886Z</time></trkpt><trkpt lat="43.832635" lon="12.6791067"><ele>121.00000000000001</ele><time>2026-04-18T13:59:02.886Z</time></trkpt><trkpt lat="43.83272" lon="12.6790983"><ele>121.0</ele><time>2026-04-18T13:59:03.886Z</time></trkpt><trkpt lat="43.83281" lon="12.6790867"><ele>121.8</ele><time>2026-04-18T13:59:04.887Z</time></trkpt><trkpt lat="43.8328983" lon="12.6790583"><ele>122.6</ele><time>2026-04-18T13:59:05.886Z</time></trkpt><trkpt lat="43.8329767" lon="12.6790167"><ele>123.4</ele><time>2026-04-18T13:59:06.887Z</time></trkpt><trkpt lat="43.8330417" lon="12.6789617"><ele>124.2</ele><time>2026-04-18T13:59:07.887Z</time></trkpt><trkpt lat="43.8331067" lon="12.6788283"><ele>125.0</ele><time>2026-04-18T13:59:09.886Z</time></trkpt><trkpt lat="43.8331033" lon="12.67869"><ele>124.99999999999999</ele><time>2026-04-18T13:59:11.888Z</time></trkpt><trkpt lat="43.8330467" lon="12.6786033"><ele>125.0</ele><time>2026-04-18T13:59:12.885Z</time></trkpt><trkpt lat="43.8329917" lon="12.67855"><ele>125.0</ele><time>2026-04-18T13:59:13.89Z</time></trkpt><trkpt lat="43.8329167" lon="12.6785133"><ele>125.0</ele><time>2026-04-18T13:59:14.887Z</time></trkpt><trkpt lat="43.832825" lon="12.6784967"><ele>124.99999999999999</ele><time>2026-04-18T13:59:15.886Z</time></trkpt><trkpt lat="43.83274" lon="12.6784633"><ele>125.0</ele><time>2026-04-18T13:59:16.887Z</time></trkpt><trkpt lat="43.832665" lon="12.6784267"><ele>128.5</ele><time>2026-04-18T13:59:17.886Z</time></trkpt><trkpt lat="43.8325933" lon="12.6783767"><ele>132.0</ele><time>2026-04-18T13:59:18.888Z</time></trkpt><trkpt lat="43.8325267" lon="12.6783117"><ele>135.5</ele><time>2026-04-18T13:59:19.887Z</time></trkpt><trkpt lat="43.8324683" lon="12.678245"><ele>139.0</ele><time>2026-04-18T13:59:20.887Z</time></trkpt><trkpt lat="43.8324283" lon="12.6781567"><ele>142.5</ele><time>2026-04-18T13:59:21.887Z</time></trkpt><trkpt lat="43.8324033" lon="12.678075"><ele>146.0</ele><time>2026-04-18T13:59:22.887Z</time></trkpt><trkpt lat="43.8324133" lon="12.6779433"><ele>146.0</ele><time>2026-04-18T13:59:24.888Z</time></trkpt><trkpt lat="43.8324667" lon="12.67789"><ele>146.0</ele><time>2026-04-18T13:59:26.888Z</time></trkpt><trkpt lat="43.83258" lon="12.67785"><ele>146.0</ele><time>2026-04-18T13:59:33.889Z</time></trkpt><trkpt lat="43.8326083" lon="12.6777617"><ele>146.0</ele><time>2026-04-18T13:59:35.888Z</time></trkpt><trkpt lat="43.8326483" lon="12.6776083"><ele>146.0</ele><time>2026-04-18T13:59:37.889Z</time></trkpt><trkpt lat="43.83267" lon="12.6774983"><ele>149.83333333333331</ele><time>2026-04-18T13:59:38.889Z</time></trkpt><trkpt lat="43.83269" lon="12.6773817"><ele>153.66666666666666</ele><time>2026-04-18T13:59:39.885Z</time></trkpt><trkpt lat="43.8327117" lon="12.67728"><ele>157.5</ele><time>2026-04-18T13:59:40.888Z</time></trkpt><trkpt lat="43.8327267" lon="12.677195"><ele>161.33333333333334</ele><time>2026-04-18T13:59:41.885Z</time></trkpt><trkpt lat="43.83274" lon="12.6771083"><ele>165.16666666666669</ele><time>2026-04-18T13:59:42.888Z</time></trkpt><trkpt lat="43.8327717" lon="12.6769433"><ele>169.0</ele><time>2026-04-18T13:59:44.887Z</time></trkpt><trkpt lat="43.8328117" lon="12.6768"><ele>170.39999999999998</ele><time>2026-04-18T13:59:46.887Z</time></trkpt><trkpt lat="43.8328633" lon="12.6766533"><ele>171.8</ele><time>2026-04-18T13:59:48.886Z</time></trkpt><trkpt lat="43.8329017" lon="12.67652"><ele>173.2</ele><time>2026-04-18T13:59:50.887Z</time></trkpt><trkpt lat="43.83293" lon="12.6763717"><ele>174.60000000000002</ele><time>2026-04-18T13:59:52.887Z</time></trkpt><trkpt lat="43.83294" lon="12.6762767"><ele>176.0</ele><time>2026-04-18T13:59:53.886Z</time></trkpt><trkpt lat="43.8329483" lon="12.6761617"><ele>177.28571428571428</ele><time>2026-04-18T13:59:54.888Z</time></trkpt><trkpt lat="43.8329633" lon="12.6760533"><ele>178.57142857142856</ele><time>2026-04-18T13:59:55.889Z</time></trkpt><trkpt lat="43.8329817" lon="12.67595"><ele>179.85714285714283</ele><time>2026-04-18T13:59:56.886Z</time></trkpt><trkpt lat="43.8330083" lon="12.6758583"><ele>181.14285714285714</ele><time>2026-04-18T13:59:57.887Z</time></trkpt><trkpt lat="43.8330367" lon="12.6757717"><ele>182.42857142857142</ele><time>2026-04-18T13:59:58.886Z</time></trkpt><trkpt lat="43.8330733" lon="12.675695"><ele>183.7142857142857</ele><time>2026-04-18T13:59:59.886Z</time></trkpt><trkpt lat="43.8331183" lon="12.6756167"><ele>185.0</ele><time>2026-04-18T14:00:00.886Z</time></trkpt><trkpt lat="43.8331633" lon="12.6755433"><ele>185.0</ele><time>2026-04-18T14:00:01.888Z</time></trkpt><trkpt lat="43.833255" lon="12.6754317"><ele>185.0</ele><time>2026-04-18T14:00:03.886Z</time></trkpt><trkpt lat="43.833325" lon="12.6753333"><ele>185.0</ele><time>2026-04-18T14:00:05.888Z</time></trkpt><trkpt lat="43.8333617" lon="12.6752517"><ele>185.0</ele><time>2026-04-18T14:00:07.888Z</time></trkpt><trkpt lat="43.8333967" lon="12.6751683"><ele>185.0</ele><time>2026-04-18T14:00:58.887Z</time></trkpt><trkpt lat="43.8334517" lon="12.6750017"><ele>184.6</ele><time>2026-04-18T14:01:00.888Z</time></trkpt><trkpt lat="43.8334833" lon="12.674885"><ele>184.2</ele><time>2026-04-18T14:01:01.889Z</time></trkpt><trkpt lat="43.83352" lon="12.6747483"><ele>183.8</ele><time>2026-04-18T14:01:02.887Z</time></trkpt><trkpt lat="43.8335617" lon="12.674595"><ele>183.4</ele><time>2026-04-18T14:01:03.887Z</time></trkpt><trkpt lat="43.833605" lon="12.6744367"><ele>183.0</ele><time>2026-04-18T14:01:04.888Z</time></trkpt><trkpt lat="43.8336383" lon="12.6742967"><ele>183.0</ele><time>2026-04-18T14:01:05.888Z</time></trkpt><trkpt lat="43.83365" lon="12.6741817"><ele>183.0</ele><time>2026-04-18T14:01:06.888Z</time></trkpt><trkpt lat="43.8336417" lon="12.6740717"><ele>183.0</ele><time>2026-04-18T14:01:07.889Z</time></trkpt><trkpt lat="43.8336117" lon="12.67397"><ele>183.0</ele><time>2026-04-18T14:01:08.889Z</time></trkpt><trkpt lat="43.833565" lon="12.673855"><ele>183.0</ele><time>2026-04-18T14:01:09.887Z</time></trkpt><trkpt lat="43.8335" lon="12.67372"><ele>189.75</ele><time>2026-04-18T14:01:10.889Z</time></trkpt><trkpt lat="43.8334283" lon="12.6735783"><ele>196.5</ele><time>2026-04-18T14:01:11.89Z</time></trkpt><trkpt lat="43.83335" lon="12.6734283"><ele>203.25</ele><time>2026-04-18T14:01:12.885Z</time></trkpt><trkpt lat="43.8332733" lon="12.67328"><ele>210.0</ele><time>2026-04-18T14:01:13.888Z</time></trkpt><trkpt lat="43.8331933" lon="12.6731383"><ele>210.0</ele><time>2026-04-18T14:01:14.886Z</time></trkpt><trkpt lat="43.8331167" lon="12.673025"><ele>210.0</ele><time>2026-04-18T14:01:15.89Z</time></trkpt><trkpt lat="43.8330417" lon="12.6729333"><ele>210.0</ele><time>2026-04-18T14:01:16.886Z</time></trkpt><trkpt lat="43.83297" lon="12.67284"><ele>210.0</ele><time>2026-04-18T14:01:17.888Z</time></trkpt><trkpt lat="43.8329033" lon="12.6727433"><ele>210.0</ele><time>2026-04-18T14:01:18.887Z</time></trkpt><trkpt lat="43.83284" lon="12.6726267"><ele>211.5</ele><time>2026-04-18T14:01:19.886Z</time></trkpt><trkpt lat="43.832775" lon="12.6724917"><ele>213.0</ele><time>2026-04-18T14:01:20.889Z</time></trkpt><trkpt lat="43.8327067" lon="12.672345"><ele>214.5</ele><time>2026-04-18T14:01:21.888Z</time></trkpt><trkpt lat="43.8326433" lon="12.6722083"><ele>216.0</ele><time>2026-04-18T14:01:22.888Z</time></trkpt><trkpt lat="43.8325917" lon="12.6720933"><ele>216.33333333333334</ele><time>2026-04-18T14:01:23.889Z</time></trkpt><trkpt lat="43.83256" lon="12.6719817"><ele>216.66666666666669</ele><time>2026-04-18T14:01:24.885Z</time></trkpt><trkpt lat="43.8325467" lon="12.6718683"><ele>217.0</ele><time>2026-04-18T14:01:25.888Z</time></trkpt><trkpt lat="43.832555" lon="12.6717633"><ele>217.33333333333334</ele><time>2026-04-18T14:01:26.889Z</time></trkpt><trkpt lat="43.8325883" lon="12.67164"><ele>217.66666666666669</ele><time>2026-04-18T14:01:27.889Z</time></trkpt><trkpt lat="43.83264" lon="12.6715183"><ele>218.0</ele><time>2026-04-18T14:01:28.889Z</time></trkpt><trkpt lat="43.8326917" lon="12.6713983"><ele>218.2</ele><time>2026-04-18T14:01:29.885Z</time></trkpt><trkpt lat="43.832735" lon="12.6712817"><ele>218.4</ele><time>2026-04-18T14:01:30.888Z</time></trkpt><trkpt lat="43.832775" lon="12.671165"><ele>218.59999999999997</ele><time>2026-04-18T14:01:31.887Z</time></trkpt><trkpt lat="43.83282" lon="12.671055"><ele>218.79999999999998</ele><time>2026-04-18T14:01:32.889Z</time></trkpt><trkpt lat="43.832865" lon="12.6709533"><ele>219.0</ele><time>2026-04-18T14:01:33.889Z</time></trkpt><trkpt lat="43.8329233" lon="12.6708533"><ele>221.2</ele><time>2026-04-18T14:01:34.888Z</time></trkpt><trkpt lat="43.8329967" lon="12.6707617"><ele>223.39999999999998</ele><time>2026-04-18T14:01:35.889Z</time></trkpt><trkpt lat="43.8330767" lon="12.670675"><ele>225.6</ele><time>2026-04-18T14:01:36.889Z</time></trkpt><trkpt lat="43.8331533" lon="12.6705867"><ele>227.8</ele><time>2026-04-18T14:01:37.887Z</time></trkpt><trkpt lat="43.8332283" lon="12.6704917"><ele>230.0</ele><time>2026-04-18T14:01:38.888Z</time></trkpt><trkpt lat="43.8333017" lon="12.6704017"><ele>230.00000000000003</ele><time>2026-04-18T14:01:39.887Z</time></trkpt><trkpt lat="43.8333733" lon="12.6703133"><ele>230.0</ele><time>2026-04-18T14:01:40.889Z</time></trkpt><trkpt lat="43.8334417" lon="12.6702283"><ele>230.0</ele><time>2026-04-18T14:01:41.888Z</time></trkpt><trkpt lat="43.833505" lon="12.67016"><ele>230.0</ele><time>2026-04-18T14:01:42.889Z</time></trkpt><trkpt lat="43.8335617" lon="12.6701"><ele>230.00000000000003</ele><time>2026-04-18T14:01:43.889Z</time></trkpt><trkpt lat="43.8336133" lon="12.6700483"><ele>230.0</ele><time>2026-04-18T14:01:44.89Z</time></trkpt><trkpt lat="43.8336833" lon="12.6699483"><ele>230.66666666666669</ele><time>2026-04-18T14:01:46.889Z</time></trkpt><trkpt lat="43.8337117" lon="12.6698567"><ele>231.33333333333334</ele><time>2026-04-18T14:01:49.888Z</time></trkpt><trkpt lat="43.8338317" lon="12.6698417"><ele>232.0</ele><time>2026-04-18T14:02:07.887Z</time></trkpt><trkpt lat="43.8339083" lon="12.6698617"><ele>232.66666666666669</ele><time>2026-04-18T14:02:08.886Z</time></trkpt><trkpt lat="43.8339917" lon="12.6698833"><ele>233.33333333333334</ele><time>2026-04-18T14:02:09.886Z</time></trkpt><trkpt lat="43.8340683" lon="12.6699083"><ele>234.0</ele><time>2026-04-18T14:02:10.888Z</time></trkpt><trkpt lat="43.83414" lon="12.6699317"><ele>234.0</ele><time>2026-04-18T14:02:11.889Z</time></trkpt><trkpt lat="43.8342033" lon="12.669955"><ele>234.0</ele><time>2026-04-18T14:02:12.89Z</time></trkpt><trkpt lat="43.8342983" lon="12.669995"><ele>234.0</ele><time>2026-04-18T14:02:14.888Z</time></trkpt><trkpt lat="43.8342217" lon="12.6699283"><ele>234.0</ele><time>2026-04-18T14:02:21.889Z</time></trkpt><trkpt lat="43.8341383" lon="12.6698967"><ele>234.0</ele><time>2026-04-18T14:02:22.889Z</time></trkpt><trkpt lat="43.8340383" lon="12.6698583"><ele>234.0</ele><time>2026-04-18T14:02:23.889Z</time></trkpt><trkpt lat="43.8339217" lon="12.6698217"><ele>234.0</ele><time>2026-04-18T14:02:24.888Z</time></trkpt><trkpt lat="43.8338" lon="12.6697917"><ele>234.0</ele><time>2026-04-18T14:02:25.89Z</time></trkpt><trkpt lat="43.833685" lon="12.669765"><ele>234.0</ele><time>2026-04-18T14:02:26.888Z</time></trkpt><trkpt lat="43.8335717" lon="12.6697417"><ele>234.0</ele><time>2026-04-18T14:02:27.886Z</time></trkpt><trkpt lat="43.8334567" lon="12.6697183"><ele>233.2</ele><time>2026-04-18T14:02:28.886Z</time></trkpt><trkpt lat="43.8333417" lon="12.6697083"><ele>232.39999999999998</ele><time>2026-04-18T14:02:29.885Z</time></trkpt><trkpt lat="43.83323" lon="12.6697167"><ele>231.6</ele><time>2026-04-18T14:02:30.886Z</time></trkpt><trkpt lat="43.8331217" lon="12.6697333"><ele>230.8</ele><time>2026-04-18T14:02:31.886Z</time></trkpt><trkpt lat="43.833015" lon="12.669755"><ele>230.0</ele><time>2026-04-18T14:02:32.886Z</time></trkpt><trkpt lat="43.83291" lon="12.6697767"><ele>230.0</ele><time>2026-04-18T14:02:33.885Z</time></trkpt><trkpt lat="43.832805" lon="12.66978"><ele>230.0</ele><time>2026-04-18T14:02:34.886Z</time></trkpt><trkpt lat="43.8326983" lon="12.6697533"><ele>230.0</ele><time>2026-04-18T14:02:35.886Z</time></trkpt><trkpt lat="43.8325917" lon="12.669685"><ele>230.0</ele><time>2026-04-18T14:02:36.886Z</time></trkpt><trkpt lat="43.8324983" lon="12.6695867"><ele>230.0</ele><time>2026-04-18T14:02:37.885Z</time></trkpt><trkpt lat="43.83242" lon="12.6694783"><ele>227.6</ele><time>2026-04-18T14:02:38.889Z</time></trkpt><trkpt lat="43.83235" lon="12.6693767"><ele>225.2</ele><time>2026-04-18T14:02:39.888Z</time></trkpt><trkpt lat="43.8322817" lon="12.6692917"><ele>222.8</ele><time>2026-04-18T14:02:40.889Z</time></trkpt><trkpt lat="43.8322167" lon="12.6692183"><ele>220.4</ele><time>2026-04-18T14:02:41.889Z</time></trkpt><trkpt lat="43.83216" lon="12.6691567"><ele>218.0</ele><time>2026-04-18T14:02:42.886Z</time></trkpt><trkpt lat="43.83207" lon="12.6690733"><ele>218.00000000000003</ele><time>2026-04-18T14:02:44.886Z</time></trkpt><trkpt lat="43.8320033" lon="12.66901"><ele>218.0</ele><time>2026-04-18T14:02:46.887Z</time></trkpt><trkpt lat="43.831965" lon="12.6689367"><ele>218.0</ele><time>2026-04-18T14:03:19.888Z</time></trkpt><trkpt lat="43.8319233" lon="12.6688233"><ele>218.0</ele><time>2026-04-18T14:03:21.885Z</time></trkpt><trkpt lat="43.83189" lon="12.6687183"><ele>218.00000000000003</ele><time>2026-04-18T14:03:22.887Z</time></trkpt><trkpt lat="43.8318683" lon="12.668585"><ele>218.0</ele><time>2026-04-18T14:03:23.885Z</time></trkpt><trkpt lat="43.8318633" lon="12.66845"><ele>214.25</ele><time>2026-04-18T14:03:24.886Z</time></trkpt><trkpt lat="43.8318917" lon="12.6681267"><ele>210.5</ele><time>2026-04-18T14:03:26.885Z</time></trkpt><trkpt lat="43.8319167" lon="12.667985"><ele>206.75</ele><time>2026-04-18T14:03:27.885Z</time></trkpt><trkpt lat="43.8319433" lon="12.6678567"><ele>203.0</ele><time>2026-04-18T14:03:28.889Z</time></trkpt><trkpt lat="43.8319567" lon="12.6677317"><ele>205.0</ele><time>2026-04-18T14:03:29.889Z</time></trkpt><trkpt lat="43.83193" lon="12.6674883"><ele>207.0</ele><time>2026-04-18T14:03:31.886Z</time></trkpt><trkpt lat="43.8318917" lon="12.6673783"><ele>209.0</ele><time>2026-04-18T14:03:32.885Z</time></trkpt><trkpt lat="43.8318367" lon="12.6672817"><ele>211.0</ele><time>2026-04-18T14:03:33.888Z</time></trkpt><trkpt lat="43.8316817" lon="12.667115"><ele>207.25</ele><time>2026-04-18T14:03:35.885Z</time></trkpt><trkpt lat="43.8315583" lon="12.66689"><ele>203.5</ele><time>2026-04-18T14:03:37.886Z</time></trkpt><trkpt lat="43.831515" lon="12.6667367"><ele>199.75</ele><time>2026-04-18T14:03:38.888Z</time></trkpt><trkpt lat="43.8314883" lon="12.6665817"><ele>196.0</ele><time>2026-04-18T14:03:39.888Z</time></trkpt><trkpt lat="43.8314467" lon="12.6664367"><ele>196.0</ele><time>2026-04-18T14:03:40.889Z</time></trkpt><trkpt lat="43.8313817" lon="12.666315"><ele>196.0</ele><time>2026-04-18T14:03:41.889Z</time></trkpt><trkpt lat="43.8312967" lon="12.6662267"><ele>196.0</ele><time>2026-04-18T14:03:42.888Z</time></trkpt><trkpt lat="43.8311933" lon="12.666185"><ele>196.0</ele><time>2026-04-18T14:03:43.888Z</time></trkpt><trkpt lat="43.8310883" lon="12.6661833"><ele>196.0</ele><time>2026-04-18T14:03:44.889Z</time></trkpt><trkpt lat="43.8309833" lon="12.6662067"><ele>194.4</ele><time>2026-04-18T14:03:45.885Z</time></trkpt><trkpt lat="43.8308817" lon="12.66623"><ele>192.8</ele><time>2026-04-18T14:03:46.887Z</time></trkpt><trkpt lat="43.830775" lon="12.6662317"><ele>191.20000000000002</ele><time>2026-04-18T14:03:47.887Z</time></trkpt><trkpt lat="43.8306733" lon="12.666205"><ele>189.60000000000002</ele><time>2026-04-18T14:03:48.885Z</time></trkpt><trkpt lat="43.830575" lon="12.6661267"><ele>188.0</ele><time>2026-04-18T14:03:49.886Z</time></trkpt><trkpt lat="43.8304667" lon="12.66601"><ele>188.0</ele><time>2026-04-18T14:03:50.889Z</time></trkpt><trkpt lat="43.8303717" lon="12.6658817"><ele>188.0</ele><time>2026-04-18T14:03:51.887Z</time></trkpt><trkpt lat="43.83029" lon="12.6657717"><ele>188.0</ele><time>2026-04-18T14:03:52.887Z</time></trkpt><trkpt lat="43.8302033" lon="12.6656883"><ele>188.0</ele><time>2026-04-18T14:03:53.886Z</time></trkpt><trkpt lat="43.83011" lon="12.66565"><ele>188.0</ele><time>2026-04-18T14:03:54.885Z</time></trkpt><trkpt lat="43.8300217" lon="12.6656717"><ele>189.0</ele><time>2026-04-18T14:03:55.887Z</time></trkpt><trkpt lat="43.8299133" lon="12.6657267"><ele>190.0</ele><time>2026-04-18T14:03:56.886Z</time></trkpt><trkpt lat="43.8297867" lon="12.6658367"><ele>191.0</ele><time>2026-04-18T14:03:57.887Z</time></trkpt><trkpt lat="43.8296517" lon="12.665955"><ele>192.0</ele><time>2026-04-18T14:03:58.888Z</time></trkpt><trkpt lat="43.82952" lon="12.6660783"><ele>194.0</ele><time>2026-04-18T14:03:59.887Z</time></trkpt><trkpt lat="43.8294" lon="12.6661917"><ele>196.0</ele><time>2026-04-18T14:04:00.887Z</time></trkpt><trkpt lat="43.829285" lon="12.666295"><ele>198.0</ele><time>2026-04-18T14:04:01.886Z</time></trkpt><trkpt lat="43.8291933" lon="12.6663717"><ele>200.0</ele><time>2026-04-18T14:04:02.886Z</time></trkpt><trkpt lat="43.8291117" lon="12.6664217"><ele>195.2</ele><time>2026-04-18T14:04:03.886Z</time></trkpt><trkpt lat="43.8290467" lon="12.6664367"><ele>190.4</ele><time>2026-04-18T14:04:04.887Z</time></trkpt><trkpt lat="43.8289767" lon="12.6663783"><ele>185.60000000000002</ele><time>2026-04-18T14:04:06.889Z</time></trkpt><trkpt lat="43.8290183" lon="12.6662633"><ele>180.8</ele><time>2026-04-18T14:04:07.885Z</time></trkpt><trkpt lat="43.8291283" lon="12.6661067"><ele>176.0</ele><time>2026-04-18T14:04:09.885Z</time></trkpt><trkpt lat="43.8292317" lon="12.6659767"><ele>181.33333333333331</ele><time>2026-04-18T14:04:10.888Z</time></trkpt><trkpt lat="43.829365" lon="12.6658"><ele>186.66666666666666</ele><time>2026-04-18T14:04:11.886Z</time></trkpt><trkpt lat="43.8295233" lon="12.6655183"><ele>192.0</ele><time>2026-04-18T14:04:12.886Z</time></trkpt><trkpt lat="43.8296233" lon="12.6653317"><ele>186.33333333333334</ele><time>2026-04-18T14:04:13.886Z</time></trkpt><trkpt lat="43.8297233" lon="12.66516"><ele>180.66666666666669</ele><time>2026-04-18T14:04:14.885Z</time></trkpt><trkpt lat="43.8298367" lon="12.665005"><ele>175.0</ele><time>2026-04-18T14:04:15.888Z</time></trkpt><trkpt lat="43.8299333" lon="12.6648567"><ele>175.0</ele><time>2026-04-18T14:04:16.886Z</time></trkpt><trkpt lat="43.8300217" lon="12.66472"><ele>175.0</ele><time>2026-04-18T14:04:17.889Z</time></trkpt><trkpt lat="43.8300817" lon="12.664595"><ele>175.0</ele><time>2026-04-18T14:04:18.886Z</time></trkpt><trkpt lat="43.8301183" lon="12.66447"><ele>175.0</ele><time>2026-04-18T14:04:19.887Z</time></trkpt><trkpt lat="43.8301233" lon="12.6643333"><ele>175.0</ele><time>2026-04-18T14:04:20.885Z</time></trkpt><trkpt lat="43.8301083" lon="12.6641817"><ele>172.75</ele><time>2026-04-18T14:04:21.885Z</time></trkpt><trkpt lat="43.8300733" lon="12.6640083"><ele>170.5</ele><time>2026-04-18T14:04:22.887Z</time></trkpt><trkpt lat="43.8300317" lon="12.66385"><ele>168.25</ele><time>2026-04-18T14:04:23.886Z</time></trkpt><trkpt lat="43.8299683" lon="12.6636917"><ele>166.0</ele><time>2026-04-18T14:04:24.887Z</time></trkpt><trkpt lat="43.8298783" lon="12.6635467"><ele>162.75</ele><time>2026-04-18T14:04:25.885Z</time></trkpt><trkpt lat="43.8297733" lon="12.663405"><ele>159.5</ele><time>2026-04-18T14:04:26.886Z</time></trkpt><trkpt lat="43.829675" lon="12.6632633"><ele>156.25</ele><time>2026-04-18T14:04:27.886Z</time></trkpt><trkpt lat="43.8295867" lon="12.6631183"><ele>153.0</ele><time>2026-04-18T14:04:28.887Z</time></trkpt><trkpt lat="43.8295017" lon="12.6629767"><ele>153.0</ele><time>2026-04-18T14:04:29.886Z</time></trkpt><trkpt lat="43.8294333" lon="12.66287"><ele>153.0</ele><time>2026-04-18T14:04:30.886Z</time></trkpt><trkpt lat="43.8293617" lon="12.6628017"><ele>153.0</ele><time>2026-04-18T14:04:31.887Z</time></trkpt><trkpt lat="43.8292833" lon="12.6627717"><ele>153.0</ele><time>2026-04-18T14:04:32.885Z</time></trkpt><trkpt lat="43.8292167" lon="12.6627867"><ele>153.0</ele><time>2026-04-18T14:04:33.889Z</time></trkpt><trkpt lat="43.8291583" lon="12.6628617"><ele>153.0</ele><time>2026-04-18T14:04:34.887Z</time></trkpt><trkpt lat="43.8291" lon="12.662925"><ele>152.5</ele><time>2026-04-18T14:04:35.889Z</time></trkpt><trkpt lat="43.8291233" lon="12.6630933"><ele>152.0</ele><time>2026-04-18T14:04:36.886Z</time></trkpt><trkpt lat="43.829175" lon="12.6632717"><ele>151.5</ele><time>2026-04-18T14:04:37.887Z</time></trkpt><trkpt lat="43.8292317" lon="12.6634583"><ele>151.0</ele><time>2026-04-18T14:04:38.887Z</time></trkpt><trkpt lat="43.82925" lon="12.6636167"><ele>151.0</ele><time>2026-04-18T14:04:39.887Z</time></trkpt><trkpt lat="43.8292533" lon="12.66378"><ele>151.0</ele><time>2026-04-18T14:04:40.886Z</time></trkpt><trkpt lat="43.82923" lon="12.6639333"><ele>151.0</ele><time>2026-04-18T14:04:41.886Z</time></trkpt><trkpt lat="43.8291617" lon="12.664065"><ele>151.0</ele><time>2026-04-18T14:04:42.889Z</time></trkpt><trkpt lat="43.8290683" lon="12.6641767"><ele>151.0</ele><time>2026-04-18T14:04:43.89Z</time></trkpt><trkpt lat="43.8289683" lon="12.664295"><ele>151.0</ele><time>2026-04-18T14:04:44.888Z</time></trkpt><trkpt lat="43.8288767" lon="12.6644267"><ele>151.0</ele><time>2026-04-18T14:04:45.885Z</time></trkpt><trkpt lat="43.8287983" lon="12.6645767"><ele>151.0</ele><time>2026-04-18T14:04:46.886Z</time></trkpt><trkpt lat="43.8287133" lon="12.6647267"><ele>152.5</ele><time>2026-04-18T14:04:47.887Z</time></trkpt><trkpt lat="43.8286133" lon="12.66486"><ele>154.0</ele><time>2026-04-18T14:04:48.886Z</time></trkpt><trkpt lat="43.8284917" lon="12.6649783"><ele>155.5</ele><time>2026-04-18T14:04:49.886Z</time></trkpt><trkpt lat="43.82836" lon="12.665085"><ele>157.0</ele><time>2026-04-18T14:04:50.886Z</time></trkpt><trkpt lat="43.8282317" lon="12.6651683"><ele>156.0</ele><time>2026-04-18T14:04:51.887Z</time></trkpt><trkpt lat="43.8281067" lon="12.6652583"><ele>155.0</ele><time>2026-04-18T14:04:52.886Z</time></trkpt><trkpt lat="43.8279833" lon="12.6653433"><ele>154.0</ele><time>2026-04-18T14:04:53.886Z</time></trkpt><trkpt lat="43.827855" lon="12.66542"><ele>153.0</ele><time>2026-04-18T14:04:54.886Z</time></trkpt><trkpt lat="43.827725" lon="12.6654767"><ele>148.75</ele><time>2026-04-18T14:04:55.886Z</time></trkpt><trkpt lat="43.8276" lon="12.66553"><ele>144.5</ele><time>2026-04-18T14:04:56.887Z</time></trkpt><trkpt lat="43.8274817" lon="12.6655783"><ele>140.25</ele><time>2026-04-18T14:04:57.886Z</time></trkpt><trkpt lat="43.8273667" lon="12.6656367"><ele>136.0</ele><time>2026-04-18T14:04:58.89Z</time></trkpt><trkpt lat="43.8272783" lon="12.66571"><ele>136.0</ele><time>2026-04-18T14:04:59.887Z</time></trkpt><trkpt lat="43.8272167" lon="12.6658033"><ele>136.0</ele><time>2026-04-18T14:05:00.886Z</time></trkpt><trkpt lat="43.827195" lon="12.6659083"><ele>136.0</ele><time>2026-04-18T14:05:01.886Z</time></trkpt><trkpt lat="43.8272083" lon="12.6660317"><ele>136.0</ele><time>2026-04-18T14:05:02.887Z</time></trkpt><trkpt lat="43.82725" lon="12.6661633"><ele>136.0</ele><time>2026-04-18T14:05:03.887Z</time></trkpt><trkpt lat="43.827345" lon="12.666285"><ele>135.83333333333334</ele><time>2026-04-18T14:05:04.887Z</time></trkpt><trkpt lat="43.8274133" lon="12.6663933"><ele>135.66666666666669</ele><time>2026-04-18T14:05:05.886Z</time></trkpt><trkpt lat="43.82745" lon="12.6665033"><ele>135.5</ele><time>2026-04-18T14:05:06.887Z</time></trkpt><trkpt lat="43.827475" lon="12.6666283"><ele>135.33333333333334</ele><time>2026-04-18T14:05:07.886Z</time></trkpt><trkpt lat="43.8274867" lon="12.666735"><ele>135.16666666666666</ele><time>2026-04-18T14:05:08.886Z</time></trkpt><trkpt lat="43.827465" lon="12.6668417"><ele>135.0</ele><time>2026-04-18T14:05:09.886Z</time></trkpt><trkpt lat="43.8274333" lon="12.666925"><ele>135.0</ele><time>2026-04-18T14:05:10.887Z</time></trkpt><trkpt lat="43.8273733" lon="12.6669767"><ele>135.0</ele><time>2026-04-18T14:05:11.887Z</time></trkpt><trkpt lat="43.827295" lon="12.6669967"><ele>135.0</ele><time>2026-04-18T14:05:12.887Z</time></trkpt><trkpt lat="43.8272217" lon="12.6670167"><ele>135.0</ele><time>2026-04-18T14:05:13.886Z</time></trkpt><trkpt lat="43.82713" lon="12.6670183"><ele>135.0</ele><time>2026-04-18T14:05:14.886Z</time></trkpt><trkpt lat="43.8269333" lon="12.6669267"><ele>132.0</ele><time>2026-04-18T14:05:15.887Z</time></trkpt><trkpt lat="43.8268033" lon="12.6668533"><ele>129.0</ele><time>2026-04-18T14:05:16.888Z</time></trkpt><trkpt lat="43.82668" lon="12.6667583"><ele>126.0</ele><time>2026-04-18T14:05:17.888Z</time></trkpt><trkpt lat="43.8265667" lon="12.6666817"><ele>123.0</ele><time>2026-04-18T14:05:18.887Z</time></trkpt><trkpt lat="43.8264567" lon="12.6666133"><ele>123.0</ele><time>2026-04-18T14:05:19.886Z</time></trkpt><trkpt lat="43.826345" lon="12.666575"><ele>123.00000000000001</ele><time>2026-04-18T14:05:20.889Z</time></trkpt><trkpt lat="43.8262417" lon="12.6665833"><ele>123.00000000000001</ele><time>2026-04-18T14:05:21.886Z</time></trkpt><trkpt lat="43.8261533" lon="12.6666267"><ele>123.0</ele><time>2026-04-18T14:05:22.887Z</time></trkpt><trkpt lat="43.826095" lon="12.6666817"><ele>123.0</ele><time>2026-04-18T14:05:23.886Z</time></trkpt><trkpt lat="43.8260233" lon="12.66676"><ele>123.0</ele><time>2026-04-18T14:05:25.887Z</time></trkpt><trkpt lat="43.826045" lon="12.6666533"><ele>123.00000000000001</ele><time>2026-04-18T14:05:29.887Z</time></trkpt><trkpt lat="43.8261" lon="12.6665833"><ele>123.00000000000001</ele><time>2026-04-18T14:05:30.887Z</time></trkpt><trkpt lat="43.8261933" lon="12.66649"><ele>123.0</ele><time>2026-04-18T14:05:31.888Z</time></trkpt><trkpt lat="43.8262883" lon="12.66642"><ele>123.0</ele><time>2026-04-18T14:05:32.886Z</time></trkpt><trkpt lat="43.826385" lon="12.6663533"><ele>123.0</ele><time>2026-04-18T14:05:33.886Z</time></trkpt><trkpt lat="43.826465" lon="12.6662583"><ele>123.00000000000001</ele><time>2026-04-18T14:05:34.889Z</time></trkpt><trkpt lat="43.826525" lon="12.6661317"><ele>123.00000000000001</ele><time>2026-04-18T14:05:35.889Z</time></trkpt><trkpt lat="43.826565" lon="12.6659833"><ele>123.0</ele><time>2026-04-18T14:05:36.886Z</time></trkpt><trkpt lat="43.8265867" lon="12.6658217"><ele>123.0</ele><time>2026-04-18T14:05:37.889Z</time></trkpt><trkpt lat="43.8266" lon="12.66565"><ele>121.4</ele><time>2026-04-18T14:05:38.886Z</time></trkpt><trkpt lat="43.8266033" lon="12.66549"><ele>119.80000000000001</ele><time>2026-04-18T14:05:39.89Z</time></trkpt><trkpt lat="43.8266167" lon="12.66534"><ele>118.2</ele><time>2026-04-18T14:05:40.887Z</time></trkpt><trkpt lat="43.8266383" lon="12.6652"><ele>116.6</ele><time>2026-04-18T14:05:41.888Z</time></trkpt><trkpt lat="43.82668" lon="12.6650667"><ele>115.0</ele><time>2026-04-18T14:05:42.89Z</time></trkpt><trkpt lat="43.8267433" lon="12.6649433"><ele>115.0</ele><time>2026-04-18T14:05:43.887Z</time></trkpt><trkpt lat="43.8268183" lon="12.66482"><ele>115.0</ele><time>2026-04-18T14:05:44.887Z</time></trkpt><trkpt lat="43.8269" lon="12.6646817"><ele>115.0</ele><time>2026-04-18T14:05:45.889Z</time></trkpt><trkpt lat="43.8269833" lon="12.66454"><ele>115.0</ele><time>2026-04-18T14:05:46.887Z</time></trkpt><trkpt lat="43.8270533" lon="12.664385"><ele>115.0</ele><time>2026-04-18T14:05:47.887Z</time></trkpt><trkpt lat="43.8271083" lon="12.6642083"><ele>115.0</ele><time>2026-04-18T14:05:48.888Z</time></trkpt><trkpt lat="43.827145" lon="12.6640217"><ele>115.0</ele><time>2026-04-18T14:05:49.888Z</time></trkpt><trkpt lat="43.8271717" lon="12.66383"><ele>115.0</ele><time>2026-04-18T14:05:50.887Z</time></trkpt><trkpt lat="43.8271983" lon="12.6636467"><ele>113.0</ele><time>2026-04-18T14:05:51.887Z</time></trkpt><trkpt lat="43.8272367" lon="12.6634617"><ele>111.0</ele><time>2026-04-18T14:05:52.888Z</time></trkpt><trkpt lat="43.8272933" lon="12.6632867"><ele>109.0</ele><time>2026-04-18T14:05:53.888Z</time></trkpt><trkpt lat="43.82736" lon="12.6630967"><ele>107.0</ele><time>2026-04-18T14:05:54.888Z</time></trkpt><trkpt lat="43.82743" lon="12.6628983"><ele>105.33333333333333</ele><time>2026-04-18T14:05:55.89Z</time></trkpt><trkpt lat="43.82749" lon="12.6627033"><ele>103.66666666666666</ele><time>2026-04-18T14:05:56.889Z</time></trkpt><trkpt lat="43.8275583" lon="12.6625117"><ele>102.0</ele><time>2026-04-18T14:05:57.888Z</time></trkpt><trkpt lat="43.8276283" lon="12.662315"><ele>105.0</ele><time>2026-04-18T14:05:58.887Z</time></trkpt><trkpt lat="43.8277033" lon="12.6621167"><ele>108.0</ele><time>2026-04-18T14:05:59.887Z</time></trkpt><trkpt lat="43.827785" lon="12.66191"><ele>111.0</ele><time>2026-04-18T14:06:00.889Z</time></trkpt><trkpt lat="43.8278517" lon="12.6617067"><ele>111.0</ele><time>2026-04-18T14:06:01.888Z</time></trkpt><trkpt lat="43.8279217" lon="12.661515"><ele>111.0</ele><time>2026-04-18T14:06:02.887Z</time></trkpt><trkpt lat="43.828" lon="12.661325"><ele>111.0</ele><time>2026-04-18T14:06:03.888Z</time></trkpt><trkpt lat="43.8280783" lon="12.661135"><ele>106.33333333333334</ele><time>2026-04-18T14:06:04.887Z</time></trkpt><trkpt lat="43.8281667" lon="12.6609383"><ele>101.66666666666667</ele><time>2026-04-18T14:06:05.887Z</time></trkpt><trkpt lat="43.828265" lon="12.6607483"><ele>97.0</ele><time>2026-04-18T14:06:06.886Z</time></trkpt><trkpt lat="43.82837" lon="12.6605533"><ele>97.0</ele><time>2026-04-18T14:06:07.89Z</time></trkpt><trkpt lat="43.828475" lon="12.66035"><ele>97.0</ele><time>2026-04-18T14:06:08.885Z</time></trkpt><trkpt lat="43.82857" lon="12.6601417"><ele>97.0</ele><time>2026-04-18T14:06:09.889Z</time></trkpt><trkpt lat="43.8286667" lon="12.6599267"><ele>96.66666666666667</ele><time>2026-04-18T14:06:10.89Z</time></trkpt><trkpt lat="43.82877" lon="12.6597067"><ele>96.33333333333334</ele><time>2026-04-18T14:06:11.889Z</time></trkpt><trkpt lat="43.8288717" lon="12.6594883"><ele>96.0</ele><time>2026-04-18T14:06:12.889Z</time></trkpt><trkpt lat="43.8289633" lon="12.6592817"><ele>96.0</ele><time>2026-04-18T14:06:13.889Z</time></trkpt><trkpt lat="43.8290533" lon="12.6590867"><ele>96.0</ele><time>2026-04-18T14:06:14.886Z</time></trkpt><trkpt lat="43.829135" lon="12.6588933"><ele>96.0</ele><time>2026-04-18T14:06:15.889Z</time></trkpt><trkpt lat="43.829215" lon="12.65871"><ele>97.5</ele><time>2026-04-18T14:06:16.889Z</time></trkpt><trkpt lat="43.8292917" lon="12.658535"><ele>99.0</ele><time>2026-04-18T14:06:17.889Z</time></trkpt><trkpt lat="43.8293667" lon="12.65838"><ele>100.5</ele><time>2026-04-18T14:06:18.887Z</time></trkpt><trkpt lat="43.8294517" lon="12.6582333"><ele>102.0</ele><time>2026-04-18T14:06:19.887Z</time></trkpt><trkpt lat="43.82956" lon="12.658105"><ele>102.0</ele><time>2026-04-18T14:06:20.887Z</time></trkpt><trkpt lat="43.829685" lon="12.6579767"><ele>102.0</ele><time>2026-04-18T14:06:21.888Z</time></trkpt><trkpt lat="43.8298183" lon="12.6578433"><ele>102.0</ele><time>2026-04-18T14:06:22.886Z</time></trkpt><trkpt lat="43.8299517" lon="12.6577117"><ele>101.25</ele><time>2026-04-18T14:06:23.887Z</time></trkpt><trkpt lat="43.8300783" lon="12.6575867"><ele>100.5</ele><time>2026-04-18T14:06:24.886Z</time></trkpt><trkpt lat="43.8301917" lon="12.6574667"><ele>99.75</ele><time>2026-04-18T14:06:25.887Z</time></trkpt><trkpt lat="43.8303017" lon="12.65734"><ele>99.0</ele><time>2026-04-18T14:06:26.889Z</time></trkpt><trkpt lat="43.8304083" lon="12.657195"><ele>99.33333333333334</ele><time>2026-04-18T14:06:27.886Z</time></trkpt><trkpt lat="43.8305117" lon="12.6570367"><ele>99.66666666666667</ele><time>2026-04-18T14:06:28.885Z</time></trkpt><trkpt lat="43.8306133" lon="12.6568767"><ele>100.0</ele><time>2026-04-18T14:06:29.889Z</time></trkpt><trkpt lat="43.8307117" lon="12.65673"><ele>100.0</ele><time>2026-04-18T14:06:30.886Z</time></trkpt><trkpt lat="43.8308" lon="12.6565917"><ele>100.0</ele><time>2026-04-18T14:06:31.887Z</time></trkpt><trkpt lat="43.830885" lon="12.65646"><ele>100.0</ele><time>2026-04-18T14:06:32.888Z</time></trkpt><trkpt lat="43.830975" lon="12.65635"><ele>100.0</ele><time>2026-04-18T14:06:33.885Z</time></trkpt><trkpt lat="43.83108" lon="12.6562617"><ele>100.75</ele><time>2026-04-18T14:06:34.884Z</time></trkpt><trkpt lat="43.8311983" lon="12.6561883"><ele>101.5</ele><time>2026-04-18T14:06:35.889Z</time></trkpt><trkpt lat="43.8313283" lon="12.6561383"><ele>102.25</ele><time>2026-04-18T14:06:36.886Z</time></trkpt><trkpt lat="43.8314517" lon="12.6560867"><ele>103.0</ele><time>2026-04-18T14:06:37.887Z</time></trkpt><trkpt lat="43.8315783" lon="12.656005"><ele>103.0</ele><time>2026-04-18T14:06:38.887Z</time></trkpt><trkpt lat="43.8317017" lon="12.65591"><ele>103.0</ele><time>2026-04-18T14:06:39.886Z</time></trkpt><trkpt lat="43.8318267" lon="12.6557983"><ele>103.0</ele><time>2026-04-18T14:06:40.888Z</time></trkpt><trkpt lat="43.83195" lon="12.6556683"><ele>103.0</ele><time>2026-04-18T14:06:41.887Z</time></trkpt><trkpt lat="43.83207" lon="12.65553"><ele>102.66666666666667</ele><time>2026-04-18T14:06:42.888Z</time></trkpt><trkpt lat="43.8321967" lon="12.6553883"><ele>102.33333333333334</ele><time>2026-04-18T14:06:43.889Z</time></trkpt><trkpt lat="43.8323167" lon="12.65526"><ele>102.0</ele><time>2026-04-18T14:06:44.888Z</time></trkpt><trkpt lat="43.8324433" lon="12.6551433"><ele>102.0</ele><time>2026-04-18T14:06:45.889Z</time></trkpt><trkpt lat="43.8325783" lon="12.65504"><ele>102.0</ele><time>2026-04-18T14:06:46.888Z</time></trkpt><trkpt lat="43.83272" lon="12.65496"><ele>102.0</ele><time>2026-04-18T14:06:47.888Z</time></trkpt><trkpt lat="43.8328617" lon="12.654915"><ele>104.0</ele><time>2026-04-18T14:06:48.888Z</time></trkpt><trkpt lat="43.8330167" lon="12.6548967"><ele>106.0</ele><time>2026-04-18T14:06:49.889Z</time></trkpt><trkpt lat="43.8331733" lon="12.654885"><ele>108.0</ele><time>2026-04-18T14:06:50.888Z</time></trkpt><trkpt lat="43.8333333" lon="12.65487"><ele>110.66666666666666</ele><time>2026-04-18T14:06:51.888Z</time></trkpt><trkpt lat="43.8335" lon="12.65484"><ele>113.33333333333333</ele><time>2026-04-18T14:06:52.888Z</time></trkpt><trkpt lat="43.833665" lon="12.6547883"><ele>116.0</ele><time>2026-04-18T14:06:53.884Z</time></trkpt><trkpt lat="43.8338317" lon="12.654725"><ele>116.0</ele><time>2026-04-18T14:06:54.887Z</time></trkpt><trkpt lat="43.8339983" lon="12.65466"><ele>116.0</ele><time>2026-04-18T14:06:55.886Z</time></trkpt><trkpt lat="43.8341667" lon="12.65459"><ele>116.0</ele><time>2026-04-18T14:06:56.886Z</time></trkpt><trkpt lat="43.8343383" lon="12.65452"><ele>114.66666666666666</ele><time>2026-04-18T14:06:57.885Z</time></trkpt><trkpt lat="43.83451" lon="12.6544417"><ele>113.33333333333334</ele><time>2026-04-18T14:06:58.886Z</time></trkpt><trkpt lat="43.8346817" lon="12.6543567"><ele>112.0</ele><time>2026-04-18T14:06:59.886Z</time></trkpt><trkpt lat="43.8348517" lon="12.65426"><ele>112.0</ele><time>2026-04-18T14:07:00.886Z</time></trkpt><trkpt lat="43.8350167" lon="12.6541567"><ele>112.0</ele><time>2026-04-18T14:07:01.885Z</time></trkpt><trkpt lat="43.8351733" lon="12.6540433"><ele>112.0</ele><time>2026-04-18T14:07:02.886Z</time></trkpt><trkpt lat="43.8353283" lon="12.653915"><ele>111.0</ele><time>2026-04-18T14:07:03.886Z</time></trkpt><trkpt lat="43.8354767" lon="12.6537717"><ele>110.0</ele><time>2026-04-18T14:07:04.887Z</time></trkpt><trkpt lat="43.8356217" lon="12.6536367"><ele>109.0</ele><time>2026-04-18T14:07:05.885Z</time></trkpt><trkpt lat="43.8357633" lon="12.6535"><ele>109.0</ele><time>2026-04-18T14:07:06.886Z</time></trkpt><trkpt lat="43.835905" lon="12.65336"><ele>109.0</ele><time>2026-04-18T14:07:07.891Z</time></trkpt><trkpt lat="43.8360483" lon="12.6532117"><ele>109.0</ele><time>2026-04-18T14:07:08.886Z</time></trkpt><trkpt lat="43.8361917" lon="12.653065"><ele>108.0</ele><time>2026-04-18T14:07:09.885Z</time></trkpt><trkpt lat="43.836325" lon="12.6529183"><ele>107.0</ele><time>2026-04-18T14:07:10.886Z</time></trkpt><trkpt lat="43.83645" lon="12.6527717"><ele>106.0</ele><time>2026-04-18T14:07:11.885Z</time></trkpt><trkpt lat="43.8365717" lon="12.6526217"><ele>106.0</ele><time>2026-04-18T14:07:12.885Z</time></trkpt><trkpt lat="43.836695" lon="12.65247"><ele>106.0</ele><time>2026-04-18T14:07:13.885Z</time></trkpt><trkpt lat="43.8368083" lon="12.652315"><ele>106.0</ele><time>2026-04-18T14:07:14.885Z</time></trkpt><trkpt lat="43.8369117" lon="12.6521633"><ele>106.0</ele><time>2026-04-18T14:07:15.886Z</time></trkpt><trkpt lat="43.8370033" lon="12.65201"><ele>106.0</ele><time>2026-04-18T14:07:16.888Z</time></trkpt><trkpt lat="43.8370783" lon="12.6518517"><ele>106.0</ele><time>2026-04-18T14:07:17.888Z</time></trkpt><trkpt lat="43.8371383" lon="12.6516967"><ele>106.0</ele><time>2026-04-18T14:07:18.888Z</time></trkpt><trkpt lat="43.8371917" lon="12.651535"><ele>106.0</ele><time>2026-04-18T14:07:19.886Z</time></trkpt><trkpt lat="43.8372417" lon="12.65136"><ele>106.0</ele><time>2026-04-18T14:07:20.889Z</time></trkpt><trkpt lat="43.8372917" lon="12.6511783"><ele>106.0</ele><time>2026-04-18T14:07:21.888Z</time></trkpt><trkpt lat="43.83733" lon="12.651015"><ele>106.0</ele><time>2026-04-18T14:07:22.889Z</time></trkpt><trkpt lat="43.8373467" lon="12.650875"><ele>105.8</ele><time>2026-04-18T14:07:23.888Z</time></trkpt><trkpt lat="43.8373283" lon="12.6507467"><ele>105.6</ele><time>2026-04-18T14:07:24.888Z</time></trkpt><trkpt lat="43.837285" lon="12.65062"><ele>105.4</ele><time>2026-04-18T14:07:25.889Z</time></trkpt><trkpt lat="43.8372317" lon="12.6505"><ele>105.2</ele><time>2026-04-18T14:07:26.886Z</time></trkpt><trkpt lat="43.8372" lon="12.6503683"><ele>105.0</ele><time>2026-04-18T14:07:27.886Z</time></trkpt><trkpt lat="43.8371967" lon="12.6502333"><ele>105.6</ele><time>2026-04-18T14:07:28.885Z</time></trkpt><trkpt lat="43.8372183" lon="12.6500917"><ele>106.2</ele><time>2026-04-18T14:07:29.886Z</time></trkpt><trkpt lat="43.8372583" lon="12.64995"><ele>106.80000000000001</ele><time>2026-04-18T14:07:30.886Z</time></trkpt><trkpt lat="43.837305" lon="12.6498033"><ele>107.4</ele><time>2026-04-18T14:07:31.889Z</time></trkpt><trkpt lat="43.8373517" lon="12.6496517"><ele>108.0</ele><time>2026-04-18T14:07:32.889Z</time></trkpt><trkpt lat="43.837405" lon="12.6494883"><ele>107.5</ele><time>2026-04-18T14:07:33.887Z</time></trkpt><trkpt lat="43.837455" lon="12.64933"><ele>107.0</ele><time>2026-04-18T14:07:34.885Z</time></trkpt><trkpt lat="43.8375067" lon="12.6491633"><ele>106.5</ele><time>2026-04-18T14:07:35.885Z</time></trkpt><trkpt lat="43.8375633" lon="12.6489883"><ele>106.0</ele><time>2026-04-18T14:07:36.884Z</time></trkpt><trkpt lat="43.8376233" lon="12.6488283"><ele>107.5</ele><time>2026-04-18T14:07:37.885Z</time></trkpt><trkpt lat="43.837695" lon="12.6486883"><ele>109.0</ele><time>2026-04-18T14:07:38.886Z</time></trkpt><trkpt lat="43.83778" lon="12.6485767"><ele>110.5</ele><time>2026-04-18T14:07:39.887Z</time></trkpt><trkpt lat="43.8378783" lon="12.6484883"><ele>112.0</ele><time>2026-04-18T14:07:40.886Z</time></trkpt><trkpt lat="43.8379867" lon="12.6484333"><ele>112.0</ele><time>2026-04-18T14:07:41.885Z</time></trkpt><trkpt lat="43.8381083" lon="12.6483833"><ele>112.0</ele><time>2026-04-18T14:07:42.889Z</time></trkpt><trkpt lat="43.8382317" lon="12.648305"><ele>112.0</ele><time>2026-04-18T14:07:43.978Z</time></trkpt><trkpt lat="43.8383533" lon="12.6482"><ele>112.0</ele><time>2026-04-18T14:07:44.885Z</time></trkpt><trkpt lat="43.8384683" lon="12.64807"><ele>113.6</ele><time>2026-04-18T14:07:45.89Z</time></trkpt><trkpt lat="43.8385767" lon="12.6479417"><ele>115.19999999999999</ele><time>2026-04-18T14:07:46.885Z</time></trkpt><trkpt lat="43.8386717" lon="12.6478267"><ele>116.8</ele><time>2026-04-18T14:07:47.887Z</time></trkpt><trkpt lat="43.8387417" lon="12.6477317"><ele>118.4</ele><time>2026-04-18T14:07:48.886Z</time></trkpt><trkpt lat="43.8388" lon="12.647655"><ele>120.0</ele><time>2026-04-18T14:07:49.889Z</time></trkpt><trkpt lat="43.8388567" lon="12.64757"><ele>120.0</ele><time>2026-04-18T14:07:51.889Z</time></trkpt><trkpt lat="43.8388817" lon="12.647485"><ele>120.0</ele><time>2026-04-18T14:07:54.889Z</time></trkpt><trkpt lat="43.8388783" lon="12.6473417"><ele>120.0</ele><time>2026-04-18T14:07:57.887Z</time></trkpt><trkpt lat="43.8388833" lon="12.6471883"><ele>120.0</ele><time>2026-04-18T14:07:59.886Z</time></trkpt><trkpt lat="43.8388967" lon="12.6470933"><ele>120.0</ele><time>2026-04-18T14:08:00.888Z</time></trkpt><trkpt lat="43.8389233" lon="12.6470017"><ele>120.0</ele><time>2026-04-18T14:08:01.888Z</time></trkpt><trkpt lat="43.838965" lon="12.6469183"><ele>119.83333333333333</ele><time>2026-04-18T14:08:02.886Z</time></trkpt><trkpt lat="43.8390167" lon="12.646845"><ele>119.66666666666666</ele><time>2026-04-18T14:08:03.885Z</time></trkpt><trkpt lat="43.8390783" lon="12.64678"><ele>119.5</ele><time>2026-04-18T14:08:04.886Z</time></trkpt><trkpt lat="43.8391433" lon="12.6467217"><ele>119.33333333333333</ele><time>2026-04-18T14:08:05.887Z</time></trkpt><trkpt lat="43.83922" lon="12.6466783"><ele>119.16666666666666</ele><time>2026-04-18T14:08:06.886Z</time></trkpt><trkpt lat="43.8393067" lon="12.646635"><ele>119.0</ele><time>2026-04-18T14:08:07.889Z</time></trkpt><trkpt lat="43.839395" lon="12.6465967"><ele>119.4</ele><time>2026-04-18T14:08:08.888Z</time></trkpt><trkpt lat="43.8394817" lon="12.6465633"><ele>119.80000000000001</ele><time>2026-04-18T14:08:09.888Z</time></trkpt><trkpt lat="43.839565" lon="12.6465333"><ele>120.19999999999999</ele><time>2026-04-18T14:08:10.887Z</time></trkpt><trkpt lat="43.839725" lon="12.646485"><ele>120.6</ele><time>2026-04-18T14:08:12.889Z</time></trkpt><trkpt lat="43.8397933" lon="12.6464617"><ele>121.0</ele><time>2026-04-18T14:08:13.886Z</time></trkpt><trkpt lat="43.8398617" lon="12.64644"><ele>121.0</ele><time>2026-04-18T14:08:14.885Z</time></trkpt><trkpt lat="43.84001" lon="12.6463883"><ele>121.0</ele><time>2026-04-18T14:08:16.886Z</time></trkpt><trkpt lat="43.8400917" lon="12.6463633"><ele>121.0</ele><time>2026-04-18T14:08:17.89Z</time></trkpt><trkpt lat="43.8401683" lon="12.6463333"><ele>121.0</ele><time>2026-04-18T14:08:18.889Z</time></trkpt><trkpt lat="43.8402433" lon="12.646295"><ele>121.0</ele><time>2026-04-18T14:08:19.888Z</time></trkpt><trkpt lat="43.84032" lon="12.6462483"><ele>120.83333333333334</ele><time>2026-04-18T14:08:20.889Z</time></trkpt><trkpt lat="43.8403933" lon="12.6461933"><ele>120.66666666666667</ele><time>2026-04-18T14:08:21.891Z</time></trkpt><trkpt lat="43.8404583" lon="12.6461217"><ele>120.5</ele><time>2026-04-18T14:08:22.889Z</time></trkpt><trkpt lat="43.840515" lon="12.6460283"><ele>120.33333333333334</ele><time>2026-04-18T14:08:23.889Z</time></trkpt><trkpt lat="43.8405617" lon="12.64592"><ele>120.16666666666667</ele><time>2026-04-18T14:08:24.885Z</time></trkpt><trkpt lat="43.8406017" lon="12.6458017"><ele>120.0</ele><time>2026-04-18T14:08:25.886Z</time></trkpt><trkpt lat="43.840635" lon="12.6456767"><ele>120.0</ele><time>2026-04-18T14:08:26.886Z</time></trkpt><trkpt lat="43.8406617" lon="12.645555"><ele>120.0</ele><time>2026-04-18T14:08:27.888Z</time></trkpt><trkpt lat="43.840685" lon="12.64544"><ele>120.0</ele><time>2026-04-18T14:08:28.888Z</time></trkpt><trkpt lat="43.8407067" lon="12.6453317"><ele>120.0</ele><time>2026-04-18T14:08:29.886Z</time></trkpt><trkpt lat="43.8407267" lon="12.6452317"><ele>120.0</ele><time>2026-04-18T14:08:30.887Z</time></trkpt><trkpt lat="43.84075" lon="12.64514"><ele>120.0</ele><time>2026-04-18T14:08:31.886Z</time></trkpt><trkpt lat="43.8407933" lon="12.6450217"><ele>120.0</ele><time>2026-04-18T14:08:33.887Z</time></trkpt><trkpt lat="43.840855" lon="12.645065"><ele>120.0</ele><time>2026-04-18T14:08:50.886Z</time></trkpt><trkpt lat="43.8409167" lon="12.6452417"><ele>120.0</ele><time>2026-04-18T14:08:52.888Z</time></trkpt><trkpt lat="43.8409583" lon="12.6453517"><ele>120.0</ele><time>2026-04-18T14:08:53.885Z</time></trkpt><trkpt lat="43.8410567" lon="12.6455467"><ele>120.6</ele><time>2026-04-18T14:08:55.888Z</time></trkpt><trkpt lat="43.8411117" lon="12.6456433"><ele>121.2</ele><time>2026-04-18T14:08:56.889Z</time></trkpt><trkpt lat="43.8411717" lon="12.64575"><ele>121.80000000000001</ele><time>2026-04-18T14:08:57.887Z</time></trkpt><trkpt lat="43.84123" lon="12.6458533"><ele>122.4</ele><time>2026-04-18T14:08:58.886Z</time></trkpt><trkpt lat="43.8412883" lon="12.6459683"><ele>123.0</ele><time>2026-04-18T14:08:59.886Z</time></trkpt><trkpt lat="43.84134" lon="12.6460883"><ele>122.80000000000001</ele><time>2026-04-18T14:09:00.887Z</time></trkpt><trkpt lat="43.8413883" lon="12.6462117"><ele>122.60000000000001</ele><time>2026-04-18T14:09:01.886Z</time></trkpt><trkpt lat="43.841415" lon="12.64634"><ele>122.39999999999999</ele><time>2026-04-18T14:09:02.886Z</time></trkpt><trkpt lat="43.8414333" lon="12.646465"><ele>122.19999999999999</ele><time>2026-04-18T14:09:03.886Z</time></trkpt><trkpt lat="43.84144" lon="12.6465933"><ele>122.0</ele><time>2026-04-18T14:09:04.887Z</time></trkpt><trkpt lat="43.8414367" lon="12.6468283"><ele>121.99999999999999</ele><time>2026-04-18T14:09:06.885Z</time></trkpt><trkpt lat="43.8414333" lon="12.6469283"><ele>122.0</ele><time>2026-04-18T14:09:07.891Z</time></trkpt><trkpt lat="43.8414667" lon="12.6471133"><ele>122.0</ele><time>2026-04-18T14:09:09.886Z</time></trkpt><trkpt lat="43.8415133" lon="12.6471883"><ele>122.0</ele><time>2026-04-18T14:09:10.888Z</time></trkpt><trkpt lat="43.841575" lon="12.6472583"><ele>121.99999999999999</ele><time>2026-04-18T14:09:11.888Z</time></trkpt><trkpt lat="43.84165" lon="12.6473167"><ele>122.0</ele><time>2026-04-18T14:09:12.889Z</time></trkpt><trkpt lat="43.841825" lon="12.6474267"><ele>123.25</ele><time>2026-04-18T14:09:14.885Z</time></trkpt><trkpt lat="43.8419867" lon="12.64752"><ele>124.5</ele><time>2026-04-18T14:09:16.888Z</time></trkpt><trkpt lat="43.8420667" lon="12.6475583"><ele>125.75</ele><time>2026-04-18T14:09:17.889Z</time></trkpt><trkpt lat="43.842215" lon="12.647585"><ele>127.0</ele><time>2026-04-18T14:09:19.885Z</time></trkpt><trkpt lat="43.8423483" lon="12.647555"><ele>127.00000000000001</ele><time>2026-04-18T14:09:21.885Z</time></trkpt><trkpt lat="43.84242" lon="12.647525"><ele>127.0</ele><time>2026-04-18T14:09:22.886Z</time></trkpt><trkpt lat="43.8424867" lon="12.6475133"><ele>127.0</ele><time>2026-04-18T14:09:23.888Z</time></trkpt><trkpt lat="43.8426017" lon="12.647545"><ele>127.0</ele><time>2026-04-18T14:09:25.89Z</time></trkpt><trkpt lat="43.842645" lon="12.6476417"><ele>127.00000000000001</ele><time>2026-04-18T14:09:27.889Z</time></trkpt><trkpt lat="43.842625" lon="12.6477867"><ele>127.0</ele><time>2026-04-18T14:09:29.887Z</time></trkpt><trkpt lat="43.8425767" lon="12.6478883"><ele>127.75</ele><time>2026-04-18T14:09:31.886Z</time></trkpt><trkpt lat="43.842555" lon="12.6480217"><ele>128.5</ele><time>2026-04-18T14:09:33.886Z</time></trkpt><trkpt lat="43.8425933" lon="12.648195"><ele>129.25</ele><time>2026-04-18T14:09:35.887Z</time></trkpt><trkpt lat="43.8426483" lon="12.6482833"><ele>130.0</ele><time>2026-04-18T14:09:36.887Z</time></trkpt><trkpt lat="43.8428017" lon="12.6484283"><ele>130.0</ele><time>2026-04-18T14:09:38.887Z</time></trkpt><trkpt lat="43.8429533" lon="12.6485583"><ele>130.0</ele><time>2026-04-18T14:09:40.886Z</time></trkpt><trkpt lat="43.8430133" lon="12.64863"><ele>130.0</ele><time>2026-04-18T14:09:41.887Z</time></trkpt><trkpt lat="43.8430683" lon="12.6487117"><ele>130.0</ele><time>2026-04-18T14:09:42.886Z</time></trkpt><trkpt lat="43.8431267" lon="12.6487833"><ele>130.0</ele><time>2026-04-18T14:09:43.888Z</time></trkpt><trkpt lat="43.8431883" lon="12.6488533"><ele>130.66666666666669</ele><time>2026-04-18T14:09:44.886Z</time></trkpt><trkpt lat="43.84325" lon="12.6489233"><ele>131.33333333333334</ele><time>2026-04-18T14:09:45.887Z</time></trkpt><trkpt lat="43.8433067" lon="12.6489717"><ele>132.0</ele><time>2026-04-18T14:09:46.886Z</time></trkpt><trkpt lat="43.8434083" lon="12.6490317"><ele>132.66666666666666</ele><time>2026-04-18T14:09:48.887Z</time></trkpt><trkpt lat="43.843495" lon="12.64908"><ele>133.33333333333331</ele><time>2026-04-18T14:09:50.887Z</time></trkpt><trkpt lat="43.8435733" lon="12.649115"><ele>134.0</ele><time>2026-04-18T14:09:53.886Z</time></trkpt><trkpt lat="43.8436517" lon="12.64909"><ele>134.0</ele><time>2026-04-18T14:09:56.887Z</time></trkpt><trkpt lat="43.84373" lon="12.6490983"><ele>134.0</ele><time>2026-04-18T14:10:18.887Z</time></trkpt><trkpt lat="43.8438133" lon="12.6491117"><ele>134.0</ele><time>2026-04-18T14:10:22.886Z</time></trkpt><trkpt lat="43.8438783" lon="12.6491033"><ele>134.0</ele><time>2026-04-18T14:10:24.888Z</time></trkpt><trkpt lat="43.8439967" lon="12.6490867"><ele>134.0</ele><time>2026-04-18T14:10:46.89Z</time></trkpt><trkpt lat="43.8439083" lon="12.649085"><ele>134.0</ele><time>2026-04-18T14:11:15.884Z</time></trkpt><trkpt lat="43.84382" lon="12.6490967"><ele>134.0</ele><time>2026-04-18T14:11:18.885Z</time></trkpt><trkpt lat="43.8437483" lon="12.6490983"><ele>134.0</ele><time>2026-04-18T14:11:20.885Z</time></trkpt><trkpt lat="43.8436833" lon="12.64912"><ele>134.0</ele><time>2026-04-18T14:11:22.885Z</time></trkpt><trkpt lat="43.8436183" lon="12.64915"><ele>134.0</ele><time>2026-04-18T14:11:24.884Z</time></trkpt><trkpt lat="43.8435817" lon="12.6492233"><ele>134.0</ele><time>2026-04-18T14:11:41.885Z</time></trkpt><trkpt lat="43.8436033" lon="12.6493117"><ele>134.0</ele><time>2026-04-18T14:11:43.885Z</time></trkpt><trkpt lat="43.8436567" lon="12.6494117"><ele>134.0</ele><time>2026-04-18T14:11:45.886Z</time></trkpt><trkpt lat="43.84375" lon="12.6494733"><ele>134.0</ele><time>2026-04-18T14:11:52.885Z</time></trkpt><trkpt lat="43.8438167" lon="12.6494467"><ele>134.0</ele><time>2026-04-18T14:11:54.884Z</time></trkpt><trkpt lat="43.8438833" lon="12.64946"><ele>134.0</ele><time>2026-04-18T14:11:56.885Z</time></trkpt><trkpt lat="43.84394" lon="12.6495133"><ele>134.0</ele><time>2026-04-18T14:11:58.885Z</time></trkpt><trkpt lat="43.8440283" lon="12.6496417"><ele>134.0</ele><time>2026-04-18T14:12:01.886Z</time></trkpt><trkpt lat="43.8440917" lon="12.6497417"><ele>134.0</ele><time>2026-04-18T14:12:03.887Z</time></trkpt><trkpt lat="43.84415" lon="12.64981"><ele>134.2</ele><time>2026-04-18T14:12:05.884Z</time></trkpt><trkpt lat="43.8442283" lon="12.6498733"><ele>134.4</ele><time>2026-04-18T14:12:08.885Z</time></trkpt><trkpt lat="43.8443067" lon="12.649915"><ele>134.6</ele><time>2026-04-18T14:12:10.885Z</time></trkpt><trkpt lat="43.8444133" lon="12.6499583"><ele>134.8</ele><time>2026-04-18T14:12:21.888Z</time></trkpt><trkpt lat="43.844505" lon="12.6499767"><ele>135.0</ele><time>2026-04-18T14:12:23.888Z</time></trkpt><trkpt lat="43.844605" lon="12.6499983"><ele>137.0</ele><time>2026-04-18T14:12:25.889Z</time></trkpt><trkpt lat="43.8447083" lon="12.6500217"><ele>139.0</ele><time>2026-04-18T14:12:27.889Z</time></trkpt><trkpt lat="43.8448717" lon="12.6500317"><ele>141.0</ele><time>2026-04-18T14:12:30.885Z</time></trkpt><trkpt lat="43.8449833" lon="12.6500217"><ele>143.0</ele><time>2026-04-18T14:12:33.886Z</time></trkpt><trkpt lat="43.8448983" lon="12.6500117"><ele>143.0</ele><time>2026-04-18T14:13:09.889Z</time></trkpt><trkpt lat="43.84482" lon="12.65001"><ele>143.0</ele><time>2026-04-18T14:13:11.885Z</time></trkpt><trkpt lat="43.8447167" lon="12.6500017"><ele>143.0</ele><time>2026-04-18T14:13:13.886Z</time></trkpt><trkpt lat="43.84465" lon="12.64999"><ele>143.0</ele><time>2026-04-18T14:13:14.886Z</time></trkpt><trkpt lat="43.8445083" lon="12.6499683"><ele>143.0</ele><time>2026-04-18T14:13:16.886Z</time></trkpt><trkpt lat="43.8444333" lon="12.649955"><ele>143.0</ele><time>2026-04-18T14:13:17.885Z</time></trkpt><trkpt lat="43.8443033" lon="12.649915"><ele>143.0</ele><time>2026-04-18T14:13:19.885Z</time></trkpt><trkpt lat="43.8441567" lon="12.6498233"><ele>143.0</ele><time>2026-04-18T14:13:22.885Z</time></trkpt><trkpt lat="43.8441017" lon="12.6497583"><ele>143.0</ele><time>2026-04-18T14:13:24.886Z</time></trkpt><trkpt lat="43.8440467" lon="12.6496617"><ele>141.66666666666666</ele><time>2026-04-18T14:13:26.885Z</time></trkpt><trkpt lat="43.843985" lon="12.64958"><ele>140.33333333333331</ele><time>2026-04-18T14:13:28.885Z</time></trkpt><trkpt lat="43.84392" lon="12.6495167"><ele>139.0</ele><time>2026-04-18T14:13:30.885Z</time></trkpt><trkpt lat="43.8438517" lon="12.64948"><ele>137.66666666666666</ele><time>2026-04-18T14:13:32.886Z</time></trkpt><trkpt lat="43.843765" lon="12.6495017"><ele>136.33333333333334</ele><time>2026-04-18T14:13:36.886Z</time></trkpt><trkpt lat="43.8438217" lon="12.6494617"><ele>135.0</ele><time>2026-04-18T14:13:54.885Z</time></trkpt><trkpt lat="43.8438833" lon="12.649485"><ele>135.0</ele><time>2026-04-18T14:13:56.885Z</time></trkpt><trkpt lat="43.8439933" lon="12.649605"><ele>135.0</ele><time>2026-04-18T14:13:59.888Z</time></trkpt><trkpt lat="43.8440717" lon="12.6497167"><ele>135.0</ele><time>2026-04-18T14:14:01.886Z</time></trkpt><trkpt lat="43.84416" lon="12.649825"><ele>135.0</ele><time>2026-04-18T14:14:04.887Z</time></trkpt><trkpt lat="43.8443333" lon="12.64992"><ele>137.0</ele><time>2026-04-18T14:14:07.886Z</time></trkpt><trkpt lat="43.84441" lon="12.6499483"><ele>139.0</ele><time>2026-04-18T14:14:08.887Z</time></trkpt><trkpt lat="43.8445733" lon="12.6499817"><ele>141.0</ele><time>2026-04-18T14:14:10.888Z</time></trkpt><trkpt lat="43.84474" lon="12.6500017"><ele>143.0</ele><time>2026-04-18T14:14:12.885Z</time></trkpt><trkpt lat="43.844815" lon="12.65001"><ele>143.0</ele><time>2026-04-18T14:14:13.89Z</time></trkpt><trkpt lat="43.8449283" lon="12.65002"><ele>143.0</ele><time>2026-04-18T14:14:15.892Z</time></trkpt><trkpt lat="43.8449733" lon="12.6499533"><ele>143.0</ele><time>2026-04-18T14:14:18.889Z</time></trkpt><trkpt lat="43.8449217" lon="12.64984"><ele>143.0</ele><time>2026-04-18T14:14:20.888Z</time></trkpt><trkpt lat="43.84487" lon="12.64975"><ele>143.0</ele><time>2026-04-18T14:14:21.888Z</time></trkpt><trkpt lat="43.8447867" lon="12.6495867"><ele>143.0</ele><time>2026-04-18T14:14:23.889Z</time></trkpt><trkpt lat="43.8447417" lon="12.6494967"><ele>143.0</ele><time>2026-04-18T14:14:24.889Z</time></trkpt><trkpt lat="43.8446583" lon="12.6493317"><ele>143.0</ele><time>2026-04-18T14:14:26.89Z</time></trkpt><trkpt lat="43.8445983" lon="12.6492033"><ele>143.0</ele><time>2026-04-18T14:14:28.889Z</time></trkpt><trkpt lat="43.8445467" lon="12.6491167"><ele>143.0</ele><time>2026-04-18T14:14:31.885Z</time></trkpt><trkpt lat="43.844525" lon="12.6489667"><ele>142.16666666666666</ele><time>2026-04-18T14:14:37.887Z</time></trkpt><trkpt lat="43.84454" lon="12.6488617"><ele>141.33333333333331</ele><time>2026-04-18T14:14:55.889Z</time></trkpt><trkpt lat="43.8445233" lon="12.6487583"><ele>140.5</ele><time>2026-04-18T14:14:57.886Z</time></trkpt><trkpt lat="43.8445283" lon="12.6486317"><ele>139.66666666666666</ele><time>2026-04-18T14:15:00.888Z</time></trkpt><trkpt lat="43.8445867" lon="12.6485467"><ele>138.83333333333334</ele><time>2026-04-18T14:15:02.885Z</time></trkpt><trkpt lat="43.8446617" lon="12.6484633"><ele>138.0</ele><time>2026-04-18T14:15:04.887Z</time></trkpt><trkpt lat="43.8447317" lon="12.64841"><ele>137.33333333333334</ele><time>2026-04-18T14:15:06.885Z</time></trkpt><trkpt lat="43.8447967" lon="12.6483917"><ele>136.66666666666666</ele><time>2026-04-18T14:15:08.888Z</time></trkpt><trkpt lat="43.8448817" lon="12.6483817"><ele>136.0</ele><time>2026-04-18T14:15:10.885Z</time></trkpt><trkpt lat="43.8449667" lon="12.6483367"><ele>135.33333333333331</ele><time>2026-04-18T14:15:12.887Z</time></trkpt><trkpt lat="43.8450567" lon="12.648235"><ele>134.66666666666666</ele><time>2026-04-18T14:15:14.885Z</time></trkpt><trkpt lat="43.845105" lon="12.6481733"><ele>134.0</ele><time>2026-04-18T14:15:15.888Z</time></trkpt><trkpt lat="43.8451967" lon="12.64808"><ele>134.0</ele><time>2026-04-18T14:15:17.886Z</time></trkpt><trkpt lat="43.8452617" lon="12.6480367"><ele>134.0</ele><time>2026-04-18T14:15:19.886Z</time></trkpt><trkpt lat="43.8453233" lon="12.6479883"><ele>134.0</ele><time>2026-04-18T14:15:22.886Z</time></trkpt><trkpt lat="43.8453883" lon="12.6479483"><ele>134.0</ele><time>2026-04-18T14:15:36.888Z</time></trkpt><trkpt lat="43.8453083" lon="12.6479633"><ele>134.0</ele><time>2026-04-18T14:15:47.886Z</time></trkpt><trkpt lat="43.8452217" lon="12.6480367"><ele>134.0</ele><time>2026-04-18T14:15:49.888Z</time></trkpt><trkpt lat="43.8451283" lon="12.6481317"><ele>134.0</ele><time>2026-04-18T14:15:51.885Z</time></trkpt><trkpt lat="43.8450783" lon="12.6481883"><ele>134.0</ele><time>2026-04-18T14:15:52.885Z</time></trkpt><trkpt lat="43.8449917" lon="12.6483"><ele>134.0</ele><time>2026-04-18T14:15:54.884Z</time></trkpt><trkpt lat="43.8449183" lon="12.648375"><ele>134.0</ele><time>2026-04-18T14:15:56.885Z</time></trkpt><trkpt lat="43.844825" lon="12.6484033"><ele>134.0</ele><time>2026-04-18T14:15:58.888Z</time></trkpt><trkpt lat="43.8447267" lon="12.64842"><ele>134.0</ele><time>2026-04-18T14:16:00.886Z</time></trkpt><trkpt lat="43.844665" lon="12.6484467"><ele>134.0</ele><time>2026-04-18T14:16:02.884Z</time></trkpt><trkpt lat="43.844615" lon="12.6485"><ele>134.0</ele><time>2026-04-18T14:16:04.885Z</time></trkpt><trkpt lat="43.8445533" lon="12.6485717"><ele>134.0</ele><time>2026-04-18T14:16:06.888Z</time></trkpt><trkpt lat="43.8445167" lon="12.6486517"><ele>134.0</ele><time>2026-04-18T14:16:08.885Z</time></trkpt><trkpt lat="43.8445317" lon="12.648775"><ele>134.0</ele><time>2026-04-18T14:16:11.888Z</time></trkpt><trkpt lat="43.8445517" lon="12.648885"><ele>134.0</ele><time>2026-04-18T14:16:14.885Z</time></trkpt><trkpt lat="43.8446467" lon="12.6488267"><ele>134.0</ele><time>2026-04-18T14:16:23.885Z</time></trkpt><trkpt lat="43.8447417" lon="12.6487817"><ele>134.0</ele><time>2026-04-18T14:16:25.886Z</time></trkpt><trkpt lat="43.8448183" lon="12.64874"><ele>134.0</ele><time>2026-04-18T14:16:27.886Z</time></trkpt><trkpt lat="43.8449183" lon="12.6486867"><ele>134.0</ele><time>2026-04-18T14:16:29.885Z</time></trkpt><trkpt lat="43.84504" lon="12.6486333"><ele>134.0</ele><time>2026-04-18T14:16:31.885Z</time></trkpt><trkpt lat="43.8451017" lon="12.648615"><ele>136.2</ele><time>2026-04-18T14:16:32.886Z</time></trkpt><trkpt lat="43.84522" lon="12.6485667"><ele>138.4</ele><time>2026-04-18T14:16:34.886Z</time></trkpt><trkpt lat="43.8453183" lon="12.6485067"><ele>140.6</ele><time>2026-04-18T14:16:36.886Z</time></trkpt><trkpt lat="43.84541" lon="12.648465"><ele>142.8</ele><time>2026-04-18T14:16:38.884Z</time></trkpt><trkpt lat="43.8454917" lon="12.6484383"><ele>145.0</ele><time>2026-04-18T14:16:40.885Z</time></trkpt><trkpt lat="43.8455517" lon="12.6484117"><ele>145.0</ele><time>2026-04-18T14:18:13.885Z</time></trkpt><trkpt lat="43.84558" lon="12.648305"><ele>145.0</ele><time>2026-04-18T14:18:17.886Z</time></trkpt><trkpt lat="43.8456367" lon="12.64823"><ele>145.0</ele><time>2026-04-18T14:18:20.888Z</time></trkpt><trkpt lat="43.845715" lon="12.64817"><ele>145.0</ele><time>2026-04-18T14:18:23.886Z</time></trkpt><trkpt lat="43.8457817" lon="12.6481"><ele>145.0</ele><time>2026-04-18T14:18:26.886Z</time></trkpt><trkpt lat="43.845865" lon="12.6480583"><ele>145.0</ele><time>2026-04-18T14:18:29.887Z</time></trkpt><trkpt lat="43.845925" lon="12.6480167"><ele>146.0</ele><time>2026-04-18T14:18:31.886Z</time></trkpt><trkpt lat="43.8459933" lon="12.64797"><ele>147.0</ele><time>2026-04-18T14:18:33.885Z</time></trkpt><trkpt lat="43.8460717" lon="12.6479183"><ele>148.0</ele><time>2026-04-18T14:18:36.887Z</time></trkpt><trkpt lat="43.8461383" lon="12.647875"><ele>149.0</ele><time>2026-04-18T14:18:38.885Z</time></trkpt><trkpt lat="43.84621" lon="12.647835"><ele>150.0</ele><time>2026-04-18T14:18:40.886Z</time></trkpt><trkpt lat="43.8462717" lon="12.6478"><ele>151.0</ele><time>2026-04-18T14:18:42.885Z</time></trkpt><trkpt lat="43.8463483" lon="12.6477533"><ele>151.0</ele><time>2026-04-18T14:18:44.885Z</time></trkpt><trkpt lat="43.8464383" lon="12.6477267"><ele>151.0</ele><time>2026-04-18T14:18:46.885Z</time></trkpt><trkpt lat="43.8465317" lon="12.6476933"><ele>151.0</ele><time>2026-04-18T14:18:48.886Z</time></trkpt><trkpt lat="43.8466717" lon="12.6476833"><ele>151.0</ele><time>2026-04-18T14:19:03.888Z</time></trkpt><trkpt lat="43.846745" lon="12.647705"><ele>151.0</ele><time>2026-04-18T14:19:06.89Z</time></trkpt><trkpt lat="43.8468433" lon="12.6477167"><ele>151.33333333333334</ele><time>2026-04-18T14:19:09.888Z</time></trkpt><trkpt lat="43.84692" lon="12.6477233"><ele>151.66666666666669</ele><time>2026-04-18T14:19:11.886Z</time></trkpt><trkpt lat="43.8470067" lon="12.64772"><ele>152.0</ele><time>2026-04-18T14:19:13.979Z</time></trkpt><trkpt lat="43.8470883" lon="12.64773"><ele>152.33333333333334</ele><time>2026-04-18T14:19:15.887Z</time></trkpt><trkpt lat="43.8471967" lon="12.6477583"><ele>152.66666666666666</ele><time>2026-04-18T14:19:18.887Z</time></trkpt><trkpt lat="43.8472633" lon="12.647745"><ele>153.0</ele><time>2026-04-18T14:19:20.885Z</time></trkpt><trkpt lat="43.8473267" lon="12.647715"><ele>153.0</ele><time>2026-04-18T14:19:22.885Z</time></trkpt><trkpt lat="43.84741" lon="12.6476783"><ele>153.0</ele><time>2026-04-18T14:19:24.886Z</time></trkpt><trkpt lat="43.847485" lon="12.6476367"><ele>153.0</ele><time>2026-04-18T14:19:26.886Z</time></trkpt><trkpt lat="43.8475367" lon="12.6475767"><ele>153.0</ele><time>2026-04-18T14:19:28.885Z</time></trkpt><trkpt lat="43.8475817" lon="12.6474883"><ele>153.0</ele><time>2026-04-18T14:19:31.888Z</time></trkpt><trkpt lat="43.8476483" lon="12.6474583"><ele>153.0</ele><time>2026-04-18T14:19:34.886Z</time></trkpt><trkpt lat="43.8477083" lon="12.6474883"><ele>153.0</ele><time>2026-04-18T14:19:40.886Z</time></trkpt><trkpt lat="43.8477633" lon="12.6475383"><ele>154.66666666666666</ele><time>2026-04-18T14:19:42.886Z</time></trkpt><trkpt lat="43.847825" lon="12.6475817"><ele>156.33333333333334</ele><time>2026-04-18T14:19:44.886Z</time></trkpt><trkpt lat="43.84789" lon="12.6475667"><ele>158.0</ele><time>2026-04-18T14:19:47.885Z</time></trkpt><trkpt lat="43.84797" lon="12.6475217"><ele>159.66666666666669</ele><time>2026-04-18T14:22:47.888Z</time></trkpt><trkpt lat="43.8480733" lon="12.6474617"><ele>161.33333333333334</ele><time>2026-04-18T14:22:51.886Z</time></trkpt><trkpt lat="43.8481517" lon="12.6474333"><ele>163.0</ele><time>2026-04-18T14:22:54.886Z</time></trkpt><trkpt lat="43.848245" lon="12.6473917"><ele>163.0</ele><time>2026-04-18T14:22:57.885Z</time></trkpt><trkpt lat="43.84831" lon="12.6473667"><ele>163.0</ele><time>2026-04-18T14:22:59.886Z</time></trkpt><trkpt lat="43.848425" lon="12.6473417"><ele>163.0</ele><time>2026-04-18T14:23:03.885Z</time></trkpt><trkpt lat="43.848355" lon="12.6473583"><ele>163.0</ele><time>2026-04-18T14:23:24.888Z</time></trkpt><trkpt lat="43.8482917" lon="12.6473683"><ele>163.0</ele><time>2026-04-18T14:23:26.888Z</time></trkpt><trkpt lat="43.84821" lon="12.647405"><ele>163.0</ele><time>2026-04-18T14:23:29.888Z</time></trkpt><trkpt lat="43.8481217" lon="12.6474367"><ele>163.0</ele><time>2026-04-18T14:23:32.889Z</time></trkpt><trkpt lat="43.8480567" lon="12.6474667"><ele>163.0</ele><time>2026-04-18T14:23:34.888Z</time></trkpt><trkpt lat="43.847985" lon="12.647495"><ele>163.0</ele><time>2026-04-18T14:23:36.888Z</time></trkpt><trkpt lat="43.8479167" lon="12.647545"><ele>163.0</ele><time>2026-04-18T14:23:39.889Z</time></trkpt><trkpt lat="43.847845" lon="12.647615"><ele>163.0</ele><time>2026-04-18T14:23:42.885Z</time></trkpt><trkpt lat="43.8477833" lon="12.6475867"><ele>163.0</ele><time>2026-04-18T14:23:44.886Z</time></trkpt><trkpt lat="43.8477183" lon="12.64753"><ele>163.0</ele><time>2026-04-18T14:23:46.886Z</time></trkpt><trkpt lat="43.8476583" lon="12.647495"><ele>163.0</ele><time>2026-04-18T14:23:48.886Z</time></trkpt><trkpt lat="43.8475867" lon="12.6475067"><ele>163.0</ele><time>2026-04-18T14:23:51.886Z</time></trkpt><trkpt lat="43.847545" lon="12.6476067"><ele>163.0</ele><time>2026-04-18T14:23:55.889Z</time></trkpt><trkpt lat="43.8474867" lon="12.647655"><ele>163.0</ele><time>2026-04-18T14:23:57.889Z</time></trkpt><trkpt lat="43.8474117" lon="12.6477017"><ele>163.0</ele><time>2026-04-18T14:23:59.889Z</time></trkpt><trkpt lat="43.84733" lon="12.647745"><ele>161.0</ele><time>2026-04-18T14:24:01.889Z</time></trkpt><trkpt lat="43.847255" lon="12.6477833"><ele>159.0</ele><time>2026-04-18T14:24:03.885Z</time></trkpt><trkpt lat="43.8471783" lon="12.6477767"><ele>157.0</ele><time>2026-04-18T14:24:05.886Z</time></trkpt><trkpt lat="43.8470783" lon="12.6477533"><ele>155.0</ele><time>2026-04-18T14:24:07.889Z</time></trkpt><trkpt lat="43.846975" lon="12.6477467"><ele>153.0</ele><time>2026-04-18T14:24:09.889Z</time></trkpt><trkpt lat="43.8468867" lon="12.6477267"><ele>153.0</ele><time>2026-04-18T14:24:11.885Z</time></trkpt><trkpt lat="43.84682" lon="12.6476933"><ele>153.0</ele><time>2026-04-18T14:24:13.886Z</time></trkpt><trkpt lat="43.8467583" lon="12.6476733"><ele>153.0</ele><time>2026-04-18T14:24:15.889Z</time></trkpt><trkpt lat="43.8466817" lon="12.6476567"><ele>153.0</ele><time>2026-04-18T14:24:18.886Z</time></trkpt><trkpt lat="43.8466017" lon="12.6476767"><ele>153.0</ele><time>2026-04-18T14:24:21.886Z</time></trkpt><trkpt lat="43.8465" lon="12.6477367"><ele>153.0</ele><time>2026-04-18T14:24:24.886Z</time></trkpt><trkpt lat="43.8464117" lon="12.64778"><ele>153.4</ele><time>2026-04-18T14:24:26.887Z</time></trkpt><trkpt lat="43.8463317" lon="12.64782"><ele>153.8</ele><time>2026-04-18T14:24:28.886Z</time></trkpt><trkpt lat="43.8462567" lon="12.6478583"><ele>154.2</ele><time>2026-04-18T14:24:30.887Z</time></trkpt><trkpt lat="43.8461683" lon="12.647905"><ele>154.6</ele><time>2026-04-18T14:24:33.884Z</time></trkpt><trkpt lat="43.8460567" lon="12.6479567"><ele>155.0</ele><time>2026-04-18T14:24:36.885Z</time></trkpt><trkpt lat="43.8459867" lon="12.6479967"><ele>153.0</ele><time>2026-04-18T14:24:38.885Z</time></trkpt><trkpt lat="43.845915" lon="12.6480467"><ele>151.0</ele><time>2026-04-18T14:24:40.884Z</time></trkpt><trkpt lat="43.84585" lon="12.648095"><ele>149.0</ele><time>2026-04-18T14:24:42.884Z</time></trkpt><trkpt lat="43.8457383" lon="12.6481617"><ele>147.0</ele><time>2026-04-18T14:24:46.885Z</time></trkpt><trkpt lat="43.84571" lon="12.64826"><ele>145.0</ele><time>2026-04-18T14:24:50.884Z</time></trkpt><trkpt lat="43.8456017" lon="12.6483467"><ele>145.0</ele><time>2026-04-18T14:24:55.886Z</time></trkpt><trkpt lat="43.845505" lon="12.6483917"><ele>145.0</ele><time>2026-04-18T14:24:57.885Z</time></trkpt><trkpt lat="43.8454417" lon="12.64843"><ele>145.0</ele><time>2026-04-18T14:24:58.884Z</time></trkpt><trkpt lat="43.8453717" lon="12.648475"><ele>145.0</ele><time>2026-04-18T14:24:59.888Z</time></trkpt><trkpt lat="43.8453017" lon="12.6485083"><ele>145.0</ele><time>2026-04-18T14:25:00.886Z</time></trkpt><trkpt lat="43.8451867" lon="12.648565"><ele>145.0</ele><time>2026-04-18T14:25:02.884Z</time></trkpt><trkpt lat="43.8451233" lon="12.648595"><ele>143.25</ele><time>2026-04-18T14:25:03.885Z</time></trkpt><trkpt lat="43.8450017" lon="12.648645"><ele>141.5</ele><time>2026-04-18T14:25:05.886Z</time></trkpt><trkpt lat="43.8448933" lon="12.6486933"><ele>139.75</ele><time>2026-04-18T14:25:07.886Z</time></trkpt><trkpt lat="43.8448083" lon="12.648735"><ele>138.0</ele><time>2026-04-18T14:25:09.886Z</time></trkpt><trkpt lat="43.844675" lon="12.648815"><ele>138.0</ele><time>2026-04-18T14:25:12.884Z</time></trkpt><trkpt lat="43.844595" lon="12.6488667"><ele>138.0</ele><time>2026-04-18T14:25:14.884Z</time></trkpt><trkpt lat="43.8445367" lon="12.648925"><ele>138.0</ele><time>2026-04-18T14:25:17.885Z</time></trkpt><trkpt lat="43.84452" lon="12.6490383"><ele>138.0</ele><time>2026-04-18T14:25:27.886Z</time></trkpt><trkpt lat="43.84459" lon="12.64921"><ele>138.0</ele><time>2026-04-18T14:25:30.888Z</time></trkpt><trkpt lat="43.84462" lon="12.64929"><ele>138.0</ele><time>2026-04-18T14:25:31.888Z</time></trkpt><trkpt lat="43.84466" lon="12.6493683"><ele>138.0</ele><time>2026-04-18T14:25:32.887Z</time></trkpt><trkpt lat="43.8447017" lon="12.6494583"><ele>138.0</ele><time>2026-04-18T14:25:33.888Z</time></trkpt><trkpt lat="43.8447483" lon="12.649545"><ele>138.0</ele><time>2026-04-18T14:25:34.887Z</time></trkpt><trkpt lat="43.844795" lon="12.6496333"><ele>138.0</ele><time>2026-04-18T14:25:35.887Z</time></trkpt><trkpt lat="43.84484" lon="12.649715"><ele>138.0</ele><time>2026-04-18T14:25:36.889Z</time></trkpt><trkpt lat="43.844915" lon="12.649865"><ele>139.25</ele><time>2026-04-18T14:25:38.885Z</time></trkpt><trkpt lat="43.8449517" lon="12.6499883"><ele>140.5</ele><time>2026-04-18T14:25:40.889Z</time></trkpt><trkpt lat="43.8448417" lon="12.6500167"><ele>141.75</ele><time>2026-04-18T14:25:54.89Z</time></trkpt><trkpt lat="43.8447167" lon="12.6500017"><ele>143.0</ele><time>2026-04-18T14:25:56.887Z</time></trkpt><trkpt lat="43.8445783" lon="12.64998"><ele>143.0</ele><time>2026-04-18T14:25:58.888Z</time></trkpt><trkpt lat="43.8445033" lon="12.64997"><ele>143.0</ele><time>2026-04-18T14:25:59.889Z</time></trkpt><trkpt lat="43.8444283" lon="12.6499517"><ele>143.0</ele><time>2026-04-18T14:26:00.888Z</time></trkpt><trkpt lat="43.8443583" lon="12.64993"><ele>143.0</ele><time>2026-04-18T14:26:01.89Z</time></trkpt><trkpt lat="43.844295" lon="12.649905"><ele>143.0</ele><time>2026-04-18T14:26:02.888Z</time></trkpt><trkpt lat="43.8441883" lon="12.6498467"><ele>143.0</ele><time>2026-04-18T14:26:04.885Z</time></trkpt><trkpt lat="43.8441133" lon="12.64978"><ele>141.66666666666666</ele><time>2026-04-18T14:26:06.886Z</time></trkpt><trkpt lat="43.84405" lon="12.6496933"><ele>140.33333333333331</ele><time>2026-04-18T14:26:08.884Z</time></trkpt><trkpt lat="43.84398" lon="12.6496"><ele>139.0</ele><time>2026-04-18T14:26:10.885Z</time></trkpt><trkpt lat="43.8438967" lon="12.649515"><ele>137.66666666666666</ele><time>2026-04-18T14:26:12.885Z</time></trkpt><trkpt lat="43.8438233" lon="12.6494717"><ele>136.33333333333334</ele><time>2026-04-18T14:26:14.885Z</time></trkpt><trkpt lat="43.8437517" lon="12.64947"><ele>135.0</ele><time>2026-04-18T14:26:17.886Z</time></trkpt><trkpt lat="43.84367" lon="12.6494183"><ele>135.0</ele><time>2026-04-18T14:26:21.885Z</time></trkpt><trkpt lat="43.84361" lon="12.64931"><ele>135.0</ele><time>2026-04-18T14:26:23.886Z</time></trkpt><trkpt lat="43.843545" lon="12.649205"><ele>135.0</ele><time>2026-04-18T14:26:26.885Z</time></trkpt><trkpt lat="43.8434667" lon="12.6491867"><ele>135.0</ele><time>2026-04-18T14:26:50.886Z</time></trkpt><trkpt lat="43.843375" lon="12.6491067"><ele>135.0</ele><time>2026-04-18T14:26:52.886Z</time></trkpt><trkpt lat="43.8432833" lon="12.64901"><ele>135.0</ele><time>2026-04-18T14:26:54.887Z</time></trkpt><trkpt lat="43.8432033" lon="12.648895"><ele>135.0</ele><time>2026-04-18T14:26:56.885Z</time></trkpt><trkpt lat="43.84312" lon="12.6487867"><ele>135.0</ele><time>2026-04-18T14:26:58.886Z</time></trkpt><trkpt lat="43.843045" lon="12.6486833"><ele>135.0</ele><time>2026-04-18T14:27:00.887Z</time></trkpt><trkpt lat="43.8429983" lon="12.6486217"><ele>135.0</ele><time>2026-04-18T14:27:01.885Z</time></trkpt><trkpt lat="43.8429433" lon="12.64856"><ele>134.42857142857142</ele><time>2026-04-18T14:27:02.885Z</time></trkpt><trkpt lat="43.84288" lon="12.6484967"><ele>133.85714285714283</ele><time>2026-04-18T14:27:03.886Z</time></trkpt><trkpt lat="43.8428033" lon="12.6484533"><ele>133.28571428571428</ele><time>2026-04-18T14:27:04.886Z</time></trkpt><trkpt lat="43.8427433" lon="12.6484083"><ele>132.71428571428572</ele><time>2026-04-18T14:27:05.886Z</time></trkpt><trkpt lat="43.8426817" lon="12.6483583"><ele>132.14285714285717</ele><time>2026-04-18T14:27:06.886Z</time></trkpt><trkpt lat="43.842635" lon="12.6482867"><ele>131.57142857142858</ele><time>2026-04-18T14:27:07.886Z</time></trkpt><trkpt lat="43.8425983" lon="12.648205"><ele>131.0</ele><time>2026-04-18T14:27:08.886Z</time></trkpt><trkpt lat="43.8425783" lon="12.6481133"><ele>131.0</ele><time>2026-04-18T14:27:09.885Z</time></trkpt><trkpt lat="43.84257" lon="12.6480133"><ele>131.0</ele><time>2026-04-18T14:27:10.885Z</time></trkpt><trkpt lat="43.8425733" lon="12.6479083"><ele>131.0</ele><time>2026-04-18T14:27:11.887Z</time></trkpt><trkpt lat="43.8425917" lon="12.6478167"><ele>131.0</ele><time>2026-04-18T14:27:12.885Z</time></trkpt><trkpt lat="43.8426217" lon="12.64767"><ele>131.0</ele><time>2026-04-18T14:27:14.885Z</time></trkpt><trkpt lat="43.8425833" lon="12.6475617"><ele>131.0</ele><time>2026-04-18T14:27:16.885Z</time></trkpt><trkpt lat="43.8424833" lon="12.6475333"><ele>130.2</ele><time>2026-04-18T14:27:18.885Z</time></trkpt><trkpt lat="43.8423583" lon="12.6475517"><ele>129.39999999999998</ele><time>2026-04-18T14:27:20.887Z</time></trkpt><trkpt lat="43.8422817" lon="12.6475683"><ele>128.6</ele><time>2026-04-18T14:27:21.886Z</time></trkpt><trkpt lat="43.8422" lon="12.6475783"><ele>127.8</ele><time>2026-04-18T14:27:22.885Z</time></trkpt><trkpt lat="43.8421183" lon="12.647565"><ele>127.0</ele><time>2026-04-18T14:27:23.885Z</time></trkpt><trkpt lat="43.8420283" lon="12.6475317"><ele>127.0</ele><time>2026-04-18T14:27:24.886Z</time></trkpt><trkpt lat="43.8419367" lon="12.6474817"><ele>126.99999999999999</ele><time>2026-04-18T14:27:25.889Z</time></trkpt><trkpt lat="43.84184" lon="12.6474267"><ele>126.99999999999999</ele><time>2026-04-18T14:27:26.885Z</time></trkpt><trkpt lat="43.8417383" lon="12.6473717"><ele>127.0</ele><time>2026-04-18T14:27:27.886Z</time></trkpt><trkpt lat="43.8416467" lon="12.647315"><ele>127.0</ele><time>2026-04-18T14:27:28.889Z</time></trkpt><trkpt lat="43.841565" lon="12.647255"><ele>127.33333333333334</ele><time>2026-04-18T14:27:29.885Z</time></trkpt><trkpt lat="43.8414967" lon="12.6471883"><ele>127.66666666666667</ele><time>2026-04-18T14:27:30.886Z</time></trkpt><trkpt lat="43.8414533" lon="12.647125"><ele>128.0</ele><time>2026-04-18T14:27:31.886Z</time></trkpt><trkpt lat="43.84142" lon="12.647045"><ele>128.33333333333334</ele><time>2026-04-18T14:27:32.886Z</time></trkpt><trkpt lat="43.8414033" lon="12.6469467"><ele>128.66666666666666</ele><time>2026-04-18T14:27:33.888Z</time></trkpt><trkpt lat="43.8414017" lon="12.6468333"><ele>129.0</ele><time>2026-04-18T14:27:34.885Z</time></trkpt><trkpt lat="43.84141" lon="12.6467117"><ele>127.80000000000001</ele><time>2026-04-18T14:27:35.886Z</time></trkpt><trkpt lat="43.8414167" lon="12.6465817"><ele>126.60000000000001</ele><time>2026-04-18T14:27:36.888Z</time></trkpt><trkpt lat="43.8414033" lon="12.6464483"><ele>125.4</ele><time>2026-04-18T14:27:37.889Z</time></trkpt><trkpt lat="43.8413833" lon="12.6463083"><ele>124.2</ele><time>2026-04-18T14:27:38.885Z</time></trkpt><trkpt lat="43.84135" lon="12.646175"><ele>123.0</ele><time>2026-04-18T14:27:39.889Z</time></trkpt><trkpt lat="43.841305" lon="12.6460433"><ele>123.0</ele><time>2026-04-18T14:27:40.885Z</time></trkpt><trkpt lat="43.8412517" lon="12.6459233"><ele>123.00000000000001</ele><time>2026-04-18T14:27:41.885Z</time></trkpt><trkpt lat="43.8411967" lon="12.645805"><ele>123.00000000000001</ele><time>2026-04-18T14:27:42.886Z</time></trkpt><trkpt lat="43.841125" lon="12.6456833"><ele>123.0</ele><time>2026-04-18T14:27:43.887Z</time></trkpt><trkpt lat="43.841055" lon="12.645565"><ele>123.0</ele><time>2026-04-18T14:27:44.886Z</time></trkpt><trkpt lat="43.8409917" lon="12.6454533"><ele>122.4</ele><time>2026-04-18T14:27:45.887Z</time></trkpt><trkpt lat="43.84094" lon="12.6453467"><ele>121.80000000000001</ele><time>2026-04-18T14:27:46.885Z</time></trkpt><trkpt lat="43.840895" lon="12.64524"><ele>121.2</ele><time>2026-04-18T14:27:47.886Z</time></trkpt><trkpt lat="43.8408567" lon="12.6451333"><ele>120.6</ele><time>2026-04-18T14:27:48.887Z</time></trkpt><trkpt lat="43.8408283" lon="12.6450383"><ele>120.0</ele><time>2026-04-18T14:27:49.885Z</time></trkpt><trkpt lat="43.840795" lon="12.6448933"><ele>119.6</ele><time>2026-04-18T14:27:51.888Z</time></trkpt><trkpt lat="43.8408133" lon="12.6447267"><ele>119.2</ele><time>2026-04-18T14:27:53.888Z</time></trkpt><trkpt lat="43.8408183" lon="12.6446167"><ele>118.80000000000001</ele><time>2026-04-18T14:27:54.886Z</time></trkpt><trkpt lat="43.8408183" lon="12.644495"><ele>118.4</ele><time>2026-04-18T14:27:55.886Z</time></trkpt><trkpt lat="43.8408183" lon="12.6443617"><ele>118.0</ele><time>2026-04-18T14:27:56.885Z</time></trkpt><trkpt lat="43.84084" lon="12.6442167"><ele>117.75</ele><time>2026-04-18T14:27:57.888Z</time></trkpt><trkpt lat="43.8408833" lon="12.6440517"><ele>117.5</ele><time>2026-04-18T14:27:58.885Z</time></trkpt><trkpt lat="43.8409383" lon="12.6438667"><ele>117.25</ele><time>2026-04-18T14:27:59.886Z</time></trkpt><trkpt lat="43.8409933" lon="12.64367"><ele>117.0</ele><time>2026-04-18T14:28:00.885Z</time></trkpt><trkpt lat="43.8410467" lon="12.6434733"><ele>118.0</ele><time>2026-04-18T14:28:01.887Z</time></trkpt><trkpt lat="43.841095" lon="12.643285"><ele>119.0</ele><time>2026-04-18T14:28:02.885Z</time></trkpt><trkpt lat="43.8411433" lon="12.6430883"><ele>120.0</ele><time>2026-04-18T14:28:03.886Z</time></trkpt><trkpt lat="43.84119" lon="12.64289"><ele>121.0</ele><time>2026-04-18T14:28:04.886Z</time></trkpt><trkpt lat="43.841235" lon="12.6427"><ele>121.0</ele><time>2026-04-18T14:28:05.889Z</time></trkpt><trkpt lat="43.8412767" lon="12.6425267"><ele>121.0</ele><time>2026-04-18T14:28:06.886Z</time></trkpt><trkpt lat="43.8413083" lon="12.6423617"><ele>121.0</ele><time>2026-04-18T14:28:07.889Z</time></trkpt><trkpt lat="43.8413333" lon="12.642205"><ele>121.0</ele><time>2026-04-18T14:28:08.891Z</time></trkpt><trkpt lat="43.8413467" lon="12.642055"><ele>120.8</ele><time>2026-04-18T14:28:09.888Z</time></trkpt><trkpt lat="43.8413633" lon="12.6419133"><ele>120.6</ele><time>2026-04-18T14:28:10.888Z</time></trkpt><trkpt lat="43.841395" lon="12.64178"><ele>120.4</ele><time>2026-04-18T14:28:11.89Z</time></trkpt><trkpt lat="43.8414467" lon="12.64165"><ele>120.2</ele><time>2026-04-18T14:28:12.888Z</time></trkpt><trkpt lat="43.8415" lon="12.6415"><ele>120.0</ele><time>2026-04-18T14:28:13.886Z</time></trkpt><trkpt lat="43.84154" lon="12.6413467"><ele>120.0</ele><time>2026-04-18T14:28:14.888Z</time></trkpt><trkpt lat="43.841555" lon="12.641195"><ele>120.0</ele><time>2026-04-18T14:28:15.888Z</time></trkpt><trkpt lat="43.841565" lon="12.64105"><ele>120.0</ele><time>2026-04-18T14:28:16.889Z</time></trkpt><trkpt lat="43.8415883" lon="12.640925"><ele>120.0</ele><time>2026-04-18T14:28:17.885Z</time></trkpt><trkpt lat="43.8416267" lon="12.6408133"><ele>120.0</ele><time>2026-04-18T14:28:18.886Z</time></trkpt><trkpt lat="43.8416883" lon="12.64072"><ele>119.5</ele><time>2026-04-18T14:28:19.887Z</time></trkpt><trkpt lat="43.8417883" lon="12.6406533"><ele>119.0</ele><time>2026-04-18T14:28:20.886Z</time></trkpt><trkpt lat="43.8418967" lon="12.6406017"><ele>118.5</ele><time>2026-04-18T14:28:21.886Z</time></trkpt><trkpt lat="43.84201" lon="12.640575"><ele>118.0</ele><time>2026-04-18T14:28:22.885Z</time></trkpt><trkpt lat="43.8421267" lon="12.640575"><ele>119.2</ele><time>2026-04-18T14:28:23.886Z</time></trkpt><trkpt lat="43.8422267" lon="12.6406033"><ele>120.4</ele><time>2026-04-18T14:28:24.887Z</time></trkpt><trkpt lat="43.842305" lon="12.6406583"><ele>121.60000000000001</ele><time>2026-04-18T14:28:25.888Z</time></trkpt><trkpt lat="43.8423717" lon="12.640735"><ele>122.80000000000001</ele><time>2026-04-18T14:28:26.886Z</time></trkpt><trkpt lat="43.8424333" lon="12.6408433"><ele>124.0</ele><time>2026-04-18T14:28:27.888Z</time></trkpt><trkpt lat="43.8425" lon="12.640955"><ele>124.0</ele><time>2026-04-18T14:28:28.89Z</time></trkpt><trkpt lat="43.84258" lon="12.6410733"><ele>124.0</ele><time>2026-04-18T14:28:29.889Z</time></trkpt><trkpt lat="43.8426733" lon="12.6411867"><ele>124.0</ele><time>2026-04-18T14:28:30.889Z</time></trkpt><trkpt lat="43.84278" lon="12.6412867"><ele>124.0</ele><time>2026-04-18T14:28:31.89Z</time></trkpt><trkpt lat="43.842895" lon="12.641385"><ele>127.75</ele><time>2026-04-18T14:28:32.889Z</time></trkpt><trkpt lat="43.8430133" lon="12.6414817"><ele>131.5</ele><time>2026-04-18T14:28:33.89Z</time></trkpt><trkpt lat="43.8431383" lon="12.6415767"><ele>135.25</ele><time>2026-04-18T14:28:34.888Z</time></trkpt><trkpt lat="43.8432683" lon="12.641665"><ele>139.0</ele><time>2026-04-18T14:28:35.89Z</time></trkpt><trkpt lat="43.843405" lon="12.6417433"><ele>140.75</ele><time>2026-04-18T14:28:36.889Z</time></trkpt><trkpt lat="43.8435433" lon="12.641815"><ele>142.5</ele><time>2026-04-18T14:28:37.89Z</time></trkpt><trkpt lat="43.8436817" lon="12.6418833"><ele>144.25</ele><time>2026-04-18T14:28:38.889Z</time></trkpt><trkpt lat="43.8438167" lon="12.64195"><ele>146.0</ele><time>2026-04-18T14:28:39.889Z</time></trkpt><trkpt lat="43.8439517" lon="12.642015"><ele>147.75</ele><time>2026-04-18T14:28:40.888Z</time></trkpt><trkpt lat="43.844085" lon="12.642085"><ele>149.5</ele><time>2026-04-18T14:28:41.888Z</time></trkpt><trkpt lat="43.844215" lon="12.642155"><ele>151.25</ele><time>2026-04-18T14:28:42.889Z</time></trkpt><trkpt lat="43.8443417" lon="12.6422433"><ele>153.0</ele><time>2026-04-18T14:28:43.89Z</time></trkpt><trkpt lat="43.84447" lon="12.64234"><ele>156.75</ele><time>2026-04-18T14:28:44.889Z</time></trkpt><trkpt lat="43.8446" lon="12.6424383"><ele>160.5</ele><time>2026-04-18T14:28:45.889Z</time></trkpt><trkpt lat="43.8447217" lon="12.6425217"><ele>164.25</ele><time>2026-04-18T14:28:46.886Z</time></trkpt><trkpt lat="43.8448333" lon="12.6425733"><ele>168.0</ele><time>2026-04-18T14:28:47.886Z</time></trkpt><trkpt lat="43.8449367" lon="12.6425933"><ele>168.0</ele><time>2026-04-18T14:28:48.884Z</time></trkpt><trkpt lat="43.84504" lon="12.6425617"><ele>168.0</ele><time>2026-04-18T14:28:49.886Z</time></trkpt><trkpt lat="43.84515" lon="12.6424983"><ele>168.0</ele><time>2026-04-18T14:28:50.886Z</time></trkpt><trkpt lat="43.8452567" lon="12.6424317"><ele>168.0</ele><time>2026-04-18T14:28:51.887Z</time></trkpt><trkpt lat="43.845355" lon="12.642375"><ele>168.0</ele><time>2026-04-18T14:28:52.885Z</time></trkpt><trkpt lat="43.845445" lon="12.6423617"><ele>170.33333333333334</ele><time>2026-04-18T14:28:53.884Z</time></trkpt><trkpt lat="43.8455267" lon="12.642385"><ele>172.66666666666666</ele><time>2026-04-18T14:28:54.884Z</time></trkpt><trkpt lat="43.8455833" lon="12.6424567"><ele>175.0</ele><time>2026-04-18T14:28:55.886Z</time></trkpt><trkpt lat="43.84562" lon="12.642565"><ele>177.33333333333331</ele><time>2026-04-18T14:28:56.885Z</time></trkpt><trkpt lat="43.8456467" lon="12.6427017"><ele>179.66666666666666</ele><time>2026-04-18T14:28:57.885Z</time></trkpt><trkpt lat="43.8456867" lon="12.642815"><ele>182.0</ele><time>2026-04-18T14:28:58.888Z</time></trkpt><trkpt lat="43.8457433" lon="12.6429167"><ele>182.33333333333331</ele><time>2026-04-18T14:28:59.887Z</time></trkpt><trkpt lat="43.8458033" lon="12.643005"><ele>182.66666666666666</ele><time>2026-04-18T14:29:00.888Z</time></trkpt><trkpt lat="43.84587" lon="12.64306"><ele>183.0</ele><time>2026-04-18T14:29:01.888Z</time></trkpt><trkpt lat="43.8459483" lon="12.643085"><ele>183.33333333333334</ele><time>2026-04-18T14:29:02.887Z</time></trkpt><trkpt lat="43.8460333" lon="12.6430833"><ele>183.66666666666669</ele><time>2026-04-18T14:29:03.887Z</time></trkpt><trkpt lat="43.8461283" lon="12.6430467"><ele>184.0</ele><time>2026-04-18T14:29:04.888Z</time></trkpt><trkpt lat="43.84624" lon="12.64298"><ele>187.0</ele><time>2026-04-18T14:29:05.889Z</time></trkpt><trkpt lat="43.8463583" lon="12.6429133"><ele>190.0</ele><time>2026-04-18T14:29:06.887Z</time></trkpt><trkpt lat="43.846485" lon="12.6428483"><ele>193.0</ele><time>2026-04-18T14:29:07.889Z</time></trkpt><trkpt lat="43.846615" lon="12.64279"><ele>196.0</ele><time>2026-04-18T14:29:08.889Z</time></trkpt><trkpt lat="43.846745" lon="12.642735"><ele>200.4</ele><time>2026-04-18T14:29:09.888Z</time></trkpt><trkpt lat="43.8468717" lon="12.6426767"><ele>204.8</ele><time>2026-04-18T14:29:10.888Z</time></trkpt><trkpt lat="43.8469783" lon="12.642635"><ele>209.20000000000002</ele><time>2026-04-18T14:29:11.887Z</time></trkpt><trkpt lat="43.8470583" lon="12.642615"><ele>213.60000000000002</ele><time>2026-04-18T14:29:12.888Z</time></trkpt><trkpt lat="43.8471217" lon="12.6426183"><ele>218.0</ele><time>2026-04-18T14:29:13.888Z</time></trkpt><trkpt lat="43.8471983" lon="12.642715"><ele>218.28571428571428</ele><time>2026-04-18T14:29:15.888Z</time></trkpt><trkpt lat="43.8471917" lon="12.6428217"><ele>218.57142857142858</ele><time>2026-04-18T14:29:16.885Z</time></trkpt><trkpt lat="43.8471933" lon="12.6429283"><ele>218.85714285714283</ele><time>2026-04-18T14:29:17.886Z</time></trkpt><trkpt lat="43.8472183" lon="12.64302"><ele>219.14285714285714</ele><time>2026-04-18T14:29:18.886Z</time></trkpt><trkpt lat="43.84726" lon="12.6430967"><ele>219.42857142857142</ele><time>2026-04-18T14:29:19.887Z</time></trkpt><trkpt lat="43.8473183" lon="12.6431567"><ele>219.7142857142857</ele><time>2026-04-18T14:29:20.888Z</time></trkpt><trkpt lat="43.8473783" lon="12.6432117"><ele>220.0</ele><time>2026-04-18T14:29:21.885Z</time></trkpt><trkpt lat="43.8474467" lon="12.643255"><ele>220.0</ele><time>2026-04-18T14:29:22.886Z</time></trkpt><trkpt lat="43.847535" lon="12.6432783"><ele>220.0</ele><time>2026-04-18T14:29:23.884Z</time></trkpt><trkpt lat="43.8476267" lon="12.6432933"><ele>220.0</ele><time>2026-04-18T14:29:24.884Z</time></trkpt><trkpt lat="43.8477" lon="12.6433067"><ele>220.0</ele><time>2026-04-18T14:29:25.888Z</time></trkpt><trkpt lat="43.8478183" lon="12.6432833"><ele>220.0</ele><time>2026-04-18T14:29:27.889Z</time></trkpt><trkpt lat="43.8478983" lon="12.6431433"><ele>220.99999999999997</ele><time>2026-04-18T14:29:29.889Z</time></trkpt><trkpt lat="43.84793" lon="12.6430367"><ele>222.0</ele><time>2026-04-18T14:29:30.888Z</time></trkpt><trkpt lat="43.8479467" lon="12.64292"><ele>223.0</ele><time>2026-04-18T14:29:31.889Z</time></trkpt><trkpt lat="43.847945" lon="12.6427833"><ele>224.0</ele><time>2026-04-18T14:29:32.886Z</time></trkpt><trkpt lat="43.8479383" lon="12.64266"><ele>224.99999999999997</ele><time>2026-04-18T14:29:33.884Z</time></trkpt><trkpt lat="43.8479417" lon="12.64256"><ele>226.0</ele><time>2026-04-18T14:29:34.889Z</time></trkpt><trkpt lat="43.84796" lon="12.6424717"><ele>226.99999999999997</ele><time>2026-04-18T14:29:35.885Z</time></trkpt><trkpt lat="43.8479983" lon="12.6423767"><ele>228.0</ele><time>2026-04-18T14:29:36.888Z</time></trkpt><trkpt lat="43.84805" lon="12.6422933"><ele>229.0</ele><time>2026-04-18T14:29:37.887Z</time></trkpt><trkpt lat="43.8481233" lon="12.6422317"><ele>230.0</ele><time>2026-04-18T14:29:38.885Z</time></trkpt><trkpt lat="43.84821" lon="12.64218"><ele>230.99999999999997</ele><time>2026-04-18T14:29:39.889Z</time></trkpt><trkpt lat="43.8483117" lon="12.642155"><ele>232.0</ele><time>2026-04-18T14:29:40.887Z</time></trkpt><trkpt lat="43.8484117" lon="12.6421417"><ele>232.2</ele><time>2026-04-18T14:29:41.889Z</time></trkpt><trkpt lat="43.8485133" lon="12.64212"><ele>232.39999999999998</ele><time>2026-04-18T14:29:42.887Z</time></trkpt><trkpt lat="43.84861" lon="12.642085"><ele>232.60000000000002</ele><time>2026-04-18T14:29:43.886Z</time></trkpt><trkpt lat="43.848705" lon="12.642025"><ele>232.8</ele><time>2026-04-18T14:29:44.885Z</time></trkpt><trkpt lat="43.8488017" lon="12.641945"><ele>233.0</ele><time>2026-04-18T14:29:45.886Z</time></trkpt><trkpt lat="43.8489017" lon="12.6418533"><ele>235.75</ele><time>2026-04-18T14:29:46.885Z</time></trkpt><trkpt lat="43.8489983" lon="12.6417583"><ele>238.5</ele><time>2026-04-18T14:29:47.884Z</time></trkpt><trkpt lat="43.8490933" lon="12.641655"><ele>241.25</ele><time>2026-04-18T14:29:48.886Z</time></trkpt><trkpt lat="43.8491883" lon="12.6415383"><ele>244.0</ele><time>2026-04-18T14:29:49.885Z</time></trkpt><trkpt lat="43.849275" lon="12.641415"><ele>245.25</ele><time>2026-04-18T14:29:50.885Z</time></trkpt><trkpt lat="43.8493583" lon="12.6412733"><ele>246.5</ele><time>2026-04-18T14:29:51.886Z</time></trkpt><trkpt lat="43.8494433" lon="12.6411233"><ele>247.75</ele><time>2026-04-18T14:29:52.886Z</time></trkpt><trkpt lat="43.8495317" lon="12.640985"><ele>249.0</ele><time>2026-04-18T14:29:53.884Z</time></trkpt><trkpt lat="43.8496283" lon="12.64087"><ele>250.6</ele><time>2026-04-18T14:29:54.886Z</time></trkpt><trkpt lat="43.8497217" lon="12.6407717"><ele>252.2</ele><time>2026-04-18T14:29:55.885Z</time></trkpt><trkpt lat="43.849815" lon="12.6406967"><ele>253.79999999999998</ele><time>2026-04-18T14:29:56.885Z</time></trkpt><trkpt lat="43.8498983" lon="12.640635"><ele>255.39999999999998</ele><time>2026-04-18T14:29:57.889Z</time></trkpt><trkpt lat="43.8499733" lon="12.6405867"><ele>257.0</ele><time>2026-04-18T14:29:58.886Z</time></trkpt><trkpt lat="43.8500333" lon="12.6405567"><ele>258.4</ele><time>2026-04-18T14:29:59.885Z</time></trkpt><trkpt lat="43.8501567" lon="12.640555"><ele>259.79999999999995</ele><time>2026-04-18T14:30:01.885Z</time></trkpt><trkpt lat="43.8502367" lon="12.6405983"><ele>261.2</ele><time>2026-04-18T14:30:02.885Z</time></trkpt><trkpt lat="43.8503267" lon="12.64066"><ele>262.59999999999997</ele><time>2026-04-18T14:30:03.885Z</time></trkpt><trkpt lat="43.850435" lon="12.6407067"><ele>264.0</ele><time>2026-04-18T14:30:04.885Z</time></trkpt><trkpt lat="43.85055" lon="12.6407567"><ele>264.0</ele><time>2026-04-18T14:30:05.886Z</time></trkpt><trkpt lat="43.8506617" lon="12.6407967"><ele>264.0</ele><time>2026-04-18T14:30:06.886Z</time></trkpt><trkpt lat="43.8507567" lon="12.6408283"><ele>264.0</ele><time>2026-04-18T14:30:07.886Z</time></trkpt><trkpt lat="43.8508367" lon="12.6408667"><ele>264.0</ele><time>2026-04-18T14:30:08.885Z</time></trkpt><trkpt lat="43.8508917" lon="12.6409183"><ele>264.0</ele><time>2026-04-18T14:30:09.885Z</time></trkpt><trkpt lat="43.85092" lon="12.641"><ele>264.0</ele><time>2026-04-18T14:30:10.885Z</time></trkpt><trkpt lat="43.850945" lon="12.6411167"><ele>265.2857142857143</ele><time>2026-04-18T14:30:11.886Z</time></trkpt><trkpt lat="43.8509617" lon="12.64125"><ele>266.57142857142856</ele><time>2026-04-18T14:30:12.889Z</time></trkpt><trkpt lat="43.8509833" lon="12.641355"><ele>267.8571428571429</ele><time>2026-04-18T14:30:13.887Z</time></trkpt><trkpt lat="43.851005" lon="12.6414517"><ele>269.1428571428571</ele><time>2026-04-18T14:30:14.884Z</time></trkpt><trkpt lat="43.85103" lon="12.6415417"><ele>270.42857142857144</ele><time>2026-04-18T14:30:15.887Z</time></trkpt><trkpt lat="43.8510667" lon="12.6416167"><ele>271.7142857142857</ele><time>2026-04-18T14:30:16.888Z</time></trkpt><trkpt lat="43.8511083" lon="12.641685"><ele>273.0</ele><time>2026-04-18T14:30:17.885Z</time></trkpt><trkpt lat="43.85116" lon="12.641745"><ele>273.0</ele><time>2026-04-18T14:30:18.885Z</time></trkpt><trkpt lat="43.8512183" lon="12.6417983"><ele>273.0</ele><time>2026-04-18T14:30:19.885Z</time></trkpt><trkpt lat="43.85128" lon="12.6418533"><ele>273.0</ele><time>2026-04-18T14:30:20.885Z</time></trkpt><trkpt lat="43.8513433" lon="12.64191"><ele>273.0</ele><time>2026-04-18T14:30:21.89Z</time></trkpt><trkpt lat="43.8514083" lon="12.6419633"><ele>273.0</ele><time>2026-04-18T14:30:22.887Z</time></trkpt><trkpt lat="43.8514733" lon="12.642025"><ele>273.0</ele><time>2026-04-18T14:30:23.886Z</time></trkpt><trkpt lat="43.8515383" lon="12.64209"><ele>272.0</ele><time>2026-04-18T14:30:24.886Z</time></trkpt><trkpt lat="43.8516017" lon="12.642155"><ele>271.0</ele><time>2026-04-18T14:30:25.886Z</time></trkpt><trkpt lat="43.8516517" lon="12.642225"><ele>270.0</ele><time>2026-04-18T14:30:26.884Z</time></trkpt><trkpt lat="43.851725" lon="12.6423233"><ele>269.0</ele><time>2026-04-18T14:30:28.886Z</time></trkpt><trkpt lat="43.8518333" lon="12.6424083"><ele>268.0</ele><time>2026-04-18T14:30:30.885Z</time></trkpt><trkpt lat="43.8519017" lon="12.6424383"><ele>267.0</ele><time>2026-04-18T14:30:31.886Z</time></trkpt><trkpt lat="43.8519767" lon="12.6424583"><ele>267.0</ele><time>2026-04-18T14:30:32.885Z</time></trkpt><trkpt lat="43.852055" lon="12.6424667"><ele>267.0</ele><time>2026-04-18T14:30:33.886Z</time></trkpt><trkpt lat="43.8521383" lon="12.6424633"><ele>267.0</ele><time>2026-04-18T14:30:34.887Z</time></trkpt><trkpt lat="43.85222" lon="12.6424833"><ele>267.0</ele><time>2026-04-18T14:30:35.888Z</time></trkpt><trkpt lat="43.8523067" lon="12.6425083"><ele>267.0</ele><time>2026-04-18T14:30:36.886Z</time></trkpt><trkpt lat="43.8524" lon="12.64257"><ele>267.0</ele><time>2026-04-18T14:30:37.885Z</time></trkpt><trkpt lat="43.8524983" lon="12.6426683"><ele>265.75</ele><time>2026-04-18T14:30:38.884Z</time></trkpt><trkpt lat="43.852585" lon="12.642815"><ele>264.5</ele><time>2026-04-18T14:30:39.885Z</time></trkpt><trkpt lat="43.8526533" lon="12.6429533"><ele>263.25</ele><time>2026-04-18T14:30:40.887Z</time></trkpt><trkpt lat="43.852715" lon="12.6430967"><ele>262.0</ele><time>2026-04-18T14:30:41.886Z</time></trkpt><trkpt lat="43.8527767" lon="12.643215"><ele>264.25</ele><time>2026-04-18T14:30:42.887Z</time></trkpt><trkpt lat="43.8528467" lon="12.643335"><ele>266.5</ele><time>2026-04-18T14:30:43.885Z</time></trkpt><trkpt lat="43.8529267" lon="12.6434533"><ele>268.75</ele><time>2026-04-18T14:30:44.885Z</time></trkpt><trkpt lat="43.8530233" lon="12.64356"><ele>271.0</ele><time>2026-04-18T14:30:45.888Z</time></trkpt><trkpt lat="43.8531317" lon="12.6436617"><ele>271.0</ele><time>2026-04-18T14:30:46.886Z</time></trkpt><trkpt lat="43.853235" lon="12.6437533"><ele>271.0</ele><time>2026-04-18T14:30:47.889Z</time></trkpt><trkpt lat="43.853335" lon="12.6438133"><ele>271.0</ele><time>2026-04-18T14:30:48.888Z</time></trkpt><trkpt lat="43.853435" lon="12.6438517"><ele>271.0</ele><time>2026-04-18T14:30:49.888Z</time></trkpt><trkpt lat="43.8535383" lon="12.6438733"><ele>271.0</ele><time>2026-04-18T14:30:50.889Z</time></trkpt><trkpt lat="43.8536517" lon="12.6438833"><ele>274.0</ele><time>2026-04-18T14:30:51.886Z</time></trkpt><trkpt lat="43.85377" lon="12.6438733"><ele>277.0</ele><time>2026-04-18T14:30:52.885Z</time></trkpt><trkpt lat="43.8538867" lon="12.64386"><ele>280.0</ele><time>2026-04-18T14:30:53.888Z</time></trkpt><trkpt lat="43.8539917" lon="12.6438517"><ele>283.0</ele><time>2026-04-18T14:30:54.886Z</time></trkpt><trkpt lat="43.854085" lon="12.64386"><ele>286.0</ele><time>2026-04-18T14:30:55.886Z</time></trkpt><trkpt lat="43.8541633" lon="12.6438933"><ele>286.0</ele><time>2026-04-18T14:30:56.885Z</time></trkpt><trkpt lat="43.8542367" lon="12.64394"><ele>286.0</ele><time>2026-04-18T14:30:57.886Z</time></trkpt><trkpt lat="43.8543183" lon="12.6440167"><ele>286.0</ele><time>2026-04-18T14:30:58.885Z</time></trkpt><trkpt lat="43.8543983" lon="12.644135"><ele>286.0</ele><time>2026-04-18T14:30:59.886Z</time></trkpt><trkpt lat="43.8545" lon="12.6442333"><ele>286.0</ele><time>2026-04-18T14:31:00.886Z</time></trkpt><trkpt lat="43.8546133" lon="12.6443417"><ele>289.0</ele><time>2026-04-18T14:31:01.886Z</time></trkpt><trkpt lat="43.8547383" lon="12.6444433"><ele>292.0</ele><time>2026-04-18T14:31:02.886Z</time></trkpt><trkpt lat="43.8548717" lon="12.6445417"><ele>295.0</ele><time>2026-04-18T14:31:03.887Z</time></trkpt><trkpt lat="43.8549983" lon="12.6446433"><ele>298.0</ele><time>2026-04-18T14:31:04.885Z</time></trkpt><trkpt lat="43.8551167" lon="12.6447467"><ele>302.4</ele><time>2026-04-18T14:31:05.886Z</time></trkpt><trkpt lat="43.8552217" lon="12.6448333"><ele>306.8</ele><time>2026-04-18T14:31:06.885Z</time></trkpt><trkpt lat="43.8553233" lon="12.644905"><ele>311.2</ele><time>2026-04-18T14:31:07.887Z</time></trkpt><trkpt lat="43.8554183" lon="12.6449617"><ele>315.6</ele><time>2026-04-18T14:31:08.885Z</time></trkpt><trkpt lat="43.8555083" lon="12.645025"><ele>320.0</ele><time>2026-04-18T14:31:09.887Z</time></trkpt><trkpt lat="43.855595" lon="12.6450967"><ele>320.0</ele><time>2026-04-18T14:31:10.886Z</time></trkpt><trkpt lat="43.85567" lon="12.64518"><ele>320.0</ele><time>2026-04-18T14:31:11.885Z</time></trkpt><trkpt lat="43.8557267" lon="12.6453017"><ele>320.0</ele><time>2026-04-18T14:31:12.885Z</time></trkpt><trkpt lat="43.8557583" lon="12.6454633"><ele>320.0</ele><time>2026-04-18T14:31:13.886Z</time></trkpt><trkpt lat="43.8557583" lon="12.6456333"><ele>320.0</ele><time>2026-04-18T14:31:14.886Z</time></trkpt><trkpt lat="43.8557083" lon="12.6458067"><ele>319.5</ele><time>2026-04-18T14:31:15.888Z</time></trkpt><trkpt lat="43.8556317" lon="12.6459717"><ele>319.0</ele><time>2026-04-18T14:31:16.889Z</time></trkpt><trkpt lat="43.8555533" lon="12.6461317"><ele>318.5</ele><time>2026-04-18T14:31:17.885Z</time></trkpt><trkpt lat="43.85548" lon="12.64628"><ele>318.0</ele><time>2026-04-18T14:31:18.887Z</time></trkpt><trkpt lat="43.8554233" lon="12.6464133"><ele>320.6</ele><time>2026-04-18T14:31:19.887Z</time></trkpt><trkpt lat="43.85538" lon="12.6465333"><ele>323.20000000000005</ele><time>2026-04-18T14:31:20.885Z</time></trkpt><trkpt lat="43.8553533" lon="12.6466617"><ele>325.8</ele><time>2026-04-18T14:31:21.885Z</time></trkpt><trkpt lat="43.8553533" lon="12.6468167"><ele>328.40000000000003</ele><time>2026-04-18T14:31:22.886Z</time></trkpt><trkpt lat="43.8553583" lon="12.6469867"><ele>331.0</ele><time>2026-04-18T14:31:23.886Z</time></trkpt><trkpt lat="43.8553567" lon="12.647175"><ele>332.25</ele><time>2026-04-18T14:31:24.886Z</time></trkpt><trkpt lat="43.8553433" lon="12.6473633"><ele>333.5</ele><time>2026-04-18T14:31:25.886Z</time></trkpt><trkpt lat="43.8553083" lon="12.6475367"><ele>334.75</ele><time>2026-04-18T14:31:26.885Z</time></trkpt><trkpt lat="43.8552433" lon="12.6476933"><ele>336.0</ele><time>2026-04-18T14:31:27.886Z</time></trkpt><trkpt lat="43.85516" lon="12.6478367"><ele>336.0</ele><time>2026-04-18T14:31:28.886Z</time></trkpt><trkpt lat="43.8550733" lon="12.6479517"><ele>336.0</ele><time>2026-04-18T14:31:29.885Z</time></trkpt><trkpt lat="43.8549817" lon="12.6480517"><ele>336.0</ele><time>2026-04-18T14:31:30.886Z</time></trkpt><trkpt lat="43.8548933" lon="12.6481367"><ele>336.0</ele><time>2026-04-18T14:31:31.886Z</time></trkpt><trkpt lat="43.85481" lon="12.6482"><ele>336.0</ele><time>2026-04-18T14:31:32.886Z</time></trkpt><trkpt lat="43.854735" lon="12.648245"><ele>336.0</ele><time>2026-04-18T14:31:33.889Z</time></trkpt><trkpt lat="43.8546333" lon="12.6482967"><ele>336.0</ele><time>2026-04-18T14:31:35.887Z</time></trkpt><trkpt lat="43.8545683" lon="12.648275"><ele>336.0</ele><time>2026-04-18T14:32:45.889Z</time></trkpt><trkpt lat="43.854505" lon="12.6482467"><ele>336.0</ele><time>2026-04-18T14:32:48.889Z</time></trkpt><trkpt lat="43.8545667" lon="12.64827"><ele>336.0</ele><time>2026-04-18T14:35:47.885Z</time></trkpt><trkpt lat="43.8546133" lon="12.6483433"><ele>336.0</ele><time>2026-04-18T14:36:03.888Z</time></trkpt><trkpt lat="43.8546317" lon="12.6484367"><ele>336.0</ele><time>2026-04-18T14:36:05.885Z</time></trkpt><trkpt lat="43.8546833" lon="12.6485567"><ele>337.0</ele><time>2026-04-18T14:36:07.886Z</time></trkpt><trkpt lat="43.854755" lon="12.648685"><ele>338.0</ele><time>2026-04-18T14:36:09.886Z</time></trkpt><trkpt lat="43.8548333" lon="12.6488133"><ele>339.0</ele><time>2026-04-18T14:36:11.886Z</time></trkpt><trkpt lat="43.854905" lon="12.64893"><ele>340.0</ele><time>2026-04-18T14:36:13.889Z</time></trkpt><trkpt lat="43.8549867" lon="12.6490467"><ele>340.0</ele><time>2026-04-18T14:36:15.886Z</time></trkpt><trkpt lat="43.8550317" lon="12.6491083"><ele>340.0</ele><time>2026-04-18T14:36:16.886Z</time></trkpt><trkpt lat="43.8550733" lon="12.6491767"><ele>340.0</ele><time>2026-04-18T14:36:17.888Z</time></trkpt><trkpt lat="43.855145" lon="12.6493283"><ele>340.0</ele><time>2026-04-18T14:36:19.886Z</time></trkpt><trkpt lat="43.8551733" lon="12.64941"><ele>340.0</ele><time>2026-04-18T14:36:20.886Z</time></trkpt><trkpt lat="43.8552167" lon="12.6495567"><ele>340.0</ele><time>2026-04-18T14:36:22.886Z</time></trkpt><trkpt lat="43.8552383" lon="12.649695"><ele>343.5</ele><time>2026-04-18T14:36:24.888Z</time></trkpt><trkpt lat="43.8552633" lon="12.6498517"><ele>347.0</ele><time>2026-04-18T14:36:26.889Z</time></trkpt><trkpt lat="43.8552833" lon="12.6499433"><ele>350.5</ele><time>2026-04-18T14:36:27.889Z</time></trkpt><trkpt lat="43.8553083" lon="12.65004"><ele>354.0</ele><time>2026-04-18T14:36:28.889Z</time></trkpt><trkpt lat="43.855335" lon="12.65013"><ele>357.5</ele><time>2026-04-18T14:36:29.889Z</time></trkpt><trkpt lat="43.8553617" lon="12.6502217"><ele>361.0</ele><time>2026-04-18T14:36:30.889Z</time></trkpt><trkpt lat="43.85539" lon="12.65031"><ele>361.0</ele><time>2026-04-18T14:36:31.889Z</time></trkpt><trkpt lat="43.8554133" lon="12.6503983"><ele>361.0</ele><time>2026-04-18T14:36:32.885Z</time></trkpt><trkpt lat="43.855435" lon="12.6504933"><ele>361.0</ele><time>2026-04-18T14:36:33.886Z</time></trkpt><trkpt lat="43.8554583" lon="12.6506033"><ele>361.0</ele><time>2026-04-18T14:36:34.886Z</time></trkpt><trkpt lat="43.8554833" lon="12.65073"><ele>361.0</ele><time>2026-04-18T14:36:35.887Z</time></trkpt><trkpt lat="43.8555017" lon="12.6508667"><ele>361.0</ele><time>2026-04-18T14:36:36.886Z</time></trkpt><trkpt lat="43.85552" lon="12.6510033"><ele>361.16666666666663</ele><time>2026-04-18T14:36:37.887Z</time></trkpt><trkpt lat="43.8555417" lon="12.65113"><ele>361.3333333333333</ele><time>2026-04-18T14:36:38.887Z</time></trkpt><trkpt lat="43.8555633" lon="12.6512433"><ele>361.5</ele><time>2026-04-18T14:36:39.886Z</time></trkpt><trkpt lat="43.8555867" lon="12.6513533"><ele>361.6666666666667</ele><time>2026-04-18T14:36:40.887Z</time></trkpt><trkpt lat="43.8556083" lon="12.6514633"><ele>361.83333333333337</ele><time>2026-04-18T14:36:41.886Z</time></trkpt><trkpt lat="43.8556233" lon="12.651565"><ele>362.0</ele><time>2026-04-18T14:36:42.887Z</time></trkpt><trkpt lat="43.85563" lon="12.6516583"><ele>362.0</ele><time>2026-04-18T14:36:43.89Z</time></trkpt><trkpt lat="43.8556267" lon="12.65181"><ele>362.0</ele><time>2026-04-18T14:36:45.886Z</time></trkpt><trkpt lat="43.8556183" lon="12.6518983"><ele>362.0</ele><time>2026-04-18T14:36:48.887Z</time></trkpt><trkpt lat="43.855615" lon="12.6520117"><ele>362.0</ele><time>2026-04-18T14:37:00.89Z</time></trkpt><trkpt lat="43.8555917" lon="12.6521217"><ele>362.0</ele><time>2026-04-18T14:37:13.89Z</time></trkpt><trkpt lat="43.85559" lon="12.65222"><ele>362.0</ele><time>2026-04-18T14:37:15.888Z</time></trkpt><trkpt lat="43.85559" lon="12.6523267"><ele>362.0</ele><time>2026-04-18T14:37:46.885Z</time></trkpt><trkpt lat="43.8555933" lon="12.6524183"><ele>362.0</ele><time>2026-04-18T14:37:48.887Z</time></trkpt><trkpt lat="43.8555917" lon="12.6525517"><ele>362.0</ele><time>2026-04-18T14:37:50.889Z</time></trkpt><trkpt lat="43.8555883" lon="12.652645"><ele>362.0</ele><time>2026-04-18T14:37:51.884Z</time></trkpt><trkpt lat="43.85558" lon="12.652745"><ele>362.0</ele><time>2026-04-18T14:37:52.888Z</time></trkpt><trkpt lat="43.855575" lon="12.6528533"><ele>362.0</ele><time>2026-04-18T14:37:53.981Z</time></trkpt><trkpt lat="43.85557" lon="12.6529767"><ele>363.0</ele><time>2026-04-18T14:37:54.884Z</time></trkpt><trkpt lat="43.8555717" lon="12.653105"><ele>364.0</ele><time>2026-04-18T14:37:55.885Z</time></trkpt><trkpt lat="43.8555733" lon="12.6532383"><ele>365.0</ele><time>2026-04-18T14:37:56.885Z</time></trkpt><trkpt lat="43.855575" lon="12.6533733"><ele>366.0</ele><time>2026-04-18T14:37:57.885Z</time></trkpt><trkpt lat="43.8555767" lon="12.6535117"><ele>367.0</ele><time>2026-04-18T14:37:58.885Z</time></trkpt><trkpt lat="43.8555767" lon="12.6536417"><ele>368.5</ele><time>2026-04-18T14:37:59.886Z</time></trkpt><trkpt lat="43.8555833" lon="12.65376"><ele>370.0</ele><time>2026-04-18T14:38:00.885Z</time></trkpt><trkpt lat="43.8555883" lon="12.65387"><ele>371.5</ele><time>2026-04-18T14:38:01.886Z</time></trkpt><trkpt lat="43.8556067" lon="12.6539817"><ele>373.0</ele><time>2026-04-18T14:38:02.884Z</time></trkpt><trkpt lat="43.855635" lon="12.6540983"><ele>374.5</ele><time>2026-04-18T14:38:03.885Z</time></trkpt><trkpt lat="43.8556783" lon="12.6542083"><ele>376.0</ele><time>2026-04-18T14:38:04.885Z</time></trkpt><trkpt lat="43.8557267" lon="12.654315"><ele>376.0</ele><time>2026-04-18T14:38:05.887Z</time></trkpt><trkpt lat="43.8557783" lon="12.654405"><ele>376.0</ele><time>2026-04-18T14:38:06.886Z</time></trkpt><trkpt lat="43.8558867" lon="12.6545617"><ele>376.0</ele><time>2026-04-18T14:38:08.888Z</time></trkpt><trkpt lat="43.8559567" lon="12.65462"><ele>376.0</ele><time>2026-04-18T14:38:09.886Z</time></trkpt><trkpt lat="43.856035" lon="12.654675"><ele>376.0</ele><time>2026-04-18T14:38:10.885Z</time></trkpt><trkpt lat="43.8561167" lon="12.6547283"><ele>376.3333333333333</ele><time>2026-04-18T14:38:11.886Z</time></trkpt><trkpt lat="43.856205" lon="12.6547733"><ele>376.66666666666663</ele><time>2026-04-18T14:38:12.886Z</time></trkpt><trkpt lat="43.856295" lon="12.6548083"><ele>377.0</ele><time>2026-04-18T14:38:13.886Z</time></trkpt><trkpt lat="43.856375" lon="12.6548533"><ele>377.3333333333333</ele><time>2026-04-18T14:38:14.885Z</time></trkpt><trkpt lat="43.8564567" lon="12.6549017"><ele>377.6666666666667</ele><time>2026-04-18T14:38:15.885Z</time></trkpt><trkpt lat="43.8565283" lon="12.6549533"><ele>378.0</ele><time>2026-04-18T14:38:16.885Z</time></trkpt><trkpt lat="43.8566017" lon="12.6550183"><ele>378.0</ele><time>2026-04-18T14:38:17.885Z</time></trkpt><trkpt lat="43.856655" lon="12.6551067"><ele>378.0</ele><time>2026-04-18T14:38:18.885Z</time></trkpt><trkpt lat="43.856685" lon="12.65521"><ele>378.0</ele><time>2026-04-18T14:38:19.885Z</time></trkpt><trkpt lat="43.8566933" lon="12.6553367"><ele>378.0</ele><time>2026-04-18T14:38:20.885Z</time></trkpt><trkpt lat="43.8567033" lon="12.6554567"><ele>378.0</ele><time>2026-04-18T14:38:21.886Z</time></trkpt><trkpt lat="43.8567" lon="12.6556033"><ele>378.0</ele><time>2026-04-18T14:38:22.886Z</time></trkpt><trkpt lat="43.8566983" lon="12.6557483"><ele>376.2</ele><time>2026-04-18T14:38:23.888Z</time></trkpt><trkpt lat="43.8567033" lon="12.65589"><ele>374.4</ele><time>2026-04-18T14:38:24.888Z</time></trkpt><trkpt lat="43.8567117" lon="12.6560233"><ele>372.59999999999997</ele><time>2026-04-18T14:38:25.885Z</time></trkpt><trkpt lat="43.856735" lon="12.6561517"><ele>370.79999999999995</ele><time>2026-04-18T14:38:26.889Z</time></trkpt><trkpt lat="43.8567683" lon="12.6562683"><ele>369.0</ele><time>2026-04-18T14:38:27.885Z</time></trkpt><trkpt lat="43.8568133" lon="12.6563717"><ele>369.0</ele><time>2026-04-18T14:38:28.885Z</time></trkpt><trkpt lat="43.85687" lon="12.65646"><ele>369.0</ele><time>2026-04-18T14:38:29.886Z</time></trkpt><trkpt lat="43.85694" lon="12.6565283"><ele>369.0</ele><time>2026-04-18T14:38:30.885Z</time></trkpt><trkpt lat="43.8570167" lon="12.6565783"><ele>369.0</ele><time>2026-04-18T14:38:31.888Z</time></trkpt><trkpt lat="43.8570883" lon="12.656625"><ele>369.0</ele><time>2026-04-18T14:38:32.885Z</time></trkpt><trkpt lat="43.8571533" lon="12.6566717"><ele>369.0</ele><time>2026-04-18T14:38:33.885Z</time></trkpt><trkpt lat="43.8572133" lon="12.656725"><ele>369.0</ele><time>2026-04-18T14:38:34.885Z</time></trkpt><trkpt lat="43.8572633" lon="12.6567883"><ele>369.0</ele><time>2026-04-18T14:38:35.885Z</time></trkpt><trkpt lat="43.85732" lon="12.656925"><ele>369.0</ele><time>2026-04-18T14:38:37.886Z</time></trkpt><trkpt lat="43.857275" lon="12.6570867"><ele>369.0</ele><time>2026-04-18T14:38:39.885Z</time></trkpt><trkpt lat="43.8571783" lon="12.6572783"><ele>370.1666666666667</ele><time>2026-04-18T14:38:41.884Z</time></trkpt><trkpt lat="43.85713" lon="12.6573617"><ele>371.3333333333333</ele><time>2026-04-18T14:38:42.886Z</time></trkpt><trkpt lat="43.8570917" lon="12.65745"><ele>372.5</ele><time>2026-04-18T14:38:43.885Z</time></trkpt><trkpt lat="43.857065" lon="12.6575517"><ele>373.66666666666663</ele><time>2026-04-18T14:38:44.885Z</time></trkpt><trkpt lat="43.8570633" lon="12.6576617"><ele>374.8333333333333</ele><time>2026-04-18T14:38:45.887Z</time></trkpt><trkpt lat="43.8570983" lon="12.6577983"><ele>376.0</ele><time>2026-04-18T14:38:46.885Z</time></trkpt><trkpt lat="43.857145" lon="12.6579283"><ele>377.4</ele><time>2026-04-18T14:38:47.885Z</time></trkpt><trkpt lat="43.8572083" lon="12.6580383"><ele>378.8</ele><time>2026-04-18T14:38:48.885Z</time></trkpt><trkpt lat="43.8572633" lon="12.6581367"><ele>380.2</ele><time>2026-04-18T14:38:49.885Z</time></trkpt><trkpt lat="43.85732" lon="12.6582283"><ele>381.59999999999997</ele><time>2026-04-18T14:38:50.885Z</time></trkpt><trkpt lat="43.8573867" lon="12.658315"><ele>383.0</ele><time>2026-04-18T14:38:51.885Z</time></trkpt><trkpt lat="43.85745" lon="12.6584083"><ele>383.0</ele><time>2026-04-18T14:38:52.886Z</time></trkpt><trkpt lat="43.8575167" lon="12.6584967"><ele>383.0</ele><time>2026-04-18T14:38:53.884Z</time></trkpt><trkpt lat="43.8575733" lon="12.6585867"><ele>383.0</ele><time>2026-04-18T14:38:54.886Z</time></trkpt><trkpt lat="43.857625" lon="12.658675"><ele>383.0</ele><time>2026-04-18T14:38:55.889Z</time></trkpt><trkpt lat="43.85767" lon="12.6587667"><ele>383.0</ele><time>2026-04-18T14:38:56.884Z</time></trkpt><trkpt lat="43.8577083" lon="12.6588617"><ele>383.0</ele><time>2026-04-18T14:38:57.888Z</time></trkpt><trkpt lat="43.8577283" lon="12.6589633"><ele>379.0</ele><time>2026-04-18T14:38:58.885Z</time></trkpt><trkpt lat="43.8577383" lon="12.6590767"><ele>375.0</ele><time>2026-04-18T14:38:59.884Z</time></trkpt><trkpt lat="43.8577283" lon="12.6591833"><ele>371.0</ele><time>2026-04-18T14:39:00.886Z</time></trkpt><trkpt lat="43.8577083" lon="12.6592883"><ele>367.0</ele><time>2026-04-18T14:39:01.889Z</time></trkpt><trkpt lat="43.857685" lon="12.6593933"><ele>363.0</ele><time>2026-04-18T14:39:02.889Z</time></trkpt><trkpt lat="43.8576567" lon="12.6595017"><ele>359.0</ele><time>2026-04-18T14:39:03.888Z</time></trkpt><trkpt lat="43.8576267" lon="12.659605"><ele>362.1666666666667</ele><time>2026-04-18T14:39:04.886Z</time></trkpt><trkpt lat="43.857595" lon="12.6597067"><ele>365.33333333333337</ele><time>2026-04-18T14:39:05.885Z</time></trkpt><trkpt lat="43.8575617" lon="12.659805"><ele>368.5</ele><time>2026-04-18T14:39:06.889Z</time></trkpt><trkpt lat="43.8575217" lon="12.6599067"><ele>371.6666666666667</ele><time>2026-04-18T14:39:07.885Z</time></trkpt><trkpt lat="43.8574733" lon="12.66001"><ele>374.8333333333333</ele><time>2026-04-18T14:39:08.886Z</time></trkpt><trkpt lat="43.8574217" lon="12.6601117"><ele>378.0</ele><time>2026-04-18T14:39:09.886Z</time></trkpt><trkpt lat="43.8573683" lon="12.6602183"><ele>377.6666666666667</ele><time>2026-04-18T14:39:10.885Z</time></trkpt><trkpt lat="43.8573167" lon="12.6603267"><ele>377.3333333333333</ele><time>2026-04-18T14:39:11.886Z</time></trkpt><trkpt lat="43.8572617" lon="12.660435"><ele>377.0</ele><time>2026-04-18T14:39:12.889Z</time></trkpt><trkpt lat="43.85722" lon="12.6605417"><ele>376.66666666666663</ele><time>2026-04-18T14:39:13.89Z</time></trkpt><trkpt lat="43.8571867" lon="12.660645"><ele>376.3333333333333</ele><time>2026-04-18T14:39:14.889Z</time></trkpt><trkpt lat="43.8571683" lon="12.6607467"><ele>376.0</ele><time>2026-04-18T14:39:15.888Z</time></trkpt><trkpt lat="43.8571517" lon="12.6608483"><ele>376.0</ele><time>2026-04-18T14:39:16.888Z</time></trkpt><trkpt lat="43.8571383" lon="12.66094"><ele>376.0</ele><time>2026-04-18T14:39:17.885Z</time></trkpt><trkpt lat="43.8571183" lon="12.661095"><ele>376.0</ele><time>2026-04-18T14:39:19.887Z</time></trkpt><trkpt lat="43.8571" lon="12.6611983"><ele>376.0</ele><time>2026-04-18T14:39:21.886Z</time></trkpt><trkpt lat="43.8570817" lon="12.6613"><ele>376.0</ele><time>2026-04-18T14:39:24.886Z</time></trkpt><trkpt lat="43.85708" lon="12.6614617"><ele>378.20000000000005</ele><time>2026-04-18T14:42:41.887Z</time></trkpt><trkpt lat="43.8570667" lon="12.6615633"><ele>380.40000000000003</ele><time>2026-04-18T14:42:42.888Z</time></trkpt><trkpt lat="43.8570517" lon="12.66168"><ele>382.6</ele><time>2026-04-18T14:42:43.888Z</time></trkpt><trkpt lat="43.8570317" lon="12.66182"><ele>384.8</ele><time>2026-04-18T14:42:44.887Z</time></trkpt><trkpt lat="43.8570117" lon="12.66197"><ele>387.0</ele><time>2026-04-18T14:42:45.888Z</time></trkpt><trkpt lat="43.856995" lon="12.6621167"><ele>388.0</ele><time>2026-04-18T14:42:46.889Z</time></trkpt><trkpt lat="43.856985" lon="12.662265"><ele>389.0</ele><time>2026-04-18T14:42:47.885Z</time></trkpt><trkpt lat="43.8569867" lon="12.662405"><ele>390.0</ele><time>2026-04-18T14:42:48.887Z</time></trkpt><trkpt lat="43.8569967" lon="12.6625483"><ele>391.0</ele><time>2026-04-18T14:42:49.886Z</time></trkpt><trkpt lat="43.857015" lon="12.6626967"><ele>392.0</ele><time>2026-04-18T14:42:50.887Z</time></trkpt><trkpt lat="43.8570433" lon="12.662845"><ele>392.25</ele><time>2026-04-18T14:42:51.888Z</time></trkpt><trkpt lat="43.857075" lon="12.6629933"><ele>392.5</ele><time>2026-04-18T14:42:52.886Z</time></trkpt><trkpt lat="43.8571433" lon="12.663295"><ele>392.75</ele><time>2026-04-18T14:42:54.886Z</time></trkpt><trkpt lat="43.8571767" lon="12.6634383"><ele>393.0</ele><time>2026-04-18T14:42:55.886Z</time></trkpt><trkpt lat="43.8572167" lon="12.6635917"><ele>391.25</ele><time>2026-04-18T14:42:56.887Z</time></trkpt><trkpt lat="43.85726" lon="12.66375"><ele>389.5</ele><time>2026-04-18T14:42:57.887Z</time></trkpt><trkpt lat="43.8573083" lon="12.6639083"><ele>387.75</ele><time>2026-04-18T14:42:58.887Z</time></trkpt><trkpt lat="43.8573533" lon="12.664075"><ele>386.0</ele><time>2026-04-18T14:42:59.889Z</time></trkpt><trkpt lat="43.8573983" lon="12.6642433"><ele>386.0</ele><time>2026-04-18T14:43:00.885Z</time></trkpt><trkpt lat="43.8574333" lon="12.6644"><ele>386.0</ele><time>2026-04-18T14:43:01.886Z</time></trkpt><trkpt lat="43.8574717" lon="12.6645533"><ele>386.0</ele><time>2026-04-18T14:43:02.887Z</time></trkpt><trkpt lat="43.8575017" lon="12.66469"><ele>386.0</ele><time>2026-04-18T14:43:03.888Z</time></trkpt><trkpt lat="43.8575217" lon="12.6648383"><ele>386.0</ele><time>2026-04-18T14:43:04.887Z</time></trkpt><trkpt lat="43.85753" lon="12.6649733"><ele>386.0</ele><time>2026-04-18T14:43:05.886Z</time></trkpt><trkpt lat="43.8575117" lon="12.6651033"><ele>386.0</ele><time>2026-04-18T14:43:06.885Z</time></trkpt><trkpt lat="43.8574683" lon="12.6652283"><ele>386.0</ele><time>2026-04-18T14:43:07.886Z</time></trkpt><trkpt lat="43.8573783" lon="12.665335"><ele>386.0</ele><time>2026-04-18T14:43:08.885Z</time></trkpt><trkpt lat="43.8572533" lon="12.665375"><ele>386.0</ele><time>2026-04-18T14:43:09.885Z</time></trkpt><trkpt lat="43.857135" lon="12.6654217"><ele>385.5</ele><time>2026-04-18T14:43:10.887Z</time></trkpt><trkpt lat="43.8570067" lon="12.6654583"><ele>385.0</ele><time>2026-04-18T14:43:11.885Z</time></trkpt><trkpt lat="43.8568917" lon="12.6654883"><ele>384.5</ele><time>2026-04-18T14:43:12.885Z</time></trkpt><trkpt lat="43.8567867" lon="12.66552"><ele>384.0</ele><time>2026-04-18T14:43:13.886Z</time></trkpt><trkpt lat="43.8566767" lon="12.665565"><ele>384.0</ele><time>2026-04-18T14:43:14.885Z</time></trkpt><trkpt lat="43.8565767" lon="12.6656333"><ele>384.0</ele><time>2026-04-18T14:43:15.885Z</time></trkpt><trkpt lat="43.8564967" lon="12.66573"><ele>384.0</ele><time>2026-04-18T14:43:16.885Z</time></trkpt><trkpt lat="43.856435" lon="12.6658517"><ele>384.0</ele><time>2026-04-18T14:43:17.886Z</time></trkpt><trkpt lat="43.85639" lon="12.6659817"><ele>384.0</ele><time>2026-04-18T14:43:18.885Z</time></trkpt><trkpt lat="43.8563683" lon="12.666115"><ele>384.0</ele><time>2026-04-18T14:43:19.886Z</time></trkpt><trkpt lat="43.8563717" lon="12.666255"><ele>384.0</ele><time>2026-04-18T14:43:20.887Z</time></trkpt><trkpt lat="43.8564" lon="12.6663917"><ele>384.0</ele><time>2026-04-18T14:43:21.885Z</time></trkpt><trkpt lat="43.85645" lon="12.6665217"><ele>384.0</ele><time>2026-04-18T14:43:22.887Z</time></trkpt><trkpt lat="43.8565117" lon="12.6666633"><ele>384.0</ele><time>2026-04-18T14:43:23.889Z</time></trkpt><trkpt lat="43.8565767" lon="12.6668083"><ele>384.75</ele><time>2026-04-18T14:43:24.888Z</time></trkpt><trkpt lat="43.8566433" lon="12.666955"><ele>385.5</ele><time>2026-04-18T14:43:25.889Z</time></trkpt><trkpt lat="43.8567067" lon="12.6670933"><ele>386.25</ele><time>2026-04-18T14:43:26.888Z</time></trkpt><trkpt lat="43.8567583" lon="12.6672333"><ele>387.0</ele><time>2026-04-18T14:43:27.889Z</time></trkpt><trkpt lat="43.8568067" lon="12.667365"><ele>387.0</ele><time>2026-04-18T14:43:28.889Z</time></trkpt><trkpt lat="43.856855" lon="12.6674833"><ele>387.0</ele><time>2026-04-18T14:43:29.884Z</time></trkpt><trkpt lat="43.8569017" lon="12.6675867"><ele>387.0</ele><time>2026-04-18T14:43:30.889Z</time></trkpt><trkpt lat="43.8569483" lon="12.667685"><ele>387.0</ele><time>2026-04-18T14:43:31.888Z</time></trkpt><trkpt lat="43.8570033" lon="12.6677767"><ele>387.0</ele><time>2026-04-18T14:43:32.885Z</time></trkpt><trkpt lat="43.857065" lon="12.66785"><ele>387.0</ele><time>2026-04-18T14:43:33.889Z</time></trkpt><trkpt lat="43.8571883" lon="12.6679833"><ele>385.8</ele><time>2026-04-18T14:43:35.887Z</time></trkpt><trkpt lat="43.857255" lon="12.66806"><ele>384.6</ele><time>2026-04-18T14:43:36.887Z</time></trkpt><trkpt lat="43.857315" lon="12.6681483"><ele>383.40000000000003</ele><time>2026-04-18T14:43:37.89Z</time></trkpt><trkpt lat="43.8574017" lon="12.668345"><ele>382.20000000000005</ele><time>2026-04-18T14:43:39.891Z</time></trkpt><trkpt lat="43.8574283" lon="12.668445"><ele>381.0</ele><time>2026-04-18T14:43:40.888Z</time></trkpt><trkpt lat="43.8574567" lon="12.6685533"><ele>380.3333333333333</ele><time>2026-04-18T14:43:41.888Z</time></trkpt><trkpt lat="43.8574833" lon="12.6686633"><ele>379.6666666666667</ele><time>2026-04-18T14:43:42.888Z</time></trkpt><trkpt lat="43.8575067" lon="12.6687733"><ele>379.0</ele><time>2026-04-18T14:43:43.889Z</time></trkpt><trkpt lat="43.85753" lon="12.6688833"><ele>378.33333333333337</ele><time>2026-04-18T14:43:44.885Z</time></trkpt><trkpt lat="43.8575517" lon="12.6689867"><ele>377.6666666666667</ele><time>2026-04-18T14:43:45.887Z</time></trkpt><trkpt lat="43.857575" lon="12.6690883"><ele>377.0</ele><time>2026-04-18T14:43:46.888Z</time></trkpt><trkpt lat="43.857605" lon="12.669205"><ele>376.75</ele><time>2026-04-18T14:43:47.884Z</time></trkpt><trkpt lat="43.857635" lon="12.6693233"><ele>376.5</ele><time>2026-04-18T14:43:48.887Z</time></trkpt><trkpt lat="43.857665" lon="12.6694467"><ele>376.25</ele><time>2026-04-18T14:43:49.885Z</time></trkpt><trkpt lat="43.8576933" lon="12.66958"><ele>376.0</ele><time>2026-04-18T14:43:50.886Z</time></trkpt><trkpt lat="43.8577467" lon="12.6698333"><ele>376.0</ele><time>2026-04-18T14:43:52.887Z</time></trkpt><trkpt lat="43.8577717" lon="12.66995"><ele>376.0</ele><time>2026-04-18T14:43:53.887Z</time></trkpt><trkpt lat="43.8577933" lon="12.6700583"><ele>376.0</ele><time>2026-04-18T14:43:54.888Z</time></trkpt><trkpt lat="43.857815" lon="12.67015"><ele>376.0</ele><time>2026-04-18T14:43:55.889Z</time></trkpt><trkpt lat="43.857855" lon="12.6702783"><ele>376.0</ele><time>2026-04-18T14:43:57.886Z</time></trkpt><trkpt lat="43.85793" lon="12.6702783"><ele>376.0</ele><time>2026-04-18T14:44:00.889Z</time></trkpt><trkpt lat="43.857985" lon="12.670155"><ele>376.0</ele><time>2026-04-18T14:44:02.888Z</time></trkpt><trkpt lat="43.858025" lon="12.670075"><ele>376.0</ele><time>2026-04-18T14:44:03.89Z</time></trkpt><trkpt lat="43.8580817" lon="12.670015"><ele>376.0</ele><time>2026-04-18T14:44:04.887Z</time></trkpt><trkpt lat="43.85816" lon="12.6699483"><ele>376.0</ele><time>2026-04-18T14:44:05.884Z</time></trkpt><trkpt lat="43.85825" lon="12.66988"><ele>376.0</ele><time>2026-04-18T14:44:06.885Z</time></trkpt><trkpt lat="43.8583433" lon="12.6698167"><ele>376.0</ele><time>2026-04-18T14:44:07.887Z</time></trkpt><trkpt lat="43.8584367" lon="12.669755"><ele>371.4</ele><time>2026-04-18T14:44:08.884Z</time></trkpt><trkpt lat="43.8585317" lon="12.6696967"><ele>366.8</ele><time>2026-04-18T14:44:09.886Z</time></trkpt><trkpt lat="43.8586267" lon="12.6696283"><ele>362.2</ele><time>2026-04-18T14:44:10.885Z</time></trkpt><trkpt lat="43.858725" lon="12.6695183"><ele>357.59999999999997</ele><time>2026-04-18T14:44:11.888Z</time></trkpt><trkpt lat="43.858795" lon="12.6694017"><ele>353.0</ele><time>2026-04-18T14:44:12.885Z</time></trkpt><trkpt lat="43.858835" lon="12.6692667"><ele>353.0</ele><time>2026-04-18T14:44:13.889Z</time></trkpt><trkpt lat="43.8588383" lon="12.6691167"><ele>353.0</ele><time>2026-04-18T14:44:14.887Z</time></trkpt><trkpt lat="43.8588067" lon="12.6689433"><ele>353.0</ele><time>2026-04-18T14:44:15.887Z</time></trkpt><trkpt lat="43.858755" lon="12.668775"><ele>353.0</ele><time>2026-04-18T14:44:16.888Z</time></trkpt><trkpt lat="43.8586917" lon="12.6686183"><ele>351.75</ele><time>2026-04-18T14:44:17.888Z</time></trkpt><trkpt lat="43.8586217" lon="12.6684733"><ele>350.5</ele><time>2026-04-18T14:44:18.886Z</time></trkpt><trkpt lat="43.8585467" lon="12.66834"><ele>349.25</ele><time>2026-04-18T14:44:19.885Z</time></trkpt><trkpt lat="43.85848" lon="12.6682033"><ele>348.0</ele><time>2026-04-18T14:44:20.884Z</time></trkpt><trkpt lat="43.8584233" lon="12.6680667"><ele>347.0</ele><time>2026-04-18T14:44:21.888Z</time></trkpt><trkpt lat="43.858405" lon="12.667915"><ele>346.0</ele><time>2026-04-18T14:44:22.888Z</time></trkpt><trkpt lat="43.8584133" lon="12.667755"><ele>345.0</ele><time>2026-04-18T14:44:23.888Z</time></trkpt><trkpt lat="43.8584467" lon="12.66759"><ele>344.0</ele><time>2026-04-18T14:44:24.888Z</time></trkpt><trkpt lat="43.8585017" lon="12.6674117"><ele>344.0</ele><time>2026-04-18T14:44:25.888Z</time></trkpt><trkpt lat="43.8585667" lon="12.6672333"><ele>344.0</ele><time>2026-04-18T14:44:26.889Z</time></trkpt><trkpt lat="43.8586317" lon="12.6670583"><ele>344.0</ele><time>2026-04-18T14:44:27.885Z</time></trkpt><trkpt lat="43.8587" lon="12.6668933"><ele>344.0</ele><time>2026-04-18T14:44:28.885Z</time></trkpt><trkpt lat="43.8587733" lon="12.666735"><ele>346.5</ele><time>2026-04-18T14:44:29.886Z</time></trkpt><trkpt lat="43.85885" lon="12.6665833"><ele>349.0</ele><time>2026-04-18T14:44:30.885Z</time></trkpt><trkpt lat="43.8589417" lon="12.666445"><ele>351.5</ele><time>2026-04-18T14:44:31.89Z</time></trkpt><trkpt lat="43.8590383" lon="12.66633"><ele>354.0</ele><time>2026-04-18T14:44:32.886Z</time></trkpt><trkpt lat="43.85916" lon="12.6662517"><ele>351.25</ele><time>2026-04-18T14:44:33.885Z</time></trkpt><trkpt lat="43.8592867" lon="12.6662117"><ele>348.5</ele><time>2026-04-18T14:44:34.886Z</time></trkpt><trkpt lat="43.85943" lon="12.666205"><ele>345.75</ele><time>2026-04-18T14:44:35.886Z</time></trkpt><trkpt lat="43.8595867" lon="12.666215"><ele>343.0</ele><time>2026-04-18T14:44:36.885Z</time></trkpt><trkpt lat="43.8597567" lon="12.6662267"><ele>343.0</ele><time>2026-04-18T14:44:37.886Z</time></trkpt><trkpt lat="43.85993" lon="12.6662583"><ele>343.0</ele><time>2026-04-18T14:44:38.885Z</time></trkpt><trkpt lat="43.8600967" lon="12.6663017"><ele>343.0</ele><time>2026-04-18T14:44:39.887Z</time></trkpt><trkpt lat="43.8602633" lon="12.66634"><ele>341.3333333333333</ele><time>2026-04-18T14:44:40.886Z</time></trkpt><trkpt lat="43.86043" lon="12.66637"><ele>339.6666666666667</ele><time>2026-04-18T14:44:41.886Z</time></trkpt><trkpt lat="43.8605983" lon="12.6663917"><ele>338.0</ele><time>2026-04-18T14:44:42.886Z</time></trkpt><trkpt lat="43.860765" lon="12.6664067"><ele>338.0</ele><time>2026-04-18T14:44:43.886Z</time></trkpt><trkpt lat="43.8609317" lon="12.666415"><ele>338.0</ele><time>2026-04-18T14:44:44.888Z</time></trkpt><trkpt lat="43.8610983" lon="12.6664233"><ele>338.0</ele><time>2026-04-18T14:44:45.888Z</time></trkpt><trkpt lat="43.8612683" lon="12.66645"><ele>336.6666666666667</ele><time>2026-04-18T14:44:46.887Z</time></trkpt><trkpt lat="43.8614383" lon="12.6664783"><ele>335.3333333333333</ele><time>2026-04-18T14:44:47.887Z</time></trkpt><trkpt lat="43.8616133" lon="12.6665167"><ele>334.0</ele><time>2026-04-18T14:44:48.885Z</time></trkpt><trkpt lat="43.8617883" lon="12.666565"><ele>333.66666666666663</ele><time>2026-04-18T14:44:49.892Z</time></trkpt><trkpt lat="43.8619583" lon="12.6666167"><ele>333.3333333333333</ele><time>2026-04-18T14:44:50.885Z</time></trkpt><trkpt lat="43.8621217" lon="12.6666583"><ele>333.0</ele><time>2026-04-18T14:44:51.886Z</time></trkpt><trkpt lat="43.8622783" lon="12.6666967"><ele>333.0</ele><time>2026-04-18T14:44:52.888Z</time></trkpt><trkpt lat="43.86243" lon="12.6667267"><ele>333.0</ele><time>2026-04-18T14:44:53.885Z</time></trkpt><trkpt lat="43.8625817" lon="12.666755"><ele>333.0</ele><time>2026-04-18T14:44:54.886Z</time></trkpt><trkpt lat="43.8627367" lon="12.666775"><ele>332.6666666666667</ele><time>2026-04-18T14:44:55.888Z</time></trkpt><trkpt lat="43.8628967" lon="12.66679"><ele>332.33333333333337</ele><time>2026-04-18T14:44:56.888Z</time></trkpt><trkpt lat="43.8630583" lon="12.6668083"><ele>332.0</ele><time>2026-04-18T14:44:57.889Z</time></trkpt><trkpt lat="43.8632183" lon="12.6668267"><ele>332.0</ele><time>2026-04-18T14:44:58.888Z</time></trkpt><trkpt lat="43.8633717" lon="12.6668433"><ele>332.0</ele><time>2026-04-18T14:44:59.888Z</time></trkpt><trkpt lat="43.86352" lon="12.66686"><ele>332.0</ele><time>2026-04-18T14:45:00.885Z</time></trkpt><trkpt lat="43.8636617" lon="12.6668817"><ele>332.0</ele><time>2026-04-18T14:45:01.889Z</time></trkpt><trkpt lat="43.8638" lon="12.6669183"><ele>330.25</ele><time>2026-04-18T14:45:02.888Z</time></trkpt><trkpt lat="43.8639417" lon="12.666945"><ele>328.5</ele><time>2026-04-18T14:45:03.888Z</time></trkpt><trkpt lat="43.8640867" lon="12.6669483"><ele>326.75</ele><time>2026-04-18T14:45:04.889Z</time></trkpt><trkpt lat="43.86424" lon="12.6669217"><ele>325.0</ele><time>2026-04-18T14:45:05.888Z</time></trkpt><trkpt lat="43.8644033" lon="12.666875"><ele>322.3333333333333</ele><time>2026-04-18T14:45:06.889Z</time></trkpt><trkpt lat="43.8645667" lon="12.666825"><ele>319.6666666666667</ele><time>2026-04-18T14:45:07.89Z</time></trkpt><trkpt lat="43.8647433" lon="12.666765"><ele>317.0</ele><time>2026-04-18T14:45:08.889Z</time></trkpt><trkpt lat="43.864915" lon="12.6667217"><ele>317.0</ele><time>2026-04-18T14:45:09.889Z</time></trkpt><trkpt lat="43.8650867" lon="12.6666733"><ele>317.0</ele><time>2026-04-18T14:45:10.889Z</time></trkpt><trkpt lat="43.8652567" lon="12.6666233"><ele>317.0</ele><time>2026-04-18T14:45:11.888Z</time></trkpt><trkpt lat="43.8654267" lon="12.66657"><ele>313.33333333333337</ele><time>2026-04-18T14:45:12.89Z</time></trkpt><trkpt lat="43.8655983" lon="12.6665167"><ele>309.6666666666667</ele><time>2026-04-18T14:45:13.888Z</time></trkpt><trkpt lat="43.8657683" lon="12.6664633"><ele>306.0</ele><time>2026-04-18T14:45:14.889Z</time></trkpt><trkpt lat="43.86593" lon="12.6664083"><ele>303.3333333333333</ele><time>2026-04-18T14:45:15.889Z</time></trkpt><trkpt lat="43.8660883" lon="12.6663433"><ele>300.66666666666663</ele><time>2026-04-18T14:45:16.885Z</time></trkpt><trkpt lat="43.8662467" lon="12.6662683"><ele>298.0</ele><time>2026-04-18T14:45:17.889Z</time></trkpt><trkpt lat="43.866405" lon="12.66619"><ele>300.75</ele><time>2026-04-18T14:45:18.885Z</time></trkpt><trkpt lat="43.8665517" lon="12.66611"><ele>303.5</ele><time>2026-04-18T14:45:19.885Z</time></trkpt><trkpt lat="43.8666867" lon="12.666025"><ele>306.25</ele><time>2026-04-18T14:45:20.885Z</time></trkpt><trkpt lat="43.8668067" lon="12.665945"><ele>309.0</ele><time>2026-04-18T14:45:21.885Z</time></trkpt><trkpt lat="43.86691" lon="12.66588"><ele>310.1666666666667</ele><time>2026-04-18T14:45:22.885Z</time></trkpt><trkpt lat="43.8669967" lon="12.665825"><ele>311.3333333333333</ele><time>2026-04-18T14:45:23.886Z</time></trkpt><trkpt lat="43.867065" lon="12.665795"><ele>312.5</ele><time>2026-04-18T14:45:24.885Z</time></trkpt><trkpt lat="43.86717" lon="12.665815"><ele>313.66666666666663</ele><time>2026-04-18T14:45:26.889Z</time></trkpt><trkpt lat="43.8672233" lon="12.6659183"><ele>314.8333333333333</ele><time>2026-04-18T14:45:28.891Z</time></trkpt><trkpt lat="43.86724" lon="12.6660067"><ele>316.0</ele><time>2026-04-18T14:45:30.888Z</time></trkpt><trkpt lat="43.8672217" lon="12.6658817"><ele>316.0</ele><time>2026-04-18T14:48:15.885Z</time></trkpt><trkpt lat="43.867235" lon="12.66576"><ele>316.0</ele><time>2026-04-18T14:48:24.889Z</time></trkpt><trkpt lat="43.8673733" lon="12.6656933"><ele>316.0</ele><time>2026-04-18T14:48:26.886Z</time></trkpt><trkpt lat="43.8674683" lon="12.66562"><ele>316.0</ele><time>2026-04-18T14:48:27.89Z</time></trkpt><trkpt lat="43.867565" lon="12.6655233"><ele>318.5</ele><time>2026-04-18T14:48:28.889Z</time></trkpt><trkpt lat="43.86765" lon="12.6654083"><ele>321.0</ele><time>2026-04-18T14:48:29.888Z</time></trkpt><trkpt lat="43.8677217" lon="12.6652733"><ele>323.5</ele><time>2026-04-18T14:48:30.888Z</time></trkpt><trkpt lat="43.8677783" lon="12.66512"><ele>326.0</ele><time>2026-04-18T14:48:31.889Z</time></trkpt><trkpt lat="43.867835" lon="12.6649567"><ele>326.0</ele><time>2026-04-18T14:48:32.89Z</time></trkpt><trkpt lat="43.8679" lon="12.6648267"><ele>326.0</ele><time>2026-04-18T14:48:33.887Z</time></trkpt><trkpt lat="43.8679683" lon="12.6647217"><ele>326.0</ele><time>2026-04-18T14:48:34.89Z</time></trkpt><trkpt lat="43.8680517" lon="12.6646483"><ele>326.0</ele><time>2026-04-18T14:48:35.885Z</time></trkpt><trkpt lat="43.868155" lon="12.664615"><ele>326.0</ele><time>2026-04-18T14:48:36.89Z</time></trkpt><trkpt lat="43.8682667" lon="12.6646317"><ele>324.0</ele><time>2026-04-18T14:48:37.889Z</time></trkpt><trkpt lat="43.8684817" lon="12.6648183"><ele>322.0</ele><time>2026-04-18T14:48:39.888Z</time></trkpt><trkpt lat="43.868585" lon="12.6649267"><ele>320.0</ele><time>2026-04-18T14:48:40.886Z</time></trkpt><trkpt lat="43.8686883" lon="12.665035"><ele>320.0</ele><time>2026-04-18T14:48:41.885Z</time></trkpt><trkpt lat="43.8687883" lon="12.6651383"><ele>320.0</ele><time>2026-04-18T14:48:42.89Z</time></trkpt><trkpt lat="43.86889" lon="12.6652517"><ele>320.0</ele><time>2026-04-18T14:48:43.885Z</time></trkpt><trkpt lat="43.8689917" lon="12.66536"><ele>320.0</ele><time>2026-04-18T14:48:44.886Z</time></trkpt><trkpt lat="43.8690917" lon="12.6654683"><ele>323.5</ele><time>2026-04-18T14:48:45.885Z</time></trkpt><trkpt lat="43.869195" lon="12.6655717"><ele>327.0</ele><time>2026-04-18T14:48:46.886Z</time></trkpt><trkpt lat="43.8692933" lon="12.66568"><ele>330.5</ele><time>2026-04-18T14:48:47.886Z</time></trkpt><trkpt lat="43.8693867" lon="12.6657917"><ele>334.0</ele><time>2026-04-18T14:48:48.887Z</time></trkpt><trkpt lat="43.8694717" lon="12.6658967"><ele>334.0</ele><time>2026-04-18T14:48:49.886Z</time></trkpt><trkpt lat="43.8695467" lon="12.666"><ele>334.0</ele><time>2026-04-18T14:48:50.886Z</time></trkpt><trkpt lat="43.8696133" lon="12.666105"><ele>334.0</ele><time>2026-04-18T14:48:51.886Z</time></trkpt><trkpt lat="43.86967" lon="12.6662133"><ele>334.0</ele><time>2026-04-18T14:48:52.887Z</time></trkpt><trkpt lat="43.86972" lon="12.66634"><ele>334.0</ele><time>2026-04-18T14:48:53.888Z</time></trkpt><trkpt lat="43.8697617" lon="12.66648"><ele>335.5</ele><time>2026-04-18T14:48:54.887Z</time></trkpt><trkpt lat="43.86981" lon="12.6666233"><ele>337.0</ele><time>2026-04-18T14:48:55.889Z</time></trkpt><trkpt lat="43.8698583" lon="12.6667717"><ele>338.5</ele><time>2026-04-18T14:48:56.889Z</time></trkpt><trkpt lat="43.869915" lon="12.6669217"><ele>340.0</ele><time>2026-04-18T14:48:57.888Z</time></trkpt><trkpt lat="43.8699833" lon="12.6670833"><ele>340.0</ele><time>2026-04-18T14:48:58.889Z</time></trkpt><trkpt lat="43.8700617" lon="12.6672433"><ele>340.0</ele><time>2026-04-18T14:48:59.889Z</time></trkpt><trkpt lat="43.870135" lon="12.6674117"><ele>340.0</ele><time>2026-04-18T14:49:00.888Z</time></trkpt><trkpt lat="43.8701967" lon="12.6675933"><ele>340.0</ele><time>2026-04-18T14:49:01.888Z</time></trkpt><trkpt lat="43.8702567" lon="12.6677783"><ele>343.25</ele><time>2026-04-18T14:49:02.89Z</time></trkpt><trkpt lat="43.8703067" lon="12.6679733"><ele>346.5</ele><time>2026-04-18T14:49:03.887Z</time></trkpt><trkpt lat="43.8703433" lon="12.668165"><ele>349.75</ele><time>2026-04-18T14:49:04.888Z</time></trkpt><trkpt lat="43.87037" lon="12.6683467"><ele>353.0</ele><time>2026-04-18T14:49:05.889Z</time></trkpt><trkpt lat="43.87039" lon="12.6685167"><ele>350.0</ele><time>2026-04-18T14:49:06.889Z</time></trkpt><trkpt lat="43.8704017" lon="12.668685"><ele>347.0</ele><time>2026-04-18T14:49:07.888Z</time></trkpt><trkpt lat="43.8704133" lon="12.668845"><ele>344.0</ele><time>2026-04-18T14:49:08.889Z</time></trkpt><trkpt lat="43.8704317" lon="12.66899"><ele>341.0</ele><time>2026-04-18T14:49:09.888Z</time></trkpt><trkpt lat="43.8704667" lon="12.66912"><ele>338.0</ele><time>2026-04-18T14:49:10.886Z</time></trkpt><trkpt lat="43.8705083" lon="12.6692317"><ele>338.0</ele><time>2026-04-18T14:49:11.888Z</time></trkpt><trkpt lat="43.8705617" lon="12.6693083"><ele>338.0</ele><time>2026-04-18T14:49:12.889Z</time></trkpt><trkpt lat="43.8706383" lon="12.6693617"><ele>338.0</ele><time>2026-04-18T14:49:13.889Z</time></trkpt><trkpt lat="43.87082" lon="12.6693617"><ele>338.0</ele><time>2026-04-18T14:49:15.889Z</time></trkpt><trkpt lat="43.8709217" lon="12.6692867"><ele>337.2</ele><time>2026-04-18T14:49:16.885Z</time></trkpt><trkpt lat="43.8710217" lon="12.6691867"><ele>336.4</ele><time>2026-04-18T14:49:17.887Z</time></trkpt><trkpt lat="43.8711133" lon="12.6691083"><ele>335.59999999999997</ele><time>2026-04-18T14:49:18.888Z</time></trkpt><trkpt lat="43.87121" lon="12.669035"><ele>334.79999999999995</ele><time>2026-04-18T14:49:19.886Z</time></trkpt><trkpt lat="43.8713117" lon="12.668985"><ele>334.0</ele><time>2026-04-18T14:49:20.889Z</time></trkpt><trkpt lat="43.871415" lon="12.66896"><ele>334.0</ele><time>2026-04-18T14:49:21.889Z</time></trkpt><trkpt lat="43.8715183" lon="12.6689567"><ele>334.0</ele><time>2026-04-18T14:49:22.888Z</time></trkpt><trkpt lat="43.8716167" lon="12.6689617"><ele>334.0</ele><time>2026-04-18T14:49:23.886Z</time></trkpt><trkpt lat="43.87171" lon="12.66897"><ele>334.0</ele><time>2026-04-18T14:49:24.886Z</time></trkpt><trkpt lat="43.871795" lon="12.66898"><ele>334.0</ele><time>2026-04-18T14:49:25.885Z</time></trkpt><trkpt lat="43.87188" lon="12.66899"><ele>336.4</ele><time>2026-04-18T14:49:26.887Z</time></trkpt><trkpt lat="43.8719667" lon="12.6690067"><ele>338.79999999999995</ele><time>2026-04-18T14:49:27.888Z</time></trkpt><trkpt lat="43.872055" lon="12.6690283"><ele>341.20000000000005</ele><time>2026-04-18T14:49:28.885Z</time></trkpt><trkpt lat="43.872145" lon="12.6690683"><ele>343.6</ele><time>2026-04-18T14:49:29.889Z</time></trkpt><trkpt lat="43.8722283" lon="12.66913"><ele>346.0</ele><time>2026-04-18T14:49:30.887Z</time></trkpt><trkpt lat="43.8722983" lon="12.669215"><ele>342.5</ele><time>2026-04-18T14:49:31.889Z</time></trkpt><trkpt lat="43.87241" lon="12.6694433"><ele>339.0</ele><time>2026-04-18T14:49:33.889Z</time></trkpt><trkpt lat="43.8724567" lon="12.66956"><ele>335.5</ele><time>2026-04-18T14:49:34.889Z</time></trkpt><trkpt lat="43.8725133" lon="12.669665"><ele>332.0</ele><time>2026-04-18T14:49:35.888Z</time></trkpt><trkpt lat="43.8725917" lon="12.66975"><ele>332.5</ele><time>2026-04-18T14:49:36.889Z</time></trkpt><trkpt lat="43.8726733" lon="12.66983"><ele>333.0</ele><time>2026-04-18T14:49:37.888Z</time></trkpt><trkpt lat="43.8728467" lon="12.66994"><ele>333.5</ele><time>2026-04-18T14:49:39.887Z</time></trkpt><trkpt lat="43.872935" lon="12.6699883"><ele>334.0</ele><time>2026-04-18T14:49:40.89Z</time></trkpt><trkpt lat="43.8730183" lon="12.6700233"><ele>334.0</ele><time>2026-04-18T14:49:41.893Z</time></trkpt><trkpt lat="43.8730883" lon="12.67005"><ele>334.0</ele><time>2026-04-18T14:49:42.886Z</time></trkpt><trkpt lat="43.87318" lon="12.6700417"><ele>334.0</ele><time>2026-04-18T14:49:44.885Z</time></trkpt><trkpt lat="43.8732283" lon="12.6701067"><ele>334.0</ele><time>2026-04-18T14:49:47.889Z</time></trkpt><trkpt lat="43.8732233" lon="12.6702033"><ele>334.0</ele><time>2026-04-18T14:49:49.886Z</time></trkpt><trkpt lat="43.8731833" lon="12.670325"><ele>334.0</ele><time>2026-04-18T14:49:51.887Z</time></trkpt><trkpt lat="43.8731283" lon="12.6705817"><ele>333.0</ele><time>2026-04-18T14:49:54.888Z</time></trkpt><trkpt lat="43.8731233" lon="12.6706883"><ele>332.0</ele><time>2026-04-18T14:49:55.887Z</time></trkpt><trkpt lat="43.8731233" lon="12.6708"><ele>331.0</ele><time>2026-04-18T14:49:56.888Z</time></trkpt><trkpt lat="43.8731283" lon="12.6709167"><ele>330.0</ele><time>2026-04-18T14:49:57.888Z</time></trkpt><trkpt lat="43.87313" lon="12.6710367"><ele>329.0</ele><time>2026-04-18T14:49:58.886Z</time></trkpt><trkpt lat="43.8731283" lon="12.6711517"><ele>328.0</ele><time>2026-04-18T14:49:59.888Z</time></trkpt><trkpt lat="43.8731217" lon="12.6713917"><ele>325.79999999999995</ele><time>2026-04-18T14:50:01.886Z</time></trkpt><trkpt lat="43.8731233" lon="12.6715117"><ele>323.59999999999997</ele><time>2026-04-18T14:50:02.888Z</time></trkpt><trkpt lat="43.8731267" lon="12.6716333"><ele>321.4</ele><time>2026-04-18T14:50:03.886Z</time></trkpt><trkpt lat="43.8731367" lon="12.6717583"><ele>319.2</ele><time>2026-04-18T14:50:04.887Z</time></trkpt><trkpt lat="43.87315" lon="12.6718883"><ele>317.0</ele><time>2026-04-18T14:50:05.888Z</time></trkpt><trkpt lat="43.873175" lon="12.6720133"><ele>315.1666666666667</ele><time>2026-04-18T14:50:06.888Z</time></trkpt><trkpt lat="43.8732067" lon="12.672135"><ele>313.33333333333337</ele><time>2026-04-18T14:50:07.888Z</time></trkpt><trkpt lat="43.8732333" lon="12.6722567"><ele>311.5</ele><time>2026-04-18T14:50:08.886Z</time></trkpt><trkpt lat="43.8732683" lon="12.6723717"><ele>309.6666666666667</ele><time>2026-04-18T14:50:09.887Z</time></trkpt><trkpt lat="43.8732983" lon="12.6724767"><ele>307.8333333333333</ele><time>2026-04-18T14:50:10.887Z</time></trkpt><trkpt lat="43.8733283" lon="12.6725783"><ele>306.0</ele><time>2026-04-18T14:50:11.887Z</time></trkpt><trkpt lat="43.87338" lon="12.6727217"><ele>305.6666666666667</ele><time>2026-04-18T14:50:13.889Z</time></trkpt><trkpt lat="43.8733783" lon="12.6728683"><ele>305.3333333333333</ele><time>2026-04-18T14:50:58.889Z</time></trkpt><trkpt lat="43.87335" lon="12.6729567"><ele>305.0</ele><time>2026-04-18T14:50:59.887Z</time></trkpt><trkpt lat="43.873315" lon="12.6730567"><ele>304.66666666666663</ele><time>2026-04-18T14:51:00.888Z</time></trkpt><trkpt lat="43.8732817" lon="12.6731617"><ele>304.3333333333333</ele><time>2026-04-18T14:51:01.892Z</time></trkpt><trkpt lat="43.8732467" lon="12.6732717"><ele>304.0</ele><time>2026-04-18T14:51:02.888Z</time></trkpt><trkpt lat="43.8732117" lon="12.6733883"><ele>304.0</ele><time>2026-04-18T14:51:03.888Z</time></trkpt><trkpt lat="43.87318" lon="12.6735133"><ele>304.0</ele><time>2026-04-18T14:51:04.885Z</time></trkpt><trkpt lat="43.8731533" lon="12.6736517"><ele>304.0</ele><time>2026-04-18T14:51:05.885Z</time></trkpt><trkpt lat="43.8731317" lon="12.673795"><ele>304.0</ele><time>2026-04-18T14:51:06.885Z</time></trkpt><trkpt lat="43.8731167" lon="12.6739517"><ele>304.0</ele><time>2026-04-18T14:51:07.886Z</time></trkpt><trkpt lat="43.8731067" lon="12.6741233"><ele>304.0</ele><time>2026-04-18T14:51:08.884Z</time></trkpt><trkpt lat="43.8731117" lon="12.67431"><ele>304.0</ele><time>2026-04-18T14:51:09.889Z</time></trkpt><trkpt lat="43.8731317" lon="12.6745083"><ele>304.0</ele><time>2026-04-18T14:51:10.885Z</time></trkpt><trkpt lat="43.8731717" lon="12.6747033"><ele>304.0</ele><time>2026-04-18T14:51:11.885Z</time></trkpt><trkpt lat="43.87323" lon="12.6749017"><ele>301.66666666666663</ele><time>2026-04-18T14:51:12.887Z</time></trkpt><trkpt lat="43.873295" lon="12.6750983"><ele>299.3333333333333</ele><time>2026-04-18T14:51:13.885Z</time></trkpt><trkpt lat="43.8733617" lon="12.6752933"><ele>297.0</ele><time>2026-04-18T14:51:14.889Z</time></trkpt><trkpt lat="43.87342" lon="12.6754883"><ele>296.75</ele><time>2026-04-18T14:51:15.888Z</time></trkpt><trkpt lat="43.8734783" lon="12.6756733"><ele>296.5</ele><time>2026-04-18T14:51:16.889Z</time></trkpt><trkpt lat="43.8735383" lon="12.6758533"><ele>296.25</ele><time>2026-04-18T14:51:17.885Z</time></trkpt><trkpt lat="43.8735983" lon="12.6760317"><ele>296.0</ele><time>2026-04-18T14:51:18.887Z</time></trkpt><trkpt lat="43.8736533" lon="12.676205"><ele>292.75</ele><time>2026-04-18T14:51:19.884Z</time></trkpt><trkpt lat="43.873705" lon="12.6763733"><ele>289.5</ele><time>2026-04-18T14:51:20.884Z</time></trkpt><trkpt lat="43.873775" lon="12.6765117"><ele>286.25</ele><time>2026-04-18T14:51:21.884Z</time></trkpt><trkpt lat="43.873865" lon="12.6766233"><ele>283.0</ele><time>2026-04-18T14:51:22.885Z</time></trkpt><trkpt lat="43.8739683" lon="12.6767083"><ele>283.0</ele><time>2026-04-18T14:51:23.885Z</time></trkpt><trkpt lat="43.874085" lon="12.6767383"><ele>283.0</ele><time>2026-04-18T14:51:24.884Z</time></trkpt><trkpt lat="43.87421" lon="12.6767117"><ele>283.0</ele><time>2026-04-18T14:51:25.885Z</time></trkpt><trkpt lat="43.874335" lon="12.6766533"><ele>283.0</ele><time>2026-04-18T14:51:26.886Z</time></trkpt><trkpt lat="43.8744583" lon="12.6765767"><ele>280.0</ele><time>2026-04-18T14:51:27.884Z</time></trkpt><trkpt lat="43.874575" lon="12.6764933"><ele>277.0</ele><time>2026-04-18T14:51:28.886Z</time></trkpt><trkpt lat="43.8746883" lon="12.6764233"><ele>274.0</ele><time>2026-04-18T14:51:29.885Z</time></trkpt><trkpt lat="43.8748017" lon="12.676355"><ele>271.0</ele><time>2026-04-18T14:51:30.886Z</time></trkpt><trkpt lat="43.8749117" lon="12.6762883"><ele>271.0</ele><time>2026-04-18T14:51:31.888Z</time></trkpt><trkpt lat="43.8750233" lon="12.6762117"><ele>271.0</ele><time>2026-04-18T14:51:32.888Z</time></trkpt><trkpt lat="43.8751217" lon="12.67612"><ele>271.0</ele><time>2026-04-18T14:51:33.887Z</time></trkpt><trkpt lat="43.8752033" lon="12.6760083"><ele>271.0</ele><time>2026-04-18T14:51:34.888Z</time></trkpt><trkpt lat="43.875275" lon="12.6758867"><ele>269.40000000000003</ele><time>2026-04-18T14:51:35.885Z</time></trkpt><trkpt lat="43.875335" lon="12.6757617"><ele>267.8</ele><time>2026-04-18T14:51:36.887Z</time></trkpt><trkpt lat="43.87539" lon="12.6756333"><ele>266.20000000000005</ele><time>2026-04-18T14:51:37.889Z</time></trkpt><trkpt lat="43.8754417" lon="12.6755167"><ele>264.6</ele><time>2026-04-18T14:51:38.888Z</time></trkpt><trkpt lat="43.875485" lon="12.6754167"><ele>263.0</ele><time>2026-04-18T14:51:39.887Z</time></trkpt><trkpt lat="43.875525" lon="12.6753283"><ele>263.0</ele><time>2026-04-18T14:51:40.888Z</time></trkpt><trkpt lat="43.8755867" lon="12.6752333"><ele>263.0</ele><time>2026-04-18T14:51:42.889Z</time></trkpt><trkpt lat="43.8755983" lon="12.6753933"><ele>263.0</ele><time>2026-04-18T14:51:46.887Z</time></trkpt><trkpt lat="43.8755917" lon="12.6754883"><ele>263.0</ele><time>2026-04-18T14:51:47.884Z</time></trkpt><trkpt lat="43.87558" lon="12.6756067"><ele>263.0</ele><time>2026-04-18T14:51:48.885Z</time></trkpt><trkpt lat="43.8755833" lon="12.6757267"><ele>263.0</ele><time>2026-04-18T14:51:49.885Z</time></trkpt><trkpt lat="43.8756" lon="12.6758517"><ele>263.0</ele><time>2026-04-18T14:51:50.885Z</time></trkpt><trkpt lat="43.8756283" lon="12.675985"><ele>263.0</ele><time>2026-04-18T14:51:51.885Z</time></trkpt><trkpt lat="43.875665" lon="12.67612"><ele>263.0</ele><time>2026-04-18T14:51:52.884Z</time></trkpt><trkpt lat="43.8757033" lon="12.6762567"><ele>263.0</ele><time>2026-04-18T14:51:53.886Z</time></trkpt><trkpt lat="43.875745" lon="12.6763967"><ele>261.0</ele><time>2026-04-18T14:51:54.888Z</time></trkpt><trkpt lat="43.8757833" lon="12.67654"><ele>259.0</ele><time>2026-04-18T14:51:55.886Z</time></trkpt><trkpt lat="43.8758233" lon="12.6766867"><ele>257.0</ele><time>2026-04-18T14:51:56.885Z</time></trkpt><trkpt lat="43.875865" lon="12.6768317"><ele>255.0</ele><time>2026-04-18T14:51:57.885Z</time></trkpt><trkpt lat="43.875905" lon="12.676975"><ele>253.0</ele><time>2026-04-18T14:51:58.889Z</time></trkpt><trkpt lat="43.8759433" lon="12.6771117"><ele>248.99999999999997</ele><time>2026-04-18T14:51:59.888Z</time></trkpt><trkpt lat="43.8759733" lon="12.6772317"><ele>245.0</ele><time>2026-04-18T14:52:00.888Z</time></trkpt><trkpt lat="43.8760017" lon="12.6773317"><ele>241.0</ele><time>2026-04-18T14:52:01.889Z</time></trkpt><trkpt lat="43.8760267" lon="12.67742"><ele>237.0</ele><time>2026-04-18T14:52:02.886Z</time></trkpt><trkpt lat="43.8760683" lon="12.6775567"><ele>232.99999999999997</ele><time>2026-04-18T14:52:04.885Z</time></trkpt><trkpt lat="43.8760917" lon="12.6776683"><ele>229.0</ele><time>2026-04-18T14:52:07.885Z</time></trkpt><trkpt lat="43.8761233" lon="12.677745"><ele>228.33333333333331</ele><time>2026-04-18T14:52:46.885Z</time></trkpt><trkpt lat="43.8761917" lon="12.67782"><ele>227.66666666666666</ele><time>2026-04-18T14:52:48.884Z</time></trkpt><trkpt lat="43.876245" lon="12.6778717"><ele>227.0</ele><time>2026-04-18T14:52:49.886Z</time></trkpt><trkpt lat="43.8763067" lon="12.677935"><ele>226.33333333333331</ele><time>2026-04-18T14:52:50.884Z</time></trkpt><trkpt lat="43.8763783" lon="12.677985"><ele>225.66666666666666</ele><time>2026-04-18T14:52:51.885Z</time></trkpt><trkpt lat="43.8764533" lon="12.6780383"><ele>225.0</ele><time>2026-04-18T14:52:52.886Z</time></trkpt><trkpt lat="43.8765367" lon="12.6780767"><ele>225.0</ele><time>2026-04-18T14:52:53.884Z</time></trkpt><trkpt lat="43.87663" lon="12.6781067"><ele>225.0</ele><time>2026-04-18T14:52:54.886Z</time></trkpt><trkpt lat="43.8767183" lon="12.67813"><ele>225.0</ele><time>2026-04-18T14:52:55.886Z</time></trkpt><trkpt lat="43.8768033" lon="12.6781417"><ele>225.0</ele><time>2026-04-18T14:52:56.885Z</time></trkpt><trkpt lat="43.8768867" lon="12.6781567"><ele>225.0</ele><time>2026-04-18T14:52:57.885Z</time></trkpt><trkpt lat="43.8769717" lon="12.678175"><ele>225.0</ele><time>2026-04-18T14:52:58.887Z</time></trkpt><trkpt lat="43.8770533" lon="12.678185"><ele>222.33333333333334</ele><time>2026-04-18T14:52:59.887Z</time></trkpt><trkpt lat="43.8771317" lon="12.6781933"><ele>219.66666666666669</ele><time>2026-04-18T14:53:00.887Z</time></trkpt><trkpt lat="43.87721" lon="12.6782033"><ele>217.0</ele><time>2026-04-18T14:53:01.888Z</time></trkpt><trkpt lat="43.8772883" lon="12.6782133"><ele>214.33333333333334</ele><time>2026-04-18T14:53:02.886Z</time></trkpt><trkpt lat="43.877365" lon="12.67824"><ele>211.66666666666669</ele><time>2026-04-18T14:53:03.888Z</time></trkpt><trkpt lat="43.8774367" lon="12.6782783"><ele>209.0</ele><time>2026-04-18T14:53:04.886Z</time></trkpt><trkpt lat="43.8775133" lon="12.678335"><ele>209.0</ele><time>2026-04-18T14:53:05.886Z</time></trkpt><trkpt lat="43.8775883" lon="12.6783967"><ele>209.0</ele><time>2026-04-18T14:53:06.889Z</time></trkpt><trkpt lat="43.87766" lon="12.6784717"><ele>209.0</ele><time>2026-04-18T14:53:07.888Z</time></trkpt><trkpt lat="43.8778017" lon="12.67865"><ele>209.0</ele><time>2026-04-18T14:53:09.889Z</time></trkpt><trkpt lat="43.87786" lon="12.678755"><ele>204.6</ele><time>2026-04-18T14:53:10.888Z</time></trkpt><trkpt lat="43.8779083" lon="12.6788717"><ele>200.2</ele><time>2026-04-18T14:53:11.888Z</time></trkpt><trkpt lat="43.8779533" lon="12.6789883"><ele>195.79999999999998</ele><time>2026-04-18T14:53:12.885Z</time></trkpt><trkpt lat="43.877995" lon="12.6791"><ele>191.39999999999998</ele><time>2026-04-18T14:53:13.888Z</time></trkpt><trkpt lat="43.8780317" lon="12.679215"><ele>187.0</ele><time>2026-04-18T14:53:14.887Z</time></trkpt><trkpt lat="43.8780717" lon="12.6793317"><ele>186.39999999999998</ele><time>2026-04-18T14:53:15.886Z</time></trkpt><trkpt lat="43.8781217" lon="12.67945"><ele>185.79999999999998</ele><time>2026-04-18T14:53:16.886Z</time></trkpt><trkpt lat="43.8781767" lon="12.6795667"><ele>185.2</ele><time>2026-04-18T14:53:17.887Z</time></trkpt><trkpt lat="43.8782317" lon="12.6796833"><ele>184.6</ele><time>2026-04-18T14:53:18.886Z</time></trkpt><trkpt lat="43.87828" lon="12.6798"><ele>184.0</ele><time>2026-04-18T14:53:19.886Z</time></trkpt><trkpt lat="43.8783317" lon="12.6799117"><ele>184.0</ele><time>2026-04-18T14:53:20.886Z</time></trkpt><trkpt lat="43.8783883" lon="12.6800117"><ele>184.0</ele><time>2026-04-18T14:53:21.889Z</time></trkpt><trkpt lat="43.8784517" lon="12.6801"><ele>184.0</ele><time>2026-04-18T14:53:22.887Z</time></trkpt><trkpt lat="43.87852" lon="12.68019"><ele>184.0</ele><time>2026-04-18T14:53:23.886Z</time></trkpt><trkpt lat="43.8785883" lon="12.6802783"><ele>184.0</ele><time>2026-04-18T14:53:24.886Z</time></trkpt><trkpt lat="43.8786617" lon="12.68036"><ele>181.83333333333334</ele><time>2026-04-18T14:53:25.886Z</time></trkpt><trkpt lat="43.87873" lon="12.6804333"><ele>179.66666666666669</ele><time>2026-04-18T14:53:26.885Z</time></trkpt><trkpt lat="43.8787883" lon="12.6805017"><ele>177.5</ele><time>2026-04-18T14:53:27.885Z</time></trkpt><trkpt lat="43.878835" lon="12.6805633"><ele>175.33333333333334</ele><time>2026-04-18T14:53:28.884Z</time></trkpt><trkpt lat="43.87889" lon="12.68064"><ele>173.16666666666666</ele><time>2026-04-18T14:53:30.886Z</time></trkpt><trkpt lat="43.8789617" lon="12.680715"><ele>171.0</ele><time>2026-04-18T14:53:49.892Z</time></trkpt><trkpt lat="43.8790367" lon="12.6807933"><ele>171.0</ele><time>2026-04-18T14:53:51.886Z</time></trkpt><trkpt lat="43.8791083" lon="12.6808733"><ele>171.0</ele><time>2026-04-18T14:53:53.886Z</time></trkpt><trkpt lat="43.8791733" lon="12.6809433"><ele>171.0</ele><time>2026-04-18T14:53:55.886Z</time></trkpt><trkpt lat="43.8792433" lon="12.6809967"><ele>171.0</ele><time>2026-04-18T14:53:58.886Z</time></trkpt><trkpt lat="43.87916" lon="12.680975"><ele>171.0</ele><time>2026-04-18T14:54:16.886Z</time></trkpt><trkpt lat="43.8790883" lon="12.6809083"><ele>171.0</ele><time>2026-04-18T14:54:18.886Z</time></trkpt><trkpt lat="43.87901" lon="12.6808067"><ele>171.0</ele><time>2026-04-18T14:54:20.887Z</time></trkpt><trkpt lat="43.87895" lon="12.6807267"><ele>171.0</ele><time>2026-04-18T14:54:22.886Z</time></trkpt><trkpt lat="43.8789217" lon="12.6806467"><ele>171.0</ele><time>2026-04-18T14:54:31.885Z</time></trkpt><trkpt lat="43.8789567" lon="12.6804883"><ele>171.0</ele><time>2026-04-18T14:54:33.888Z</time></trkpt><trkpt lat="43.8789883" lon="12.6803533"><ele>171.0</ele><time>2026-04-18T14:54:34.888Z</time></trkpt><trkpt lat="43.8790217" lon="12.6802217"><ele>171.60000000000002</ele><time>2026-04-18T14:54:35.889Z</time></trkpt><trkpt lat="43.8790533" lon="12.68011"><ele>172.2</ele><time>2026-04-18T14:54:36.889Z</time></trkpt><trkpt lat="43.8791" lon="12.6800067"><ele>172.8</ele><time>2026-04-18T14:54:37.89Z</time></trkpt><trkpt lat="43.8791567" lon="12.6798983"><ele>173.39999999999998</ele><time>2026-04-18T14:54:38.889Z</time></trkpt><trkpt lat="43.8792233" lon="12.6797767"><ele>174.0</ele><time>2026-04-18T14:54:39.889Z</time></trkpt><trkpt lat="43.8792933" lon="12.6796517"><ele>170.79999999999998</ele><time>2026-04-18T14:54:40.888Z</time></trkpt><trkpt lat="43.879365" lon="12.67953"><ele>167.6</ele><time>2026-04-18T14:54:41.888Z</time></trkpt><trkpt lat="43.879435" lon="12.6794117"><ele>164.4</ele><time>2026-04-18T14:54:42.888Z</time></trkpt><trkpt lat="43.8795033" lon="12.6792883"><ele>161.2</ele><time>2026-04-18T14:54:43.888Z</time></trkpt><trkpt lat="43.8795633" lon="12.67916"><ele>158.0</ele><time>2026-04-18T14:54:44.888Z</time></trkpt><trkpt lat="43.8796067" lon="12.6790167"><ele>158.0</ele><time>2026-04-18T14:54:45.887Z</time></trkpt><trkpt lat="43.8796383" lon="12.67886"><ele>158.0</ele><time>2026-04-18T14:54:46.886Z</time></trkpt><trkpt lat="43.8796667" lon="12.6786883"><ele>158.0</ele><time>2026-04-18T14:54:47.889Z</time></trkpt><trkpt lat="43.879695" lon="12.6785083"><ele>158.0</ele><time>2026-04-18T14:54:48.888Z</time></trkpt><trkpt lat="43.8797283" lon="12.6783467"><ele>158.0</ele><time>2026-04-18T14:54:49.89Z</time></trkpt><trkpt lat="43.8797733" lon="12.6781917"><ele>158.0</ele><time>2026-04-18T14:54:50.888Z</time></trkpt><trkpt lat="43.8798217" lon="12.6780483"><ele>158.0</ele><time>2026-04-18T14:54:51.89Z</time></trkpt><trkpt lat="43.879875" lon="12.6779133"><ele>158.0</ele><time>2026-04-18T14:54:52.89Z</time></trkpt><trkpt lat="43.879925" lon="12.6777883"><ele>158.0</ele><time>2026-04-18T14:54:53.888Z</time></trkpt><trkpt lat="43.8799733" lon="12.6776717"><ele>158.66666666666666</ele><time>2026-04-18T14:54:54.89Z</time></trkpt><trkpt lat="43.880075" lon="12.677455"><ele>159.33333333333334</ele><time>2026-04-18T14:54:56.89Z</time></trkpt><trkpt lat="43.8802133" lon="12.6772433"><ele>160.0</ele><time>2026-04-18T14:54:58.888Z</time></trkpt><trkpt lat="43.8802933" lon="12.6771383"><ele>157.75</ele><time>2026-04-18T14:54:59.889Z</time></trkpt><trkpt lat="43.8803767" lon="12.677025"><ele>155.5</ele><time>2026-04-18T14:55:00.89Z</time></trkpt><trkpt lat="43.8804567" lon="12.6769033"><ele>153.25</ele><time>2026-04-18T14:55:01.889Z</time></trkpt><trkpt lat="43.8805383" lon="12.676785"><ele>151.0</ele><time>2026-04-18T14:55:02.888Z</time></trkpt><trkpt lat="43.88062" lon="12.6766733"><ele>151.0</ele><time>2026-04-18T14:55:03.89Z</time></trkpt><trkpt lat="43.8806917" lon="12.6765817"><ele>151.0</ele><time>2026-04-18T14:55:04.889Z</time></trkpt><trkpt lat="43.8807583" lon="12.6765117"><ele>151.0</ele><time>2026-04-18T14:55:05.887Z</time></trkpt><trkpt lat="43.8808233" lon="12.676465"><ele>151.0</ele><time>2026-04-18T14:55:06.886Z</time></trkpt><trkpt lat="43.8809333" lon="12.6764983"><ele>151.0</ele><time>2026-04-18T14:55:08.885Z</time></trkpt><trkpt lat="43.8809683" lon="12.676575"><ele>151.0</ele><time>2026-04-18T14:55:09.889Z</time></trkpt><trkpt lat="43.8810083" lon="12.6766883"><ele>149.75</ele><time>2026-04-18T14:55:10.885Z</time></trkpt><trkpt lat="43.8810083" lon="12.6768333"><ele>148.5</ele><time>2026-04-18T14:55:11.887Z</time></trkpt><trkpt lat="43.8809867" lon="12.6770167"><ele>147.25</ele><time>2026-04-18T14:55:12.887Z</time></trkpt><trkpt lat="43.8809433" lon="12.67725"><ele>146.0</ele><time>2026-04-18T14:55:13.889Z</time></trkpt><trkpt lat="43.8809217" lon="12.6774267"><ele>146.0</ele><time>2026-04-18T14:55:14.889Z</time></trkpt><trkpt lat="43.8809" lon="12.6775917"><ele>146.0</ele><time>2026-04-18T14:55:15.888Z</time></trkpt><trkpt lat="43.8808867" lon="12.6777433"><ele>146.0</ele><time>2026-04-18T14:55:16.889Z</time></trkpt><trkpt lat="43.88088" lon="12.677905"><ele>146.0</ele><time>2026-04-18T14:55:17.887Z</time></trkpt><trkpt lat="43.88089" lon="12.6780733"><ele>145.8</ele><time>2026-04-18T14:55:18.884Z</time></trkpt><trkpt lat="43.8809" lon="12.678245"><ele>145.6</ele><time>2026-04-18T14:55:19.888Z</time></trkpt><trkpt lat="43.880915" lon="12.6784017"><ele>145.4</ele><time>2026-04-18T14:55:20.89Z</time></trkpt><trkpt lat="43.88094" lon="12.678545"><ele>145.2</ele><time>2026-04-18T14:55:21.887Z</time></trkpt><trkpt lat="43.880985" lon="12.6786683"><ele>145.0</ele><time>2026-04-18T14:55:22.886Z</time></trkpt><trkpt lat="43.88105" lon="12.678775"><ele>141.5</ele><time>2026-04-18T14:55:23.885Z</time></trkpt><trkpt lat="43.8811417" lon="12.6788717"><ele>138.0</ele><time>2026-04-18T14:55:24.89Z</time></trkpt><trkpt lat="43.8812433" lon="12.67896"><ele>134.5</ele><time>2026-04-18T14:55:25.887Z</time></trkpt><trkpt lat="43.88134" lon="12.679035"><ele>131.0</ele><time>2026-04-18T14:55:26.888Z</time></trkpt><trkpt lat="43.88143" lon="12.6791183"><ele>131.0</ele><time>2026-04-18T14:55:27.886Z</time></trkpt><trkpt lat="43.8815133" lon="12.679215"><ele>131.0</ele><time>2026-04-18T14:55:28.889Z</time></trkpt><trkpt lat="43.88159" lon="12.6793233"><ele>131.0</ele><time>2026-04-18T14:55:29.889Z</time></trkpt><trkpt lat="43.8816617" lon="12.67945"><ele>131.0</ele><time>2026-04-18T14:55:30.888Z</time></trkpt><trkpt lat="43.8817317" lon="12.6795883"><ele>128.25</ele><time>2026-04-18T14:55:31.887Z</time></trkpt><trkpt lat="43.8818017" lon="12.679715"><ele>125.5</ele><time>2026-04-18T14:55:32.889Z</time></trkpt><trkpt lat="43.8818667" lon="12.6798433"><ele>122.75</ele><time>2026-04-18T14:55:33.888Z</time></trkpt><trkpt lat="43.8819317" lon="12.6799733"><ele>120.0</ele><time>2026-04-18T14:55:34.888Z</time></trkpt><trkpt lat="43.882" lon="12.6800967"><ele>120.0</ele><time>2026-04-18T14:55:35.888Z</time></trkpt><trkpt lat="43.8820667" lon="12.6802133"><ele>120.0</ele><time>2026-04-18T14:55:36.888Z</time></trkpt><trkpt lat="43.8821167" lon="12.680335"><ele>120.0</ele><time>2026-04-18T14:55:37.888Z</time></trkpt><trkpt lat="43.8821267" lon="12.6804683"><ele>120.0</ele><time>2026-04-18T14:55:38.888Z</time></trkpt><trkpt lat="43.8821133" lon="12.6805983"><ele>120.0</ele><time>2026-04-18T14:55:39.888Z</time></trkpt><trkpt lat="43.8820933" lon="12.680725"><ele>119.2</ele><time>2026-04-18T14:55:40.888Z</time></trkpt><trkpt lat="43.8820817" lon="12.6808567"><ele>118.4</ele><time>2026-04-18T14:55:41.887Z</time></trkpt><trkpt lat="43.8820983" lon="12.68099"><ele>117.6</ele><time>2026-04-18T14:55:42.888Z</time></trkpt><trkpt lat="43.8821317" lon="12.68112"><ele>116.8</ele><time>2026-04-18T14:55:43.888Z</time></trkpt><trkpt lat="43.88218" lon="12.6812417"><ele>116.0</ele><time>2026-04-18T14:55:44.888Z</time></trkpt><trkpt lat="43.88223" lon="12.6813533"><ele>115.8</ele><time>2026-04-18T14:55:45.889Z</time></trkpt><trkpt lat="43.8822833" lon="12.681455"><ele>115.6</ele><time>2026-04-18T14:55:46.888Z</time></trkpt><trkpt lat="43.8823333" lon="12.68157"><ele>115.4</ele><time>2026-04-18T14:55:47.888Z</time></trkpt><trkpt lat="43.8823833" lon="12.681695"><ele>115.2</ele><time>2026-04-18T14:55:48.888Z</time></trkpt><trkpt lat="43.8824333" lon="12.6818283"><ele>115.0</ele><time>2026-04-18T14:55:49.888Z</time></trkpt><trkpt lat="43.8824883" lon="12.6819617"><ele>115.0</ele><time>2026-04-18T14:55:50.888Z</time></trkpt><trkpt lat="43.882545" lon="12.6820983"><ele>115.0</ele><time>2026-04-18T14:55:51.888Z</time></trkpt><trkpt lat="43.8826017" lon="12.68224"><ele>115.0</ele><time>2026-04-18T14:55:52.888Z</time></trkpt><trkpt lat="43.88266" lon="12.6823817"><ele>115.0</ele><time>2026-04-18T14:55:53.885Z</time></trkpt><trkpt lat="43.8827183" lon="12.6825233"><ele>111.8</ele><time>2026-04-18T14:55:54.888Z</time></trkpt><trkpt lat="43.8827717" lon="12.6826583"><ele>108.6</ele><time>2026-04-18T14:55:55.889Z</time></trkpt><trkpt lat="43.88282" lon="12.68279"><ele>105.4</ele><time>2026-04-18T14:55:56.888Z</time></trkpt><trkpt lat="43.88286" lon="12.6829267"><ele>102.2</ele><time>2026-04-18T14:55:57.891Z</time></trkpt><trkpt lat="43.8828867" lon="12.6830633"><ele>99.0</ele><time>2026-04-18T14:55:58.889Z</time></trkpt><trkpt lat="43.8829033" lon="12.683195"><ele>98.80000000000001</ele><time>2026-04-18T14:55:59.889Z</time></trkpt><trkpt lat="43.88291" lon="12.6833333"><ele>98.60000000000001</ele><time>2026-04-18T14:56:00.89Z</time></trkpt><trkpt lat="43.8829" lon="12.6834667"><ele>98.4</ele><time>2026-04-18T14:56:01.889Z</time></trkpt><trkpt lat="43.8828767" lon="12.683605"><ele>98.2</ele><time>2026-04-18T14:56:02.89Z</time></trkpt><trkpt lat="43.882845" lon="12.6837517"><ele>98.0</ele><time>2026-04-18T14:56:03.887Z</time></trkpt><trkpt lat="43.8828183" lon="12.6839"><ele>97.25</ele><time>2026-04-18T14:56:04.888Z</time></trkpt><trkpt lat="43.882805" lon="12.684055"><ele>96.5</ele><time>2026-04-18T14:56:05.888Z</time></trkpt><trkpt lat="43.8828117" lon="12.68422"><ele>95.75</ele><time>2026-04-18T14:56:06.888Z</time></trkpt><trkpt lat="43.8828233" lon="12.684385"><ele>95.0</ele><time>2026-04-18T14:56:07.889Z</time></trkpt><trkpt lat="43.882835" lon="12.6845433"><ele>93.75</ele><time>2026-04-18T14:56:08.888Z</time></trkpt><trkpt lat="43.88284" lon="12.684705"><ele>92.5</ele><time>2026-04-18T14:56:09.888Z</time></trkpt><trkpt lat="43.8828333" lon="12.6848667"><ele>91.25</ele><time>2026-04-18T14:56:10.889Z</time></trkpt><trkpt lat="43.8828133" lon="12.6850283"><ele>90.0</ele><time>2026-04-18T14:56:11.889Z</time></trkpt><trkpt lat="43.8827833" lon="12.6851767"><ele>89.5</ele><time>2026-04-18T14:56:12.888Z</time></trkpt><trkpt lat="43.8827533" lon="12.68533"><ele>89.0</ele><time>2026-04-18T14:56:13.889Z</time></trkpt><trkpt lat="43.882735" lon="12.685485"><ele>88.5</ele><time>2026-04-18T14:56:14.889Z</time></trkpt><trkpt lat="43.8827417" lon="12.685645"><ele>88.0</ele><time>2026-04-18T14:56:15.888Z</time></trkpt><trkpt lat="43.8827683" lon="12.6858067"><ele>88.0</ele><time>2026-04-18T14:56:16.885Z</time></trkpt><trkpt lat="43.8828033" lon="12.6859567"><ele>88.0</ele><time>2026-04-18T14:56:17.885Z</time></trkpt><trkpt lat="43.882835" lon="12.6861117"><ele>88.0</ele><time>2026-04-18T14:56:18.889Z</time></trkpt><trkpt lat="43.8828633" lon="12.686275"><ele>88.0</ele><time>2026-04-18T14:56:19.888Z</time></trkpt><trkpt lat="43.8828733" lon="12.686435"><ele>88.0</ele><time>2026-04-18T14:56:20.888Z</time></trkpt><trkpt lat="43.8828633" lon="12.6865867"><ele>88.0</ele><time>2026-04-18T14:56:21.887Z</time></trkpt><trkpt lat="43.8828433" lon="12.6867333"><ele>88.0</ele><time>2026-04-18T14:56:22.888Z</time></trkpt><trkpt lat="43.8828167" lon="12.6868783"><ele>88.0</ele><time>2026-04-18T14:56:23.886Z</time></trkpt><trkpt lat="43.882795" lon="12.6870067"><ele>88.0</ele><time>2026-04-18T14:56:24.885Z</time></trkpt><trkpt lat="43.88279" lon="12.6871317"><ele>87.80000000000001</ele><time>2026-04-18T14:56:25.886Z</time></trkpt><trkpt lat="43.8828" lon="12.6872517"><ele>87.6</ele><time>2026-04-18T14:56:26.886Z</time></trkpt><trkpt lat="43.8828417" lon="12.687365"><ele>87.4</ele><time>2026-04-18T14:56:27.885Z</time></trkpt><trkpt lat="43.8829067" lon="12.6874817"><ele>87.19999999999999</ele><time>2026-04-18T14:56:28.889Z</time></trkpt><trkpt lat="43.8829867" lon="12.6875983"><ele>87.0</ele><time>2026-04-18T14:56:29.888Z</time></trkpt><trkpt lat="43.8830717" lon="12.6877233"><ele>87.0</ele><time>2026-04-18T14:56:30.889Z</time></trkpt><trkpt lat="43.8831617" lon="12.6878467"><ele>87.0</ele><time>2026-04-18T14:56:31.889Z</time></trkpt><trkpt lat="43.8832567" lon="12.6879833"><ele>87.0</ele><time>2026-04-18T14:56:32.886Z</time></trkpt><trkpt lat="43.8833517" lon="12.688135"><ele>87.0</ele><time>2026-04-18T14:56:33.884Z</time></trkpt><trkpt lat="43.8834533" lon="12.6882867"><ele>87.0</ele><time>2026-04-18T14:56:34.885Z</time></trkpt><trkpt lat="43.88355" lon="12.68843"><ele>87.0</ele><time>2026-04-18T14:56:35.886Z</time></trkpt><trkpt lat="43.883635" lon="12.68856"><ele>87.0</ele><time>2026-04-18T14:56:36.886Z</time></trkpt><trkpt lat="43.8837117" lon="12.6886833"><ele>87.0</ele><time>2026-04-18T14:56:37.885Z</time></trkpt><trkpt lat="43.8837917" lon="12.6888"><ele>86.0</ele><time>2026-04-18T14:56:38.887Z</time></trkpt><trkpt lat="43.8838767" lon="12.6889133"><ele>85.0</ele><time>2026-04-18T14:56:39.885Z</time></trkpt><trkpt lat="43.8839633" lon="12.6890367"><ele>84.0</ele><time>2026-04-18T14:56:40.886Z</time></trkpt><trkpt lat="43.8840467" lon="12.689175"><ele>83.0</ele><time>2026-04-18T14:56:41.884Z</time></trkpt><trkpt lat="43.8841267" lon="12.6893267"><ele>82.5</ele><time>2026-04-18T14:56:42.887Z</time></trkpt><trkpt lat="43.88421" lon="12.689495"><ele>82.0</ele><time>2026-04-18T14:56:43.885Z</time></trkpt><trkpt lat="43.8842883" lon="12.6896633"><ele>81.5</ele><time>2026-04-18T14:56:44.885Z</time></trkpt><trkpt lat="43.8843683" lon="12.6898333"><ele>81.0</ele><time>2026-04-18T14:56:45.886Z</time></trkpt><trkpt lat="43.8844433" lon="12.6900033"><ele>82.25</ele><time>2026-04-18T14:56:46.886Z</time></trkpt><trkpt lat="43.8845117" lon="12.69017"><ele>83.5</ele><time>2026-04-18T14:56:47.889Z</time></trkpt><trkpt lat="43.884575" lon="12.6903183"><ele>84.75</ele><time>2026-04-18T14:56:48.887Z</time></trkpt><trkpt lat="43.88464" lon="12.6904633"><ele>86.0</ele><time>2026-04-18T14:56:49.885Z</time></trkpt><trkpt lat="43.8847017" lon="12.690605"><ele>86.0</ele><time>2026-04-18T14:56:50.886Z</time></trkpt><trkpt lat="43.8847533" lon="12.6907417"><ele>86.0</ele><time>2026-04-18T14:56:51.889Z</time></trkpt><trkpt lat="43.8848067" lon="12.6908833"><ele>86.0</ele><time>2026-04-18T14:56:52.886Z</time></trkpt><trkpt lat="43.8848583" lon="12.691025"><ele>86.0</ele><time>2026-04-18T14:56:53.885Z</time></trkpt><trkpt lat="43.8849067" lon="12.6911617"><ele>85.19999999999999</ele><time>2026-04-18T14:56:54.888Z</time></trkpt><trkpt lat="43.884955" lon="12.6912933"><ele>84.39999999999999</ele><time>2026-04-18T14:56:55.888Z</time></trkpt><trkpt lat="43.885005" lon="12.6914217"><ele>83.6</ele><time>2026-04-18T14:56:56.885Z</time></trkpt><trkpt lat="43.8850517" lon="12.6915567"><ele>82.8</ele><time>2026-04-18T14:56:57.885Z</time></trkpt><trkpt lat="43.8850933" lon="12.691695"><ele>82.0</ele><time>2026-04-18T14:56:58.886Z</time></trkpt><trkpt lat="43.885135" lon="12.6918383"><ele>82.6</ele><time>2026-04-18T14:56:59.885Z</time></trkpt><trkpt lat="43.8851733" lon="12.6919833"><ele>83.19999999999999</ele><time>2026-04-18T14:57:00.885Z</time></trkpt><trkpt lat="43.885205" lon="12.6921183"><ele>83.8</ele><time>2026-04-18T14:57:01.886Z</time></trkpt><trkpt lat="43.8852317" lon="12.6922383"><ele>84.4</ele><time>2026-04-18T14:57:02.885Z</time></trkpt><trkpt lat="43.8852567" lon="12.6923517"><ele>85.0</ele><time>2026-04-18T14:57:03.886Z</time></trkpt><trkpt lat="43.8852817" lon="12.6924617"><ele>85.0</ele><time>2026-04-18T14:57:04.886Z</time></trkpt><trkpt lat="43.8853033" lon="12.6925667"><ele>85.0</ele><time>2026-04-18T14:57:05.885Z</time></trkpt><trkpt lat="43.8853267" lon="12.6926717"><ele>85.0</ele><time>2026-04-18T14:57:06.887Z</time></trkpt><trkpt lat="43.8853467" lon="12.6927583"><ele>85.0</ele><time>2026-04-18T14:57:07.886Z</time></trkpt><trkpt lat="43.8853817" lon="12.69292"><ele>85.0</ele><time>2026-04-18T14:57:09.887Z</time></trkpt><trkpt lat="43.8853917" lon="12.693015"><ele>85.0</ele><time>2026-04-18T14:57:10.887Z</time></trkpt><trkpt lat="43.8853917" lon="12.6931317"><ele>84.0</ele><time>2026-04-18T14:57:11.886Z</time></trkpt><trkpt lat="43.8853867" lon="12.6932633"><ele>83.0</ele><time>2026-04-18T14:57:12.886Z</time></trkpt><trkpt lat="43.8853783" lon="12.6934117"><ele>82.0</ele><time>2026-04-18T14:57:13.888Z</time></trkpt><trkpt lat="43.88537" lon="12.693565"><ele>81.0</ele><time>2026-04-18T14:57:14.888Z</time></trkpt><trkpt lat="43.88536" lon="12.693715"><ele>80.0</ele><time>2026-04-18T14:57:15.886Z</time></trkpt><trkpt lat="43.8853533" lon="12.6938583"><ele>79.8</ele><time>2026-04-18T14:57:16.884Z</time></trkpt><trkpt lat="43.88534" lon="12.6940083"><ele>79.6</ele><time>2026-04-18T14:57:17.885Z</time></trkpt><trkpt lat="43.8853283" lon="12.6941533"><ele>79.4</ele><time>2026-04-18T14:57:18.886Z</time></trkpt><trkpt lat="43.88532" lon="12.6942983"><ele>79.2</ele><time>2026-04-18T14:57:19.886Z</time></trkpt><trkpt lat="43.8853117" lon="12.694445"><ele>79.0</ele><time>2026-04-18T14:57:20.884Z</time></trkpt><trkpt lat="43.88531" lon="12.6945967"><ele>79.0</ele><time>2026-04-18T14:57:21.887Z</time></trkpt><trkpt lat="43.8852917" lon="12.6947633"><ele>79.0</ele><time>2026-04-18T14:57:22.888Z</time></trkpt><trkpt lat="43.8852717" lon="12.694945"><ele>79.0</ele><time>2026-04-18T14:57:23.885Z</time></trkpt><trkpt lat="43.8852533" lon="12.6951333"><ele>79.0</ele><time>2026-04-18T14:57:24.885Z</time></trkpt><trkpt lat="43.8852383" lon="12.695325"><ele>80.75</ele><time>2026-04-18T14:57:25.886Z</time></trkpt><trkpt lat="43.8852283" lon="12.6955183"><ele>82.5</ele><time>2026-04-18T14:57:26.885Z</time></trkpt><trkpt lat="43.8852233" lon="12.695695"><ele>84.25</ele><time>2026-04-18T14:57:27.886Z</time></trkpt><trkpt lat="43.8852183" lon="12.6958617"><ele>86.0</ele><time>2026-04-18T14:57:28.885Z</time></trkpt><trkpt lat="43.8852117" lon="12.6960233"><ele>87.0</ele><time>2026-04-18T14:57:29.886Z</time></trkpt><trkpt lat="43.8852" lon="12.696185"><ele>88.0</ele><time>2026-04-18T14:57:30.885Z</time></trkpt><trkpt lat="43.885185" lon="12.6963333"><ele>89.0</ele><time>2026-04-18T14:57:31.887Z</time></trkpt><trkpt lat="43.8851767" lon="12.6964617"><ele>90.0</ele><time>2026-04-18T14:57:32.884Z</time></trkpt><trkpt lat="43.8851667" lon="12.6965817"><ele>91.0</ele><time>2026-04-18T14:57:33.885Z</time></trkpt><trkpt lat="43.88517" lon="12.696695"><ele>91.0</ele><time>2026-04-18T14:57:34.886Z</time></trkpt><trkpt lat="43.88518" lon="12.6968083"><ele>91.0</ele><time>2026-04-18T14:57:35.886Z</time></trkpt><trkpt lat="43.8852" lon="12.6969283"><ele>91.0</ele><time>2026-04-18T14:57:36.886Z</time></trkpt><trkpt lat="43.88523" lon="12.6970567"><ele>91.0</ele><time>2026-04-18T14:57:37.887Z</time></trkpt><trkpt lat="43.8852567" lon="12.697195"><ele>91.0</ele><time>2026-04-18T14:57:38.886Z</time></trkpt><trkpt lat="43.8852683" lon="12.6973417"><ele>90.19999999999999</ele><time>2026-04-18T14:57:39.889Z</time></trkpt><trkpt lat="43.8852583" lon="12.6974917"><ele>89.39999999999999</ele><time>2026-04-18T14:57:40.889Z</time></trkpt><trkpt lat="43.88523" lon="12.6976383"><ele>88.6</ele><time>2026-04-18T14:57:41.888Z</time></trkpt><trkpt lat="43.8851817" lon="12.6977717"><ele>87.8</ele><time>2026-04-18T14:57:42.888Z</time></trkpt><trkpt lat="43.8851133" lon="12.6979"><ele>87.0</ele><time>2026-04-18T14:57:43.889Z</time></trkpt><trkpt lat="43.885035" lon="12.69802"><ele>87.0</ele><time>2026-04-18T14:57:44.889Z</time></trkpt><trkpt lat="43.8849617" lon="12.698135"><ele>87.0</ele><time>2026-04-18T14:57:45.888Z</time></trkpt><trkpt lat="43.8849067" lon="12.69827"><ele>87.0</ele><time>2026-04-18T14:57:46.886Z</time></trkpt><trkpt lat="43.88486" lon="12.69842"><ele>87.0</ele><time>2026-04-18T14:57:47.887Z</time></trkpt><trkpt lat="43.8848283" lon="12.6986017"><ele>88.25</ele><time>2026-04-18T14:57:48.886Z</time></trkpt><trkpt lat="43.8847983" lon="12.698795"><ele>89.5</ele><time>2026-04-18T14:57:49.886Z</time></trkpt><trkpt lat="43.8847717" lon="12.6990033"><ele>90.75</ele><time>2026-04-18T14:57:50.887Z</time></trkpt><trkpt lat="43.8847367" lon="12.6992067"><ele>92.0</ele><time>2026-04-18T14:57:51.886Z</time></trkpt><trkpt lat="43.8846967" lon="12.6993967"><ele>91.75</ele><time>2026-04-18T14:57:52.885Z</time></trkpt><trkpt lat="43.88465" lon="12.6995867"><ele>91.5</ele><time>2026-04-18T14:57:53.889Z</time></trkpt><trkpt lat="43.88461" lon="12.6997717"><ele>91.25</ele><time>2026-04-18T14:57:54.888Z</time></trkpt><trkpt lat="43.88458" lon="12.699945"><ele>91.0</ele><time>2026-04-18T14:57:55.89Z</time></trkpt><trkpt lat="43.884555" lon="12.700115"><ele>90.25</ele><time>2026-04-18T14:57:56.886Z</time></trkpt><trkpt lat="43.8845333" lon="12.7002767"><ele>89.5</ele><time>2026-04-18T14:57:57.886Z</time></trkpt><trkpt lat="43.884525" lon="12.700435"><ele>88.75</ele><time>2026-04-18T14:57:58.887Z</time></trkpt><trkpt lat="43.88453" lon="12.7005917"><ele>88.0</ele><time>2026-04-18T14:57:59.889Z</time></trkpt><trkpt lat="43.8845467" lon="12.7007367"><ele>88.0</ele><time>2026-04-18T14:58:00.885Z</time></trkpt><trkpt lat="43.8845783" lon="12.7008767"><ele>88.0</ele><time>2026-04-18T14:58:01.888Z</time></trkpt><trkpt lat="43.8846133" lon="12.7010133"><ele>88.0</ele><time>2026-04-18T14:58:02.884Z</time></trkpt><trkpt lat="43.884665" lon="12.7011367"><ele>88.0</ele><time>2026-04-18T14:58:03.887Z</time></trkpt><trkpt lat="43.8847367" lon="12.7012467"><ele>88.0</ele><time>2026-04-18T14:58:04.888Z</time></trkpt><trkpt lat="43.8848267" lon="12.7013567"><ele>87.0</ele><time>2026-04-18T14:58:05.888Z</time></trkpt><trkpt lat="43.8849317" lon="12.7014517"><ele>86.0</ele><time>2026-04-18T14:58:06.888Z</time></trkpt><trkpt lat="43.8850283" lon="12.7015483"><ele>85.0</ele><time>2026-04-18T14:58:07.978Z</time></trkpt><trkpt lat="43.8851167" lon="12.7016367"><ele>84.0</ele><time>2026-04-18T14:58:08.887Z</time></trkpt><trkpt lat="43.8851967" lon="12.701715"><ele>85.66666666666667</ele><time>2026-04-18T14:58:09.886Z</time></trkpt><trkpt lat="43.8852567" lon="12.7017917"><ele>87.33333333333333</ele><time>2026-04-18T14:58:10.888Z</time></trkpt><trkpt lat="43.88529" lon="12.7018833"><ele>89.0</ele><time>2026-04-18T14:58:11.888Z</time></trkpt><trkpt lat="43.8852983" lon="12.70198"><ele>90.66666666666666</ele><time>2026-04-18T14:58:12.889Z</time></trkpt><trkpt lat="43.8852733" lon="12.702085"><ele>92.33333333333333</ele><time>2026-04-18T14:58:13.888Z</time></trkpt><trkpt lat="43.8852333" lon="12.7022133"><ele>94.0</ele><time>2026-04-18T14:58:14.888Z</time></trkpt><trkpt lat="43.8851983" lon="12.702335"><ele>94.66666666666666</ele><time>2026-04-18T14:58:15.888Z</time></trkpt><trkpt lat="43.8851733" lon="12.7024417"><ele>95.33333333333333</ele><time>2026-04-18T14:58:16.885Z</time></trkpt><trkpt lat="43.885155" lon="12.7025333"><ele>96.0</ele><time>2026-04-18T14:58:17.886Z</time></trkpt><trkpt lat="43.8851317" lon="12.702685"><ele>96.66666666666666</ele><time>2026-04-18T14:58:19.887Z</time></trkpt><trkpt lat="43.8851167" lon="12.702835"><ele>97.33333333333333</ele><time>2026-04-18T14:58:21.887Z</time></trkpt><trkpt lat="43.8851083" lon="12.70293"><ele>98.0</ele><time>2026-04-18T14:58:22.888Z</time></trkpt><trkpt lat="43.8851" lon="12.7030467"><ele>95.83333333333333</ele><time>2026-04-18T14:58:23.886Z</time></trkpt><trkpt lat="43.8850883" lon="12.7031817"><ele>93.66666666666666</ele><time>2026-04-18T14:58:24.888Z</time></trkpt><trkpt lat="43.88508" lon="12.7033033"><ele>91.5</ele><time>2026-04-18T14:58:25.89Z</time></trkpt><trkpt lat="43.8850717" lon="12.7034083"><ele>89.33333333333333</ele><time>2026-04-18T14:58:26.886Z</time></trkpt><trkpt lat="43.8850667" lon="12.7035033"><ele>87.16666666666666</ele><time>2026-04-18T14:58:27.886Z</time></trkpt><trkpt lat="43.88506" lon="12.7035933"><ele>85.0</ele><time>2026-04-18T14:58:28.887Z</time></trkpt><trkpt lat="43.8850417" lon="12.7037167"><ele>85.0</ele><time>2026-04-18T14:58:30.887Z</time></trkpt><trkpt lat="43.8850517" lon="12.7036"><ele>85.0</ele><time>2026-04-18T14:58:44.887Z</time></trkpt><trkpt lat="43.8850583" lon="12.7035"><ele>85.0</ele><time>2026-04-18T14:58:45.886Z</time></trkpt><trkpt lat="43.8850583" lon="12.7033933"><ele>85.0</ele><time>2026-04-18T14:58:46.888Z</time></trkpt><trkpt lat="43.8850683" lon="12.703245"><ele>85.0</ele><time>2026-04-18T14:58:47.888Z</time></trkpt><trkpt lat="43.8850883" lon="12.703085"><ele>87.6</ele><time>2026-04-18T14:58:48.888Z</time></trkpt><trkpt lat="43.88511" lon="12.7029283"><ele>90.2</ele><time>2026-04-18T14:58:49.889Z</time></trkpt><trkpt lat="43.8851233" lon="12.7027633"><ele>92.80000000000001</ele><time>2026-04-18T14:58:50.887Z</time></trkpt><trkpt lat="43.8851333" lon="12.702655"><ele>95.4</ele><time>2026-04-18T14:58:51.888Z</time></trkpt><trkpt lat="43.8851467" lon="12.7025533"><ele>98.0</ele><time>2026-04-18T14:58:52.889Z</time></trkpt><trkpt lat="43.8851617" lon="12.7024633"><ele>98.0</ele><time>2026-04-18T14:58:53.889Z</time></trkpt><trkpt lat="43.885185" lon="12.7023817"><ele>98.0</ele><time>2026-04-18T14:58:54.888Z</time></trkpt><trkpt lat="43.8852117" lon="12.702295"><ele>98.0</ele><time>2026-04-18T14:58:55.89Z</time></trkpt><trkpt lat="43.8852367" lon="12.7022067"><ele>98.0</ele><time>2026-04-18T14:58:56.891Z</time></trkpt><trkpt lat="43.8852583" lon="12.702115"><ele>98.0</ele><time>2026-04-18T14:58:57.885Z</time></trkpt><trkpt lat="43.88528" lon="12.7020267"><ele>98.0</ele><time>2026-04-18T14:58:58.886Z</time></trkpt><trkpt lat="43.8852983" lon="12.701875"><ele>98.0</ele><time>2026-04-18T14:59:00.886Z</time></trkpt><trkpt lat="43.885275" lon="12.7017533"><ele>97.33333333333333</ele><time>2026-04-18T14:59:02.89Z</time></trkpt><trkpt lat="43.885205" lon="12.7016483"><ele>96.66666666666666</ele><time>2026-04-18T14:59:04.886Z</time></trkpt><trkpt lat="43.8851517" lon="12.7016"><ele>96.0</ele><time>2026-04-18T14:59:05.889Z</time></trkpt><trkpt lat="43.8850617" lon="12.7015"><ele>95.33333333333333</ele><time>2026-04-18T14:59:07.888Z</time></trkpt><trkpt lat="43.8850033" lon="12.7014517"><ele>94.66666666666666</ele><time>2026-04-18T14:59:09.889Z</time></trkpt><trkpt lat="43.8850633" lon="12.7015167"><ele>94.0</ele><time>2026-04-18T14:59:15.888Z</time></trkpt><trkpt lat="43.8851433" lon="12.7015833"><ele>94.0</ele><time>2026-04-18T14:59:17.887Z</time></trkpt><trkpt lat="43.88522" lon="12.70167"><ele>94.0</ele><time>2026-04-18T14:59:19.887Z</time></trkpt><trkpt lat="43.8852717" lon="12.7017683"><ele>94.0</ele><time>2026-04-18T14:59:21.888Z</time></trkpt><trkpt lat="43.8852883" lon="12.7019033"><ele>94.0</ele><time>2026-04-18T14:59:23.888Z</time></trkpt><trkpt lat="43.8852717" lon="12.702"><ele>94.0</ele><time>2026-04-18T14:59:24.89Z</time></trkpt><trkpt lat="43.8852417" lon="12.7021"><ele>94.0</ele><time>2026-04-18T14:59:25.889Z</time></trkpt><trkpt lat="43.8852133" lon="12.7021933"><ele>94.66666666666666</ele><time>2026-04-18T14:59:26.889Z</time></trkpt><trkpt lat="43.8851833" lon="12.7022867"><ele>95.33333333333333</ele><time>2026-04-18T14:59:27.886Z</time></trkpt><trkpt lat="43.885165" lon="12.702375"><ele>96.0</ele><time>2026-04-18T14:59:28.89Z</time></trkpt><trkpt lat="43.8851483" lon="12.7025067"><ele>96.66666666666666</ele><time>2026-04-18T14:59:30.888Z</time></trkpt><trkpt lat="43.885175" lon="12.7025883"><ele>97.33333333333333</ele><time>2026-04-18T14:59:32.888Z</time></trkpt><trkpt lat="43.8852483" lon="12.70261"><ele>98.0</ele><time>2026-04-18T14:59:34.89Z</time></trkpt><trkpt lat="43.8853583" lon="12.7025567"><ele>97.99999999999999</ele><time>2026-04-18T14:59:36.886Z</time></trkpt><trkpt lat="43.8854233" lon="12.7025333"><ele>98.0</ele><time>2026-04-18T14:59:37.889Z</time></trkpt><trkpt lat="43.8855017" lon="12.70252"><ele>98.0</ele><time>2026-04-18T14:59:38.888Z</time></trkpt><trkpt lat="43.88558" lon="12.7025117"><ele>98.0</ele><time>2026-04-18T14:59:39.886Z</time></trkpt><trkpt lat="43.8856617" lon="12.7025"><ele>97.99999999999999</ele><time>2026-04-18T14:59:40.889Z</time></trkpt><trkpt lat="43.8857383" lon="12.7024917"><ele>98.0</ele><time>2026-04-18T14:59:41.891Z</time></trkpt><trkpt lat="43.8858183" lon="12.7024817"><ele>97.99999999999999</ele><time>2026-04-18T14:59:42.888Z</time></trkpt><trkpt lat="43.8859033" lon="12.70247"><ele>98.0</ele><time>2026-04-18T14:59:43.887Z</time></trkpt><trkpt lat="43.88599" lon="12.7024567"><ele>98.0</ele><time>2026-04-18T14:59:44.888Z</time></trkpt><trkpt lat="43.8860783" lon="12.7024433"><ele>98.0</ele><time>2026-04-18T14:59:45.888Z</time></trkpt><trkpt lat="43.886165" lon="12.7024267"><ele>97.99999999999999</ele><time>2026-04-18T14:59:46.886Z</time></trkpt><trkpt lat="43.8862467" lon="12.7024033"><ele>98.0</ele><time>2026-04-18T14:59:47.887Z</time></trkpt><trkpt lat="43.886325" lon="12.7023667"><ele>99.83333333333333</ele><time>2026-04-18T14:59:48.89Z</time></trkpt><trkpt lat="43.8864067" lon="12.7023267"><ele>101.66666666666666</ele><time>2026-04-18T14:59:49.887Z</time></trkpt><trkpt lat="43.88649" lon="12.70228"><ele>103.5</ele><time>2026-04-18T14:59:50.887Z</time></trkpt><trkpt lat="43.8865733" lon="12.7022283"><ele>105.33333333333334</ele><time>2026-04-18T14:59:51.885Z</time></trkpt><trkpt lat="43.8866533" lon="12.702185"><ele>107.16666666666667</ele><time>2026-04-18T14:59:52.887Z</time></trkpt><trkpt lat="43.88673" lon="12.7021433"><ele>109.0</ele><time>2026-04-18T14:59:53.888Z</time></trkpt><trkpt lat="43.886805" lon="12.702095"><ele>109.57142857142857</ele><time>2026-04-18T14:59:54.887Z</time></trkpt><trkpt lat="43.8868667" lon="12.702045"><ele>110.14285714285714</ele><time>2026-04-18T14:59:55.887Z</time></trkpt><trkpt lat="43.8869283" lon="12.7020017"><ele>110.71428571428572</ele><time>2026-04-18T14:59:56.887Z</time></trkpt><trkpt lat="43.8869933" lon="12.70197"><ele>111.28571428571428</ele><time>2026-04-18T14:59:57.886Z</time></trkpt><trkpt lat="43.8870667" lon="12.7019467"><ele>111.85714285714285</ele><time>2026-04-18T14:59:58.885Z</time></trkpt><trkpt lat="43.8871417" lon="12.7019217"><ele>112.42857142857143</ele><time>2026-04-18T14:59:59.886Z</time></trkpt><trkpt lat="43.88721" lon="12.7018917"><ele>113.0</ele><time>2026-04-18T15:00:00.885Z</time></trkpt><trkpt lat="43.887275" lon="12.7018433"><ele>113.99999999999999</ele><time>2026-04-18T15:00:01.888Z</time></trkpt><trkpt lat="43.8873367" lon="12.70178"><ele>115.0</ele><time>2026-04-18T15:00:02.886Z</time></trkpt><trkpt lat="43.8874017" lon="12.701705"><ele>116.0</ele><time>2026-04-18T15:00:03.885Z</time></trkpt><trkpt lat="43.8874667" lon="12.7016233"><ele>117.0</ele><time>2026-04-18T15:00:04.885Z</time></trkpt><trkpt lat="43.8875333" lon="12.7015383"><ele>117.99999999999999</ele><time>2026-04-18T15:00:05.89Z</time></trkpt><trkpt lat="43.8875967" lon="12.70146"><ele>119.0</ele><time>2026-04-18T15:00:06.885Z</time></trkpt><trkpt lat="43.8876533" lon="12.7013883"><ele>119.28571428571428</ele><time>2026-04-18T15:00:07.885Z</time></trkpt><trkpt lat="43.88771" lon="12.7013233"><ele>119.57142857142857</ele><time>2026-04-18T15:00:08.886Z</time></trkpt><trkpt lat="43.8877667" lon="12.7012633"><ele>119.85714285714286</ele><time>2026-04-18T15:00:09.886Z</time></trkpt><trkpt lat="43.8878233" lon="12.7012117"><ele>120.14285714285714</ele><time>2026-04-18T15:00:10.888Z</time></trkpt><trkpt lat="43.8878767" lon="12.70116"><ele>120.42857142857142</ele><time>2026-04-18T15:00:11.887Z</time></trkpt><trkpt lat="43.8879267" lon="12.7011067"><ele>120.71428571428571</ele><time>2026-04-18T15:00:12.888Z</time></trkpt><trkpt lat="43.8879783" lon="12.7010517"><ele>121.0</ele><time>2026-04-18T15:00:13.887Z</time></trkpt><trkpt lat="43.8880417" lon="12.7009867"><ele>121.83333333333334</ele><time>2026-04-18T15:00:14.886Z</time></trkpt><trkpt lat="43.8881" lon="12.7009267"><ele>122.66666666666667</ele><time>2026-04-18T15:00:15.888Z</time></trkpt><trkpt lat="43.8881583" lon="12.700865"><ele>123.5</ele><time>2026-04-18T15:00:16.886Z</time></trkpt><trkpt lat="43.88822" lon="12.7008017"><ele>124.33333333333334</ele><time>2026-04-18T15:00:17.885Z</time></trkpt><trkpt lat="43.888285" lon="12.700735"><ele>125.16666666666667</ele><time>2026-04-18T15:00:18.887Z</time></trkpt><trkpt lat="43.88835" lon="12.700665"><ele>126.0</ele><time>2026-04-18T15:00:19.885Z</time></trkpt><trkpt lat="43.8884183" lon="12.7005883"><ele>125.83333333333333</ele><time>2026-04-18T15:00:20.885Z</time></trkpt><trkpt lat="43.8884933" lon="12.70051"><ele>125.66666666666666</ele><time>2026-04-18T15:00:21.886Z</time></trkpt><trkpt lat="43.8885683" lon="12.7004283"><ele>125.5</ele><time>2026-04-18T15:00:22.885Z</time></trkpt><trkpt lat="43.8886433" lon="12.7003467"><ele>125.33333333333333</ele><time>2026-04-18T15:00:23.889Z</time></trkpt><trkpt lat="43.8887133" lon="12.7002767"><ele>125.16666666666666</ele><time>2026-04-18T15:00:24.888Z</time></trkpt><trkpt lat="43.88877" lon="12.7002183"><ele>125.0</ele><time>2026-04-18T15:00:25.889Z</time></trkpt><trkpt lat="43.8888517" lon="12.700125"><ele>126.49999999999999</ele><time>2026-04-18T15:00:27.887Z</time></trkpt><trkpt lat="43.88889" lon="12.7000267"><ele>128.0</ele><time>2026-04-18T15:00:30.885Z</time></trkpt><trkpt lat="43.8889033" lon="12.69993"><ele>129.5</ele><time>2026-04-18T15:00:33.885Z</time></trkpt><trkpt lat="43.88886" lon="12.6998633"><ele>131.0</ele><time>2026-04-18T15:00:37.887Z</time></trkpt><trkpt lat="43.88884" lon="12.699955"><ele>132.5</ele><time>2026-04-18T15:00:41.885Z</time></trkpt><trkpt lat="43.888925" lon="12.6999933"><ele>134.0</ele><time>2026-04-18T15:00:55.888Z</time></trkpt><trkpt lat="43.8890067" lon="12.69998"><ele>134.0</ele><time>2026-04-18T15:00:57.888Z</time></trkpt><trkpt lat="43.8891033" lon="12.699975"><ele>134.0</ele><time>2026-04-18T15:00:59.886Z</time></trkpt><trkpt lat="43.8891683" lon="12.6999683"><ele>134.0</ele><time>2026-04-18T15:01:00.886Z</time></trkpt><trkpt lat="43.8892917" lon="12.6999533"><ele>134.0</ele><time>2026-04-18T15:01:02.886Z</time></trkpt><trkpt lat="43.889355" lon="12.6999433"><ele>134.0</ele><time>2026-04-18T15:01:03.887Z</time></trkpt><trkpt lat="43.8894233" lon="12.69994"><ele>134.0</ele><time>2026-04-18T15:01:04.885Z</time></trkpt><trkpt lat="43.8894967" lon="12.6999417"><ele>133.66666666666666</ele><time>2026-04-18T15:01:05.886Z</time></trkpt><trkpt lat="43.889565" lon="12.69994"><ele>133.33333333333331</ele><time>2026-04-18T15:01:06.885Z</time></trkpt><trkpt lat="43.889635" lon="12.6999383"><ele>133.0</ele><time>2026-04-18T15:01:07.887Z</time></trkpt><trkpt lat="43.8897" lon="12.6999367"><ele>132.66666666666666</ele><time>2026-04-18T15:01:08.886Z</time></trkpt><trkpt lat="43.8898167" lon="12.69993"><ele>132.33333333333334</ele><time>2026-04-18T15:01:10.889Z</time></trkpt><trkpt lat="43.8899317" lon="12.6999167"><ele>132.0</ele><time>2026-04-18T15:01:12.885Z</time></trkpt><trkpt lat="43.890035" lon="12.69991"><ele>131.6</ele><time>2026-04-18T15:01:14.889Z</time></trkpt><trkpt lat="43.890125" lon="12.6998933"><ele>131.2</ele><time>2026-04-18T15:01:16.885Z</time></trkpt><trkpt lat="43.8902083" lon="12.6998733"><ele>130.8</ele><time>2026-04-18T15:01:18.889Z</time></trkpt><trkpt lat="43.890295" lon="12.6998533"><ele>130.4</ele><time>2026-04-18T15:01:20.886Z</time></trkpt><trkpt lat="43.890385" lon="12.69983"><ele>130.0</ele><time>2026-04-18T15:01:22.888Z</time></trkpt><trkpt lat="43.8904833" lon="12.6998067"><ele>130.0</ele><time>2026-04-18T15:01:24.889Z</time></trkpt><trkpt lat="43.89058" lon="12.6997783"><ele>130.0</ele><time>2026-04-18T15:01:26.889Z</time></trkpt><trkpt lat="43.890655" lon="12.6997567"><ele>130.0</ele><time>2026-04-18T15:01:28.885Z</time></trkpt><trkpt lat="43.89073" lon="12.6997233"><ele>130.0</ele><time>2026-04-18T15:01:30.885Z</time></trkpt><trkpt lat="43.8908017" lon="12.699695"><ele>130.0</ele><time>2026-04-18T15:01:32.885Z</time></trkpt><trkpt lat="43.8908667" lon="12.6996783"><ele>130.0</ele><time>2026-04-18T15:01:34.885Z</time></trkpt><trkpt lat="43.8909433" lon="12.699655"><ele>129.71428571428572</ele><time>2026-04-18T15:01:36.887Z</time></trkpt><trkpt lat="43.8910117" lon="12.6996367"><ele>129.42857142857144</ele><time>2026-04-18T15:01:38.887Z</time></trkpt><trkpt lat="43.8910867" lon="12.6996117"><ele>129.14285714285714</ele><time>2026-04-18T15:01:40.886Z</time></trkpt><trkpt lat="43.891165" lon="12.6995917"><ele>128.85714285714286</ele><time>2026-04-18T15:01:42.886Z</time></trkpt><trkpt lat="43.891235" lon="12.69957"><ele>128.57142857142856</ele><time>2026-04-18T15:01:44.886Z</time></trkpt><trkpt lat="43.8913017" lon="12.6995533"><ele>128.28571428571428</ele><time>2026-04-18T15:01:46.887Z</time></trkpt><trkpt lat="43.8913717" lon="12.6995367"><ele>128.0</ele><time>2026-04-18T15:01:48.885Z</time></trkpt><trkpt lat="43.8914467" lon="12.6995183"><ele>128.0</ele><time>2026-04-18T15:01:50.888Z</time></trkpt><trkpt lat="43.8915383" lon="12.6994933"><ele>128.0</ele><time>2026-04-18T15:01:52.888Z</time></trkpt><trkpt lat="43.8916217" lon="12.6994767"><ele>128.0</ele><time>2026-04-18T15:01:54.889Z</time></trkpt><trkpt lat="43.8917133" lon="12.6994533"><ele>128.0</ele><time>2026-04-18T15:01:56.886Z</time></trkpt><trkpt lat="43.8918017" lon="12.6994283"><ele>128.0</ele><time>2026-04-18T15:01:58.886Z</time></trkpt><trkpt lat="43.89189" lon="12.6994017"><ele>128.83333333333331</ele><time>2026-04-18T15:02:00.886Z</time></trkpt><trkpt lat="43.8919833" lon="12.699375"><ele>129.66666666666666</ele><time>2026-04-18T15:02:02.886Z</time></trkpt><trkpt lat="43.89205" lon="12.6993567"><ele>130.5</ele><time>2026-04-18T15:02:04.886Z</time></trkpt><trkpt lat="43.8921217" lon="12.69933"><ele>131.33333333333334</ele><time>2026-04-18T15:02:06.887Z</time></trkpt><trkpt lat="43.892215" lon="12.6993"><ele>132.16666666666669</ele><time>2026-04-18T15:02:08.886Z</time></trkpt><trkpt lat="43.8923067" lon="12.6992783"><ele>133.0</ele><time>2026-04-18T15:02:10.886Z</time></trkpt><trkpt lat="43.8923767" lon="12.6992667"><ele>133.0</ele><time>2026-04-18T15:02:12.886Z</time></trkpt><trkpt lat="43.8924433" lon="12.6992467"><ele>133.0</ele><time>2026-04-18T15:02:15.885Z</time></trkpt><trkpt lat="43.89252" lon="12.6992183"><ele>133.0</ele><time>2026-04-18T15:02:18.889Z</time></trkpt><trkpt lat="43.892595" lon="12.699185"><ele>133.0</ele><time>2026-04-18T15:02:21.885Z</time></trkpt><trkpt lat="43.89267" lon="12.69922"><ele>133.0</ele><time>2026-04-18T15:07:06.888Z</time></trkpt><trkpt lat="43.89276" lon="12.699195"><ele>133.0</ele><time>2026-04-18T15:07:09.889Z</time></trkpt><trkpt lat="43.8928367" lon="12.699145"><ele>132.66666666666669</ele><time>2026-04-18T15:07:11.888Z</time></trkpt><trkpt lat="43.8929367" lon="12.6991"><ele>132.33333333333334</ele><time>2026-04-18T15:07:13.888Z</time></trkpt><trkpt lat="43.8930667" lon="12.6990567"><ele>132.0</ele><time>2026-04-18T15:07:15.888Z</time></trkpt><trkpt lat="43.8931317" lon="12.6990283"><ele>131.66666666666666</ele><time>2026-04-18T15:07:16.891Z</time></trkpt><trkpt lat="43.8931967" lon="12.698995"><ele>131.33333333333331</ele><time>2026-04-18T15:07:17.888Z</time></trkpt><trkpt lat="43.8932583" lon="12.6989583"><ele>131.0</ele><time>2026-04-18T15:07:18.888Z</time></trkpt><trkpt lat="43.8933517" lon="12.6988883"><ele>130.8</ele><time>2026-04-18T15:07:20.889Z</time></trkpt><trkpt lat="43.893435" lon="12.698825"><ele>130.6</ele><time>2026-04-18T15:07:22.888Z</time></trkpt><trkpt lat="43.893535" lon="12.6987533"><ele>130.4</ele><time>2026-04-18T15:07:24.886Z</time></trkpt><trkpt lat="43.89362" lon="12.698675"><ele>130.2</ele><time>2026-04-18T15:07:26.889Z</time></trkpt><trkpt lat="43.893695" lon="12.6985817"><ele>130.0</ele><time>2026-04-18T15:07:28.889Z</time></trkpt><trkpt lat="43.8937617" lon="12.6984867"><ele>132.0</ele><time>2026-04-18T15:07:30.89Z</time></trkpt><trkpt lat="43.893835" lon="12.6983817"><ele>134.0</ele><time>2026-04-18T15:07:32.889Z</time></trkpt><trkpt lat="43.8939017" lon="12.6982733"><ele>136.0</ele><time>2026-04-18T15:07:34.888Z</time></trkpt><trkpt lat="43.8939683" lon="12.6981583"><ele>138.0</ele><time>2026-04-18T15:07:36.888Z</time></trkpt><trkpt lat="43.89404" lon="12.6980517"><ele>140.0</ele><time>2026-04-18T15:07:38.889Z</time></trkpt><trkpt lat="43.89413" lon="12.69793"><ele>140.0</ele><time>2026-04-18T15:07:40.889Z</time></trkpt><trkpt lat="43.8941817" lon="12.6978567"><ele>140.0</ele><time>2026-04-18T15:07:41.89Z</time></trkpt><trkpt lat="43.8942383" lon="12.69778"><ele>140.0</ele><time>2026-04-18T15:07:42.888Z</time></trkpt><trkpt lat="43.8943" lon="12.6976983"><ele>140.0</ele><time>2026-04-18T15:07:43.89Z</time></trkpt><trkpt lat="43.8943633" lon="12.6976133"><ele>140.0</ele><time>2026-04-18T15:07:44.888Z</time></trkpt><trkpt lat="43.8944317" lon="12.69753"><ele>140.0</ele><time>2026-04-18T15:07:45.888Z</time></trkpt><trkpt lat="43.894505" lon="12.697445"><ele>143.0</ele><time>2026-04-18T15:07:46.888Z</time></trkpt><trkpt lat="43.894585" lon="12.6973633"><ele>146.0</ele><time>2026-04-18T15:07:47.89Z</time></trkpt><trkpt lat="43.8946633" lon="12.6972933"><ele>149.0</ele><time>2026-04-18T15:07:48.888Z</time></trkpt><trkpt lat="43.8947467" lon="12.6972283"><ele>152.0</ele><time>2026-04-18T15:07:49.889Z</time></trkpt><trkpt lat="43.894825" lon="12.6971733"><ele>155.0</ele><time>2026-04-18T15:07:50.888Z</time></trkpt><trkpt lat="43.8948967" lon="12.69713"><ele>155.0</ele><time>2026-04-18T15:07:51.889Z</time></trkpt><trkpt lat="43.89497" lon="12.6970967"><ele>155.0</ele><time>2026-04-18T15:07:52.889Z</time></trkpt><trkpt lat="43.895045" lon="12.69707"><ele>155.0</ele><time>2026-04-18T15:07:53.888Z</time></trkpt><trkpt lat="43.895125" lon="12.6970467"><ele>155.0</ele><time>2026-04-18T15:07:54.89Z</time></trkpt><trkpt lat="43.895215" lon="12.6970183"><ele>155.0</ele><time>2026-04-18T15:07:55.891Z</time></trkpt><trkpt lat="43.89531" lon="12.696975"><ele>155.0</ele><time>2026-04-18T15:07:56.889Z</time></trkpt><trkpt lat="43.895405" lon="12.6969367"><ele>155.33333333333331</ele><time>2026-04-18T15:07:57.89Z</time></trkpt><trkpt lat="43.8954933" lon="12.696905"><ele>155.66666666666666</ele><time>2026-04-18T15:07:58.888Z</time></trkpt><trkpt lat="43.8955783" lon="12.6968867"><ele>156.0</ele><time>2026-04-18T15:07:59.887Z</time></trkpt><trkpt lat="43.8956667" lon="12.696885"><ele>156.33333333333334</ele><time>2026-04-18T15:08:00.889Z</time></trkpt><trkpt lat="43.8957517" lon="12.6969033"><ele>156.66666666666669</ele><time>2026-04-18T15:08:01.888Z</time></trkpt><trkpt lat="43.8958333" lon="12.6969217"><ele>157.0</ele><time>2026-04-18T15:08:02.889Z</time></trkpt><trkpt lat="43.8959133" lon="12.69694"><ele>158.83333333333334</ele><time>2026-04-18T15:08:03.885Z</time></trkpt><trkpt lat="43.895995" lon="12.6969567"><ele>160.66666666666669</ele><time>2026-04-18T15:08:04.888Z</time></trkpt><trkpt lat="43.8960817" lon="12.6969633"><ele>162.5</ele><time>2026-04-18T15:08:05.89Z</time></trkpt><trkpt lat="43.8961633" lon="12.6969633"><ele>164.33333333333334</ele><time>2026-04-18T15:08:06.888Z</time></trkpt><trkpt lat="43.8962333" lon="12.6969533"><ele>166.16666666666666</ele><time>2026-04-18T15:08:07.887Z</time></trkpt><trkpt lat="43.8963333" lon="12.696905"><ele>168.0</ele><time>2026-04-18T15:08:09.888Z</time></trkpt><trkpt lat="43.89642" lon="12.6968283"><ele>168.0</ele><time>2026-04-18T15:08:11.887Z</time></trkpt><trkpt lat="43.8965233" lon="12.69675"><ele>168.0</ele><time>2026-04-18T15:08:13.89Z</time></trkpt><trkpt lat="43.8965833" lon="12.6967067"><ele>168.0</ele><time>2026-04-18T15:08:14.888Z</time></trkpt><trkpt lat="43.8966483" lon="12.6966617"><ele>168.0</ele><time>2026-04-18T15:08:15.889Z</time></trkpt><trkpt lat="43.8967183" lon="12.6966183"><ele>168.0</ele><time>2026-04-18T15:08:16.887Z</time></trkpt><trkpt lat="43.8967917" lon="12.6965717"><ele>168.0</ele><time>2026-04-18T15:08:17.888Z</time></trkpt><trkpt lat="43.89686" lon="12.6965183"><ele>167.5</ele><time>2026-04-18T15:08:18.888Z</time></trkpt><trkpt lat="43.8969183" lon="12.6964533"><ele>167.0</ele><time>2026-04-18T15:08:19.888Z</time></trkpt><trkpt lat="43.89697" lon="12.696375"><ele>166.5</ele><time>2026-04-18T15:08:20.888Z</time></trkpt><trkpt lat="43.8970133" lon="12.6962867"><ele>166.0</ele><time>2026-04-18T15:08:21.888Z</time></trkpt><trkpt lat="43.8970533" lon="12.6961983"><ele>165.5</ele><time>2026-04-18T15:08:22.889Z</time></trkpt><trkpt lat="43.8970933" lon="12.6961067"><ele>165.0</ele><time>2026-04-18T15:08:23.889Z</time></trkpt><trkpt lat="43.8971383" lon="12.6960067"><ele>165.0</ele><time>2026-04-18T15:08:24.889Z</time></trkpt><trkpt lat="43.8971867" lon="12.6959083"><ele>165.0</ele><time>2026-04-18T15:08:25.888Z</time></trkpt><trkpt lat="43.8972317" lon="12.6958167"><ele>165.0</ele><time>2026-04-18T15:08:26.889Z</time></trkpt><trkpt lat="43.8972683" lon="12.6957233"><ele>165.0</ele><time>2026-04-18T15:08:27.886Z</time></trkpt><trkpt lat="43.897295" lon="12.695615"><ele>165.0</ele><time>2026-04-18T15:08:28.889Z</time></trkpt><trkpt lat="43.8973133" lon="12.6955033"><ele>165.0</ele><time>2026-04-18T15:08:29.888Z</time></trkpt><trkpt lat="43.89732" lon="12.6953833"><ele>163.6</ele><time>2026-04-18T15:08:30.885Z</time></trkpt><trkpt lat="43.8973133" lon="12.6952383"><ele>162.2</ele><time>2026-04-18T15:08:31.889Z</time></trkpt><trkpt lat="43.8973133" lon="12.6950967"><ele>160.8</ele><time>2026-04-18T15:08:32.889Z</time></trkpt><trkpt lat="43.897315" lon="12.69497"><ele>159.4</ele><time>2026-04-18T15:08:33.889Z</time></trkpt><trkpt lat="43.8973117" lon="12.6948583"><ele>158.0</ele><time>2026-04-18T15:08:34.889Z</time></trkpt><trkpt lat="43.8973067" lon="12.6947567"><ele>158.0</ele><time>2026-04-18T15:08:35.888Z</time></trkpt><trkpt lat="43.8972917" lon="12.6945983"><ele>158.0</ele><time>2026-04-18T15:08:37.89Z</time></trkpt><trkpt lat="43.8972967" lon="12.6945017"><ele>158.0</ele><time>2026-04-18T15:08:39.891Z</time></trkpt><trkpt lat="43.89737" lon="12.6944967"><ele>158.0</ele><time>2026-04-18T15:08:42.888Z</time></trkpt><trkpt lat="43.89743" lon="12.6945767"><ele>158.0</ele><time>2026-04-18T15:08:44.89Z</time></trkpt><trkpt lat="43.8974733" lon="12.6946567"><ele>158.0</ele><time>2026-04-18T15:08:45.89Z</time></trkpt><trkpt lat="43.897535" lon="12.6947667"><ele>157.5</ele><time>2026-04-18T15:08:46.89Z</time></trkpt><trkpt lat="43.897615" lon="12.6948983"><ele>157.0</ele><time>2026-04-18T15:08:47.889Z</time></trkpt><trkpt lat="43.8977033" lon="12.6950367"><ele>156.5</ele><time>2026-04-18T15:08:48.889Z</time></trkpt><trkpt lat="43.8978033" lon="12.6951833"><ele>156.0</ele><time>2026-04-18T15:08:49.889Z</time></trkpt><trkpt lat="43.897905" lon="12.6953333"><ele>156.0</ele><time>2026-04-18T15:08:50.889Z</time></trkpt><trkpt lat="43.8980083" lon="12.6954817"><ele>156.0</ele><time>2026-04-18T15:08:51.89Z</time></trkpt><trkpt lat="43.8981233" lon="12.6956183"><ele>156.0</ele><time>2026-04-18T15:08:52.888Z</time></trkpt><trkpt lat="43.8982567" lon="12.6957417"><ele>156.0</ele><time>2026-04-18T15:08:53.888Z</time></trkpt><trkpt lat="43.8983967" lon="12.695865"><ele>156.0</ele><time>2026-04-18T15:08:54.889Z</time></trkpt><trkpt lat="43.89854" lon="12.6959917"><ele>156.0</ele><time>2026-04-18T15:08:55.889Z</time></trkpt><trkpt lat="43.8986867" lon="12.696115"><ele>157.33333333333334</ele><time>2026-04-18T15:08:56.888Z</time></trkpt><trkpt lat="43.8988367" lon="12.6962217"><ele>158.66666666666669</ele><time>2026-04-18T15:08:57.889Z</time></trkpt><trkpt lat="43.8989817" lon="12.69631"><ele>160.0</ele><time>2026-04-18T15:08:58.888Z</time></trkpt><trkpt lat="43.8991183" lon="12.6963867"><ele>160.0</ele><time>2026-04-18T15:08:59.889Z</time></trkpt><trkpt lat="43.8992467" lon="12.6964567"><ele>160.0</ele><time>2026-04-18T15:09:00.888Z</time></trkpt><trkpt lat="43.899365" lon="12.6965283"><ele>160.0</ele><time>2026-04-18T15:09:01.889Z</time></trkpt><trkpt lat="43.8994617" lon="12.6966067"><ele>160.0</ele><time>2026-04-18T15:09:02.888Z</time></trkpt><trkpt lat="43.8995283" lon="12.6966917"><ele>158.6</ele><time>2026-04-18T15:09:03.889Z</time></trkpt><trkpt lat="43.8995833" lon="12.6967633"><ele>157.2</ele><time>2026-04-18T15:09:04.889Z</time></trkpt><trkpt lat="43.8996183" lon="12.6968717"><ele>155.8</ele><time>2026-04-18T15:09:06.888Z</time></trkpt><trkpt lat="43.8995967" lon="12.6969633"><ele>154.4</ele><time>2026-04-18T15:09:08.889Z</time></trkpt><trkpt lat="43.89956" lon="12.69714"><ele>153.0</ele><time>2026-04-18T15:09:10.889Z</time></trkpt><trkpt lat="43.8995183" lon="12.6972567"><ele>152.75</ele><time>2026-04-18T15:09:11.888Z</time></trkpt><trkpt lat="43.8994633" lon="12.697385"><ele>152.5</ele><time>2026-04-18T15:09:12.889Z</time></trkpt><trkpt lat="43.8994067" lon="12.69751"><ele>152.25</ele><time>2026-04-18T15:09:13.891Z</time></trkpt><trkpt lat="43.8992983" lon="12.6977333"><ele>152.0</ele><time>2026-04-18T15:09:15.891Z</time></trkpt><trkpt lat="43.8992483" lon="12.6978367"><ele>152.5</ele><time>2026-04-18T15:09:16.889Z</time></trkpt><trkpt lat="43.8992017" lon="12.6979417"><ele>153.0</ele><time>2026-04-18T15:09:17.888Z</time></trkpt><trkpt lat="43.8991583" lon="12.698045"><ele>153.5</ele><time>2026-04-18T15:09:18.889Z</time></trkpt><trkpt lat="43.8991217" lon="12.6981383"><ele>154.0</ele><time>2026-04-18T15:09:19.892Z</time></trkpt><trkpt lat="43.8990833" lon="12.698225"><ele>154.5</ele><time>2026-04-18T15:09:20.888Z</time></trkpt><trkpt lat="43.8990433" lon="12.6982983"><ele>155.0</ele><time>2026-04-18T15:09:21.893Z</time></trkpt><trkpt lat="43.8989783" lon="12.6983917"><ele>155.0</ele><time>2026-04-18T15:09:23.89Z</time></trkpt><trkpt lat="43.8990533" lon="12.6982967"><ele>155.0</ele><time>2026-04-18T15:09:29.886Z</time></trkpt><trkpt lat="43.8990917" lon="12.6982017"><ele>155.0</ele><time>2026-04-18T15:09:30.886Z</time></trkpt><trkpt lat="43.8991433" lon="12.6980867"><ele>155.0</ele><time>2026-04-18T15:09:31.888Z</time></trkpt><trkpt lat="43.8992083" lon="12.6979517"><ele>155.0</ele><time>2026-04-18T15:09:32.885Z</time></trkpt><trkpt lat="43.89928" lon="12.6977983"><ele>154.25</ele><time>2026-04-18T15:09:33.887Z</time></trkpt><trkpt lat="43.8993483" lon="12.697635"><ele>153.5</ele><time>2026-04-18T15:09:34.885Z</time></trkpt><trkpt lat="43.8994083" lon="12.69748"><ele>152.75</ele><time>2026-04-18T15:09:35.886Z</time></trkpt><trkpt lat="43.89947" lon="12.6973367"><ele>152.0</ele><time>2026-04-18T15:09:36.885Z</time></trkpt><trkpt lat="43.8995233" lon="12.697205"><ele>152.0</ele><time>2026-04-18T15:09:37.886Z</time></trkpt><trkpt lat="43.89956" lon="12.6970783"><ele>152.0</ele><time>2026-04-18T15:09:38.885Z</time></trkpt><trkpt lat="43.8995867" lon="12.6969733"><ele>152.0</ele><time>2026-04-18T15:09:39.888Z</time></trkpt><trkpt lat="43.8996483" lon="12.6968433"><ele>152.0</ele><time>2026-04-18T15:09:41.888Z</time></trkpt><trkpt lat="43.89977" lon="12.6968133"><ele>152.0</ele><time>2026-04-18T15:09:43.889Z</time></trkpt><trkpt lat="43.8998617" lon="12.696825"><ele>152.2</ele><time>2026-04-18T15:09:44.887Z</time></trkpt><trkpt lat="43.899955" lon="12.6968333"><ele>152.39999999999998</ele><time>2026-04-18T15:09:45.889Z</time></trkpt><trkpt lat="43.9000517" lon="12.6968433"><ele>152.60000000000002</ele><time>2026-04-18T15:09:46.887Z</time></trkpt><trkpt lat="43.9001433" lon="12.6968517"><ele>152.8</ele><time>2026-04-18T15:09:47.888Z</time></trkpt><trkpt lat="43.9002383" lon="12.6968617"><ele>153.0</ele><time>2026-04-18T15:09:48.887Z</time></trkpt><trkpt lat="43.900335" lon="12.6968683"><ele>152.0</ele><time>2026-04-18T15:09:49.886Z</time></trkpt><trkpt lat="43.90044" lon="12.6968717"><ele>151.0</ele><time>2026-04-18T15:09:50.885Z</time></trkpt><trkpt lat="43.9005467" lon="12.6968733"><ele>150.0</ele><time>2026-04-18T15:09:51.888Z</time></trkpt><trkpt lat="43.900655" lon="12.696875"><ele>149.0</ele><time>2026-04-18T15:09:52.887Z</time></trkpt><trkpt lat="43.9007633" lon="12.6968767"><ele>148.0</ele><time>2026-04-18T15:09:53.888Z</time></trkpt><trkpt lat="43.90087" lon="12.696885"><ele>147.0</ele><time>2026-04-18T15:09:54.889Z</time></trkpt><trkpt lat="43.9009767" lon="12.6968983"><ele>146.0</ele><time>2026-04-18T15:09:55.889Z</time></trkpt><trkpt lat="43.901085" lon="12.6969167"><ele>145.0</ele><time>2026-04-18T15:09:56.888Z</time></trkpt><trkpt lat="43.901195" lon="12.69694"><ele>144.0</ele><time>2026-04-18T15:09:57.888Z</time></trkpt><trkpt lat="43.901305" lon="12.6969683"><ele>143.0</ele><time>2026-04-18T15:09:58.888Z</time></trkpt><trkpt lat="43.901425" lon="12.6970017"><ele>143.0</ele><time>2026-04-18T15:09:59.888Z</time></trkpt><trkpt lat="43.9015517" lon="12.6970433"><ele>143.0</ele><time>2026-04-18T15:10:00.886Z</time></trkpt><trkpt lat="43.9016867" lon="12.6970833"><ele>143.0</ele><time>2026-04-18T15:10:01.889Z</time></trkpt><trkpt lat="43.9018267" lon="12.6971267"><ele>143.0</ele><time>2026-04-18T15:10:02.888Z</time></trkpt><trkpt lat="43.9019717" lon="12.6971633"><ele>142.0</ele><time>2026-04-18T15:10:03.888Z</time></trkpt><trkpt lat="43.90212" lon="12.69719"><ele>141.0</ele><time>2026-04-18T15:10:04.889Z</time></trkpt><trkpt lat="43.9022617" lon="12.6971983"><ele>140.0</ele><time>2026-04-18T15:10:05.887Z</time></trkpt><trkpt lat="43.9024033" lon="12.697175"><ele>139.0</ele><time>2026-04-18T15:10:06.888Z</time></trkpt><trkpt lat="43.9025467" lon="12.6971283"><ele>140.0</ele><time>2026-04-18T15:10:07.889Z</time></trkpt><trkpt lat="43.9026917" lon="12.6970733"><ele>141.0</ele><time>2026-04-18T15:10:08.886Z</time></trkpt><trkpt lat="43.90297" lon="12.696955"><ele>142.0</ele><time>2026-04-18T15:10:10.887Z</time></trkpt><trkpt lat="43.9031067" lon="12.696905"><ele>142.25</ele><time>2026-04-18T15:10:11.888Z</time></trkpt><trkpt lat="43.9032417" lon="12.696875"><ele>142.5</ele><time>2026-04-18T15:10:12.887Z</time></trkpt><trkpt lat="43.9033717" lon="12.69686"><ele>142.75</ele><time>2026-04-18T15:10:13.889Z</time></trkpt><trkpt lat="43.903505" lon="12.6968483"><ele>143.0</ele><time>2026-04-18T15:10:14.886Z</time></trkpt><trkpt lat="43.903635" lon="12.6968333"><ele>144.25</ele><time>2026-04-18T15:10:15.886Z</time></trkpt><trkpt lat="43.9037617" lon="12.6968083"><ele>145.5</ele><time>2026-04-18T15:10:16.89Z</time></trkpt><trkpt lat="43.9038867" lon="12.696775"><ele>146.75</ele><time>2026-04-18T15:10:17.886Z</time></trkpt><trkpt lat="43.9040117" lon="12.6967417"><ele>148.0</ele><time>2026-04-18T15:10:18.885Z</time></trkpt><trkpt lat="43.9041333" lon="12.696725"><ele>148.0</ele><time>2026-04-18T15:10:19.886Z</time></trkpt><trkpt lat="43.9042567" lon="12.6967517"><ele>148.0</ele><time>2026-04-18T15:10:20.885Z</time></trkpt><trkpt lat="43.9043733" lon="12.6968167"><ele>148.0</ele><time>2026-04-18T15:10:21.886Z</time></trkpt><trkpt lat="43.9044883" lon="12.69691"><ele>148.0</ele><time>2026-04-18T15:10:22.885Z</time></trkpt><trkpt lat="43.904605" lon="12.69702"><ele>149.0</ele><time>2026-04-18T15:10:23.889Z</time></trkpt><trkpt lat="43.9047217" lon="12.6971433"><ele>150.0</ele><time>2026-04-18T15:10:24.889Z</time></trkpt><trkpt lat="43.9048383" lon="12.6972633"><ele>151.0</ele><time>2026-04-18T15:10:25.889Z</time></trkpt><trkpt lat="43.9049517" lon="12.6973783"><ele>152.0</ele><time>2026-04-18T15:10:26.888Z</time></trkpt><trkpt lat="43.9050617" lon="12.69749"><ele>152.25</ele><time>2026-04-18T15:10:27.887Z</time></trkpt><trkpt lat="43.9051717" lon="12.697595"><ele>152.5</ele><time>2026-04-18T15:10:28.888Z</time></trkpt><trkpt lat="43.90528" lon="12.6976883"><ele>152.75</ele><time>2026-04-18T15:10:29.889Z</time></trkpt><trkpt lat="43.9053867" lon="12.6977817"><ele>153.0</ele><time>2026-04-18T15:10:30.888Z</time></trkpt><trkpt lat="43.9054933" lon="12.6978767"><ele>153.0</ele><time>2026-04-18T15:10:31.89Z</time></trkpt><trkpt lat="43.9056017" lon="12.6979667"><ele>153.0</ele><time>2026-04-18T15:10:32.888Z</time></trkpt><trkpt lat="43.90571" lon="12.6980567"><ele>153.0</ele><time>2026-04-18T15:10:33.888Z</time></trkpt><trkpt lat="43.9058167" lon="12.698145"><ele>153.0</ele><time>2026-04-18T15:10:34.888Z</time></trkpt><trkpt lat="43.9059133" lon="12.6982283"><ele>152.25</ele><time>2026-04-18T15:10:35.889Z</time></trkpt><trkpt lat="43.9060133" lon="12.6983133"><ele>151.5</ele><time>2026-04-18T15:10:36.889Z</time></trkpt><trkpt lat="43.9061117" lon="12.6984017"><ele>150.75</ele><time>2026-04-18T15:10:37.889Z</time></trkpt><trkpt lat="43.9062117" lon="12.6984917"><ele>150.0</ele><time>2026-04-18T15:10:38.888Z</time></trkpt><trkpt lat="43.90631" lon="12.6985783"><ele>150.5</ele><time>2026-04-18T15:10:39.889Z</time></trkpt><trkpt lat="43.9064117" lon="12.6986633"><ele>151.0</ele><time>2026-04-18T15:10:40.887Z</time></trkpt><trkpt lat="43.9065133" lon="12.6987483"><ele>151.5</ele><time>2026-04-18T15:10:41.89Z</time></trkpt><trkpt lat="43.9066167" lon="12.6988333"><ele>152.0</ele><time>2026-04-18T15:10:42.889Z</time></trkpt><trkpt lat="43.9067217" lon="12.698925"><ele>150.75</ele><time>2026-04-18T15:10:43.891Z</time></trkpt><trkpt lat="43.9068317" lon="12.6990167"><ele>149.5</ele><time>2026-04-18T15:10:44.887Z</time></trkpt><trkpt lat="43.9069467" lon="12.6991133"><ele>148.25</ele><time>2026-04-18T15:10:45.889Z</time></trkpt><trkpt lat="43.90706" lon="12.6992117"><ele>147.0</ele><time>2026-04-18T15:10:46.885Z</time></trkpt><trkpt lat="43.90717" lon="12.6993083"><ele>147.0</ele><time>2026-04-18T15:10:47.886Z</time></trkpt><trkpt lat="43.90728" lon="12.6994067"><ele>147.0</ele><time>2026-04-18T15:10:48.887Z</time></trkpt><trkpt lat="43.9073867" lon="12.6995017"><ele>147.0</ele><time>2026-04-18T15:10:49.89Z</time></trkpt><trkpt lat="43.90749" lon="12.6996"><ele>147.0</ele><time>2026-04-18T15:10:50.888Z</time></trkpt><trkpt lat="43.90759" lon="12.6997033"><ele>147.5</ele><time>2026-04-18T15:10:51.889Z</time></trkpt><trkpt lat="43.9076883" lon="12.6998167"><ele>148.0</ele><time>2026-04-18T15:10:52.889Z</time></trkpt><trkpt lat="43.9077817" lon="12.699935"><ele>148.5</ele><time>2026-04-18T15:10:53.889Z</time></trkpt><trkpt lat="43.9078633" lon="12.700055"><ele>149.0</ele><time>2026-04-18T15:10:54.889Z</time></trkpt><trkpt lat="43.9079417" lon="12.7001717"><ele>148.0</ele><time>2026-04-18T15:10:55.889Z</time></trkpt><trkpt lat="43.9080183" lon="12.70029"><ele>147.0</ele><time>2026-04-18T15:10:56.888Z</time></trkpt><trkpt lat="43.9080917" lon="12.7004033"><ele>146.0</ele><time>2026-04-18T15:10:57.889Z</time></trkpt><trkpt lat="43.9081667" lon="12.7005033"><ele>145.0</ele><time>2026-04-18T15:10:58.888Z</time></trkpt><trkpt lat="43.9082467" lon="12.700585"><ele>144.0</ele><time>2026-04-18T15:10:59.889Z</time></trkpt><trkpt lat="43.908335" lon="12.7006467"><ele>143.0</ele><time>2026-04-18T15:11:00.888Z</time></trkpt><trkpt lat="43.9084333" lon="12.7006767"><ele>142.0</ele><time>2026-04-18T15:11:01.889Z</time></trkpt><trkpt lat="43.9085333" lon="12.7006733"><ele>141.0</ele><time>2026-04-18T15:11:02.887Z</time></trkpt><trkpt lat="43.90863" lon="12.7006433"><ele>140.0</ele><time>2026-04-18T15:11:03.888Z</time></trkpt><trkpt lat="43.908725" lon="12.7005967"><ele>139.0</ele><time>2026-04-18T15:11:04.888Z</time></trkpt><trkpt lat="43.90882" lon="12.7005333"><ele>139.0</ele><time>2026-04-18T15:11:05.888Z</time></trkpt><trkpt lat="43.9089217" lon="12.70046"><ele>139.0</ele><time>2026-04-18T15:11:06.889Z</time></trkpt><trkpt lat="43.90903" lon="12.7003817"><ele>139.0</ele><time>2026-04-18T15:11:07.887Z</time></trkpt><trkpt lat="43.9091417" lon="12.7003033"><ele>139.0</ele><time>2026-04-18T15:11:08.887Z</time></trkpt><trkpt lat="43.9092483" lon="12.7002267"><ele>136.75</ele><time>2026-04-18T15:11:09.889Z</time></trkpt><trkpt lat="43.90935" lon="12.7001517"><ele>134.5</ele><time>2026-04-18T15:11:10.889Z</time></trkpt><trkpt lat="43.9094483" lon="12.7000667"><ele>132.25</ele><time>2026-04-18T15:11:11.888Z</time></trkpt><trkpt lat="43.909545" lon="12.69997"><ele>130.0</ele><time>2026-04-18T15:11:12.888Z</time></trkpt><trkpt lat="43.9096383" lon="12.6998533"><ele>130.0</ele><time>2026-04-18T15:11:13.89Z</time></trkpt><trkpt lat="43.909725" lon="12.69972"><ele>130.0</ele><time>2026-04-18T15:11:14.888Z</time></trkpt><trkpt lat="43.90981" lon="12.6995867"><ele>130.0</ele><time>2026-04-18T15:11:15.888Z</time></trkpt><trkpt lat="43.9098967" lon="12.6994567"><ele>130.0</ele><time>2026-04-18T15:11:16.887Z</time></trkpt><trkpt lat="43.9099783" lon="12.699335"><ele>131.25</ele><time>2026-04-18T15:11:17.89Z</time></trkpt><trkpt lat="43.9100633" lon="12.6992117"><ele>132.5</ele><time>2026-04-18T15:11:18.889Z</time></trkpt><trkpt lat="43.910145" lon="12.6990833"><ele>133.75</ele><time>2026-04-18T15:11:19.89Z</time></trkpt><trkpt lat="43.91023" lon="12.6989483"><ele>135.0</ele><time>2026-04-18T15:11:20.889Z</time></trkpt><trkpt lat="43.91032" lon="12.69881"><ele>133.0</ele><time>2026-04-18T15:11:21.889Z</time></trkpt><trkpt lat="43.9104133" lon="12.6986683"><ele>131.0</ele><time>2026-04-18T15:11:22.889Z</time></trkpt><trkpt lat="43.9105083" lon="12.6985267"><ele>129.0</ele><time>2026-04-18T15:11:23.888Z</time></trkpt><trkpt lat="43.9106067" lon="12.698385"><ele>127.0</ele><time>2026-04-18T15:11:24.889Z</time></trkpt><trkpt lat="43.9107067" lon="12.6982367"><ele>127.0</ele><time>2026-04-18T15:11:25.889Z</time></trkpt><trkpt lat="43.91081" lon="12.698085"><ele>127.0</ele><time>2026-04-18T15:11:26.889Z</time></trkpt><trkpt lat="43.9109133" lon="12.6979333"><ele>127.0</ele><time>2026-04-18T15:11:27.889Z</time></trkpt><trkpt lat="43.911015" lon="12.6977783"><ele>127.0</ele><time>2026-04-18T15:11:28.888Z</time></trkpt><trkpt lat="43.9111067" lon="12.69763"><ele>127.0</ele><time>2026-04-18T15:11:29.889Z</time></trkpt><trkpt lat="43.911195" lon="12.697495"><ele>127.0</ele><time>2026-04-18T15:11:30.889Z</time></trkpt><trkpt lat="43.9112817" lon="12.697365"><ele>127.0</ele><time>2026-04-18T15:11:31.891Z</time></trkpt><trkpt lat="43.911365" lon="12.697245"><ele>127.0</ele><time>2026-04-18T15:11:32.889Z</time></trkpt><trkpt lat="43.9114467" lon="12.6971283"><ele>127.0</ele><time>2026-04-18T15:11:33.889Z</time></trkpt><trkpt lat="43.9115317" lon="12.6970267"><ele>127.0</ele><time>2026-04-18T15:11:34.888Z</time></trkpt><trkpt lat="43.911635" lon="12.6969333"><ele>127.0</ele><time>2026-04-18T15:11:35.89Z</time></trkpt><trkpt lat="43.91175" lon="12.6968517"><ele>127.0</ele><time>2026-04-18T15:11:36.886Z</time></trkpt><trkpt lat="43.9118733" lon="12.6967683"><ele>127.0</ele><time>2026-04-18T15:11:37.887Z</time></trkpt><trkpt lat="43.912005" lon="12.696685"><ele>127.0</ele><time>2026-04-18T15:11:38.886Z</time></trkpt><trkpt lat="43.9121417" lon="12.696605"><ele>127.0</ele><time>2026-04-18T15:11:39.886Z</time></trkpt><trkpt lat="43.9122833" lon="12.6965167"><ele>127.0</ele><time>2026-04-18T15:11:40.89Z</time></trkpt><trkpt lat="43.9124283" lon="12.6964233"><ele>127.0</ele><time>2026-04-18T15:11:41.888Z</time></trkpt><trkpt lat="43.91258" lon="12.6963267"><ele>127.0</ele><time>2026-04-18T15:11:42.889Z</time></trkpt><trkpt lat="43.9127383" lon="12.6962217"><ele>127.66666666666667</ele><time>2026-04-18T15:11:43.89Z</time></trkpt><trkpt lat="43.9129017" lon="12.69612"><ele>128.33333333333334</ele><time>2026-04-18T15:11:44.887Z</time></trkpt><trkpt lat="43.9130633" lon="12.69602"><ele>129.0</ele><time>2026-04-18T15:11:45.889Z</time></trkpt><trkpt lat="43.9132133" lon="12.6959217"><ele>129.0</ele><time>2026-04-18T15:11:46.889Z</time></trkpt><trkpt lat="43.913355" lon="12.6958267"><ele>129.0</ele><time>2026-04-18T15:11:47.886Z</time></trkpt><trkpt lat="43.9134917" lon="12.6957267"><ele>129.0</ele><time>2026-04-18T15:11:48.887Z</time></trkpt><trkpt lat="43.913615" lon="12.6956183"><ele>128.75</ele><time>2026-04-18T15:11:49.888Z</time></trkpt><trkpt lat="43.913725" lon="12.695505"><ele>128.5</ele><time>2026-04-18T15:11:50.888Z</time></trkpt><trkpt lat="43.9138233" lon="12.6953767"><ele>128.25</ele><time>2026-04-18T15:11:51.886Z</time></trkpt><trkpt lat="43.91391" lon="12.6952283"><ele>128.0</ele><time>2026-04-18T15:11:52.886Z</time></trkpt><trkpt lat="43.913985" lon="12.695065"><ele>128.0</ele><time>2026-04-18T15:11:53.889Z</time></trkpt><trkpt lat="43.9140533" lon="12.694905"><ele>128.0</ele><time>2026-04-18T15:11:54.888Z</time></trkpt><trkpt lat="43.9141317" lon="12.694765"><ele>128.0</ele><time>2026-04-18T15:11:55.89Z</time></trkpt><trkpt lat="43.9142267" lon="12.6946533"><ele>128.0</ele><time>2026-04-18T15:11:56.888Z</time></trkpt><trkpt lat="43.9143383" lon="12.6945667"><ele>127.0</ele><time>2026-04-18T15:11:57.887Z</time></trkpt><trkpt lat="43.91446" lon="12.6944883"><ele>126.0</ele><time>2026-04-18T15:11:58.888Z</time></trkpt><trkpt lat="43.91458" lon="12.6944167"><ele>125.0</ele><time>2026-04-18T15:11:59.89Z</time></trkpt><trkpt lat="43.9147" lon="12.6943483"><ele>124.0</ele><time>2026-04-18T15:12:00.889Z</time></trkpt><trkpt lat="43.9148217" lon="12.69428"><ele>124.0</ele><time>2026-04-18T15:12:01.888Z</time></trkpt><trkpt lat="43.9149433" lon="12.694205"><ele>124.0</ele><time>2026-04-18T15:12:02.889Z</time></trkpt><trkpt lat="43.9150633" lon="12.6941317"><ele>124.0</ele><time>2026-04-18T15:12:03.886Z</time></trkpt><trkpt lat="43.9151833" lon="12.6940617"><ele>124.0</ele><time>2026-04-18T15:12:04.886Z</time></trkpt><trkpt lat="43.915305" lon="12.6939933"><ele>122.5</ele><time>2026-04-18T15:12:05.887Z</time></trkpt><trkpt lat="43.9154317" lon="12.693925"><ele>121.0</ele><time>2026-04-18T15:12:06.887Z</time></trkpt><trkpt lat="43.9155633" lon="12.6938617"><ele>119.5</ele><time>2026-04-18T15:12:07.891Z</time></trkpt><trkpt lat="43.9156983" lon="12.6938133"><ele>118.0</ele><time>2026-04-18T15:12:08.888Z</time></trkpt><trkpt lat="43.9158367" lon="12.6937717"><ele>117.25</ele><time>2026-04-18T15:12:09.89Z</time></trkpt><trkpt lat="43.91598" lon="12.693735"><ele>116.5</ele><time>2026-04-18T15:12:10.889Z</time></trkpt><trkpt lat="43.9161283" lon="12.6937"><ele>115.75</ele><time>2026-04-18T15:12:11.89Z</time></trkpt><trkpt lat="43.9162783" lon="12.6936717"><ele>115.0</ele><time>2026-04-18T15:12:12.888Z</time></trkpt><trkpt lat="43.9164283" lon="12.6936433"><ele>115.0</ele><time>2026-04-18T15:12:13.89Z</time></trkpt><trkpt lat="43.91658" lon="12.69361"><ele>115.0</ele><time>2026-04-18T15:12:14.888Z</time></trkpt><trkpt lat="43.9167367" lon="12.693585"><ele>115.0</ele><time>2026-04-18T15:12:15.889Z</time></trkpt><trkpt lat="43.9168917" lon="12.693565"><ele>115.0</ele><time>2026-04-18T15:12:16.886Z</time></trkpt><trkpt lat="43.9170483" lon="12.6935517"><ele>115.0</ele><time>2026-04-18T15:12:17.887Z</time></trkpt><trkpt lat="43.9172" lon="12.6935467"><ele>115.0</ele><time>2026-04-18T15:12:18.886Z</time></trkpt><trkpt lat="43.9173567" lon="12.6935483"><ele>115.0</ele><time>2026-04-18T15:12:19.889Z</time></trkpt><trkpt lat="43.9175133" lon="12.6935517"><ele>115.0</ele><time>2026-04-18T15:12:20.887Z</time></trkpt><trkpt lat="43.91767" lon="12.6935633"><ele>115.0</ele><time>2026-04-18T15:12:21.889Z</time></trkpt><trkpt lat="43.91783" lon="12.6935767"><ele>115.66666666666667</ele><time>2026-04-18T15:12:22.886Z</time></trkpt><trkpt lat="43.9179917" lon="12.6935867"><ele>116.33333333333334</ele><time>2026-04-18T15:12:23.891Z</time></trkpt><trkpt lat="43.9181533" lon="12.6935983"><ele>117.0</ele><time>2026-04-18T15:12:24.889Z</time></trkpt><trkpt lat="43.9183183" lon="12.693605"><ele>118.33333333333334</ele><time>2026-04-18T15:12:25.891Z</time></trkpt><trkpt lat="43.9184883" lon="12.6936083"><ele>119.66666666666667</ele><time>2026-04-18T15:12:26.889Z</time></trkpt><trkpt lat="43.9186567" lon="12.6936133"><ele>121.0</ele><time>2026-04-18T15:12:27.889Z</time></trkpt><trkpt lat="43.9188217" lon="12.69362"><ele>121.0</ele><time>2026-04-18T15:12:28.889Z</time></trkpt><trkpt lat="43.9189783" lon="12.693635"><ele>121.0</ele><time>2026-04-18T15:12:29.89Z</time></trkpt><trkpt lat="43.91913" lon="12.693665"><ele>121.0</ele><time>2026-04-18T15:12:30.888Z</time></trkpt><trkpt lat="43.9192717" lon="12.693715"><ele>121.0</ele><time>2026-04-18T15:12:31.892Z</time></trkpt><trkpt lat="43.9194033" lon="12.6937867"><ele>121.0</ele><time>2026-04-18T15:12:32.889Z</time></trkpt><trkpt lat="43.919535" lon="12.6938583"><ele>121.0</ele><time>2026-04-18T15:12:33.89Z</time></trkpt><trkpt lat="43.9196733" lon="12.6939217"><ele>121.0</ele><time>2026-04-18T15:12:34.888Z</time></trkpt><trkpt lat="43.91981" lon="12.693965"><ele>121.0</ele><time>2026-04-18T15:12:35.889Z</time></trkpt><trkpt lat="43.91994" lon="12.6939883"><ele>121.0</ele><time>2026-04-18T15:12:36.889Z</time></trkpt><trkpt lat="43.9200567" lon="12.694005"><ele>121.0</ele><time>2026-04-18T15:12:37.89Z</time></trkpt><trkpt lat="43.9201633" lon="12.6940117"><ele>121.0</ele><time>2026-04-18T15:12:38.888Z</time></trkpt><trkpt lat="43.920265" lon="12.6940217"><ele>120.25</ele><time>2026-04-18T15:12:39.888Z</time></trkpt><trkpt lat="43.9203717" lon="12.6940383"><ele>119.5</ele><time>2026-04-18T15:12:40.89Z</time></trkpt><trkpt lat="43.9204917" lon="12.6940667"><ele>118.75</ele><time>2026-04-18T15:12:41.889Z</time></trkpt><trkpt lat="43.920625" lon="12.69411"><ele>118.0</ele><time>2026-04-18T15:12:42.888Z</time></trkpt><trkpt lat="43.9207667" lon="12.6941617"><ele>117.33333333333334</ele><time>2026-04-18T15:12:43.889Z</time></trkpt><trkpt lat="43.9209117" lon="12.6942183"><ele>116.66666666666666</ele><time>2026-04-18T15:12:44.889Z</time></trkpt><trkpt lat="43.9210683" lon="12.694285"><ele>116.0</ele><time>2026-04-18T15:12:45.89Z</time></trkpt><trkpt lat="43.9212267" lon="12.69436"><ele>113.0</ele><time>2026-04-18T15:12:46.886Z</time></trkpt><trkpt lat="43.921385" lon="12.69444"><ele>110.0</ele><time>2026-04-18T15:12:47.886Z</time></trkpt><trkpt lat="43.9215417" lon="12.694525"><ele>107.0</ele><time>2026-04-18T15:12:48.887Z</time></trkpt><trkpt lat="43.9216933" lon="12.69461"><ele>108.33333333333333</ele><time>2026-04-18T15:12:49.886Z</time></trkpt><trkpt lat="43.9218383" lon="12.69469"><ele>109.66666666666666</ele><time>2026-04-18T15:12:50.887Z</time></trkpt><trkpt lat="43.9219767" lon="12.69477"><ele>111.0</ele><time>2026-04-18T15:12:51.887Z</time></trkpt><trkpt lat="43.9221183" lon="12.694855"><ele>111.0</ele><time>2026-04-18T15:12:52.886Z</time></trkpt><trkpt lat="43.922255" lon="12.69496"><ele>111.0</ele><time>2026-04-18T15:12:53.89Z</time></trkpt><trkpt lat="43.92238" lon="12.6950867"><ele>111.0</ele><time>2026-04-18T15:12:54.89Z</time></trkpt><trkpt lat="43.92249" lon="12.6952267"><ele>110.5</ele><time>2026-04-18T15:12:55.89Z</time></trkpt><trkpt lat="43.9225883" lon="12.695375"><ele>110.0</ele><time>2026-04-18T15:12:56.889Z</time></trkpt><trkpt lat="43.922685" lon="12.695515"><ele>109.5</ele><time>2026-04-18T15:12:57.889Z</time></trkpt><trkpt lat="43.9227867" lon="12.6956333"><ele>109.0</ele><time>2026-04-18T15:12:58.889Z</time></trkpt><trkpt lat="43.9229" lon="12.6957333"><ele>109.0</ele><time>2026-04-18T15:12:59.889Z</time></trkpt><trkpt lat="43.9230267" lon="12.695825"><ele>109.0</ele><time>2026-04-18T15:13:00.888Z</time></trkpt><trkpt lat="43.9231633" lon="12.6959133"><ele>109.0</ele><time>2026-04-18T15:13:01.888Z</time></trkpt><trkpt lat="43.9233017" lon="12.6960017"><ele>109.0</ele><time>2026-04-18T15:13:02.889Z</time></trkpt><trkpt lat="43.92344" lon="12.6960983"><ele>109.0</ele><time>2026-04-18T15:13:03.888Z</time></trkpt><trkpt lat="43.9235783" lon="12.6962033"><ele>109.0</ele><time>2026-04-18T15:13:04.888Z</time></trkpt><trkpt lat="43.9237217" lon="12.6963017"><ele>109.0</ele><time>2026-04-18T15:13:05.891Z</time></trkpt><trkpt lat="43.9238683" lon="12.6963967"><ele>109.0</ele><time>2026-04-18T15:13:06.889Z</time></trkpt><trkpt lat="43.9240117" lon="12.6964967"><ele>109.0</ele><time>2026-04-18T15:13:07.889Z</time></trkpt><trkpt lat="43.92415" lon="12.6966"><ele>109.0</ele><time>2026-04-18T15:13:08.887Z</time></trkpt><trkpt lat="43.924285" lon="12.6967117"><ele>109.0</ele><time>2026-04-18T15:13:09.889Z</time></trkpt><trkpt lat="43.9244083" lon="12.6968383"><ele>109.0</ele><time>2026-04-18T15:13:10.889Z</time></trkpt><trkpt lat="43.9245167" lon="12.6969783"><ele>109.0</ele><time>2026-04-18T15:13:11.888Z</time></trkpt><trkpt lat="43.9246033" lon="12.6971333"><ele>109.0</ele><time>2026-04-18T15:13:12.889Z</time></trkpt><trkpt lat="43.9246783" lon="12.6972967"><ele>109.0</ele><time>2026-04-18T15:13:13.889Z</time></trkpt><trkpt lat="43.9247517" lon="12.697465"><ele>109.0</ele><time>2026-04-18T15:13:14.888Z</time></trkpt><trkpt lat="43.9248233" lon="12.69764"><ele>109.0</ele><time>2026-04-18T15:13:15.888Z</time></trkpt><trkpt lat="43.924885" lon="12.6978267"><ele>109.0</ele><time>2026-04-18T15:13:16.889Z</time></trkpt><trkpt lat="43.9249417" lon="12.6980183"><ele>109.33333333333334</ele><time>2026-04-18T15:13:17.888Z</time></trkpt><trkpt lat="43.9249983" lon="12.6982117"><ele>109.66666666666666</ele><time>2026-04-18T15:13:18.89Z</time></trkpt><trkpt lat="43.925055" lon="12.6984083"><ele>110.0</ele><time>2026-04-18T15:13:19.889Z</time></trkpt><trkpt lat="43.9251117" lon="12.698605"><ele>107.33333333333333</ele><time>2026-04-18T15:13:20.89Z</time></trkpt><trkpt lat="43.9251717" lon="12.6988033"><ele>104.66666666666666</ele><time>2026-04-18T15:13:21.888Z</time></trkpt><trkpt lat="43.925235" lon="12.6989983"><ele>102.0</ele><time>2026-04-18T15:13:22.889Z</time></trkpt><trkpt lat="43.9253083" lon="12.699185"><ele>102.0</ele><time>2026-04-18T15:13:23.889Z</time></trkpt><trkpt lat="43.9253883" lon="12.6993667"><ele>102.0</ele><time>2026-04-18T15:13:24.89Z</time></trkpt><trkpt lat="43.9254733" lon="12.6995333"><ele>102.0</ele><time>2026-04-18T15:13:25.887Z</time></trkpt><trkpt lat="43.9255567" lon="12.699695"><ele>102.0</ele><time>2026-04-18T15:13:26.889Z</time></trkpt><trkpt lat="43.9256433" lon="12.6998633"><ele>104.0</ele><time>2026-04-18T15:13:27.892Z</time></trkpt><trkpt lat="43.925725" lon="12.700045"><ele>106.0</ele><time>2026-04-18T15:13:28.889Z</time></trkpt><trkpt lat="43.9257983" lon="12.7002417"><ele>108.0</ele><time>2026-04-18T15:13:29.891Z</time></trkpt><trkpt lat="43.9258617" lon="12.7004433"><ele>105.33333333333334</ele><time>2026-04-18T15:13:30.888Z</time></trkpt><trkpt lat="43.9259267" lon="12.7006433"><ele>102.66666666666667</ele><time>2026-04-18T15:13:31.89Z</time></trkpt><trkpt lat="43.9259867" lon="12.70084"><ele>100.0</ele><time>2026-04-18T15:13:32.889Z</time></trkpt><trkpt lat="43.9260433" lon="12.701025"><ele>102.0</ele><time>2026-04-18T15:13:33.889Z</time></trkpt><trkpt lat="43.9260983" lon="12.7011983"><ele>104.0</ele><time>2026-04-18T15:13:34.89Z</time></trkpt><trkpt lat="43.9261617" lon="12.7013533"><ele>106.0</ele><time>2026-04-18T15:13:35.888Z</time></trkpt><trkpt lat="43.9262467" lon="12.7014867"><ele>108.0</ele><time>2026-04-18T15:13:36.888Z</time></trkpt><trkpt lat="43.9263483" lon="12.701615"><ele>108.0</ele><time>2026-04-18T15:13:37.891Z</time></trkpt><trkpt lat="43.9264567" lon="12.70174"><ele>108.0</ele><time>2026-04-18T15:13:38.89Z</time></trkpt><trkpt lat="43.9265683" lon="12.7018617"><ele>108.0</ele><time>2026-04-18T15:13:39.89Z</time></trkpt><trkpt lat="43.92668" lon="12.701985"><ele>108.0</ele><time>2026-04-18T15:13:40.888Z</time></trkpt><trkpt lat="43.9267933" lon="12.7021133"><ele>106.5</ele><time>2026-04-18T15:13:41.888Z</time></trkpt><trkpt lat="43.9269067" lon="12.7022383"><ele>105.0</ele><time>2026-04-18T15:13:42.886Z</time></trkpt><trkpt lat="43.9270217" lon="12.7023617"><ele>103.5</ele><time>2026-04-18T15:13:43.89Z</time></trkpt><trkpt lat="43.9271317" lon="12.7024733"><ele>102.0</ele><time>2026-04-18T15:13:44.89Z</time></trkpt><trkpt lat="43.927245" lon="12.7025767"><ele>102.0</ele><time>2026-04-18T15:13:45.888Z</time></trkpt><trkpt lat="43.9273517" lon="12.70268"><ele>102.0</ele><time>2026-04-18T15:13:46.889Z</time></trkpt><trkpt lat="43.9274567" lon="12.70279"><ele>102.0</ele><time>2026-04-18T15:13:47.889Z</time></trkpt><trkpt lat="43.9275633" lon="12.702915"><ele>102.0</ele><time>2026-04-18T15:13:48.888Z</time></trkpt><trkpt lat="43.9276683" lon="12.7030533"><ele>100.0</ele><time>2026-04-18T15:13:49.889Z</time></trkpt><trkpt lat="43.927775" lon="12.7031983"><ele>98.0</ele><time>2026-04-18T15:13:50.888Z</time></trkpt><trkpt lat="43.9278817" lon="12.7033483"><ele>96.0</ele><time>2026-04-18T15:13:51.89Z</time></trkpt><trkpt lat="43.9279933" lon="12.7034983"><ele>96.33333333333334</ele><time>2026-04-18T15:13:52.888Z</time></trkpt><trkpt lat="43.9281067" lon="12.703645"><ele>96.66666666666667</ele><time>2026-04-18T15:13:53.889Z</time></trkpt><trkpt lat="43.9282267" lon="12.7037833"><ele>97.0</ele><time>2026-04-18T15:13:54.89Z</time></trkpt><trkpt lat="43.9283533" lon="12.7039133"><ele>96.0</ele><time>2026-04-18T15:13:55.89Z</time></trkpt><trkpt lat="43.9284867" lon="12.7040383"><ele>95.0</ele><time>2026-04-18T15:13:56.889Z</time></trkpt><trkpt lat="43.9286217" lon="12.7041567"><ele>94.0</ele><time>2026-04-18T15:13:57.889Z</time></trkpt><trkpt lat="43.9287567" lon="12.7042717"><ele>94.0</ele><time>2026-04-18T15:13:58.889Z</time></trkpt><trkpt lat="43.928885" lon="12.7043833"><ele>94.0</ele><time>2026-04-18T15:13:59.889Z</time></trkpt><trkpt lat="43.929005" lon="12.704505"><ele>94.0</ele><time>2026-04-18T15:14:00.889Z</time></trkpt><trkpt lat="43.9291117" lon="12.7046433"><ele>94.0</ele><time>2026-04-18T15:14:01.891Z</time></trkpt><trkpt lat="43.9292" lon="12.7048"><ele>94.66666666666666</ele><time>2026-04-18T15:14:02.89Z</time></trkpt><trkpt lat="43.9292767" lon="12.7049733"><ele>95.33333333333333</ele><time>2026-04-18T15:14:03.89Z</time></trkpt><trkpt lat="43.9293433" lon="12.7051617"><ele>96.0</ele><time>2026-04-18T15:14:04.888Z</time></trkpt><trkpt lat="43.9294117" lon="12.70535"><ele>96.75</ele><time>2026-04-18T15:14:05.889Z</time></trkpt><trkpt lat="43.929485" lon="12.7055283"><ele>97.5</ele><time>2026-04-18T15:14:06.889Z</time></trkpt><trkpt lat="43.9295733" lon="12.7056983"><ele>98.25</ele><time>2026-04-18T15:14:07.887Z</time></trkpt><trkpt lat="43.9296717" lon="12.705855"><ele>99.0</ele><time>2026-04-18T15:14:08.89Z</time></trkpt><trkpt lat="43.9297817" lon="12.7059967"><ele>98.75</ele><time>2026-04-18T15:14:09.89Z</time></trkpt><trkpt lat="43.92989" lon="12.7061333"><ele>98.5</ele><time>2026-04-18T15:14:10.887Z</time></trkpt><trkpt lat="43.9299933" lon="12.7062733"><ele>98.25</ele><time>2026-04-18T15:14:11.886Z</time></trkpt><trkpt lat="43.9300917" lon="12.7064067"><ele>98.0</ele><time>2026-04-18T15:14:12.888Z</time></trkpt><trkpt lat="43.9301867" lon="12.70653"><ele>96.0</ele><time>2026-04-18T15:14:13.89Z</time></trkpt><trkpt lat="43.930285" lon="12.706635"><ele>94.0</ele><time>2026-04-18T15:14:14.889Z</time></trkpt><trkpt lat="43.9303917" lon="12.7067183"><ele>92.0</ele><time>2026-04-18T15:14:15.889Z</time></trkpt><trkpt lat="43.9305083" lon="12.70678"><ele>90.0</ele><time>2026-04-18T15:14:16.889Z</time></trkpt><trkpt lat="43.9306283" lon="12.7068317"><ele>90.0</ele><time>2026-04-18T15:14:17.887Z</time></trkpt><trkpt lat="43.930745" lon="12.706895"><ele>90.0</ele><time>2026-04-18T15:14:18.887Z</time></trkpt><trkpt lat="43.9308483" lon="12.7069983"><ele>90.0</ele><time>2026-04-18T15:14:19.889Z</time></trkpt><trkpt lat="43.9309417" lon="12.7071367"><ele>90.0</ele><time>2026-04-18T15:14:20.888Z</time></trkpt><trkpt lat="43.9310283" lon="12.7072817"><ele>88.5</ele><time>2026-04-18T15:14:21.889Z</time></trkpt><trkpt lat="43.9311217" lon="12.707415"><ele>87.0</ele><time>2026-04-18T15:14:22.888Z</time></trkpt><trkpt lat="43.9312317" lon="12.7075133"><ele>85.5</ele><time>2026-04-18T15:14:23.888Z</time></trkpt><trkpt lat="43.9313583" lon="12.70759"><ele>84.0</ele><time>2026-04-18T15:14:24.889Z</time></trkpt><trkpt lat="43.9314833" lon="12.707665"><ele>84.75</ele><time>2026-04-18T15:14:25.886Z</time></trkpt><trkpt lat="43.9316067" lon="12.7077467"><ele>85.5</ele><time>2026-04-18T15:14:26.886Z</time></trkpt><trkpt lat="43.93172" lon="12.7078467"><ele>86.25</ele><time>2026-04-18T15:14:27.886Z</time></trkpt><trkpt lat="43.9318283" lon="12.7079517"><ele>87.0</ele><time>2026-04-18T15:14:28.887Z</time></trkpt><trkpt lat="43.9319317" lon="12.7080733"><ele>85.0</ele><time>2026-04-18T15:14:29.89Z</time></trkpt><trkpt lat="43.9320417" lon="12.7081983"><ele>83.0</ele><time>2026-04-18T15:14:30.888Z</time></trkpt><trkpt lat="43.932155" lon="12.708325"><ele>81.0</ele><time>2026-04-18T15:14:31.888Z</time></trkpt><trkpt lat="43.93227" lon="12.7084483"><ele>79.0</ele><time>2026-04-18T15:14:32.885Z</time></trkpt><trkpt lat="43.9323783" lon="12.7085683"><ele>78.5</ele><time>2026-04-18T15:14:33.885Z</time></trkpt><trkpt lat="43.932485" lon="12.7086817"><ele>78.0</ele><time>2026-04-18T15:14:34.886Z</time></trkpt><trkpt lat="43.9325917" lon="12.7087933"><ele>77.5</ele><time>2026-04-18T15:14:35.885Z</time></trkpt><trkpt lat="43.9327" lon="12.7089067"><ele>77.0</ele><time>2026-04-18T15:14:36.888Z</time></trkpt><trkpt lat="43.93281" lon="12.709025"><ele>75.0</ele><time>2026-04-18T15:14:37.888Z</time></trkpt><trkpt lat="43.9329233" lon="12.7091383"><ele>73.0</ele><time>2026-04-18T15:14:38.885Z</time></trkpt><trkpt lat="43.9330317" lon="12.7092467"><ele>71.0</ele><time>2026-04-18T15:14:39.887Z</time></trkpt><trkpt lat="43.9331367" lon="12.709355"><ele>69.0</ele><time>2026-04-18T15:14:40.888Z</time></trkpt><trkpt lat="43.9332383" lon="12.7094817"><ele>69.0</ele><time>2026-04-18T15:14:41.889Z</time></trkpt><trkpt lat="43.9333317" lon="12.70963"><ele>69.0</ele><time>2026-04-18T15:14:42.887Z</time></trkpt><trkpt lat="43.93342" lon="12.70979"><ele>69.0</ele><time>2026-04-18T15:14:43.885Z</time></trkpt><trkpt lat="43.933505" lon="12.70996"><ele>69.0</ele><time>2026-04-18T15:14:44.886Z</time></trkpt><trkpt lat="43.9335983" lon="12.710125"><ele>66.5</ele><time>2026-04-18T15:14:45.885Z</time></trkpt><trkpt lat="43.9336933" lon="12.7102867"><ele>64.0</ele><time>2026-04-18T15:14:46.886Z</time></trkpt><trkpt lat="43.9337783" lon="12.7104517"><ele>61.5</ele><time>2026-04-18T15:14:47.885Z</time></trkpt><trkpt lat="43.93385" lon="12.7106167"><ele>59.0</ele><time>2026-04-18T15:14:48.886Z</time></trkpt><trkpt lat="43.9339" lon="12.710795"><ele>59.0</ele><time>2026-04-18T15:14:49.887Z</time></trkpt><trkpt lat="43.933935" lon="12.7109783"><ele>59.0</ele><time>2026-04-18T15:14:50.887Z</time></trkpt><trkpt lat="43.9339633" lon="12.711165"><ele>59.0</ele><time>2026-04-18T15:14:51.885Z</time></trkpt><trkpt lat="43.9339917" lon="12.71135"><ele>59.0</ele><time>2026-04-18T15:14:52.888Z</time></trkpt><trkpt lat="43.9340033" lon="12.7115233"><ele>58.5</ele><time>2026-04-18T15:14:53.886Z</time></trkpt><trkpt lat="43.9340183" lon="12.7116933"><ele>58.0</ele><time>2026-04-18T15:14:54.889Z</time></trkpt><trkpt lat="43.9339833" lon="12.7118733"><ele>57.5</ele><time>2026-04-18T15:14:55.886Z</time></trkpt><trkpt lat="43.93393" lon="12.712065"><ele>57.0</ele><time>2026-04-18T15:14:56.885Z</time></trkpt><trkpt lat="43.93386" lon="12.7122567"><ele>55.75</ele><time>2026-04-18T15:14:57.886Z</time></trkpt><trkpt lat="43.9338" lon="12.7124533"><ele>54.5</ele><time>2026-04-18T15:14:58.888Z</time></trkpt><trkpt lat="43.9337583" lon="12.7126433"><ele>53.25</ele><time>2026-04-18T15:14:59.885Z</time></trkpt><trkpt lat="43.933735" lon="12.712845"><ele>52.0</ele><time>2026-04-18T15:15:00.887Z</time></trkpt><trkpt lat="43.9337333" lon="12.71305"><ele>51.75</ele><time>2026-04-18T15:15:01.888Z</time></trkpt><trkpt lat="43.9337417" lon="12.7132483"><ele>51.5</ele><time>2026-04-18T15:15:02.884Z</time></trkpt><trkpt lat="43.9337683" lon="12.7134433"><ele>51.25</ele><time>2026-04-18T15:15:03.885Z</time></trkpt><trkpt lat="43.93381" lon="12.71364"><ele>51.0</ele><time>2026-04-18T15:15:04.887Z</time></trkpt><trkpt lat="43.9338617" lon="12.7138367"><ele>51.0</ele><time>2026-04-18T15:15:05.885Z</time></trkpt><trkpt lat="43.9339167" lon="12.7140267"><ele>51.0</ele><time>2026-04-18T15:15:06.886Z</time></trkpt><trkpt lat="43.933975" lon="12.7142083"><ele>51.0</ele><time>2026-04-18T15:15:07.885Z</time></trkpt><trkpt lat="43.9340283" lon="12.7143833"><ele>51.0</ele><time>2026-04-18T15:15:08.885Z</time></trkpt><trkpt lat="43.9340783" lon="12.7145567"><ele>51.25</ele><time>2026-04-18T15:15:09.886Z</time></trkpt><trkpt lat="43.9341133" lon="12.714725"><ele>51.5</ele><time>2026-04-18T15:15:10.885Z</time></trkpt><trkpt lat="43.9341233" lon="12.7149"><ele>51.75</ele><time>2026-04-18T15:15:11.886Z</time></trkpt><trkpt lat="43.9341017" lon="12.7150733"><ele>52.0</ele><time>2026-04-18T15:15:12.886Z</time></trkpt><trkpt lat="43.9340617" lon="12.7152483"><ele>51.2</ele><time>2026-04-18T15:15:13.889Z</time></trkpt><trkpt lat="43.93402" lon="12.715415"><ele>50.400000000000006</ele><time>2026-04-18T15:15:14.885Z</time></trkpt><trkpt lat="43.9339883" lon="12.7155633"><ele>49.599999999999994</ele><time>2026-04-18T15:15:15.886Z</time></trkpt><trkpt lat="43.9339733" lon="12.7157"><ele>48.8</ele><time>2026-04-18T15:15:16.886Z</time></trkpt><trkpt lat="43.9339817" lon="12.7158117"><ele>48.0</ele><time>2026-04-18T15:15:17.886Z</time></trkpt><trkpt lat="43.9340117" lon="12.7159183"><ele>48.0</ele><time>2026-04-18T15:15:18.885Z</time></trkpt><trkpt lat="43.9340617" lon="12.716005"><ele>48.0</ele><time>2026-04-18T15:15:19.885Z</time></trkpt><trkpt lat="43.934125" lon="12.7160633"><ele>48.0</ele><time>2026-04-18T15:15:20.886Z</time></trkpt><trkpt lat="43.934195" lon="12.7160917"><ele>48.0</ele><time>2026-04-18T15:15:21.885Z</time></trkpt><trkpt lat="43.934265" lon="12.716095"><ele>48.0</ele><time>2026-04-18T15:15:22.886Z</time></trkpt><trkpt lat="43.9343367" lon="12.716025"><ele>48.0</ele><time>2026-04-18T15:15:23.885Z</time></trkpt><trkpt lat="43.9343917" lon="12.7158767"><ele>45.5</ele><time>2026-04-18T15:15:24.887Z</time></trkpt><trkpt lat="43.93442" lon="12.715735"><ele>43.0</ele><time>2026-04-18T15:15:25.885Z</time></trkpt><trkpt lat="43.9344433" lon="12.7155617"><ele>40.5</ele><time>2026-04-18T15:15:26.885Z</time></trkpt><trkpt lat="43.9344667" lon="12.7153667"><ele>38.0</ele><time>2026-04-18T15:15:27.885Z</time></trkpt><trkpt lat="43.9344917" lon="12.71518"><ele>38.0</ele><time>2026-04-18T15:15:28.886Z</time></trkpt><trkpt lat="43.934515" lon="12.71499"><ele>38.0</ele><time>2026-04-18T15:15:29.885Z</time></trkpt><trkpt lat="43.9345417" lon="12.7148217"><ele>38.0</ele><time>2026-04-18T15:15:30.886Z</time></trkpt><trkpt lat="43.9345667" lon="12.7146633"><ele>38.0</ele><time>2026-04-18T15:15:31.885Z</time></trkpt><trkpt lat="43.9345917" lon="12.7145283"><ele>38.0</ele><time>2026-04-18T15:15:32.886Z</time></trkpt><trkpt lat="43.9346217" lon="12.7144283"><ele>38.0</ele><time>2026-04-18T15:15:33.885Z</time></trkpt><trkpt lat="43.9346583" lon="12.7143483"><ele>38.0</ele><time>2026-04-18T15:15:34.886Z</time></trkpt><trkpt lat="43.9347167" lon="12.7143033"><ele>38.0</ele><time>2026-04-18T15:15:35.886Z</time></trkpt><trkpt lat="43.9347883" lon="12.7143567"><ele>38.0</ele><time>2026-04-18T15:15:36.885Z</time></trkpt><trkpt lat="43.9348517" lon="12.7144133"><ele>38.0</ele><time>2026-04-18T15:15:37.886Z</time></trkpt><trkpt lat="43.934915" lon="12.7145617"><ele>38.0</ele><time>2026-04-18T15:15:38.885Z</time></trkpt><trkpt lat="43.9350017" lon="12.7147017"><ele>38.0</ele><time>2026-04-18T15:15:39.886Z</time></trkpt><trkpt lat="43.935095" lon="12.714795"><ele>38.0</ele><time>2026-04-18T15:15:40.886Z</time></trkpt><trkpt lat="43.9351983" lon="12.7148533"><ele>38.0</ele><time>2026-04-18T15:15:41.885Z</time></trkpt><trkpt lat="43.9353167" lon="12.7148833"><ele>36.5</ele><time>2026-04-18T15:15:42.888Z</time></trkpt><trkpt lat="43.9354433" lon="12.7149"><ele>35.0</ele><time>2026-04-18T15:15:43.886Z</time></trkpt><trkpt lat="43.9355733" lon="12.7149067"><ele>33.5</ele><time>2026-04-18T15:15:44.887Z</time></trkpt><trkpt lat="43.9356917" lon="12.7149183"><ele>32.0</ele><time>2026-04-18T15:15:45.888Z</time></trkpt><trkpt lat="43.935805" lon="12.7149283"><ele>31.6</ele><time>2026-04-18T15:15:46.885Z</time></trkpt><trkpt lat="43.9359117" lon="12.7149367"><ele>31.200000000000003</ele><time>2026-04-18T15:15:47.887Z</time></trkpt><trkpt lat="43.936015" lon="12.714945"><ele>30.8</ele><time>2026-04-18T15:15:48.887Z</time></trkpt><trkpt lat="43.9361067" lon="12.71495"><ele>30.4</ele><time>2026-04-18T15:15:49.889Z</time></trkpt><trkpt lat="43.9361883" lon="12.7149583"><ele>30.0</ele><time>2026-04-18T15:15:50.887Z</time></trkpt><trkpt lat="43.93626" lon="12.7149717"><ele>30.0</ele><time>2026-04-18T15:15:51.887Z</time></trkpt><trkpt lat="43.936355" lon="12.7150217"><ele>30.0</ele><time>2026-04-18T15:15:53.886Z</time></trkpt><trkpt lat="43.9363333" lon="12.7151583"><ele>30.0</ele><time>2026-04-18T15:15:56.888Z</time></trkpt><trkpt lat="43.93628" lon="12.7152183"><ele>30.0</ele><time>2026-04-18T15:15:57.886Z</time></trkpt><trkpt lat="43.9362017" lon="12.7153067"><ele>30.0</ele><time>2026-04-18T15:15:58.89Z</time></trkpt><trkpt lat="43.9361067" lon="12.7154217"><ele>30.0</ele><time>2026-04-18T15:15:59.886Z</time></trkpt><trkpt lat="43.9360083" lon="12.7155483"><ele>30.0</ele><time>2026-04-18T15:16:00.889Z</time></trkpt><trkpt lat="43.93591" lon="12.7156667"><ele>30.0</ele><time>2026-04-18T15:16:01.886Z</time></trkpt><trkpt lat="43.93581" lon="12.7157867"><ele>30.0</ele><time>2026-04-18T15:16:02.887Z</time></trkpt><trkpt lat="43.9357117" lon="12.7159083"><ele>30.25</ele><time>2026-04-18T15:16:03.887Z</time></trkpt><trkpt lat="43.9356167" lon="12.7160317"><ele>30.5</ele><time>2026-04-18T15:16:04.887Z</time></trkpt><trkpt lat="43.93552" lon="12.7161583"><ele>30.75</ele><time>2026-04-18T15:16:05.888Z</time></trkpt><trkpt lat="43.93542" lon="12.716295"><ele>31.0</ele><time>2026-04-18T15:16:06.888Z</time></trkpt><trkpt lat="43.9353167" lon="12.716435"><ele>31.0</ele><time>2026-04-18T15:16:07.889Z</time></trkpt><trkpt lat="43.9352" lon="12.7165917"><ele>31.0</ele><time>2026-04-18T15:16:08.887Z</time></trkpt><trkpt lat="43.9350883" lon="12.7167383"><ele>31.0</ele><time>2026-04-18T15:16:09.886Z</time></trkpt><trkpt lat="43.9349817" lon="12.71688"><ele>30.75</ele><time>2026-04-18T15:16:10.886Z</time></trkpt><trkpt lat="43.93489" lon="12.7170117"><ele>30.5</ele><time>2026-04-18T15:16:11.886Z</time></trkpt><trkpt lat="43.934805" lon="12.7171317"><ele>30.25</ele><time>2026-04-18T15:16:12.887Z</time></trkpt><trkpt lat="43.9347333" lon="12.717235"><ele>30.0</ele><time>2026-04-18T15:16:13.888Z</time></trkpt><trkpt lat="43.9346683" lon="12.71733"><ele>30.0</ele><time>2026-04-18T15:16:14.886Z</time></trkpt><trkpt lat="43.9346083" lon="12.7174283"><ele>30.0</ele><time>2026-04-18T15:16:15.888Z</time></trkpt><trkpt lat="43.9345433" lon="12.717535"><ele>30.0</ele><time>2026-04-18T15:16:16.888Z</time></trkpt><trkpt lat="43.9344683" lon="12.7176533"><ele>30.0</ele><time>2026-04-18T15:16:17.886Z</time></trkpt><trkpt lat="43.93439" lon="12.7177783"><ele>30.0</ele><time>2026-04-18T15:16:18.887Z</time></trkpt><trkpt lat="43.9343083" lon="12.7179067"><ele>29.75</ele><time>2026-04-18T15:16:19.888Z</time></trkpt><trkpt lat="43.934225" lon="12.718035"><ele>29.5</ele><time>2026-04-18T15:16:20.887Z</time></trkpt><trkpt lat="43.9341483" lon="12.718155"><ele>29.25</ele><time>2026-04-18T15:16:21.888Z</time></trkpt><trkpt lat="43.9340767" lon="12.7182733"><ele>29.0</ele><time>2026-04-18T15:16:22.887Z</time></trkpt><trkpt lat="43.9340033" lon="12.71839"><ele>29.0</ele><time>2026-04-18T15:16:23.888Z</time></trkpt><trkpt lat="43.9339333" lon="12.718505"><ele>29.0</ele><time>2026-04-18T15:16:24.888Z</time></trkpt><trkpt lat="43.9338667" lon="12.7186117"><ele>29.0</ele><time>2026-04-18T15:16:25.888Z</time></trkpt><trkpt lat="43.9338033" lon="12.7187117"><ele>29.0</ele><time>2026-04-18T15:16:26.887Z</time></trkpt><trkpt lat="43.9337417" lon="12.718805"><ele>29.0</ele><time>2026-04-18T15:16:27.887Z</time></trkpt><trkpt lat="43.933685" lon="12.7188967"><ele>28.833333333333332</ele><time>2026-04-18T15:16:28.889Z</time></trkpt><trkpt lat="43.9336317" lon="12.7189817"><ele>28.666666666666664</ele><time>2026-04-18T15:16:29.889Z</time></trkpt><trkpt lat="43.9335833" lon="12.719065"><ele>28.5</ele><time>2026-04-18T15:16:30.889Z</time></trkpt><trkpt lat="43.933535" lon="12.719145"><ele>28.333333333333336</ele><time>2026-04-18T15:16:31.888Z</time></trkpt><trkpt lat="43.9334867" lon="12.7192217"><ele>28.166666666666668</ele><time>2026-04-18T15:16:32.889Z</time></trkpt><trkpt lat="43.9334417" lon="12.7192917"><ele>28.0</ele><time>2026-04-18T15:16:33.889Z</time></trkpt><trkpt lat="43.9333883" lon="12.719435"><ele>27.833333333333336</ele><time>2026-04-18T15:16:35.888Z</time></trkpt><trkpt lat="43.93341" lon="12.7195667"><ele>27.666666666666668</ele><time>2026-04-18T15:16:37.892Z</time></trkpt><trkpt lat="43.933465" lon="12.7196567"><ele>27.5</ele><time>2026-04-18T15:16:39.885Z</time></trkpt><trkpt lat="43.93351" lon="12.7197217"><ele>27.333333333333336</ele><time>2026-04-18T15:16:41.888Z</time></trkpt><trkpt lat="43.933565" lon="12.7198017"><ele>27.166666666666668</ele><time>2026-04-18T15:16:44.89Z</time></trkpt><trkpt lat="43.93361" lon="12.71987"><ele>27.0</ele><time>2026-04-18T15:16:47.886Z</time></trkpt><trkpt lat="43.933655" lon="12.7199383"><ele>27.0</ele><time>2026-04-18T15:16:50.885Z</time></trkpt><trkpt lat="43.9336967" lon="12.720005"><ele>27.0</ele><time>2026-04-18T15:16:53.887Z</time></trkpt><trkpt lat="43.9337417" lon="12.7200783"><ele>27.0</ele><time>2026-04-18T15:16:57.885Z</time></trkpt><trkpt lat="43.9337883" lon="12.72015"><ele>27.0</ele><time>2026-04-18T15:17:02.888Z</time></trkpt><trkpt lat="43.9338483" lon="12.7202267"><ele>27.0</ele><time>2026-04-18T15:17:59.888Z</time></trkpt><trkpt lat="43.9338967" lon="12.7202983"><ele>27.0</ele><time>2026-04-18T15:18:00.888Z</time></trkpt><trkpt lat="43.9339483" lon="12.7203783"><ele>27.0</ele><time>2026-04-18T15:18:01.889Z</time></trkpt><trkpt lat="43.9340083" lon="12.7204683"><ele>26.8</ele><time>2026-04-18T15:18:02.889Z</time></trkpt><trkpt lat="43.93407" lon="12.720565"><ele>26.6</ele><time>2026-04-18T15:18:03.885Z</time></trkpt><trkpt lat="43.9341383" lon="12.7206683"><ele>26.400000000000002</ele><time>2026-04-18T15:18:04.888Z</time></trkpt><trkpt lat="43.93421" lon="12.72078"><ele>26.200000000000003</ele><time>2026-04-18T15:18:05.889Z</time></trkpt><trkpt lat="43.934285" lon="12.7208983"><ele>26.0</ele><time>2026-04-18T15:18:06.889Z</time></trkpt><trkpt lat="43.9343583" lon="12.7210233"><ele>25.6</ele><time>2026-04-18T15:18:07.889Z</time></trkpt><trkpt lat="43.9344267" lon="12.7211417"><ele>25.200000000000003</ele><time>2026-04-18T15:18:08.89Z</time></trkpt><trkpt lat="43.9344917" lon="12.7212567"><ele>24.799999999999997</ele><time>2026-04-18T15:18:09.888Z</time></trkpt><trkpt lat="43.9345567" lon="12.721375"><ele>24.4</ele><time>2026-04-18T15:18:10.889Z</time></trkpt><trkpt lat="43.9346183" lon="12.7214967"><ele>24.0</ele><time>2026-04-18T15:18:11.888Z</time></trkpt><trkpt lat="43.934675" lon="12.72162"><ele>24.0</ele><time>2026-04-18T15:18:12.888Z</time></trkpt><trkpt lat="43.9347367" lon="12.7217433"><ele>24.0</ele><time>2026-04-18T15:18:13.886Z</time></trkpt><trkpt lat="43.934805" lon="12.72186"><ele>24.0</ele><time>2026-04-18T15:18:14.888Z</time></trkpt><trkpt lat="43.9348767" lon="12.7219867"><ele>24.0</ele><time>2026-04-18T15:18:15.888Z</time></trkpt><trkpt lat="43.9349483" lon="12.7221217"><ele>24.0</ele><time>2026-04-18T15:18:16.889Z</time></trkpt><trkpt lat="43.9350183" lon="12.722255"><ele>24.0</ele><time>2026-04-18T15:18:17.888Z</time></trkpt><trkpt lat="43.9350917" lon="12.7223883"><ele>24.0</ele><time>2026-04-18T15:18:18.888Z</time></trkpt><trkpt lat="43.9351733" lon="12.7225133"><ele>24.0</ele><time>2026-04-18T15:18:19.889Z</time></trkpt><trkpt lat="43.9352467" lon="12.722645"><ele>24.0</ele><time>2026-04-18T15:18:20.889Z</time></trkpt><trkpt lat="43.935315" lon="12.7227833"><ele>24.0</ele><time>2026-04-18T15:18:21.889Z</time></trkpt><trkpt lat="43.935385" lon="12.7229233"><ele>24.0</ele><time>2026-04-18T15:18:22.889Z</time></trkpt><trkpt lat="43.9354617" lon="12.7230617"><ele>24.0</ele><time>2026-04-18T15:18:23.889Z</time></trkpt><trkpt lat="43.935545" lon="12.7232"><ele>24.0</ele><time>2026-04-18T15:18:24.888Z</time></trkpt><trkpt lat="43.9356383" lon="12.7233317"><ele>24.0</ele><time>2026-04-18T15:18:25.89Z</time></trkpt><trkpt lat="43.935745" lon="12.72345"><ele>24.0</ele><time>2026-04-18T15:18:26.888Z</time></trkpt><trkpt lat="43.9358617" lon="12.723565"><ele>24.0</ele><time>2026-04-18T15:18:27.887Z</time></trkpt><trkpt lat="43.9359733" lon="12.723685"><ele>24.25</ele><time>2026-04-18T15:18:28.887Z</time></trkpt><trkpt lat="43.9360733" lon="12.723815"><ele>24.5</ele><time>2026-04-18T15:18:29.889Z</time></trkpt><trkpt lat="43.9361633" lon="12.72396"><ele>24.75</ele><time>2026-04-18T15:18:30.889Z</time></trkpt><trkpt lat="43.93624" lon="12.7241217"><ele>25.0</ele><time>2026-04-18T15:18:31.889Z</time></trkpt><trkpt lat="43.9362967" lon="12.7243033"><ele>24.5</ele><time>2026-04-18T15:18:32.891Z</time></trkpt><trkpt lat="43.936345" lon="12.724495"><ele>24.0</ele><time>2026-04-18T15:18:33.89Z</time></trkpt><trkpt lat="43.93639" lon="12.724685"><ele>23.5</ele><time>2026-04-18T15:18:34.89Z</time></trkpt><trkpt lat="43.93643" lon="12.7248817"><ele>23.0</ele><time>2026-04-18T15:18:35.889Z</time></trkpt><trkpt lat="43.9364783" lon="12.7250767"><ele>22.333333333333336</ele><time>2026-04-18T15:18:36.888Z</time></trkpt><trkpt lat="43.936535" lon="12.725265"><ele>21.666666666666668</ele><time>2026-04-18T15:18:37.89Z</time></trkpt><trkpt lat="43.936605" lon="12.7254483"><ele>21.0</ele><time>2026-04-18T15:18:38.888Z</time></trkpt><trkpt lat="43.936685" lon="12.7256317"><ele>21.333333333333332</ele><time>2026-04-18T15:18:39.889Z</time></trkpt><trkpt lat="43.9367633" lon="12.7258167"><ele>21.666666666666664</ele><time>2026-04-18T15:18:40.888Z</time></trkpt><trkpt lat="43.9368383" lon="12.726005"><ele>22.0</ele><time>2026-04-18T15:18:41.885Z</time></trkpt><trkpt lat="43.9369117" lon="12.7261933"><ele>22.0</ele><time>2026-04-18T15:18:42.888Z</time></trkpt><trkpt lat="43.937055" lon="12.7265617"><ele>22.0</ele><time>2026-04-18T15:18:44.89Z</time></trkpt><trkpt lat="43.93713" lon="12.726745"><ele>22.0</ele><time>2026-04-18T15:18:45.888Z</time></trkpt><trkpt lat="43.9372117" lon="12.726925"><ele>22.0</ele><time>2026-04-18T15:18:46.888Z</time></trkpt><trkpt lat="43.9372967" lon="12.7270983"><ele>22.0</ele><time>2026-04-18T15:18:47.888Z</time></trkpt><trkpt lat="43.93738" lon="12.72726"><ele>22.0</ele><time>2026-04-18T15:18:48.889Z</time></trkpt><trkpt lat="43.9374583" lon="12.7274117"><ele>22.0</ele><time>2026-04-18T15:18:49.889Z</time></trkpt><trkpt lat="43.9375317" lon="12.7275567"><ele>22.0</ele><time>2026-04-18T15:18:50.885Z</time></trkpt><trkpt lat="43.9376033" lon="12.727705"><ele>22.0</ele><time>2026-04-18T15:18:51.888Z</time></trkpt><trkpt lat="43.9376683" lon="12.7278567"><ele>22.0</ele><time>2026-04-18T15:18:52.889Z</time></trkpt><trkpt lat="43.9377367" lon="12.7280117"><ele>22.0</ele><time>2026-04-18T15:18:53.888Z</time></trkpt><trkpt lat="43.9378" lon="12.728175"><ele>22.0</ele><time>2026-04-18T15:18:54.89Z</time></trkpt><trkpt lat="43.9378617" lon="12.7283533"><ele>22.0</ele><time>2026-04-18T15:18:55.89Z</time></trkpt><trkpt lat="43.9379217" lon="12.7285367"><ele>22.0</ele><time>2026-04-18T15:18:56.892Z</time></trkpt><trkpt lat="43.9379817" lon="12.728725"><ele>22.0</ele><time>2026-04-18T15:18:57.888Z</time></trkpt><trkpt lat="43.9380433" lon="12.728915"><ele>22.0</ele><time>2026-04-18T15:18:58.885Z</time></trkpt><trkpt lat="43.9381067" lon="12.72911"><ele>22.0</ele><time>2026-04-18T15:18:59.89Z</time></trkpt><trkpt lat="43.9381733" lon="12.72931"><ele>21.5</ele><time>2026-04-18T15:19:00.89Z</time></trkpt><trkpt lat="43.9383083" lon="12.7297167"><ele>21.0</ele><time>2026-04-18T15:19:02.89Z</time></trkpt><trkpt lat="43.9383783" lon="12.729925"><ele>20.75</ele><time>2026-04-18T15:19:03.888Z</time></trkpt><trkpt lat="43.9384483" lon="12.7301217"><ele>20.5</ele><time>2026-04-18T15:19:04.889Z</time></trkpt><trkpt lat="43.9385217" lon="12.730295"><ele>20.25</ele><time>2026-04-18T15:19:05.889Z</time></trkpt><trkpt lat="43.9385967" lon="12.7304633"><ele>20.0</ele><time>2026-04-18T15:19:06.89Z</time></trkpt><trkpt lat="43.9386733" lon="12.7306283"><ele>20.0</ele><time>2026-04-18T15:19:07.888Z</time></trkpt><trkpt lat="43.9387367" lon="12.7307883"><ele>20.0</ele><time>2026-04-18T15:19:08.888Z</time></trkpt><trkpt lat="43.9387833" lon="12.7309483"><ele>20.0</ele><time>2026-04-18T15:19:09.888Z</time></trkpt><trkpt lat="43.9387967" lon="12.7311033"><ele>20.0</ele><time>2026-04-18T15:19:10.888Z</time></trkpt><trkpt lat="43.9387717" lon="12.731235"><ele>20.0</ele><time>2026-04-18T15:19:11.889Z</time></trkpt><trkpt lat="43.9387317" lon="12.7313333"><ele>20.0</ele><time>2026-04-18T15:19:12.888Z</time></trkpt><trkpt lat="43.9387067" lon="12.7314267"><ele>20.0</ele><time>2026-04-18T15:19:13.888Z</time></trkpt><trkpt lat="43.938705" lon="12.7315217"><ele>20.0</ele><time>2026-04-18T15:19:14.887Z</time></trkpt><trkpt lat="43.9387383" lon="12.7316067"><ele>20.0</ele><time>2026-04-18T15:19:15.888Z</time></trkpt><trkpt lat="43.9387967" lon="12.731695"><ele>20.0</ele><time>2026-04-18T15:19:16.886Z</time></trkpt><trkpt lat="43.938895" lon="12.7317783"><ele>20.0</ele><time>2026-04-18T15:19:17.888Z</time></trkpt><trkpt lat="43.9389983" lon="12.73186"><ele>20.0</ele><time>2026-04-18T15:19:18.888Z</time></trkpt><trkpt lat="43.9391083" lon="12.73194"><ele>20.0</ele><time>2026-04-18T15:19:19.889Z</time></trkpt><trkpt lat="43.939235" lon="12.73202"><ele>20.0</ele><time>2026-04-18T15:19:20.889Z</time></trkpt><trkpt lat="43.9393633" lon="12.7321067"><ele>19.25</ele><time>2026-04-18T15:19:21.887Z</time></trkpt><trkpt lat="43.939495" lon="12.732195"><ele>18.5</ele><time>2026-04-18T15:19:22.888Z</time></trkpt><trkpt lat="43.9396283" lon="12.7322867"><ele>17.75</ele><time>2026-04-18T15:19:23.888Z</time></trkpt><trkpt lat="43.939755" lon="12.73239"><ele>17.0</ele><time>2026-04-18T15:19:24.887Z</time></trkpt><trkpt lat="43.9398717" lon="12.7325083"><ele>17.0</ele><time>2026-04-18T15:19:25.889Z</time></trkpt><trkpt lat="43.9399833" lon="12.7326433"><ele>17.0</ele><time>2026-04-18T15:19:26.888Z</time></trkpt><trkpt lat="43.940095" lon="12.7327867"><ele>17.0</ele><time>2026-04-18T15:19:27.89Z</time></trkpt><trkpt lat="43.94021" lon="12.73293"><ele>17.666666666666668</ele><time>2026-04-18T15:19:28.885Z</time></trkpt><trkpt lat="43.9403233" lon="12.7330767"><ele>18.333333333333332</ele><time>2026-04-18T15:19:29.888Z</time></trkpt><trkpt lat="43.9404367" lon="12.7332267"><ele>19.0</ele><time>2026-04-18T15:19:30.887Z</time></trkpt><trkpt lat="43.9405517" lon="12.7333733"><ele>19.0</ele><time>2026-04-18T15:19:31.889Z</time></trkpt><trkpt lat="43.940665" lon="12.7335217"><ele>19.0</ele><time>2026-04-18T15:19:32.886Z</time></trkpt><trkpt lat="43.9407783" lon="12.7336733"><ele>19.0</ele><time>2026-04-18T15:19:33.889Z</time></trkpt><trkpt lat="43.9410017" lon="12.7339817"><ele>18.0</ele><time>2026-04-18T15:19:35.888Z</time></trkpt><trkpt lat="43.941115" lon="12.7341367"><ele>17.0</ele><time>2026-04-18T15:19:36.887Z</time></trkpt><trkpt lat="43.94123" lon="12.7342883"><ele>16.0</ele><time>2026-04-18T15:19:37.89Z</time></trkpt><trkpt lat="43.9413433" lon="12.734445"><ele>16.0</ele><time>2026-04-18T15:19:38.888Z</time></trkpt><trkpt lat="43.941455" lon="12.7346017"><ele>16.0</ele><time>2026-04-18T15:19:39.888Z</time></trkpt><trkpt lat="43.9415683" lon="12.73476"><ele>16.0</ele><time>2026-04-18T15:19:40.888Z</time></trkpt><trkpt lat="43.9416783" lon="12.7349133"><ele>16.0</ele><time>2026-04-18T15:19:41.889Z</time></trkpt><trkpt lat="43.941785" lon="12.73506"><ele>16.0</ele><time>2026-04-18T15:19:42.89Z</time></trkpt><trkpt lat="43.94189" lon="12.7352133"><ele>16.0</ele><time>2026-04-18T15:19:43.889Z</time></trkpt><trkpt lat="43.941995" lon="12.7353667"><ele>16.0</ele><time>2026-04-18T15:19:44.891Z</time></trkpt><trkpt lat="43.9421" lon="12.735525"><ele>16.0</ele><time>2026-04-18T15:19:45.887Z</time></trkpt><trkpt lat="43.9422083" lon="12.7356833"><ele>16.0</ele><time>2026-04-18T15:19:46.888Z</time></trkpt><trkpt lat="43.94232" lon="12.7358433"><ele>16.0</ele><time>2026-04-18T15:19:47.889Z</time></trkpt><trkpt lat="43.94243" lon="12.7360083"><ele>16.0</ele><time>2026-04-18T15:19:48.887Z</time></trkpt><trkpt lat="43.9425367" lon="12.73617"><ele>16.0</ele><time>2026-04-18T15:19:49.885Z</time></trkpt><trkpt lat="43.94264" lon="12.7363167"><ele>15.75</ele><time>2026-04-18T15:19:50.889Z</time></trkpt><trkpt lat="43.9427333" lon="12.736455"><ele>15.5</ele><time>2026-04-18T15:19:51.888Z</time></trkpt><trkpt lat="43.9428167" lon="12.7365817"><ele>15.25</ele><time>2026-04-18T15:19:52.889Z</time></trkpt><trkpt lat="43.94289" lon="12.7366917"><ele>15.0</ele><time>2026-04-18T15:19:53.888Z</time></trkpt><trkpt lat="43.942955" lon="12.7367967"><ele>14.75</ele><time>2026-04-18T15:19:54.885Z</time></trkpt><trkpt lat="43.943015" lon="12.7368967"><ele>14.5</ele><time>2026-04-18T15:19:55.888Z</time></trkpt><trkpt lat="43.94313" lon="12.7372083"><ele>14.25</ele><time>2026-04-18T15:19:58.889Z</time></trkpt><trkpt lat="43.943135" lon="12.7373317"><ele>14.0</ele><time>2026-04-18T15:19:59.889Z</time></trkpt><trkpt lat="43.9431333" lon="12.73746"><ele>14.0</ele><time>2026-04-18T15:20:00.887Z</time></trkpt><trkpt lat="43.9431367" lon="12.7375933"><ele>13.999999999999998</ele><time>2026-04-18T15:20:01.888Z</time></trkpt><trkpt lat="43.9431417" lon="12.7377233"><ele>13.999999999999998</ele><time>2026-04-18T15:20:02.889Z</time></trkpt><trkpt lat="43.94315" lon="12.737845"><ele>14.0</ele><time>2026-04-18T15:20:03.888Z</time></trkpt><trkpt lat="43.9431667" lon="12.7379667"><ele>14.0</ele><time>2026-04-18T15:20:04.889Z</time></trkpt><trkpt lat="43.94319" lon="12.7381067"><ele>14.75</ele><time>2026-04-18T15:20:05.888Z</time></trkpt><trkpt lat="43.9432217" lon="12.738255"><ele>15.5</ele><time>2026-04-18T15:20:06.888Z</time></trkpt><trkpt lat="43.9432567" lon="12.7384183"><ele>16.25</ele><time>2026-04-18T15:20:07.89Z</time></trkpt><trkpt lat="43.94329" lon="12.7385917"><ele>17.0</ele><time>2026-04-18T15:20:08.888Z</time></trkpt><trkpt lat="43.943315" lon="12.738765"><ele>17.0</ele><time>2026-04-18T15:20:09.888Z</time></trkpt><trkpt lat="43.943335" lon="12.7389317"><ele>17.0</ele><time>2026-04-18T15:20:10.889Z</time></trkpt><trkpt lat="43.9433517" lon="12.739105"><ele>17.0</ele><time>2026-04-18T15:20:11.889Z</time></trkpt><trkpt lat="43.9433633" lon="12.73928"><ele>17.0</ele><time>2026-04-18T15:20:12.887Z</time></trkpt><trkpt lat="43.9433583" lon="12.7394633"><ele>16.75</ele><time>2026-04-18T15:20:13.889Z</time></trkpt><trkpt lat="43.9433383" lon="12.7396417"><ele>16.5</ele><time>2026-04-18T15:20:14.889Z</time></trkpt><trkpt lat="43.943325" lon="12.73981"><ele>16.25</ele><time>2026-04-18T15:20:15.889Z</time></trkpt><trkpt lat="43.943325" lon="12.7399717"><ele>16.0</ele><time>2026-04-18T15:20:16.887Z</time></trkpt><trkpt lat="43.9433417" lon="12.740135"><ele>15.75</ele><time>2026-04-18T15:20:17.889Z</time></trkpt><trkpt lat="43.9433733" lon="12.740295"><ele>15.5</ele><time>2026-04-18T15:20:18.89Z</time></trkpt><trkpt lat="43.9434183" lon="12.7404517"><ele>15.25</ele><time>2026-04-18T15:20:19.889Z</time></trkpt><trkpt lat="43.9434667" lon="12.7406067"><ele>15.0</ele><time>2026-04-18T15:20:20.887Z</time></trkpt><trkpt lat="43.9435217" lon="12.740755"><ele>15.25</ele><time>2026-04-18T15:20:21.885Z</time></trkpt><trkpt lat="43.94358" lon="12.7408983"><ele>15.5</ele><time>2026-04-18T15:20:22.887Z</time></trkpt><trkpt lat="43.9436467" lon="12.741035"><ele>15.75</ele><time>2026-04-18T15:20:23.888Z</time></trkpt><trkpt lat="43.9437217" lon="12.7411683"><ele>16.0</ele><time>2026-04-18T15:20:24.89Z</time></trkpt><trkpt lat="43.943805" lon="12.7412933"><ele>16.0</ele><time>2026-04-18T15:20:25.888Z</time></trkpt><trkpt lat="43.9438933" lon="12.741405"><ele>16.0</ele><time>2026-04-18T15:20:26.889Z</time></trkpt><trkpt lat="43.9439833" lon="12.741505"><ele>16.0</ele><time>2026-04-18T15:20:27.888Z</time></trkpt><trkpt lat="43.9440717" lon="12.7416033"><ele>16.0</ele><time>2026-04-18T15:20:28.889Z</time></trkpt><trkpt lat="43.944155" lon="12.7417"><ele>16.333333333333332</ele><time>2026-04-18T15:20:29.888Z</time></trkpt><trkpt lat="43.9442333" lon="12.7417883"><ele>16.666666666666664</ele><time>2026-04-18T15:20:30.889Z</time></trkpt><trkpt lat="43.9443117" lon="12.7418617"><ele>17.0</ele><time>2026-04-18T15:20:31.886Z</time></trkpt><trkpt lat="43.9443917" lon="12.7419067"><ele>17.333333333333332</ele><time>2026-04-18T15:20:32.888Z</time></trkpt><trkpt lat="43.944475" lon="12.7419283"><ele>17.666666666666668</ele><time>2026-04-18T15:20:33.887Z</time></trkpt><trkpt lat="43.9445533" lon="12.7419117"><ele>18.0</ele><time>2026-04-18T15:20:34.886Z</time></trkpt><trkpt lat="43.9446267" lon="12.7418467"><ele>18.0</ele><time>2026-04-18T15:20:35.889Z</time></trkpt><trkpt lat="43.944705" lon="12.7417617"><ele>18.0</ele><time>2026-04-18T15:20:36.888Z</time></trkpt><trkpt lat="43.9447883" lon="12.7416633"><ele>18.0</ele><time>2026-04-18T15:20:37.89Z</time></trkpt><trkpt lat="43.944875" lon="12.74156"><ele>18.0</ele><time>2026-04-18T15:20:38.886Z</time></trkpt><trkpt lat="43.944965" lon="12.7414517"><ele>18.0</ele><time>2026-04-18T15:20:39.887Z</time></trkpt><trkpt lat="43.9450567" lon="12.7413367"><ele>17.5</ele><time>2026-04-18T15:20:40.888Z</time></trkpt><trkpt lat="43.945145" lon="12.7412233"><ele>17.0</ele><time>2026-04-18T15:20:41.889Z</time></trkpt><trkpt lat="43.9452333" lon="12.7411117"><ele>16.5</ele><time>2026-04-18T15:20:42.889Z</time></trkpt><trkpt lat="43.9453183" lon="12.741005"><ele>16.0</ele><time>2026-04-18T15:20:43.886Z</time></trkpt><trkpt lat="43.9454017" lon="12.74091"><ele>16.0</ele><time>2026-04-18T15:20:44.888Z</time></trkpt><trkpt lat="43.94548" lon="12.7408183"><ele>16.0</ele><time>2026-04-18T15:20:45.889Z</time></trkpt><trkpt lat="43.9455633" lon="12.7407233"><ele>16.0</ele><time>2026-04-18T15:20:46.889Z</time></trkpt><trkpt lat="43.94565" lon="12.74063"><ele>16.0</ele><time>2026-04-18T15:20:47.889Z</time></trkpt><trkpt lat="43.945735" lon="12.740535"><ele>16.0</ele><time>2026-04-18T15:20:48.889Z</time></trkpt><trkpt lat="43.945825" lon="12.7404383"><ele>15.8</ele><time>2026-04-18T15:20:49.888Z</time></trkpt><trkpt lat="43.9459133" lon="12.74034"><ele>15.600000000000001</ele><time>2026-04-18T15:20:50.888Z</time></trkpt><trkpt lat="43.9459967" lon="12.740245"><ele>15.4</ele><time>2026-04-18T15:20:51.887Z</time></trkpt><trkpt lat="43.94608" lon="12.7401533"><ele>15.2</ele><time>2026-04-18T15:20:52.889Z</time></trkpt><trkpt lat="43.9461633" lon="12.7400567"><ele>15.0</ele><time>2026-04-18T15:20:53.888Z</time></trkpt><trkpt lat="43.946245" lon="12.7399583"><ele>15.0</ele><time>2026-04-18T15:20:54.886Z</time></trkpt><trkpt lat="43.946325" lon="12.73987"><ele>15.0</ele><time>2026-04-18T15:20:55.889Z</time></trkpt><trkpt lat="43.946395" lon="12.739785"><ele>15.0</ele><time>2026-04-18T15:20:56.886Z</time></trkpt><trkpt lat="43.9464617" lon="12.73971"><ele>15.0</ele><time>2026-04-18T15:20:57.888Z</time></trkpt><trkpt lat="43.9465283" lon="12.739655"><ele>15.0</ele><time>2026-04-18T15:20:58.888Z</time></trkpt><trkpt lat="43.94661" lon="12.7396267"><ele>15.0</ele><time>2026-04-18T15:20:59.886Z</time></trkpt><trkpt lat="43.946685" lon="12.7396367"><ele>15.0</ele><time>2026-04-18T15:21:00.889Z</time></trkpt><trkpt lat="43.946755" lon="12.7396983"><ele>15.0</ele><time>2026-04-18T15:21:01.89Z</time></trkpt><trkpt lat="43.9468233" lon="12.7397967"><ele>15.0</ele><time>2026-04-18T15:21:02.888Z</time></trkpt><trkpt lat="43.9468967" lon="12.7399017"><ele>15.0</ele><time>2026-04-18T15:21:03.887Z</time></trkpt><trkpt lat="43.9469717" lon="12.740005"><ele>15.0</ele><time>2026-04-18T15:21:04.889Z</time></trkpt><trkpt lat="43.9470567" lon="12.7401083"><ele>15.0</ele><time>2026-04-18T15:21:05.888Z</time></trkpt><trkpt lat="43.9471367" lon="12.7402117"><ele>15.0</ele><time>2026-04-18T15:21:06.888Z</time></trkpt><trkpt lat="43.9472233" lon="12.740315"><ele>15.0</ele><time>2026-04-18T15:21:07.889Z</time></trkpt><trkpt lat="43.9473117" lon="12.7404167"><ele>15.0</ele><time>2026-04-18T15:21:08.889Z</time></trkpt><trkpt lat="43.947405" lon="12.7405183"><ele>15.25</ele><time>2026-04-18T15:21:09.885Z</time></trkpt><trkpt lat="43.9475" lon="12.7406233"><ele>15.5</ele><time>2026-04-18T15:21:10.888Z</time></trkpt><trkpt lat="43.9476" lon="12.7407333"><ele>15.75</ele><time>2026-04-18T15:21:11.889Z</time></trkpt><trkpt lat="43.9477" lon="12.7408583"><ele>16.0</ele><time>2026-04-18T15:21:12.886Z</time></trkpt><trkpt lat="43.9478" lon="12.7409817"><ele>16.0</ele><time>2026-04-18T15:21:13.889Z</time></trkpt><trkpt lat="43.947905" lon="12.74109"><ele>16.0</ele><time>2026-04-18T15:21:14.888Z</time></trkpt><trkpt lat="43.9480117" lon="12.7411917"><ele>16.0</ele><time>2026-04-18T15:21:15.89Z</time></trkpt><trkpt lat="43.9481217" lon="12.7412917"><ele>16.0</ele><time>2026-04-18T15:21:16.889Z</time></trkpt><trkpt lat="43.948235" lon="12.7413933"><ele>16.0</ele><time>2026-04-18T15:21:17.888Z</time></trkpt><trkpt lat="43.9483467" lon="12.741495"><ele>16.0</ele><time>2026-04-18T15:21:18.888Z</time></trkpt><trkpt lat="43.9484583" lon="12.7415933"><ele>16.0</ele><time>2026-04-18T15:21:19.889Z</time></trkpt><trkpt lat="43.9485733" lon="12.741695"><ele>16.0</ele><time>2026-04-18T15:21:20.889Z</time></trkpt><trkpt lat="43.9486917" lon="12.7417983"><ele>15.75</ele><time>2026-04-18T15:21:21.889Z</time></trkpt><trkpt lat="43.9488067" lon="12.7418967"><ele>15.5</ele><time>2026-04-18T15:21:22.888Z</time></trkpt><trkpt lat="43.9489117" lon="12.7419883"><ele>15.25</ele><time>2026-04-18T15:21:23.888Z</time></trkpt><trkpt lat="43.9490067" lon="12.7420683"><ele>15.0</ele><time>2026-04-18T15:21:24.888Z</time></trkpt><trkpt lat="43.949085" lon="12.742135"><ele>15.0</ele><time>2026-04-18T15:21:25.888Z</time></trkpt><trkpt lat="43.949145" lon="12.7421917"><ele>15.0</ele><time>2026-04-18T15:21:26.888Z</time></trkpt><trkpt lat="43.949215" lon="12.742275"><ele>15.0</ele><time>2026-04-18T15:21:28.888Z</time></trkpt><trkpt lat="43.94926" lon="12.7423933"><ele>15.0</ele><time>2026-04-18T15:21:30.886Z</time></trkpt><trkpt lat="43.949335" lon="12.742495"><ele>15.0</ele><time>2026-04-18T15:21:32.885Z</time></trkpt><trkpt lat="43.9493933" lon="12.74254"><ele>15.0</ele><time>2026-04-18T15:21:33.885Z</time></trkpt><trkpt lat="43.9494583" lon="12.7425767"><ele>15.0</ele><time>2026-04-18T15:21:34.886Z</time></trkpt><trkpt lat="43.949515" lon="12.7426233"><ele>15.0</ele><time>2026-04-18T15:21:35.888Z</time></trkpt><trkpt lat="43.9496017" lon="12.7427083"><ele>15.0</ele><time>2026-04-18T15:21:37.887Z</time></trkpt><trkpt lat="43.94958" lon="12.7426"><ele>15.0</ele><time>2026-04-18T15:21:43.887Z</time></trkpt><trkpt lat="43.94954" lon="12.7424817"><ele>15.0</ele><time>2026-04-18T15:21:45.889Z</time></trkpt><trkpt lat="43.949505" lon="12.7423517"><ele>15.0</ele><time>2026-04-18T15:21:47.891Z</time></trkpt><trkpt lat="43.949455" lon="12.7422467"><ele>15.0</ele><time>2026-04-18T15:21:49.888Z</time></trkpt><trkpt lat="43.94936" lon="12.74221"><ele>15.0</ele><time>2026-04-18T15:21:51.886Z</time></trkpt><trkpt lat="43.949285" lon="12.7423067"><ele>15.0</ele><time>2026-04-18T15:21:53.889Z</time></trkpt><trkpt lat="43.9493033" lon="12.7424533"><ele>15.0</ele><time>2026-04-18T15:21:55.889Z</time></trkpt><trkpt lat="43.94939" lon="12.7425217"><ele>15.0</ele><time>2026-04-18T15:21:57.885Z</time></trkpt><trkpt lat="43.94945" lon="12.742485"><ele>15.0</ele><time>2026-04-18T15:21:58.886Z</time></trkpt><trkpt lat="43.9495033" lon="12.74241"><ele>15.0</ele><time>2026-04-18T15:21:59.888Z</time></trkpt><trkpt lat="43.9495433" lon="12.7423167"><ele>15.0</ele><time>2026-04-18T15:22:00.887Z</time></trkpt><trkpt lat="43.9495933" lon="12.7422233"><ele>15.0</ele><time>2026-04-18T15:22:01.891Z</time></trkpt><trkpt lat="43.949665" lon="12.7421433"><ele>15.0</ele><time>2026-04-18T15:22:02.887Z</time></trkpt><trkpt lat="43.94975" lon="12.742075"><ele>15.0</ele><time>2026-04-18T15:22:03.887Z</time></trkpt><trkpt lat="43.949835" lon="12.7420167"><ele>15.0</ele><time>2026-04-18T15:22:04.888Z</time></trkpt><trkpt lat="43.9499217" lon="12.7419617"><ele>15.0</ele><time>2026-04-18T15:22:05.887Z</time></trkpt><trkpt lat="43.9500117" lon="12.7419083"><ele>15.0</ele><time>2026-04-18T15:22:06.889Z</time></trkpt><trkpt lat="43.950105" lon="12.7418567"><ele>15.0</ele><time>2026-04-18T15:22:07.888Z</time></trkpt><trkpt lat="43.9502017" lon="12.7418"><ele>15.0</ele><time>2026-04-18T15:22:08.887Z</time></trkpt><trkpt lat="43.9503" lon="12.74174"><ele>14.75</ele><time>2026-04-18T15:22:09.892Z</time></trkpt><trkpt lat="43.950405" lon="12.7416733"><ele>14.5</ele><time>2026-04-18T15:22:10.888Z</time></trkpt><trkpt lat="43.950515" lon="12.7416033"><ele>14.25</ele><time>2026-04-18T15:22:11.888Z</time></trkpt><trkpt lat="43.9506283" lon="12.741535"><ele>14.0</ele><time>2026-04-18T15:22:12.888Z</time></trkpt><trkpt lat="43.9507517" lon="12.7414633"><ele>14.0</ele><time>2026-04-18T15:22:13.891Z</time></trkpt><trkpt lat="43.9508733" lon="12.741385"><ele>14.0</ele><time>2026-04-18T15:22:14.888Z</time></trkpt><trkpt lat="43.9509967" lon="12.74131"><ele>14.0</ele><time>2026-04-18T15:22:15.889Z</time></trkpt><trkpt lat="43.9511217" lon="12.741235"><ele>14.0</ele><time>2026-04-18T15:22:16.888Z</time></trkpt><trkpt lat="43.951245" lon="12.7411583"><ele>14.0</ele><time>2026-04-18T15:22:17.886Z</time></trkpt><trkpt lat="43.9513733" lon="12.74108"><ele>14.0</ele><time>2026-04-18T15:22:18.889Z</time></trkpt><trkpt lat="43.9515033" lon="12.7410033"><ele>14.0</ele><time>2026-04-18T15:22:19.887Z</time></trkpt><trkpt lat="43.95163" lon="12.7409283"><ele>14.0</ele><time>2026-04-18T15:22:20.889Z</time></trkpt><trkpt lat="43.9517533" lon="12.7408517"><ele>13.75</ele><time>2026-04-18T15:22:21.887Z</time></trkpt><trkpt lat="43.951865" lon="12.7407733"><ele>13.5</ele><time>2026-04-18T15:22:22.887Z</time></trkpt><trkpt lat="43.9519583" lon="12.7406817"><ele>13.25</ele><time>2026-04-18T15:22:23.887Z</time></trkpt><trkpt lat="43.9520317" lon="12.7405717"><ele>13.0</ele><time>2026-04-18T15:22:24.887Z</time></trkpt><trkpt lat="43.9520867" lon="12.7404517"><ele>12.999999999999998</ele><time>2026-04-18T15:22:25.888Z</time></trkpt><trkpt lat="43.9521217" lon="12.7403317"><ele>13.0</ele><time>2026-04-18T15:22:26.886Z</time></trkpt><trkpt lat="43.95214" lon="12.7402133"><ele>13.0</ele><time>2026-04-18T15:22:27.887Z</time></trkpt><trkpt lat="43.95215" lon="12.7401083"><ele>13.0</ele><time>2026-04-18T15:22:28.886Z</time></trkpt><trkpt lat="43.9521567" lon="12.7400183"><ele>12.999999999999998</ele><time>2026-04-18T15:22:29.886Z</time></trkpt><trkpt lat="43.9522017" lon="12.7399167"><ele>13.0</ele><time>2026-04-18T15:22:31.887Z</time></trkpt><trkpt lat="43.95226" lon="12.7399617"><ele>12.999999999999998</ele><time>2026-04-18T15:22:33.887Z</time></trkpt><trkpt lat="43.9523183" lon="12.740055"><ele>13.0</ele><time>2026-04-18T15:22:34.889Z</time></trkpt><trkpt lat="43.95238" lon="12.7401383"><ele>13.0</ele><time>2026-04-18T15:22:35.889Z</time></trkpt><trkpt lat="43.9524433" lon="12.7402233"><ele>13.0</ele><time>2026-04-18T15:22:36.889Z</time></trkpt><trkpt lat="43.952505" lon="12.7403117"><ele>12.999999999999998</ele><time>2026-04-18T15:22:37.889Z</time></trkpt><trkpt lat="43.9525667" lon="12.740395"><ele>13.0</ele><time>2026-04-18T15:22:38.89Z</time></trkpt><trkpt lat="43.9526283" lon="12.7404717"><ele>13.4</ele><time>2026-04-18T15:22:39.888Z</time></trkpt><trkpt lat="43.9526883" lon="12.7405517"><ele>13.8</ele><time>2026-04-18T15:22:40.887Z</time></trkpt><trkpt lat="43.9527517" lon="12.740635"><ele>14.2</ele><time>2026-04-18T15:22:41.89Z</time></trkpt><trkpt lat="43.9528183" lon="12.7407233"><ele>14.6</ele><time>2026-04-18T15:22:42.888Z</time></trkpt><trkpt lat="43.952895" lon="12.7408183"><ele>15.0</ele><time>2026-04-18T15:22:43.89Z</time></trkpt><trkpt lat="43.9529817" lon="12.7409233"><ele>15.0</ele><time>2026-04-18T15:22:44.889Z</time></trkpt><trkpt lat="43.9530783" lon="12.7410417"><ele>15.0</ele><time>2026-04-18T15:22:45.888Z</time></trkpt><trkpt lat="43.95318" lon="12.7411683"><ele>15.0</ele><time>2026-04-18T15:22:46.888Z</time></trkpt><trkpt lat="43.9532867" lon="12.7413033"><ele>15.0</ele><time>2026-04-18T15:22:47.887Z</time></trkpt><trkpt lat="43.9533933" lon="12.7414383"><ele>14.5</ele><time>2026-04-18T15:22:48.888Z</time></trkpt><trkpt lat="43.9534917" lon="12.7415633"><ele>14.0</ele><time>2026-04-18T15:22:49.889Z</time></trkpt><trkpt lat="43.9535883" lon="12.7416817"><ele>13.5</ele><time>2026-04-18T15:22:50.89Z</time></trkpt><trkpt lat="43.953685" lon="12.741805"><ele>13.0</ele><time>2026-04-18T15:22:51.888Z</time></trkpt><trkpt lat="43.9537833" lon="12.7419317"><ele>13.0</ele><time>2026-04-18T15:22:52.887Z</time></trkpt><trkpt lat="43.953885" lon="12.7420633"><ele>13.0</ele><time>2026-04-18T15:22:53.886Z</time></trkpt><trkpt lat="43.9539883" lon="12.7421933"><ele>13.0</ele><time>2026-04-18T15:22:54.892Z</time></trkpt><trkpt lat="43.954085" lon="12.742315"><ele>13.0</ele><time>2026-04-18T15:22:55.887Z</time></trkpt><trkpt lat="43.95417" lon="12.7424217"><ele>13.2</ele><time>2026-04-18T15:22:56.888Z</time></trkpt><trkpt lat="43.9542383" lon="12.742515"><ele>13.4</ele><time>2026-04-18T15:22:57.889Z</time></trkpt><trkpt lat="43.9542933" lon="12.74259"><ele>13.599999999999998</ele><time>2026-04-18T15:22:58.885Z</time></trkpt><trkpt lat="43.9543517" lon="12.742665"><ele>13.799999999999999</ele><time>2026-04-18T15:23:00.89Z</time></trkpt><trkpt lat="43.954425" lon="12.7426483"><ele>14.0</ele><time>2026-04-18T15:23:03.885Z</time></trkpt><trkpt lat="43.9545217" lon="12.7425283"><ele>14.0</ele><time>2026-04-18T15:23:05.887Z</time></trkpt><trkpt lat="43.9545783" lon="12.7424233"><ele>13.999999999999998</ele><time>2026-04-18T15:23:06.886Z</time></trkpt><trkpt lat="43.9546383" lon="12.74232"><ele>13.999999999999998</ele><time>2026-04-18T15:23:07.888Z</time></trkpt><trkpt lat="43.9546983" lon="12.7422133"><ele>14.0</ele><time>2026-04-18T15:23:08.887Z</time></trkpt><trkpt lat="43.9547567" lon="12.7420983"><ele>14.0</ele><time>2026-04-18T15:23:09.889Z</time></trkpt><trkpt lat="43.95482" lon="12.7419633"><ele>14.0</ele><time>2026-04-18T15:23:10.888Z</time></trkpt><trkpt lat="43.95489" lon="12.74182"><ele>14.0</ele><time>2026-04-18T15:23:11.888Z</time></trkpt><trkpt lat="43.9549633" lon="12.7416767"><ele>14.0</ele><time>2026-04-18T15:23:12.888Z</time></trkpt><trkpt lat="43.9550333" lon="12.7415367"><ele>14.0</ele><time>2026-04-18T15:23:13.885Z</time></trkpt><trkpt lat="43.9550967" lon="12.741415"><ele>14.000000000000002</ele><time>2026-04-18T15:23:14.89Z</time></trkpt><trkpt lat="43.9551567" lon="12.7413033"><ele>14.0</ele><time>2026-04-18T15:23:15.886Z</time></trkpt><trkpt lat="43.9552133" lon="12.74121"><ele>14.0</ele><time>2026-04-18T15:23:16.888Z</time></trkpt><trkpt lat="43.9552617" lon="12.74114"><ele>14.0</ele><time>2026-04-18T15:23:17.888Z</time></trkpt><trkpt lat="43.95535" lon="12.741105"><ele>14.000000000000002</ele><time>2026-04-18T15:23:19.888Z</time></trkpt><trkpt lat="43.9554133" lon="12.7411467"><ele>14.0</ele><time>2026-04-18T15:23:20.887Z</time></trkpt><trkpt lat="43.9554733" lon="12.7412017"><ele>14.0</ele><time>2026-04-18T15:23:21.887Z</time></trkpt><trkpt lat="43.9555583" lon="12.7413067"><ele>14.0</ele><time>2026-04-18T15:23:22.888Z</time></trkpt><trkpt lat="43.955655" lon="12.74143"><ele>14.0</ele><time>2026-04-18T15:23:23.889Z</time></trkpt><trkpt lat="43.9557683" lon="12.74157"><ele>14.0</ele><time>2026-04-18T15:23:24.888Z</time></trkpt><trkpt lat="43.95587" lon="12.7417133"><ele>13.5</ele><time>2026-04-18T15:23:25.889Z</time></trkpt><trkpt lat="43.9559783" lon="12.741835"><ele>13.0</ele><time>2026-04-18T15:23:26.889Z</time></trkpt><trkpt lat="43.9560833" lon="12.7419667"><ele>12.5</ele><time>2026-04-18T15:23:27.889Z</time></trkpt><trkpt lat="43.9561883" lon="12.7420867"><ele>12.0</ele><time>2026-04-18T15:23:28.887Z</time></trkpt><trkpt lat="43.9562967" lon="12.7422133"><ele>12.0</ele><time>2026-04-18T15:23:29.889Z</time></trkpt><trkpt lat="43.9563983" lon="12.742335"><ele>12.0</ele><time>2026-04-18T15:23:30.889Z</time></trkpt><trkpt lat="43.9564967" lon="12.7424467"><ele>12.0</ele><time>2026-04-18T15:23:31.888Z</time></trkpt><trkpt lat="43.95659" lon="12.7425517"><ele>12.0</ele><time>2026-04-18T15:23:32.887Z</time></trkpt><trkpt lat="43.9566833" lon="12.7426567"><ele>12.2</ele><time>2026-04-18T15:23:33.888Z</time></trkpt><trkpt lat="43.956765" lon="12.7427567"><ele>12.399999999999999</ele><time>2026-04-18T15:23:34.886Z</time></trkpt><trkpt lat="43.9568383" lon="12.7428533"><ele>12.600000000000001</ele><time>2026-04-18T15:23:35.887Z</time></trkpt><trkpt lat="43.95691" lon="12.7429233"><ele>12.8</ele><time>2026-04-18T15:23:36.885Z</time></trkpt><trkpt lat="43.956975" lon="12.7429967"><ele>13.0</ele><time>2026-04-18T15:23:37.887Z</time></trkpt><trkpt lat="43.9570333" lon="12.7430667"><ele>13.0</ele><time>2026-04-18T15:23:38.89Z</time></trkpt><trkpt lat="43.957085" lon="12.74313"><ele>13.0</ele><time>2026-04-18T15:23:39.886Z</time></trkpt><trkpt lat="43.95717" lon="12.743225"><ele>13.0</ele><time>2026-04-18T15:23:41.886Z</time></trkpt><trkpt lat="43.957235" lon="12.7432367"><ele>13.0</ele><time>2026-04-18T15:23:44.888Z</time></trkpt><trkpt lat="43.9572733" lon="12.7431383"><ele>13.0</ele><time>2026-04-18T15:23:47.886Z</time></trkpt><trkpt lat="43.957335" lon="12.742985"><ele>13.0</ele><time>2026-04-18T15:23:49.885Z</time></trkpt><trkpt lat="43.9573767" lon="12.7428867"><ele>13.0</ele><time>2026-04-18T15:23:50.887Z</time></trkpt><trkpt lat="43.9574267" lon="12.7427783"><ele>13.0</ele><time>2026-04-18T15:23:51.885Z</time></trkpt><trkpt lat="43.9574767" lon="12.7426633"><ele>13.0</ele><time>2026-04-18T15:23:52.886Z</time></trkpt><trkpt lat="43.9575317" lon="12.742535"><ele>13.0</ele><time>2026-04-18T15:23:53.888Z</time></trkpt><trkpt lat="43.95759" lon="12.7424067"><ele>13.0</ele><time>2026-04-18T15:23:54.888Z</time></trkpt><trkpt lat="43.9576433" lon="12.7422833"><ele>13.0</ele><time>2026-04-18T15:23:55.886Z</time></trkpt><trkpt lat="43.957695" lon="12.74217"><ele>13.0</ele><time>2026-04-18T15:23:56.885Z</time></trkpt><trkpt lat="43.957745" lon="12.74206"><ele>13.0</ele><time>2026-04-18T15:23:57.885Z</time></trkpt><trkpt lat="43.95779" lon="12.74196"><ele>13.0</ele><time>2026-04-18T15:23:58.886Z</time></trkpt><trkpt lat="43.95783" lon="12.7418683"><ele>12.999999999999998</ele><time>2026-04-18T15:23:59.887Z</time></trkpt><trkpt lat="43.957865" lon="12.7417833"><ele>13.0</ele><time>2026-04-18T15:24:00.886Z</time></trkpt><trkpt lat="43.9579283" lon="12.7416633"><ele>13.0</ele><time>2026-04-18T15:24:02.886Z</time></trkpt><trkpt lat="43.958" lon="12.74162"><ele>13.0</ele><time>2026-04-18T15:24:05.889Z</time></trkpt><trkpt lat="43.9580733" lon="12.7416733"><ele>12.999999999999998</ele><time>2026-04-18T15:24:07.886Z</time></trkpt><trkpt lat="43.9581483" lon="12.7417367"><ele>13.0</ele><time>2026-04-18T15:24:08.886Z</time></trkpt><trkpt lat="43.958225" lon="12.7418117"><ele>12.833333333333332</ele><time>2026-04-18T15:24:09.886Z</time></trkpt><trkpt lat="43.9582967" lon="12.7418933"><ele>12.666666666666666</ele><time>2026-04-18T15:24:10.885Z</time></trkpt><trkpt lat="43.9583633" lon="12.74196"><ele>12.5</ele><time>2026-04-18T15:24:11.886Z</time></trkpt><trkpt lat="43.9584333" lon="12.742015"><ele>12.333333333333332</ele><time>2026-04-18T15:24:12.887Z</time></trkpt><trkpt lat="43.95849" lon="12.742065"><ele>12.166666666666666</ele><time>2026-04-18T15:24:13.887Z</time></trkpt><trkpt lat="43.9585583" lon="12.7421217"><ele>12.0</ele><time>2026-04-18T15:24:15.885Z</time></trkpt><trkpt lat="43.9585983" lon="12.7422383"><ele>11.833333333333334</ele><time>2026-04-18T15:24:17.887Z</time></trkpt><trkpt lat="43.95862" lon="12.742335"><ele>11.666666666666666</ele><time>2026-04-18T15:24:19.89Z</time></trkpt><trkpt lat="43.9586317" lon="12.742455"><ele>11.5</ele><time>2026-04-18T15:24:21.885Z</time></trkpt><trkpt lat="43.9586017" lon="12.7425633"><ele>11.333333333333332</ele><time>2026-04-18T15:24:23.887Z</time></trkpt><trkpt lat="43.958555" lon="12.742705"><ele>11.166666666666666</ele><time>2026-04-18T15:24:25.887Z</time></trkpt><trkpt lat="43.958525" lon="12.7427883"><ele>11.0</ele><time>2026-04-18T15:24:26.886Z</time></trkpt><trkpt lat="43.9584817" lon="12.7428867"><ele>11.0</ele><time>2026-04-18T15:24:27.885Z</time></trkpt><trkpt lat="43.9584417" lon="12.74299"><ele>11.0</ele><time>2026-04-18T15:24:28.885Z</time></trkpt><trkpt lat="43.9583883" lon="12.7431083"><ele>11.0</ele><time>2026-04-18T15:24:29.888Z</time></trkpt><trkpt lat="43.9583383" lon="12.743235"><ele>11.0</ele><time>2026-04-18T15:24:30.886Z</time></trkpt><trkpt lat="43.95828" lon="12.74337"><ele>11.0</ele><time>2026-04-18T15:24:31.888Z</time></trkpt><trkpt lat="43.958225" lon="12.7435017"><ele>11.200000000000001</ele><time>2026-04-18T15:24:32.885Z</time></trkpt><trkpt lat="43.95817" lon="12.7436367"><ele>11.4</ele><time>2026-04-18T15:24:33.888Z</time></trkpt><trkpt lat="43.9581217" lon="12.7437667"><ele>11.6</ele><time>2026-04-18T15:24:34.888Z</time></trkpt><trkpt lat="43.9580717" lon="12.7438883"><ele>11.8</ele><time>2026-04-18T15:24:35.889Z</time></trkpt><trkpt lat="43.9580217" lon="12.74401"><ele>12.0</ele><time>2026-04-18T15:24:36.887Z</time></trkpt><trkpt lat="43.95797" lon="12.7441317"><ele>12.0</ele><time>2026-04-18T15:24:37.889Z</time></trkpt><trkpt lat="43.95792" lon="12.7442467"><ele>12.0</ele><time>2026-04-18T15:24:38.887Z</time></trkpt><trkpt lat="43.9578717" lon="12.744355"><ele>12.0</ele><time>2026-04-18T15:24:39.886Z</time></trkpt><trkpt lat="43.95782" lon="12.7444617"><ele>12.0</ele><time>2026-04-18T15:24:40.885Z</time></trkpt><trkpt lat="43.9577717" lon="12.74457"><ele>12.0</ele><time>2026-04-18T15:24:41.888Z</time></trkpt><trkpt lat="43.957725" lon="12.7446833"><ele>12.2</ele><time>2026-04-18T15:24:42.887Z</time></trkpt><trkpt lat="43.9576767" lon="12.7447917"><ele>12.399999999999999</ele><time>2026-04-18T15:24:43.887Z</time></trkpt><trkpt lat="43.9576333" lon="12.744895"><ele>12.600000000000001</ele><time>2026-04-18T15:24:44.891Z</time></trkpt><trkpt lat="43.957585" lon="12.7450067"><ele>12.8</ele><time>2026-04-18T15:24:45.886Z</time></trkpt><trkpt lat="43.9575367" lon="12.745115"><ele>13.0</ele><time>2026-04-18T15:24:46.888Z</time></trkpt><trkpt lat="43.95749" lon="12.7452217"><ele>12.4</ele><time>2026-04-18T15:24:47.89Z</time></trkpt><trkpt lat="43.9574433" lon="12.7453317"><ele>11.8</ele><time>2026-04-18T15:24:48.888Z</time></trkpt><trkpt lat="43.9573933" lon="12.7454417"><ele>11.2</ele><time>2026-04-18T15:24:49.889Z</time></trkpt><trkpt lat="43.95734" lon="12.7455517"><ele>10.6</ele><time>2026-04-18T15:24:50.886Z</time></trkpt><trkpt lat="43.95729" lon="12.7456617"><ele>10.0</ele><time>2026-04-18T15:24:51.886Z</time></trkpt><trkpt lat="43.9572433" lon="12.7457683"><ele>10.0</ele><time>2026-04-18T15:24:52.885Z</time></trkpt><trkpt lat="43.9572" lon="12.745865"><ele>10.0</ele><time>2026-04-18T15:24:53.886Z</time></trkpt><trkpt lat="43.9571583" lon="12.7459567"><ele>10.0</ele><time>2026-04-18T15:24:54.886Z</time></trkpt><trkpt lat="43.9571183" lon="12.74604"><ele>10.0</ele><time>2026-04-18T15:24:55.887Z</time></trkpt><trkpt lat="43.9570783" lon="12.7461233"><ele>10.0</ele><time>2026-04-18T15:24:56.887Z</time></trkpt><trkpt lat="43.957045" lon="12.7462"><ele>10.0</ele><time>2026-04-18T15:24:57.886Z</time></trkpt><trkpt lat="43.9570083" lon="12.7462733"><ele>10.0</ele><time>2026-04-18T15:24:58.885Z</time></trkpt><trkpt lat="43.956945" lon="12.746405"><ele>10.2</ele><time>2026-04-18T15:25:00.887Z</time></trkpt><trkpt lat="43.956905" lon="12.7464833"><ele>10.4</ele><time>2026-04-18T15:25:01.887Z</time></trkpt><trkpt lat="43.956855" lon="12.74658"><ele>10.600000000000001</ele><time>2026-04-18T15:25:02.887Z</time></trkpt><trkpt lat="43.9568083" lon="12.746685"><ele>10.8</ele><time>2026-04-18T15:25:03.885Z</time></trkpt><trkpt lat="43.95675" lon="12.7468033"><ele>11.0</ele><time>2026-04-18T15:25:04.885Z</time></trkpt><trkpt lat="43.95668" lon="12.7469467"><ele>11.200000000000001</ele><time>2026-04-18T15:25:05.886Z</time></trkpt><trkpt lat="43.9566183" lon="12.7470783"><ele>11.4</ele><time>2026-04-18T15:25:06.886Z</time></trkpt><trkpt lat="43.95656" lon="12.74721"><ele>11.6</ele><time>2026-04-18T15:25:07.887Z</time></trkpt><trkpt lat="43.95651" lon="12.747345"><ele>11.8</ele><time>2026-04-18T15:25:08.885Z</time></trkpt><trkpt lat="43.9564583" lon="12.7474767"><ele>12.0</ele><time>2026-04-18T15:25:09.886Z</time></trkpt><trkpt lat="43.956425" lon="12.74759"><ele>12.0</ele><time>2026-04-18T15:25:10.886Z</time></trkpt><trkpt lat="43.9563833" lon="12.74771"><ele>12.0</ele><time>2026-04-18T15:25:11.887Z</time></trkpt><trkpt lat="43.9563567" lon="12.7478067"><ele>12.0</ele><time>2026-04-18T15:25:12.885Z</time></trkpt><trkpt lat="43.9563533" lon="12.7478967"><ele>12.0</ele><time>2026-04-18T15:25:13.886Z</time></trkpt><trkpt lat="43.9564217" lon="12.7480367"><ele>12.0</ele><time>2026-04-18T15:25:15.888Z</time></trkpt><trkpt lat="43.9564867" lon="12.7481067"><ele>12.0</ele><time>2026-04-18T15:25:16.886Z</time></trkpt><trkpt lat="43.9565683" lon="12.7481833"><ele>11.75</ele><time>2026-04-18T15:25:17.886Z</time></trkpt><trkpt lat="43.9566583" lon="12.74827"><ele>11.5</ele><time>2026-04-18T15:25:18.886Z</time></trkpt><trkpt lat="43.956755" lon="12.7483683"><ele>11.25</ele><time>2026-04-18T15:25:19.887Z</time></trkpt><trkpt lat="43.956865" lon="12.74848"><ele>11.0</ele><time>2026-04-18T15:25:20.886Z</time></trkpt><trkpt lat="43.9569717" lon="12.7485917"><ele>10.5</ele><time>2026-04-18T15:25:21.886Z</time></trkpt><trkpt lat="43.9570833" lon="12.748705"><ele>10.0</ele><time>2026-04-18T15:25:22.885Z</time></trkpt><trkpt lat="43.9571983" lon="12.7488183"><ele>9.5</ele><time>2026-04-18T15:25:23.89Z</time></trkpt><trkpt lat="43.957315" lon="12.7489517"><ele>9.0</ele><time>2026-04-18T15:25:24.89Z</time></trkpt><trkpt lat="43.9574283" lon="12.7491017"><ele>9.0</ele><time>2026-04-18T15:25:25.89Z</time></trkpt><trkpt lat="43.9575333" lon="12.7492483"><ele>9.0</ele><time>2026-04-18T15:25:26.886Z</time></trkpt><trkpt lat="43.957635" lon="12.7493917"><ele>9.0</ele><time>2026-04-18T15:25:27.888Z</time></trkpt><trkpt lat="43.9577483" lon="12.7495217"><ele>9.0</ele><time>2026-04-18T15:25:28.887Z</time></trkpt><trkpt lat="43.9578683" lon="12.7496483"><ele>8.5</ele><time>2026-04-18T15:25:29.887Z</time></trkpt><trkpt lat="43.958" lon="12.7497667"><ele>8.0</ele><time>2026-04-18T15:25:30.886Z</time></trkpt><trkpt lat="43.958125" lon="12.7498667"><ele>7.5</ele><time>2026-04-18T15:25:31.887Z</time></trkpt><trkpt lat="43.9582317" lon="12.7499567"><ele>7.0</ele><time>2026-04-18T15:25:32.886Z</time></trkpt><trkpt lat="43.9583217" lon="12.750025"><ele>7.000000000000001</ele><time>2026-04-18T15:25:33.885Z</time></trkpt><trkpt lat="43.95839" lon="12.75009"><ele>7.0</ele><time>2026-04-18T15:25:34.888Z</time></trkpt><trkpt lat="43.9584517" lon="12.750155"><ele>7.0</ele><time>2026-04-18T15:25:35.888Z</time></trkpt><trkpt lat="43.9585017" lon="12.750215"><ele>7.0</ele><time>2026-04-18T15:25:36.888Z</time></trkpt><trkpt lat="43.95855" lon="12.750275"><ele>7.000000000000001</ele><time>2026-04-18T15:25:37.888Z</time></trkpt><trkpt lat="43.9586567" lon="12.750325"><ele>7.0</ele><time>2026-04-18T15:25:39.885Z</time></trkpt><trkpt lat="43.95876" lon="12.7502817"><ele>7.0</ele><time>2026-04-18T15:25:41.888Z</time></trkpt><trkpt lat="43.9588867" lon="12.75024"><ele>6.999999999999999</ele><time>2026-04-18T15:25:43.888Z</time></trkpt><trkpt lat="43.9589667" lon="12.7502333"><ele>6.999999999999999</ele><time>2026-04-18T15:25:44.885Z</time></trkpt><trkpt lat="43.95905" lon="12.7502383"><ele>7.0</ele><time>2026-04-18T15:25:45.886Z</time></trkpt><trkpt lat="43.95914" lon="12.7502517"><ele>7.0</ele><time>2026-04-18T15:25:46.886Z</time></trkpt><trkpt lat="43.9592383" lon="12.7502783"><ele>7.6</ele><time>2026-04-18T15:25:47.887Z</time></trkpt><trkpt lat="43.959345" lon="12.7503133"><ele>8.2</ele><time>2026-04-18T15:25:48.889Z</time></trkpt><trkpt lat="43.9594533" lon="12.7503567"><ele>8.8</ele><time>2026-04-18T15:25:49.888Z</time></trkpt><trkpt lat="43.9595567" lon="12.7503917"><ele>9.4</ele><time>2026-04-18T15:25:50.89Z</time></trkpt><trkpt lat="43.95966" lon="12.7504083"><ele>10.0</ele><time>2026-04-18T15:25:51.885Z</time></trkpt><trkpt lat="43.9597583" lon="12.7504017"><ele>10.0</ele><time>2026-04-18T15:25:52.888Z</time></trkpt><trkpt lat="43.959845" lon="12.7503867"><ele>10.0</ele><time>2026-04-18T15:25:53.886Z</time></trkpt><trkpt lat="43.9599217" lon="12.7503717"><ele>10.0</ele><time>2026-04-18T15:25:54.889Z</time></trkpt><trkpt lat="43.959985" lon="12.7503683"><ele>10.0</ele><time>2026-04-18T15:25:55.885Z</time></trkpt><trkpt lat="43.9600567" lon="12.7503867"><ele>10.0</ele><time>2026-04-18T15:25:57.886Z</time></trkpt><trkpt lat="43.9601033" lon="12.7504783"><ele>10.0</ele><time>2026-04-18T15:26:02.888Z</time></trkpt><trkpt lat="43.9601267" lon="12.7506217"><ele>9.8</ele><time>2026-04-18T15:26:05.885Z</time></trkpt><trkpt lat="43.9602317" lon="12.7507017"><ele>9.6</ele><time>2026-04-18T15:26:07.886Z</time></trkpt><trkpt lat="43.9603183" lon="12.7507367"><ele>9.4</ele><time>2026-04-18T15:26:08.888Z</time></trkpt><trkpt lat="43.960425" lon="12.7507733"><ele>9.2</ele><time>2026-04-18T15:26:09.885Z</time></trkpt><trkpt lat="43.9605333" lon="12.7508167"><ele>9.0</ele><time>2026-04-18T15:26:10.889Z</time></trkpt><trkpt lat="43.96065" lon="12.750845"><ele>9.0</ele><time>2026-04-18T15:26:11.89Z</time></trkpt><trkpt lat="43.9607667" lon="12.7508617"><ele>9.0</ele><time>2026-04-18T15:26:12.885Z</time></trkpt><trkpt lat="43.960875" lon="12.7508717"><ele>9.0</ele><time>2026-04-18T15:26:13.886Z</time></trkpt><trkpt lat="43.960975" lon="12.750885"><ele>9.0</ele><time>2026-04-18T15:26:14.885Z</time></trkpt><trkpt lat="43.9610717" lon="12.750905"><ele>9.0</ele><time>2026-04-18T15:26:15.886Z</time></trkpt><trkpt lat="43.9611617" lon="12.7509483"><ele>9.0</ele><time>2026-04-18T15:26:16.886Z</time></trkpt><trkpt lat="43.9612367" lon="12.75102"><ele>9.0</ele><time>2026-04-18T15:26:17.886Z</time></trkpt><trkpt lat="43.9613217" lon="12.7510917"><ele>9.0</ele><time>2026-04-18T15:26:18.886Z</time></trkpt><trkpt lat="43.9614117" lon="12.7511767"><ele>9.0</ele><time>2026-04-18T15:26:19.886Z</time></trkpt><trkpt lat="43.9615083" lon="12.7512583"><ele>9.0</ele><time>2026-04-18T15:26:20.885Z</time></trkpt><trkpt lat="43.9615983" lon="12.7513467"><ele>9.0</ele><time>2026-04-18T15:26:21.886Z</time></trkpt><trkpt lat="43.961695" lon="12.75143"><ele>9.0</ele><time>2026-04-18T15:26:22.885Z</time></trkpt><trkpt lat="43.9617867" lon="12.7515133"><ele>9.0</ele><time>2026-04-18T15:26:23.886Z</time></trkpt><trkpt lat="43.961885" lon="12.751605"><ele>9.0</ele><time>2026-04-18T15:26:24.887Z</time></trkpt><trkpt lat="43.9619867" lon="12.7516967"><ele>9.0</ele><time>2026-04-18T15:26:25.889Z</time></trkpt><trkpt lat="43.9620883" lon="12.7517917"><ele>9.0</ele><time>2026-04-18T15:26:26.886Z</time></trkpt><trkpt lat="43.9621917" lon="12.7518817"><ele>9.0</ele><time>2026-04-18T15:26:27.888Z</time></trkpt><trkpt lat="43.9622967" lon="12.7519733"><ele>9.0</ele><time>2026-04-18T15:26:28.885Z</time></trkpt><trkpt lat="43.962395" lon="12.7520633"><ele>9.0</ele><time>2026-04-18T15:26:29.889Z</time></trkpt><trkpt lat="43.9624883" lon="12.7521433"><ele>9.0</ele><time>2026-04-18T15:26:30.889Z</time></trkpt><trkpt lat="43.9625783" lon="12.7522217"><ele>9.0</ele><time>2026-04-18T15:26:31.89Z</time></trkpt><trkpt lat="43.9626667" lon="12.752295"><ele>9.0</ele><time>2026-04-18T15:26:32.887Z</time></trkpt><trkpt lat="43.962755" lon="12.75237"><ele>9.0</ele><time>2026-04-18T15:26:33.888Z</time></trkpt><trkpt lat="43.9628383" lon="12.7524433"><ele>9.0</ele><time>2026-04-18T15:26:34.889Z</time></trkpt><trkpt lat="43.9629183" lon="12.7525167"><ele>9.0</ele><time>2026-04-18T15:26:35.887Z</time></trkpt><trkpt lat="43.96299" lon="12.7525867"><ele>9.0</ele><time>2026-04-18T15:26:36.886Z</time></trkpt><trkpt lat="43.9630633" lon="12.752655"><ele>9.0</ele><time>2026-04-18T15:26:37.888Z</time></trkpt><trkpt lat="43.9631367" lon="12.7527217"><ele>9.0</ele><time>2026-04-18T15:26:38.887Z</time></trkpt><trkpt lat="43.9632117" lon="12.7527883"><ele>9.0</ele><time>2026-04-18T15:26:39.887Z</time></trkpt><trkpt lat="43.96329" lon="12.7528567"><ele>8.8</ele><time>2026-04-18T15:26:40.887Z</time></trkpt><trkpt lat="43.9633733" lon="12.752925"><ele>8.600000000000001</ele><time>2026-04-18T15:26:41.888Z</time></trkpt><trkpt lat="43.96347" lon="12.753005"><ele>8.4</ele><time>2026-04-18T15:26:42.888Z</time></trkpt><trkpt lat="43.96356" lon="12.7530833"><ele>8.200000000000001</ele><time>2026-04-18T15:26:43.889Z</time></trkpt><trkpt lat="43.9636417" lon="12.753155"><ele>8.0</ele><time>2026-04-18T15:26:44.885Z</time></trkpt><trkpt lat="43.96373" lon="12.7532317"><ele>7.999999999999999</ele><time>2026-04-18T15:26:45.885Z</time></trkpt><trkpt lat="43.9638067" lon="12.7533"><ele>8.0</ele><time>2026-04-18T15:26:46.885Z</time></trkpt><trkpt lat="43.9638783" lon="12.753365"><ele>8.0</ele><time>2026-04-18T15:26:47.886Z</time></trkpt><trkpt lat="43.963945" lon="12.75343"><ele>8.0</ele><time>2026-04-18T15:26:48.885Z</time></trkpt><trkpt lat="43.9640117" lon="12.7534917"><ele>7.999999999999999</ele><time>2026-04-18T15:26:49.888Z</time></trkpt><trkpt lat="43.964075" lon="12.75355"><ele>8.0</ele><time>2026-04-18T15:26:50.889Z</time></trkpt><trkpt lat="43.96413" lon="12.7536033"><ele>7.666666666666666</ele><time>2026-04-18T15:26:51.888Z</time></trkpt><trkpt lat="43.96419" lon="12.7536567"><ele>7.333333333333333</ele><time>2026-04-18T15:26:52.888Z</time></trkpt><trkpt lat="43.9642533" lon="12.7537167"><ele>7.0</ele><time>2026-04-18T15:26:53.889Z</time></trkpt><trkpt lat="43.96432" lon="12.7537817"><ele>6.666666666666666</ele><time>2026-04-18T15:26:54.889Z</time></trkpt><trkpt lat="43.964385" lon="12.7538433"><ele>6.333333333333333</ele><time>2026-04-18T15:26:55.889Z</time></trkpt><trkpt lat="43.964445" lon="12.7539017"><ele>6.0</ele><time>2026-04-18T15:26:56.888Z</time></trkpt><trkpt lat="43.9645017" lon="12.753955"><ele>5.3999999999999995</ele><time>2026-04-18T15:26:57.89Z</time></trkpt><trkpt lat="43.9646033" lon="12.75404"><ele>4.8</ele><time>2026-04-18T15:26:59.885Z</time></trkpt><trkpt lat="43.9647" lon="12.754135"><ele>4.199999999999999</ele><time>2026-04-18T15:27:01.887Z</time></trkpt><trkpt lat="43.9647567" lon="12.754185"><ele>3.5999999999999996</ele><time>2026-04-18T15:27:02.886Z</time></trkpt><trkpt lat="43.9648133" lon="12.75424"><ele>3.0</ele><time>2026-04-18T15:27:03.887Z</time></trkpt><trkpt lat="43.9648767" lon="12.75431"><ele>3.4</ele><time>2026-04-18T15:27:04.885Z</time></trkpt><trkpt lat="43.9650033" lon="12.7544667"><ele>3.8</ele><time>2026-04-18T15:27:06.886Z</time></trkpt><trkpt lat="43.9650633" lon="12.7545467"><ele>4.2</ele><time>2026-04-18T15:27:07.887Z</time></trkpt><trkpt lat="43.9651133" lon="12.7546217"><ele>4.6</ele><time>2026-04-18T15:27:08.885Z</time></trkpt><trkpt lat="43.9651917" lon="12.754735"><ele>5.0</ele><time>2026-04-18T15:27:10.886Z</time></trkpt><trkpt lat="43.965265" lon="12.7548317"><ele>5.6</ele><time>2026-04-18T15:27:12.885Z</time></trkpt><trkpt lat="43.965355" lon="12.7549267"><ele>6.2</ele><time>2026-04-18T15:27:14.887Z</time></trkpt><trkpt lat="43.9654133" lon="12.7549817"><ele>6.800000000000001</ele><time>2026-04-18T15:27:15.886Z</time></trkpt><trkpt lat="43.9655383" lon="12.7550967"><ele>7.4</ele><time>2026-04-18T15:27:17.886Z</time></trkpt><trkpt lat="43.9656017" lon="12.7551517"><ele>8.0</ele><time>2026-04-18T15:27:18.887Z</time></trkpt><trkpt lat="43.9656683" lon="12.7552117"><ele>7.999999999999999</ele><time>2026-04-18T15:27:19.886Z</time></trkpt><trkpt lat="43.9657283" lon="12.7552633"><ele>8.0</ele><time>2026-04-18T15:27:20.885Z</time></trkpt><trkpt lat="43.965825" lon="12.755345"><ele>8.0</ele><time>2026-04-18T15:27:22.887Z</time></trkpt><trkpt lat="43.965875" lon="12.7554067"><ele>8.0</ele><time>2026-04-18T15:27:26.886Z</time></trkpt><trkpt lat="43.9659583" lon="12.7554717"><ele>7.999999999999999</ele><time>2026-04-18T15:27:30.887Z</time></trkpt><trkpt lat="43.96603" lon="12.7555233"><ele>8.0</ele><time>2026-04-18T15:27:32.886Z</time></trkpt><trkpt lat="43.9661067" lon="12.7555917"><ele>7.75</ele><time>2026-04-18T15:27:34.887Z</time></trkpt><trkpt lat="43.966205" lon="12.755675"><ele>7.5</ele><time>2026-04-18T15:27:36.886Z</time></trkpt><trkpt lat="43.9663" lon="12.7557583"><ele>7.25</ele><time>2026-04-18T15:27:38.887Z</time></trkpt><trkpt lat="43.9664133" lon="12.7558617"><ele>7.0</ele><time>2026-04-18T15:27:40.886Z</time></trkpt><trkpt lat="43.96651" lon="12.7559433"><ele>7.3999999999999995</ele><time>2026-04-18T15:27:42.886Z</time></trkpt><trkpt lat="43.966615" lon="12.7560383"><ele>7.799999999999999</ele><time>2026-04-18T15:27:44.886Z</time></trkpt><trkpt lat="43.9666667" lon="12.756095"><ele>8.2</ele><time>2026-04-18T15:27:45.885Z</time></trkpt><trkpt lat="43.9667067" lon="12.75624"><ele>8.6</ele><time>2026-04-18T15:27:47.886Z</time></trkpt><trkpt lat="43.96668" lon="12.756405"><ele>9.0</ele><time>2026-04-18T15:27:49.887Z</time></trkpt><trkpt lat="43.9666583" lon="12.75649"><ele>9.0</ele><time>2026-04-18T15:27:50.887Z</time></trkpt><trkpt lat="43.9666333" lon="12.7565767"><ele>9.0</ele><time>2026-04-18T15:27:51.887Z</time></trkpt><trkpt lat="43.966615" lon="12.7566667"><ele>9.0</ele><time>2026-04-18T15:27:52.887Z</time></trkpt><trkpt lat="43.9665883" lon="12.7567983"><ele>9.0</ele><time>2026-04-18T15:27:54.886Z</time></trkpt></trkseg></trk></gpx>